<?xml version="1.0" encoding="UTF-8" standalone="no" ?>
<gpx xmlns="http://www.topografix.com/GPX/1/1" xmlns:xsi="http://www.w3.org/2001/XMLSchema-instance" xsi:schemaLocation="http://www.topografix.com/GPX/1/1 http://www.topografix.com/GPX/1/1/gpx.xsd" version="1.1" creator="VisuGPX - https://www.visugpx.com">
  <metadata>
    <name>Randonnée Roncherolles</name>
    <desc><![CDATA[Circuit au départ du Lidl de Darnétal en passant par Fontaine sous Préaux et Roncherolles]]></desc>
  </metadata>
  <trk>
    <name><![CDATA[Randonnée Roncherolles_1]]></name>
    <trkseg>
      <trkpt lat="49.43904" lon="1.14496">
        <ele>20</ele>
        <time>2017-07-25T13:53:56Z</time>
      </trkpt>
      <trkpt lat="49.43904" lon="1.14497">
        <ele>20</ele>
        <time>2017-07-25T13:53:56Z</time>
      </trkpt>
      <trkpt lat="49.43908" lon="1.14504">
        <ele>20</ele>
        <time>2017-07-25T13:53:56Z</time>
      </trkpt>
      <trkpt lat="49.43911" lon="1.14508">
        <ele>20</ele>
        <time>2017-07-25T13:53:56Z</time>
      </trkpt>
      <trkpt lat="49.43923" lon="1.14518">
        <ele>20</ele>
        <time>2017-07-25T13:54:56Z</time>
      </trkpt>
      <trkpt lat="49.43923" lon="1.14518">
        <ele>20</ele>
        <time>2017-07-25T13:54:56Z</time>
      </trkpt>
      <trkpt lat="49.43923" lon="1.14518">
        <ele>20</ele>
        <time>2017-07-25T13:54:56Z</time>
      </trkpt>
      <trkpt lat="49.43923" lon="1.14518">
        <ele>20</ele>
        <time>2017-07-25T13:54:56Z</time>
      </trkpt>
      <trkpt lat="49.43923" lon="1.14518">
        <ele>20</ele>
        <time>2017-07-25T13:54:56Z</time>
      </trkpt>
      <trkpt lat="49.43923" lon="1.14518">
        <ele>20</ele>
        <time>2017-07-25T13:55:48Z</time>
      </trkpt>
      <trkpt lat="49.43923" lon="1.14518">
        <ele>20</ele>
        <time>2017-07-25T13:55:48Z</time>
      </trkpt>
      <trkpt lat="49.43923" lon="1.14518">
        <ele>20</ele>
        <time>2017-07-25T13:55:48Z</time>
      </trkpt>
      <trkpt lat="49.4393" lon="1.14518">
        <ele>20</ele>
        <time>2017-07-25T13:55:48Z</time>
      </trkpt>
      <trkpt lat="49.43935" lon="1.14525">
        <ele>20</ele>
        <time>2017-07-25T13:55:49Z</time>
      </trkpt>
      <trkpt lat="49.43944" lon="1.14523">
        <ele>20</ele>
        <time>2017-07-25T13:56:16Z</time>
      </trkpt>
      <trkpt lat="49.43946" lon="1.14523">
        <ele>20</ele>
        <time>2017-07-25T13:56:16Z</time>
      </trkpt>
      <trkpt lat="49.43949" lon="1.14521">
        <ele>20</ele>
        <time>2017-07-25T13:56:16Z</time>
      </trkpt>
      <trkpt lat="49.43957" lon="1.14523">
        <ele>20</ele>
        <time>2017-07-25T13:56:16Z</time>
      </trkpt>
      <trkpt lat="49.43962" lon="1.14525">
        <ele>23</ele>
        <time>2017-07-25T13:56:16Z</time>
      </trkpt>
      <trkpt lat="49.43967" lon="1.14524">
        <ele>23</ele>
        <time>2017-07-25T13:56:36Z</time>
      </trkpt>
      <trkpt lat="49.4397" lon="1.14523">
        <ele>23</ele>
        <time>2017-07-25T13:56:36Z</time>
      </trkpt>
      <trkpt lat="49.43973" lon="1.14526">
        <ele>23</ele>
        <time>2017-07-25T13:56:36Z</time>
      </trkpt>
      <trkpt lat="49.43974" lon="1.1453">
        <ele>23</ele>
        <time>2017-07-25T13:56:36Z</time>
      </trkpt>
      <trkpt lat="49.43977" lon="1.14529">
        <ele>23</ele>
        <time>2017-07-25T13:56:37Z</time>
      </trkpt>
      <trkpt lat="49.43981" lon="1.14527">
        <ele>23</ele>
        <time>2017-07-25T13:56:52Z</time>
      </trkpt>
      <trkpt lat="49.43983" lon="1.14525">
        <ele>23</ele>
        <time>2017-07-25T13:56:52Z</time>
      </trkpt>
      <trkpt lat="49.43984" lon="1.14524">
        <ele>23</ele>
        <time>2017-07-25T13:56:52Z</time>
      </trkpt>
      <trkpt lat="49.43992" lon="1.1452">
        <ele>23</ele>
        <time>2017-07-25T13:56:52Z</time>
      </trkpt>
      <trkpt lat="49.43997" lon="1.14518">
        <ele>23</ele>
        <time>2017-07-25T13:57:08Z</time>
      </trkpt>
      <trkpt lat="49.44003" lon="1.14516">
        <ele>23</ele>
        <time>2017-07-25T13:57:08Z</time>
      </trkpt>
      <trkpt lat="49.44007" lon="1.14514">
        <ele>23</ele>
        <time>2017-07-25T13:57:08Z</time>
      </trkpt>
      <trkpt lat="49.44009" lon="1.14514">
        <ele>23</ele>
        <time>2017-07-25T13:57:08Z</time>
      </trkpt>
      <trkpt lat="49.44009" lon="1.14515">
        <ele>23</ele>
        <time>2017-07-25T13:57:24Z</time>
      </trkpt>
      <trkpt lat="49.4401" lon="1.14516">
        <ele>23</ele>
        <time>2017-07-25T13:57:24Z</time>
      </trkpt>
      <trkpt lat="49.4401" lon="1.14516">
        <ele>23</ele>
        <time>2017-07-25T13:57:24Z</time>
      </trkpt>
      <trkpt lat="49.44018" lon="1.14519">
        <ele>23</ele>
        <time>2017-07-25T13:57:24Z</time>
      </trkpt>
      <trkpt lat="49.44024" lon="1.14519">
        <ele>23</ele>
        <time>2017-07-25T13:57:40Z</time>
      </trkpt>
      <trkpt lat="49.44031" lon="1.14521">
        <ele>23</ele>
        <time>2017-07-25T13:57:40Z</time>
      </trkpt>
      <trkpt lat="49.44037" lon="1.14517">
        <ele>23</ele>
        <time>2017-07-25T13:57:40Z</time>
      </trkpt>
      <trkpt lat="49.44039" lon="1.14516">
        <ele>23</ele>
        <time>2017-07-25T13:57:40Z</time>
      </trkpt>
      <trkpt lat="49.44044" lon="1.1451">
        <ele>23</ele>
        <time>2017-07-25T13:58:12Z</time>
      </trkpt>
      <trkpt lat="49.44046" lon="1.14507">
        <ele>23</ele>
        <time>2017-07-25T13:58:12Z</time>
      </trkpt>
      <trkpt lat="49.44046" lon="1.14505">
        <ele>23</ele>
        <time>2017-07-25T13:58:12Z</time>
      </trkpt>
      <trkpt lat="49.44055" lon="1.14501">
        <ele>23</ele>
        <time>2017-07-25T13:58:12Z</time>
      </trkpt>
      <trkpt lat="49.44057" lon="1.14498">
        <ele>23</ele>
        <time>2017-07-25T13:58:13Z</time>
      </trkpt>
      <trkpt lat="49.44063" lon="1.1449">
        <ele>23</ele>
        <time>2017-07-25T13:59:08Z</time>
      </trkpt>
      <trkpt lat="49.44061" lon="1.14478">
        <ele>23</ele>
        <time>2017-07-25T13:59:08Z</time>
      </trkpt>
      <trkpt lat="49.44061" lon="1.14463">
        <ele>23</ele>
        <time>2017-07-25T13:59:08Z</time>
      </trkpt>
      <trkpt lat="49.44064" lon="1.14456">
        <ele>28</ele>
        <time>2017-07-25T13:59:08Z</time>
      </trkpt>
      <trkpt lat="49.44064" lon="1.1445">
        <ele>28</ele>
        <time>2017-07-25T13:59:08Z</time>
      </trkpt>
      <trkpt lat="49.44068" lon="1.14447">
        <ele>28</ele>
        <time>2017-07-25T13:59:24Z</time>
      </trkpt>
      <trkpt lat="49.44076" lon="1.1444">
        <ele>28</ele>
        <time>2017-07-25T13:59:24Z</time>
      </trkpt>
      <trkpt lat="49.44082" lon="1.1444">
        <ele>28</ele>
        <time>2017-07-25T13:59:24Z</time>
      </trkpt>
      <trkpt lat="49.44087" lon="1.14435">
        <ele>28</ele>
        <time>2017-07-25T13:59:25Z</time>
      </trkpt>
      <trkpt lat="49.44084" lon="1.14432">
        <ele>28</ele>
        <time>2017-07-25T13:59:40Z</time>
      </trkpt>
      <trkpt lat="49.44088" lon="1.14421">
        <ele>28</ele>
        <time>2017-07-25T13:59:40Z</time>
      </trkpt>
      <trkpt lat="49.44089" lon="1.1442">
        <ele>28</ele>
        <time>2017-07-25T13:59:40Z</time>
      </trkpt>
      <trkpt lat="49.44093" lon="1.14416">
        <ele>28</ele>
        <time>2017-07-25T13:59:40Z</time>
      </trkpt>
      <trkpt lat="49.44095" lon="1.14415">
        <ele>28</ele>
        <time>2017-07-25T13:59:56Z</time>
      </trkpt>
      <trkpt lat="49.44097" lon="1.1441">
        <ele>28</ele>
        <time>2017-07-25T13:59:57Z</time>
      </trkpt>
      <trkpt lat="49.44097" lon="1.14405">
        <ele>28</ele>
        <time>2017-07-25T13:59:57Z</time>
      </trkpt>
      <trkpt lat="49.44103" lon="1.14402">
        <ele>28</ele>
        <time>2017-07-25T13:59:57Z</time>
      </trkpt>
      <trkpt lat="49.44118" lon="1.14378">
        <ele>28</ele>
        <time>2017-07-25T14:00:28Z</time>
      </trkpt>
      <trkpt lat="49.44123" lon="1.14379">
        <ele>28</ele>
        <time>2017-07-25T14:00:28Z</time>
      </trkpt>
      <trkpt lat="49.44125" lon="1.14378">
        <ele>28</ele>
        <time>2017-07-25T14:00:28Z</time>
      </trkpt>
      <trkpt lat="49.44126" lon="1.14377">
        <ele>36</ele>
        <time>2017-07-25T14:00:28Z</time>
      </trkpt>
      <trkpt lat="49.44128" lon="1.14378">
        <ele>36</ele>
        <time>2017-07-25T14:00:29Z</time>
      </trkpt>
      <trkpt lat="49.44128" lon="1.14377">
        <ele>36</ele>
        <time>2017-07-25T14:00:44Z</time>
      </trkpt>
      <trkpt lat="49.44126" lon="1.14368">
        <ele>48</ele>
        <time>2017-07-25T14:00:44Z</time>
      </trkpt>
      <trkpt lat="49.44125" lon="1.14362">
        <ele>48</ele>
        <time>2017-07-25T14:00:44Z</time>
      </trkpt>
      <trkpt lat="49.44128" lon="1.1436">
        <ele>48</ele>
        <time>2017-07-25T14:00:44Z</time>
      </trkpt>
      <trkpt lat="49.44127" lon="1.14362">
        <ele>48</ele>
        <time>2017-07-25T14:01:00Z</time>
      </trkpt>
      <trkpt lat="49.4413" lon="1.14367">
        <ele>48</ele>
        <time>2017-07-25T14:01:00Z</time>
      </trkpt>
      <trkpt lat="49.44134" lon="1.14369">
        <ele>48</ele>
        <time>2017-07-25T14:01:00Z</time>
      </trkpt>
      <trkpt lat="49.44137" lon="1.14373">
        <ele>48</ele>
        <time>2017-07-25T14:01:00Z</time>
      </trkpt>
      <trkpt lat="49.44141" lon="1.14376">
        <ele>36</ele>
        <time>2017-07-25T14:01:16Z</time>
      </trkpt>
      <trkpt lat="49.44144" lon="1.14377">
        <ele>36</ele>
        <time>2017-07-25T14:01:16Z</time>
      </trkpt>
      <trkpt lat="49.44147" lon="1.14378">
        <ele>36</ele>
        <time>2017-07-25T14:01:16Z</time>
      </trkpt>
      <trkpt lat="49.44155" lon="1.14374">
        <ele>48</ele>
        <time>2017-07-25T14:01:16Z</time>
      </trkpt>
      <trkpt lat="49.44161" lon="1.14366">
        <ele>48</ele>
        <time>2017-07-25T14:01:32Z</time>
      </trkpt>
      <trkpt lat="49.44161" lon="1.14361">
        <ele>48</ele>
        <time>2017-07-25T14:01:32Z</time>
      </trkpt>
      <trkpt lat="49.44158" lon="1.14359">
        <ele>48</ele>
        <time>2017-07-25T14:01:32Z</time>
      </trkpt>
      <trkpt lat="49.44155" lon="1.14351">
        <ele>48</ele>
        <time>2017-07-25T14:01:32Z</time>
      </trkpt>
      <trkpt lat="49.44153" lon="1.14343">
        <ele>48</ele>
        <time>2017-07-25T14:01:48Z</time>
      </trkpt>
      <trkpt lat="49.44152" lon="1.14341">
        <ele>48</ele>
        <time>2017-07-25T14:01:48Z</time>
      </trkpt>
      <trkpt lat="49.44153" lon="1.14332">
        <ele>48</ele>
        <time>2017-07-25T14:01:48Z</time>
      </trkpt>
      <trkpt lat="49.44152" lon="1.14328">
        <ele>48</ele>
        <time>2017-07-25T14:01:49Z</time>
      </trkpt>
      <trkpt lat="49.44151" lon="1.14323">
        <ele>48</ele>
        <time>2017-07-25T14:02:04Z</time>
      </trkpt>
      <trkpt lat="49.44154" lon="1.14324">
        <ele>48</ele>
        <time>2017-07-25T14:02:04Z</time>
      </trkpt>
      <trkpt lat="49.44156" lon="1.14327">
        <ele>48</ele>
        <time>2017-07-25T14:02:04Z</time>
      </trkpt>
      <trkpt lat="49.4416" lon="1.14328">
        <ele>48</ele>
        <time>2017-07-25T14:02:04Z</time>
      </trkpt>
      <trkpt lat="49.44166" lon="1.14333">
        <ele>48</ele>
        <time>2017-07-25T14:02:56Z</time>
      </trkpt>
      <trkpt lat="49.44166" lon="1.14333">
        <ele>48</ele>
        <time>2017-07-25T14:02:56Z</time>
      </trkpt>
      <trkpt lat="49.44172" lon="1.14342">
        <ele>48</ele>
        <time>2017-07-25T14:02:56Z</time>
      </trkpt>
      <trkpt lat="49.44175" lon="1.14353">
        <ele>48</ele>
        <time>2017-07-25T14:02:56Z</time>
      </trkpt>
      <trkpt lat="49.44183" lon="1.14352">
        <ele>48</ele>
        <time>2017-07-25T14:02:56Z</time>
      </trkpt>
      <trkpt lat="49.44186" lon="1.14359">
        <ele>48</ele>
        <time>2017-07-25T14:03:12Z</time>
      </trkpt>
      <trkpt lat="49.4419" lon="1.14364">
        <ele>48</ele>
        <time>2017-07-25T14:03:12Z</time>
      </trkpt>
      <trkpt lat="49.44196" lon="1.14364">
        <ele>48</ele>
        <time>2017-07-25T14:03:12Z</time>
      </trkpt>
      <trkpt lat="49.44199" lon="1.14366">
        <ele>48</ele>
        <time>2017-07-25T14:03:12Z</time>
      </trkpt>
      <trkpt lat="49.44204" lon="1.14369">
        <ele>48</ele>
        <time>2017-07-25T14:03:28Z</time>
      </trkpt>
      <trkpt lat="49.44214" lon="1.14372">
        <ele>62</ele>
        <time>2017-07-25T14:03:28Z</time>
      </trkpt>
      <trkpt lat="49.44222" lon="1.14363">
        <ele>62</ele>
        <time>2017-07-25T14:03:28Z</time>
      </trkpt>
      <trkpt lat="49.44225" lon="1.14368">
        <ele>62</ele>
        <time>2017-07-25T14:03:28Z</time>
      </trkpt>
      <trkpt lat="49.44228" lon="1.14369">
        <ele>62</ele>
        <time>2017-07-25T14:03:44Z</time>
      </trkpt>
      <trkpt lat="49.44232" lon="1.14377">
        <ele>49</ele>
        <time>2017-07-25T14:03:44Z</time>
      </trkpt>
      <trkpt lat="49.44241" lon="1.14379">
        <ele>49</ele>
        <time>2017-07-25T14:03:44Z</time>
      </trkpt>
      <trkpt lat="49.44245" lon="1.1438">
        <ele>49</ele>
        <time>2017-07-25T14:03:44Z</time>
      </trkpt>
      <trkpt lat="49.44246" lon="1.14392">
        <ele>49</ele>
        <time>2017-07-25T14:04:12Z</time>
      </trkpt>
      <trkpt lat="49.44247" lon="1.14393">
        <ele>49</ele>
        <time>2017-07-25T14:04:12Z</time>
      </trkpt>
      <trkpt lat="49.44247" lon="1.14393">
        <ele>49</ele>
        <time>2017-07-25T14:04:12Z</time>
      </trkpt>
      <trkpt lat="49.44248" lon="1.14394">
        <ele>49</ele>
        <time>2017-07-25T14:04:12Z</time>
      </trkpt>
      <trkpt lat="49.4425" lon="1.14398">
        <ele>49</ele>
        <time>2017-07-25T14:04:13Z</time>
      </trkpt>
      <trkpt lat="49.44257" lon="1.144">
        <ele>49</ele>
        <time>2017-07-25T14:04:28Z</time>
      </trkpt>
      <trkpt lat="49.44267" lon="1.14409">
        <ele>49</ele>
        <time>2017-07-25T14:04:28Z</time>
      </trkpt>
      <trkpt lat="49.44275" lon="1.14418">
        <ele>49</ele>
        <time>2017-07-25T14:04:28Z</time>
      </trkpt>
      <trkpt lat="49.44281" lon="1.14424">
        <ele>49</ele>
        <time>2017-07-25T14:04:28Z</time>
      </trkpt>
      <trkpt lat="49.44283" lon="1.14428">
        <ele>49</ele>
        <time>2017-07-25T14:04:44Z</time>
      </trkpt>
      <trkpt lat="49.44287" lon="1.14432">
        <ele>49</ele>
        <time>2017-07-25T14:04:44Z</time>
      </trkpt>
      <trkpt lat="49.44292" lon="1.14434">
        <ele>61</ele>
        <time>2017-07-25T14:04:44Z</time>
      </trkpt>
      <trkpt lat="49.44296" lon="1.1444">
        <ele>61</ele>
        <time>2017-07-25T14:04:44Z</time>
      </trkpt>
      <trkpt lat="49.44299" lon="1.14441">
        <ele>61</ele>
        <time>2017-07-25T14:05:00Z</time>
      </trkpt>
      <trkpt lat="49.44305" lon="1.14449">
        <ele>61</ele>
        <time>2017-07-25T14:05:02Z</time>
      </trkpt>
      <trkpt lat="49.4431" lon="1.14456">
        <ele>61</ele>
        <time>2017-07-25T14:05:02Z</time>
      </trkpt>
      <trkpt lat="49.44312" lon="1.1446">
        <ele>46</ele>
        <time>2017-07-25T14:05:02Z</time>
      </trkpt>
      <trkpt lat="49.4432" lon="1.14474">
        <ele>46</ele>
        <time>2017-07-25T14:05:32Z</time>
      </trkpt>
      <trkpt lat="49.44321" lon="1.14476">
        <ele>46</ele>
        <time>2017-07-25T14:05:32Z</time>
      </trkpt>
      <trkpt lat="49.44322" lon="1.14478">
        <ele>46</ele>
        <time>2017-07-25T14:05:32Z</time>
      </trkpt>
      <trkpt lat="49.44323" lon="1.14478">
        <ele>46</ele>
        <time>2017-07-25T14:05:32Z</time>
      </trkpt>
      <trkpt lat="49.44323" lon="1.14478">
        <ele>46</ele>
        <time>2017-07-25T14:05:32Z</time>
      </trkpt>
      <trkpt lat="49.44323" lon="1.14479">
        <ele>46</ele>
        <time>2017-07-25T14:05:48Z</time>
      </trkpt>
      <trkpt lat="49.4433" lon="1.14494">
        <ele>46</ele>
        <time>2017-07-25T14:05:48Z</time>
      </trkpt>
      <trkpt lat="49.44339" lon="1.14502">
        <ele>46</ele>
        <time>2017-07-25T14:05:48Z</time>
      </trkpt>
      <trkpt lat="49.44343" lon="1.14505">
        <ele>46</ele>
        <time>2017-07-25T14:05:49Z</time>
      </trkpt>
      <trkpt lat="49.44342" lon="1.14519">
        <ele>46</ele>
        <time>2017-07-25T14:06:04Z</time>
      </trkpt>
      <trkpt lat="49.44344" lon="1.1452">
        <ele>46</ele>
        <time>2017-07-25T14:06:04Z</time>
      </trkpt>
      <trkpt lat="49.44347" lon="1.14522">
        <ele>46</ele>
        <time>2017-07-25T14:06:04Z</time>
      </trkpt>
      <trkpt lat="49.4435" lon="1.14529">
        <ele>46</ele>
        <time>2017-07-25T14:06:04Z</time>
      </trkpt>
      <trkpt lat="49.44356" lon="1.14531">
        <ele>46</ele>
        <time>2017-07-25T14:06:40Z</time>
      </trkpt>
      <trkpt lat="49.44356" lon="1.14531">
        <ele>46</ele>
        <time>2017-07-25T14:06:40Z</time>
      </trkpt>
      <trkpt lat="49.44362" lon="1.14535">
        <ele>46</ele>
        <time>2017-07-25T14:06:40Z</time>
      </trkpt>
      <trkpt lat="49.44368" lon="1.14541">
        <ele>46</ele>
        <time>2017-07-25T14:06:40Z</time>
      </trkpt>
      <trkpt lat="49.44375" lon="1.14544">
        <ele>45</ele>
        <time>2017-07-25T14:06:40Z</time>
      </trkpt>
      <trkpt lat="49.44383" lon="1.14545">
        <ele>45</ele>
        <time>2017-07-25T14:06:56Z</time>
      </trkpt>
      <trkpt lat="49.4439" lon="1.14547">
        <ele>45</ele>
        <time>2017-07-25T14:06:56Z</time>
      </trkpt>
      <trkpt lat="49.4439" lon="1.1455">
        <ele>45</ele>
        <time>2017-07-25T14:06:56Z</time>
      </trkpt>
      <trkpt lat="49.44393" lon="1.14552">
        <ele>45</ele>
        <time>2017-07-25T14:06:56Z</time>
      </trkpt>
      <trkpt lat="49.44399" lon="1.14558">
        <ele>45</ele>
        <time>2017-07-25T14:07:12Z</time>
      </trkpt>
      <trkpt lat="49.44402" lon="1.14566">
        <ele>45</ele>
        <time>2017-07-25T14:07:12Z</time>
      </trkpt>
      <trkpt lat="49.44406" lon="1.14572">
        <ele>45</ele>
        <time>2017-07-25T14:07:12Z</time>
      </trkpt>
      <trkpt lat="49.44412" lon="1.14577">
        <ele>45</ele>
        <time>2017-07-25T14:07:12Z</time>
      </trkpt>
      <trkpt lat="49.44418" lon="1.14577">
        <ele>45</ele>
        <time>2017-07-25T14:07:28Z</time>
      </trkpt>
      <trkpt lat="49.44423" lon="1.14582">
        <ele>45</ele>
        <time>2017-07-25T14:07:28Z</time>
      </trkpt>
      <trkpt lat="49.44429" lon="1.14582">
        <ele>45</ele>
        <time>2017-07-25T14:07:28Z</time>
      </trkpt>
      <trkpt lat="49.44435" lon="1.14581">
        <ele>45</ele>
        <time>2017-07-25T14:07:28Z</time>
      </trkpt>
      <trkpt lat="49.44441" lon="1.14585">
        <ele>45</ele>
        <time>2017-07-25T14:07:44Z</time>
      </trkpt>
      <trkpt lat="49.44447" lon="1.14581">
        <ele>45</ele>
        <time>2017-07-25T14:07:44Z</time>
      </trkpt>
      <trkpt lat="49.44452" lon="1.14584">
        <ele>45</ele>
        <time>2017-07-25T14:07:44Z</time>
      </trkpt>
      <trkpt lat="49.44455" lon="1.14586">
        <ele>45</ele>
        <time>2017-07-25T14:07:44Z</time>
      </trkpt>
      <trkpt lat="49.4446" lon="1.1459">
        <ele>52</ele>
        <time>2017-07-25T14:08:00Z</time>
      </trkpt>
      <trkpt lat="49.44465" lon="1.14593">
        <ele>52</ele>
        <time>2017-07-25T14:08:00Z</time>
      </trkpt>
      <trkpt lat="49.44469" lon="1.14594">
        <ele>52</ele>
        <time>2017-07-25T14:08:00Z</time>
      </trkpt>
      <trkpt lat="49.44476" lon="1.14593">
        <ele>52</ele>
        <time>2017-07-25T14:08:00Z</time>
      </trkpt>
      <trkpt lat="49.44482" lon="1.14597">
        <ele>52</ele>
        <time>2017-07-25T14:08:16Z</time>
      </trkpt>
      <trkpt lat="49.44488" lon="1.14599">
        <ele>52</ele>
        <time>2017-07-25T14:08:16Z</time>
      </trkpt>
      <trkpt lat="49.44493" lon="1.14604">
        <ele>52</ele>
        <time>2017-07-25T14:08:16Z</time>
      </trkpt>
      <trkpt lat="49.44495" lon="1.14615">
        <ele>52</ele>
        <time>2017-07-25T14:08:16Z</time>
      </trkpt>
      <trkpt lat="49.44498" lon="1.14623">
        <ele>52</ele>
        <time>2017-07-25T14:08:32Z</time>
      </trkpt>
      <trkpt lat="49.44502" lon="1.14622">
        <ele>52</ele>
        <time>2017-07-25T14:08:32Z</time>
      </trkpt>
      <trkpt lat="49.44506" lon="1.14623">
        <ele>52</ele>
        <time>2017-07-25T14:08:32Z</time>
      </trkpt>
      <trkpt lat="49.44508" lon="1.14626">
        <ele>35</ele>
        <time>2017-07-25T14:08:33Z</time>
      </trkpt>
      <trkpt lat="49.44509" lon="1.14627">
        <ele>35</ele>
        <time>2017-07-25T14:08:56Z</time>
      </trkpt>
      <trkpt lat="49.44511" lon="1.14629">
        <ele>35</ele>
        <time>2017-07-25T14:08:56Z</time>
      </trkpt>
      <trkpt lat="49.44513" lon="1.14629">
        <ele>35</ele>
        <time>2017-07-25T14:08:56Z</time>
      </trkpt>
      <trkpt lat="49.44513" lon="1.14629">
        <ele>35</ele>
        <time>2017-07-25T14:08:56Z</time>
      </trkpt>
      <trkpt lat="49.44529" lon="1.14638">
        <ele>35</ele>
        <time>2017-07-25T14:08:56Z</time>
      </trkpt>
      <trkpt lat="49.44539" lon="1.14647">
        <ele>35</ele>
        <time>2017-07-25T14:09:12Z</time>
      </trkpt>
      <trkpt lat="49.44544" lon="1.14651">
        <ele>44</ele>
        <time>2017-07-25T14:09:12Z</time>
      </trkpt>
      <trkpt lat="49.44545" lon="1.1465">
        <ele>44</ele>
        <time>2017-07-25T14:09:12Z</time>
      </trkpt>
      <trkpt lat="49.44549" lon="1.14655">
        <ele>44</ele>
        <time>2017-07-25T14:09:12Z</time>
      </trkpt>
      <trkpt lat="49.44557" lon="1.14657">
        <ele>44</ele>
        <time>2017-07-25T14:09:40Z</time>
      </trkpt>
      <trkpt lat="49.44558" lon="1.14657">
        <ele>44</ele>
        <time>2017-07-25T14:09:40Z</time>
      </trkpt>
      <trkpt lat="49.44559" lon="1.14657">
        <ele>44</ele>
        <time>2017-07-25T14:09:40Z</time>
      </trkpt>
      <trkpt lat="49.44559" lon="1.14658">
        <ele>44</ele>
        <time>2017-07-25T14:09:40Z</time>
      </trkpt>
      <trkpt lat="49.4457" lon="1.14656">
        <ele>44</ele>
        <time>2017-07-25T14:09:41Z</time>
      </trkpt>
      <trkpt lat="49.44577" lon="1.14657">
        <ele>44</ele>
        <time>2017-07-25T14:09:56Z</time>
      </trkpt>
      <trkpt lat="49.44582" lon="1.14657">
        <ele>44</ele>
        <time>2017-07-25T14:09:56Z</time>
      </trkpt>
      <trkpt lat="49.44586" lon="1.14663">
        <ele>44</ele>
        <time>2017-07-25T14:09:56Z</time>
      </trkpt>
      <trkpt lat="49.4459" lon="1.1467">
        <ele>44</ele>
        <time>2017-07-25T14:09:56Z</time>
      </trkpt>
      <trkpt lat="49.44597" lon="1.14672">
        <ele>44</ele>
        <time>2017-07-25T14:10:12Z</time>
      </trkpt>
      <trkpt lat="49.44602" lon="1.14675">
        <ele>44</ele>
        <time>2017-07-25T14:10:12Z</time>
      </trkpt>
      <trkpt lat="49.4461" lon="1.14674">
        <ele>44</ele>
        <time>2017-07-25T14:10:12Z</time>
      </trkpt>
      <trkpt lat="49.44616" lon="1.14679">
        <ele>44</ele>
        <time>2017-07-25T14:10:12Z</time>
      </trkpt>
      <trkpt lat="49.44621" lon="1.1468">
        <ele>44</ele>
        <time>2017-07-25T14:10:28Z</time>
      </trkpt>
      <trkpt lat="49.44621" lon="1.14688">
        <ele>44</ele>
        <time>2017-07-25T14:10:28Z</time>
      </trkpt>
      <trkpt lat="49.44628" lon="1.14687">
        <ele>48</ele>
        <time>2017-07-25T14:10:28Z</time>
      </trkpt>
      <trkpt lat="49.44633" lon="1.14692">
        <ele>48</ele>
        <time>2017-07-25T14:10:28Z</time>
      </trkpt>
      <trkpt lat="49.44639" lon="1.14693">
        <ele>48</ele>
        <time>2017-07-25T14:10:44Z</time>
      </trkpt>
      <trkpt lat="49.44643" lon="1.14695">
        <ele>48</ele>
        <time>2017-07-25T14:10:44Z</time>
      </trkpt>
      <trkpt lat="49.44649" lon="1.14698">
        <ele>48</ele>
        <time>2017-07-25T14:10:44Z</time>
      </trkpt>
      <trkpt lat="49.44655" lon="1.14698">
        <ele>48</ele>
        <time>2017-07-25T14:10:44Z</time>
      </trkpt>
      <trkpt lat="49.4466" lon="1.14699">
        <ele>48</ele>
        <time>2017-07-25T14:11:00Z</time>
      </trkpt>
      <trkpt lat="49.44662" lon="1.147">
        <ele>48</ele>
        <time>2017-07-25T14:11:00Z</time>
      </trkpt>
      <trkpt lat="49.44666" lon="1.14704">
        <ele>48</ele>
        <time>2017-07-25T14:11:00Z</time>
      </trkpt>
      <trkpt lat="49.44672" lon="1.1471">
        <ele>33</ele>
        <time>2017-07-25T14:11:00Z</time>
      </trkpt>
      <trkpt lat="49.44679" lon="1.14711">
        <ele>33</ele>
        <time>2017-07-25T14:11:16Z</time>
      </trkpt>
      <trkpt lat="49.44683" lon="1.14715">
        <ele>33</ele>
        <time>2017-07-25T14:11:16Z</time>
      </trkpt>
      <trkpt lat="49.4469" lon="1.1472">
        <ele>33</ele>
        <time>2017-07-25T14:11:16Z</time>
      </trkpt>
      <trkpt lat="49.44693" lon="1.14722">
        <ele>33</ele>
        <time>2017-07-25T14:11:16Z</time>
      </trkpt>
      <trkpt lat="49.44694" lon="1.14725">
        <ele>33</ele>
        <time>2017-07-25T14:11:32Z</time>
      </trkpt>
      <trkpt lat="49.447" lon="1.14729">
        <ele>33</ele>
        <time>2017-07-25T14:11:32Z</time>
      </trkpt>
      <trkpt lat="49.44707" lon="1.14729">
        <ele>33</ele>
        <time>2017-07-25T14:11:32Z</time>
      </trkpt>
      <trkpt lat="49.44712" lon="1.14733">
        <ele>39</ele>
        <time>2017-07-25T14:11:32Z</time>
      </trkpt>
      <trkpt lat="49.44715" lon="1.14737">
        <ele>39</ele>
        <time>2017-07-25T14:11:48Z</time>
      </trkpt>
      <trkpt lat="49.44714" lon="1.14742">
        <ele>39</ele>
        <time>2017-07-25T14:11:48Z</time>
      </trkpt>
      <trkpt lat="49.4472" lon="1.14741">
        <ele>39</ele>
        <time>2017-07-25T14:11:48Z</time>
      </trkpt>
      <trkpt lat="49.44722" lon="1.14747">
        <ele>39</ele>
        <time>2017-07-25T14:11:48Z</time>
      </trkpt>
      <trkpt lat="49.44727" lon="1.14751">
        <ele>39</ele>
        <time>2017-07-25T14:12:04Z</time>
      </trkpt>
      <trkpt lat="49.44733" lon="1.14752">
        <ele>39</ele>
        <time>2017-07-25T14:12:04Z</time>
      </trkpt>
      <trkpt lat="49.44737" lon="1.14758">
        <ele>39</ele>
        <time>2017-07-25T14:12:04Z</time>
      </trkpt>
      <trkpt lat="49.44746" lon="1.14762">
        <ele>39</ele>
        <time>2017-07-25T14:12:04Z</time>
      </trkpt>
      <trkpt lat="49.44747" lon="1.14763">
        <ele>39</ele>
        <time>2017-07-25T14:12:20Z</time>
      </trkpt>
      <trkpt lat="49.44748" lon="1.14763">
        <ele>39</ele>
        <time>2017-07-25T14:12:20Z</time>
      </trkpt>
      <trkpt lat="49.44755" lon="1.14764">
        <ele>39</ele>
        <time>2017-07-25T14:12:20Z</time>
      </trkpt>
      <trkpt lat="49.44757" lon="1.14766">
        <ele>39</ele>
        <time>2017-07-25T14:12:20Z</time>
      </trkpt>
      <trkpt lat="49.4476" lon="1.1477">
        <ele>39</ele>
        <time>2017-07-25T14:12:36Z</time>
      </trkpt>
      <trkpt lat="49.44762" lon="1.14771">
        <ele>39</ele>
        <time>2017-07-25T14:12:36Z</time>
      </trkpt>
      <trkpt lat="49.44769" lon="1.14774">
        <ele>39</ele>
        <time>2017-07-25T14:12:36Z</time>
      </trkpt>
      <trkpt lat="49.44771" lon="1.1478">
        <ele>39</ele>
        <time>2017-07-25T14:12:36Z</time>
      </trkpt>
      <trkpt lat="49.44775" lon="1.14786">
        <ele>39</ele>
        <time>2017-07-25T14:12:52Z</time>
      </trkpt>
      <trkpt lat="49.44777" lon="1.14788">
        <ele>39</ele>
        <time>2017-07-25T14:12:52Z</time>
      </trkpt>
      <trkpt lat="49.4478" lon="1.14789">
        <ele>39</ele>
        <time>2017-07-25T14:12:52Z</time>
      </trkpt>
      <trkpt lat="49.44785" lon="1.14792">
        <ele>30</ele>
        <time>2017-07-25T14:12:52Z</time>
      </trkpt>
      <trkpt lat="49.44787" lon="1.14796">
        <ele>30</ele>
        <time>2017-07-25T14:13:08Z</time>
      </trkpt>
      <trkpt lat="49.44794" lon="1.14798">
        <ele>36</ele>
        <time>2017-07-25T14:13:08Z</time>
      </trkpt>
      <trkpt lat="49.44799" lon="1.14802">
        <ele>36</ele>
        <time>2017-07-25T14:13:08Z</time>
      </trkpt>
      <trkpt lat="49.44799" lon="1.14805">
        <ele>36</ele>
        <time>2017-07-25T14:13:08Z</time>
      </trkpt>
      <trkpt lat="49.44801" lon="1.14809">
        <ele>36</ele>
        <time>2017-07-25T14:13:24Z</time>
      </trkpt>
      <trkpt lat="49.44804" lon="1.14811">
        <ele>36</ele>
        <time>2017-07-25T14:13:24Z</time>
      </trkpt>
      <trkpt lat="49.44806" lon="1.14817">
        <ele>36</ele>
        <time>2017-07-25T14:13:24Z</time>
      </trkpt>
      <trkpt lat="49.44814" lon="1.14822">
        <ele>36</ele>
        <time>2017-07-25T14:13:24Z</time>
      </trkpt>
      <trkpt lat="49.44822" lon="1.14825">
        <ele>36</ele>
        <time>2017-07-25T14:13:40Z</time>
      </trkpt>
      <trkpt lat="49.44824" lon="1.14825">
        <ele>36</ele>
        <time>2017-07-25T14:13:40Z</time>
      </trkpt>
      <trkpt lat="49.4483" lon="1.14828">
        <ele>36</ele>
        <time>2017-07-25T14:13:40Z</time>
      </trkpt>
      <trkpt lat="49.44837" lon="1.14836">
        <ele>36</ele>
        <time>2017-07-25T14:13:40Z</time>
      </trkpt>
      <trkpt lat="49.44842" lon="1.14834">
        <ele>36</ele>
        <time>2017-07-25T14:14:00Z</time>
      </trkpt>
      <trkpt lat="49.44847" lon="1.14831">
        <ele>36</ele>
        <time>2017-07-25T14:14:00Z</time>
      </trkpt>
      <trkpt lat="49.4485" lon="1.14832">
        <ele>36</ele>
        <time>2017-07-25T14:14:00Z</time>
      </trkpt>
      <trkpt lat="49.4485" lon="1.14831">
        <ele>36</ele>
        <time>2017-07-25T14:14:00Z</time>
      </trkpt>
      <trkpt lat="49.44854" lon="1.14835">
        <ele>36</ele>
        <time>2017-07-25T14:14:00Z</time>
      </trkpt>
      <trkpt lat="49.44858" lon="1.14841">
        <ele>36</ele>
        <time>2017-07-25T14:14:16Z</time>
      </trkpt>
      <trkpt lat="49.44864" lon="1.14844">
        <ele>36</ele>
        <time>2017-07-25T14:14:16Z</time>
      </trkpt>
      <trkpt lat="49.44863" lon="1.14853">
        <ele>36</ele>
        <time>2017-07-25T14:14:16Z</time>
      </trkpt>
      <trkpt lat="49.4487" lon="1.14862">
        <ele>36</ele>
        <time>2017-07-25T14:14:17Z</time>
      </trkpt>
      <trkpt lat="49.44873" lon="1.14865">
        <ele>36</ele>
        <time>2017-07-25T14:14:32Z</time>
      </trkpt>
      <trkpt lat="49.44881" lon="1.14863">
        <ele>43</ele>
        <time>2017-07-25T14:14:32Z</time>
      </trkpt>
      <trkpt lat="49.44883" lon="1.14867">
        <ele>43</ele>
        <time>2017-07-25T14:14:32Z</time>
      </trkpt>
      <trkpt lat="49.44887" lon="1.14871">
        <ele>43</ele>
        <time>2017-07-25T14:14:32Z</time>
      </trkpt>
      <trkpt lat="49.44895" lon="1.14882">
        <ele>34</ele>
        <time>2017-07-25T14:16:56Z</time>
      </trkpt>
      <trkpt lat="49.44895" lon="1.14882">
        <ele>34</ele>
        <time>2017-07-25T14:16:57Z</time>
      </trkpt>
      <trkpt lat="49.44895" lon="1.14882">
        <ele>34</ele>
        <time>2017-07-25T14:16:57Z</time>
      </trkpt>
      <trkpt lat="49.44898" lon="1.14884">
        <ele>34</ele>
        <time>2017-07-25T14:16:57Z</time>
      </trkpt>
      <trkpt lat="49.44909" lon="1.14886">
        <ele>34</ele>
        <time>2017-07-25T14:16:57Z</time>
      </trkpt>
      <trkpt lat="49.44922" lon="1.14898">
        <ele>34</ele>
        <time>2017-07-25T14:17:32Z</time>
      </trkpt>
      <trkpt lat="49.44923" lon="1.14898">
        <ele>34</ele>
        <time>2017-07-25T14:17:32Z</time>
      </trkpt>
      <trkpt lat="49.44925" lon="1.149">
        <ele>34</ele>
        <time>2017-07-25T14:17:32Z</time>
      </trkpt>
      <trkpt lat="49.44929" lon="1.14904">
        <ele>34</ele>
        <time>2017-07-25T14:17:32Z</time>
      </trkpt>
      <trkpt lat="49.44934" lon="1.14907">
        <ele>34</ele>
        <time>2017-07-25T14:17:33Z</time>
      </trkpt>
      <trkpt lat="49.44935" lon="1.14909">
        <ele>34</ele>
        <time>2017-07-25T14:17:56Z</time>
      </trkpt>
      <trkpt lat="49.44936" lon="1.14909">
        <ele>34</ele>
        <time>2017-07-25T14:17:56Z</time>
      </trkpt>
      <trkpt lat="49.44936" lon="1.1491">
        <ele>34</ele>
        <time>2017-07-25T14:17:56Z</time>
      </trkpt>
      <trkpt lat="49.44938" lon="1.14911">
        <ele>34</ele>
        <time>2017-07-25T14:17:56Z</time>
      </trkpt>
      <trkpt lat="49.44946" lon="1.14913">
        <ele>34</ele>
        <time>2017-07-25T14:17:56Z</time>
      </trkpt>
      <trkpt lat="49.44953" lon="1.14914">
        <ele>34</ele>
        <time>2017-07-25T14:18:12Z</time>
      </trkpt>
      <trkpt lat="49.44958" lon="1.14918">
        <ele>34</ele>
        <time>2017-07-25T14:18:12Z</time>
      </trkpt>
      <trkpt lat="49.44963" lon="1.14921">
        <ele>35</ele>
        <time>2017-07-25T14:18:12Z</time>
      </trkpt>
      <trkpt lat="49.44969" lon="1.14924">
        <ele>35</ele>
        <time>2017-07-25T14:18:12Z</time>
      </trkpt>
      <trkpt lat="49.44975" lon="1.14928">
        <ele>35</ele>
        <time>2017-07-25T14:18:28Z</time>
      </trkpt>
      <trkpt lat="49.4498" lon="1.14929">
        <ele>35</ele>
        <time>2017-07-25T14:18:28Z</time>
      </trkpt>
      <trkpt lat="49.44985" lon="1.14936">
        <ele>35</ele>
        <time>2017-07-25T14:18:28Z</time>
      </trkpt>
      <trkpt lat="49.4499" lon="1.1494">
        <ele>35</ele>
        <time>2017-07-25T14:18:28Z</time>
      </trkpt>
      <trkpt lat="49.44992" lon="1.14942">
        <ele>35</ele>
        <time>2017-07-25T14:18:44Z</time>
      </trkpt>
      <trkpt lat="49.44998" lon="1.14944">
        <ele>35</ele>
        <time>2017-07-25T14:18:44Z</time>
      </trkpt>
      <trkpt lat="49.45003" lon="1.14945">
        <ele>35</ele>
        <time>2017-07-25T14:18:44Z</time>
      </trkpt>
      <trkpt lat="49.45007" lon="1.14943">
        <ele>35</ele>
        <time>2017-07-25T14:18:44Z</time>
      </trkpt>
      <trkpt lat="49.45008" lon="1.14939">
        <ele>35</ele>
        <time>2017-07-25T14:19:00Z</time>
      </trkpt>
      <trkpt lat="49.45012" lon="1.14936">
        <ele>35</ele>
        <time>2017-07-25T14:19:00Z</time>
      </trkpt>
      <trkpt lat="49.45017" lon="1.14934">
        <ele>35</ele>
        <time>2017-07-25T14:19:00Z</time>
      </trkpt>
      <trkpt lat="49.4502" lon="1.14931">
        <ele>35</ele>
        <time>2017-07-25T14:19:00Z</time>
      </trkpt>
      <trkpt lat="49.45024" lon="1.14925">
        <ele>35</ele>
        <time>2017-07-25T14:19:16Z</time>
      </trkpt>
      <trkpt lat="49.4503" lon="1.14923">
        <ele>35</ele>
        <time>2017-07-25T14:19:16Z</time>
      </trkpt>
      <trkpt lat="49.45031" lon="1.14921">
        <ele>35</ele>
        <time>2017-07-25T14:19:16Z</time>
      </trkpt>
      <trkpt lat="49.45034" lon="1.14921">
        <ele>35</ele>
        <time>2017-07-25T14:19:16Z</time>
      </trkpt>
      <trkpt lat="49.45038" lon="1.1492">
        <ele>35</ele>
        <time>2017-07-25T14:19:40Z</time>
      </trkpt>
      <trkpt lat="49.45039" lon="1.1492">
        <ele>35</ele>
        <time>2017-07-25T14:19:40Z</time>
      </trkpt>
      <trkpt lat="49.45039" lon="1.1492">
        <ele>35</ele>
        <time>2017-07-25T14:19:40Z</time>
      </trkpt>
      <trkpt lat="49.45042" lon="1.14924">
        <ele>42</ele>
        <time>2017-07-25T14:19:40Z</time>
      </trkpt>
      <trkpt lat="49.45046" lon="1.14934">
        <ele>42</ele>
        <time>2017-07-25T14:19:40Z</time>
      </trkpt>
      <trkpt lat="49.45049" lon="1.14944">
        <ele>42</ele>
        <time>2017-07-25T14:19:56Z</time>
      </trkpt>
      <trkpt lat="49.45051" lon="1.14948">
        <ele>42</ele>
        <time>2017-07-25T14:19:56Z</time>
      </trkpt>
      <trkpt lat="49.45059" lon="1.14954">
        <ele>42</ele>
        <time>2017-07-25T14:19:56Z</time>
      </trkpt>
      <trkpt lat="49.45058" lon="1.14963">
        <ele>48</ele>
        <time>2017-07-25T14:19:56Z</time>
      </trkpt>
      <trkpt lat="49.4506" lon="1.14962">
        <ele>48</ele>
        <time>2017-07-25T14:20:12Z</time>
      </trkpt>
      <trkpt lat="49.45062" lon="1.14966">
        <ele>48</ele>
        <time>2017-07-25T14:20:12Z</time>
      </trkpt>
      <trkpt lat="49.45064" lon="1.14978">
        <ele>48</ele>
        <time>2017-07-25T14:20:12Z</time>
      </trkpt>
      <trkpt lat="49.45066" lon="1.14983">
        <ele>48</ele>
        <time>2017-07-25T14:20:12Z</time>
      </trkpt>
      <trkpt lat="49.45069" lon="1.14985">
        <ele>48</ele>
        <time>2017-07-25T14:20:28Z</time>
      </trkpt>
      <trkpt lat="49.45071" lon="1.14992">
        <ele>48</ele>
        <time>2017-07-25T14:20:28Z</time>
      </trkpt>
      <trkpt lat="49.45072" lon="1.14998">
        <ele>48</ele>
        <time>2017-07-25T14:20:28Z</time>
      </trkpt>
      <trkpt lat="49.45073" lon="1.15007">
        <ele>48</ele>
        <time>2017-07-25T14:20:28Z</time>
      </trkpt>
      <trkpt lat="49.45075" lon="1.15014">
        <ele>48</ele>
        <time>2017-07-25T14:20:44Z</time>
      </trkpt>
      <trkpt lat="49.45077" lon="1.15021">
        <ele>48</ele>
        <time>2017-07-25T14:20:44Z</time>
      </trkpt>
      <trkpt lat="49.45079" lon="1.1503">
        <ele>48</ele>
        <time>2017-07-25T14:20:44Z</time>
      </trkpt>
      <trkpt lat="49.45081" lon="1.15035">
        <ele>48</ele>
        <time>2017-07-25T14:20:44Z</time>
      </trkpt>
      <trkpt lat="49.45086" lon="1.1504">
        <ele>48</ele>
        <time>2017-07-25T14:21:12Z</time>
      </trkpt>
      <trkpt lat="49.45087" lon="1.15041">
        <ele>48</ele>
        <time>2017-07-25T14:21:12Z</time>
      </trkpt>
      <trkpt lat="49.45088" lon="1.15042">
        <ele>41</ele>
        <time>2017-07-25T14:21:12Z</time>
      </trkpt>
      <trkpt lat="49.45088" lon="1.15043">
        <ele>41</ele>
        <time>2017-07-25T14:21:13Z</time>
      </trkpt>
      <trkpt lat="49.45093" lon="1.15047">
        <ele>41</ele>
        <time>2017-07-25T14:21:13Z</time>
      </trkpt>
      <trkpt lat="49.45094" lon="1.15059">
        <ele>41</ele>
        <time>2017-07-25T14:21:28Z</time>
      </trkpt>
      <trkpt lat="49.45097" lon="1.15068">
        <ele>41</ele>
        <time>2017-07-25T14:21:28Z</time>
      </trkpt>
      <trkpt lat="49.45098" lon="1.15076">
        <ele>41</ele>
        <time>2017-07-25T14:21:28Z</time>
      </trkpt>
      <trkpt lat="49.45102" lon="1.15083">
        <ele>41</ele>
        <time>2017-07-25T14:21:28Z</time>
      </trkpt>
      <trkpt lat="49.45102" lon="1.1509">
        <ele>41</ele>
        <time>2017-07-25T14:21:44Z</time>
      </trkpt>
      <trkpt lat="49.45103" lon="1.15097">
        <ele>41</ele>
        <time>2017-07-25T14:21:44Z</time>
      </trkpt>
      <trkpt lat="49.45108" lon="1.15103">
        <ele>41</ele>
        <time>2017-07-25T14:21:44Z</time>
      </trkpt>
      <trkpt lat="49.4511" lon="1.15106">
        <ele>41</ele>
        <time>2017-07-25T14:21:44Z</time>
      </trkpt>
      <trkpt lat="49.45108" lon="1.15113">
        <ele>41</ele>
        <time>2017-07-25T14:22:00Z</time>
      </trkpt>
      <trkpt lat="49.4511" lon="1.1512">
        <ele>41</ele>
        <time>2017-07-25T14:22:00Z</time>
      </trkpt>
      <trkpt lat="49.45114" lon="1.15122">
        <ele>41</ele>
        <time>2017-07-25T14:22:00Z</time>
      </trkpt>
      <trkpt lat="49.45114" lon="1.15128">
        <ele>35</ele>
        <time>2017-07-25T14:22:00Z</time>
      </trkpt>
      <trkpt lat="49.45119" lon="1.15128">
        <ele>35</ele>
        <time>2017-07-25T14:22:20Z</time>
      </trkpt>
      <trkpt lat="49.45118" lon="1.15132">
        <ele>35</ele>
        <time>2017-07-25T14:22:20Z</time>
      </trkpt>
      <trkpt lat="49.4512" lon="1.15134">
        <ele>35</ele>
        <time>2017-07-25T14:22:20Z</time>
      </trkpt>
      <trkpt lat="49.45123" lon="1.1514">
        <ele>35</ele>
        <time>2017-07-25T14:22:20Z</time>
      </trkpt>
      <trkpt lat="49.45125" lon="1.15146">
        <ele>35</ele>
        <time>2017-07-25T14:22:20Z</time>
      </trkpt>
      <trkpt lat="49.45125" lon="1.15153">
        <ele>67</ele>
        <time>2017-07-25T14:22:36Z</time>
      </trkpt>
      <trkpt lat="49.45126" lon="1.15167">
        <ele>67</ele>
        <time>2017-07-25T14:22:36Z</time>
      </trkpt>
      <trkpt lat="49.45127" lon="1.15174">
        <ele>67</ele>
        <time>2017-07-25T14:22:36Z</time>
      </trkpt>
      <trkpt lat="49.4513" lon="1.15185">
        <ele>67</ele>
        <time>2017-07-25T14:22:36Z</time>
      </trkpt>
      <trkpt lat="49.45132" lon="1.15196">
        <ele>67</ele>
        <time>2017-07-25T14:22:52Z</time>
      </trkpt>
      <trkpt lat="49.45137" lon="1.15205">
        <ele>67</ele>
        <time>2017-07-25T14:22:52Z</time>
      </trkpt>
      <trkpt lat="49.45143" lon="1.15213">
        <ele>57</ele>
        <time>2017-07-25T14:22:52Z</time>
      </trkpt>
      <trkpt lat="49.45149" lon="1.15222">
        <ele>57</ele>
        <time>2017-07-25T14:22:52Z</time>
      </trkpt>
      <trkpt lat="49.45153" lon="1.15256">
        <ele>57</ele>
        <time>2017-07-25T14:23:32Z</time>
      </trkpt>
      <trkpt lat="49.45153" lon="1.15266">
        <ele>57</ele>
        <time>2017-07-25T14:23:32Z</time>
      </trkpt>
      <trkpt lat="49.45154" lon="1.15271">
        <ele>57</ele>
        <time>2017-07-25T14:23:32Z</time>
      </trkpt>
      <trkpt lat="49.45155" lon="1.15274">
        <ele>57</ele>
        <time>2017-07-25T14:23:32Z</time>
      </trkpt>
      <trkpt lat="49.45159" lon="1.15285">
        <ele>57</ele>
        <time>2017-07-25T14:23:33Z</time>
      </trkpt>
      <trkpt lat="49.45161" lon="1.15286">
        <ele>57</ele>
        <time>2017-07-25T14:23:52Z</time>
      </trkpt>
      <trkpt lat="49.45163" lon="1.15287">
        <ele>57</ele>
        <time>2017-07-25T14:23:52Z</time>
      </trkpt>
      <trkpt lat="49.45164" lon="1.15288">
        <ele>57</ele>
        <time>2017-07-25T14:23:52Z</time>
      </trkpt>
      <trkpt lat="49.45162" lon="1.153">
        <ele>45</ele>
        <time>2017-07-25T14:23:52Z</time>
      </trkpt>
      <trkpt lat="49.45167" lon="1.1531">
        <ele>45</ele>
        <time>2017-07-25T14:23:53Z</time>
      </trkpt>
      <trkpt lat="49.45169" lon="1.15313">
        <ele>45</ele>
        <time>2017-07-25T14:24:08Z</time>
      </trkpt>
      <trkpt lat="49.4517" lon="1.1532">
        <ele>45</ele>
        <time>2017-07-25T14:24:08Z</time>
      </trkpt>
      <trkpt lat="49.45173" lon="1.15321">
        <ele>45</ele>
        <time>2017-07-25T14:24:08Z</time>
      </trkpt>
      <trkpt lat="49.45176" lon="1.15328">
        <ele>45</ele>
        <time>2017-07-25T14:24:08Z</time>
      </trkpt>
      <trkpt lat="49.45182" lon="1.15333">
        <ele>45</ele>
        <time>2017-07-25T14:24:24Z</time>
      </trkpt>
      <trkpt lat="49.4518" lon="1.15342">
        <ele>45</ele>
        <time>2017-07-25T14:24:25Z</time>
      </trkpt>
      <trkpt lat="49.45183" lon="1.15349">
        <ele>45</ele>
        <time>2017-07-25T14:24:25Z</time>
      </trkpt>
      <trkpt lat="49.45184" lon="1.15362">
        <ele>45</ele>
        <time>2017-07-25T14:24:25Z</time>
      </trkpt>
      <trkpt lat="49.45186" lon="1.15363">
        <ele>45</ele>
        <time>2017-07-25T14:24:40Z</time>
      </trkpt>
      <trkpt lat="49.45186" lon="1.15369">
        <ele>45</ele>
        <time>2017-07-25T14:24:41Z</time>
      </trkpt>
      <trkpt lat="49.4519" lon="1.15373">
        <ele>45</ele>
        <time>2017-07-25T14:24:41Z</time>
      </trkpt>
      <trkpt lat="49.45191" lon="1.15375">
        <ele>38</ele>
        <time>2017-07-25T14:24:41Z</time>
      </trkpt>
      <trkpt lat="49.45192" lon="1.15387">
        <ele>38</ele>
        <time>2017-07-25T14:24:56Z</time>
      </trkpt>
      <trkpt lat="49.45193" lon="1.15393">
        <ele>38</ele>
        <time>2017-07-25T14:24:56Z</time>
      </trkpt>
      <trkpt lat="49.45199" lon="1.15393">
        <ele>38</ele>
        <time>2017-07-25T14:24:56Z</time>
      </trkpt>
      <trkpt lat="49.45201" lon="1.15395">
        <ele>38</ele>
        <time>2017-07-25T14:24:56Z</time>
      </trkpt>
      <trkpt lat="49.45202" lon="1.15401">
        <ele>38</ele>
        <time>2017-07-25T14:25:12Z</time>
      </trkpt>
      <trkpt lat="49.45199" lon="1.15409">
        <ele>38</ele>
        <time>2017-07-25T14:25:12Z</time>
      </trkpt>
      <trkpt lat="49.45201" lon="1.15423">
        <ele>38</ele>
        <time>2017-07-25T14:25:12Z</time>
      </trkpt>
      <trkpt lat="49.45207" lon="1.15439">
        <ele>38</ele>
        <time>2017-07-25T14:25:12Z</time>
      </trkpt>
      <trkpt lat="49.45209" lon="1.15456">
        <ele>58</ele>
        <time>2017-07-25T14:27:00Z</time>
      </trkpt>
      <trkpt lat="49.45208" lon="1.15463">
        <ele>36</ele>
        <time>2017-07-25T14:27:00Z</time>
      </trkpt>
      <trkpt lat="49.45209" lon="1.15476">
        <ele>47</ele>
        <time>2017-07-25T14:27:00Z</time>
      </trkpt>
      <trkpt lat="49.45211" lon="1.15479">
        <ele>47</ele>
        <time>2017-07-25T14:27:00Z</time>
      </trkpt>
      <trkpt lat="49.45211" lon="1.15483">
        <ele>47</ele>
        <time>2017-07-25T14:27:00Z</time>
      </trkpt>
      <trkpt lat="49.45211" lon="1.1549">
        <ele>47</ele>
        <time>2017-07-25T14:27:52Z</time>
      </trkpt>
      <trkpt lat="49.45211" lon="1.15491">
        <ele>47</ele>
        <time>2017-07-25T14:27:52Z</time>
      </trkpt>
      <trkpt lat="49.45212" lon="1.15494">
        <ele>47</ele>
        <time>2017-07-25T14:27:52Z</time>
      </trkpt>
      <trkpt lat="49.45215" lon="1.15504">
        <ele>47</ele>
        <time>2017-07-25T14:27:52Z</time>
      </trkpt>
      <trkpt lat="49.45215" lon="1.15507">
        <ele>47</ele>
        <time>2017-07-25T14:27:52Z</time>
      </trkpt>
      <trkpt lat="49.45216" lon="1.15511">
        <ele>47</ele>
        <time>2017-07-25T14:28:08Z</time>
      </trkpt>
      <trkpt lat="49.45217" lon="1.15516">
        <ele>47</ele>
        <time>2017-07-25T14:28:08Z</time>
      </trkpt>
      <trkpt lat="49.45219" lon="1.15522">
        <ele>47</ele>
        <time>2017-07-25T14:28:08Z</time>
      </trkpt>
      <trkpt lat="49.45223" lon="1.15526">
        <ele>47</ele>
        <time>2017-07-25T14:28:08Z</time>
      </trkpt>
      <trkpt lat="49.45224" lon="1.15531">
        <ele>47</ele>
        <time>2017-07-25T14:28:24Z</time>
      </trkpt>
      <trkpt lat="49.45225" lon="1.15536">
        <ele>47</ele>
        <time>2017-07-25T14:28:24Z</time>
      </trkpt>
      <trkpt lat="49.45229" lon="1.15539">
        <ele>47</ele>
        <time>2017-07-25T14:28:24Z</time>
      </trkpt>
      <trkpt lat="49.45228" lon="1.15551">
        <ele>44</ele>
        <time>2017-07-25T14:28:24Z</time>
      </trkpt>
      <trkpt lat="49.45231" lon="1.15557">
        <ele>44</ele>
        <time>2017-07-25T14:28:40Z</time>
      </trkpt>
      <trkpt lat="49.45235" lon="1.15563">
        <ele>44</ele>
        <time>2017-07-25T14:28:40Z</time>
      </trkpt>
      <trkpt lat="49.45239" lon="1.15567">
        <ele>44</ele>
        <time>2017-07-25T14:28:40Z</time>
      </trkpt>
      <trkpt lat="49.45239" lon="1.15576">
        <ele>44</ele>
        <time>2017-07-25T14:28:40Z</time>
      </trkpt>
      <trkpt lat="49.45244" lon="1.15585">
        <ele>44</ele>
        <time>2017-07-25T14:28:56Z</time>
      </trkpt>
      <trkpt lat="49.45248" lon="1.15584">
        <ele>44</ele>
        <time>2017-07-25T14:28:56Z</time>
      </trkpt>
      <trkpt lat="49.45252" lon="1.15589">
        <ele>44</ele>
        <time>2017-07-25T14:28:56Z</time>
      </trkpt>
      <trkpt lat="49.45258" lon="1.1559">
        <ele>44</ele>
        <time>2017-07-25T14:28:56Z</time>
      </trkpt>
      <trkpt lat="49.4527" lon="1.15603">
        <ele>44</ele>
        <time>2017-07-25T14:29:28Z</time>
      </trkpt>
      <trkpt lat="49.45273" lon="1.15605">
        <ele>44</ele>
        <time>2017-07-25T14:29:28Z</time>
      </trkpt>
      <trkpt lat="49.4528" lon="1.15604">
        <ele>44</ele>
        <time>2017-07-25T14:29:28Z</time>
      </trkpt>
      <trkpt lat="49.45286" lon="1.15605">
        <ele>44</ele>
        <time>2017-07-25T14:29:28Z</time>
      </trkpt>
      <trkpt lat="49.45287" lon="1.15607">
        <ele>44</ele>
        <time>2017-07-25T14:29:29Z</time>
      </trkpt>
      <trkpt lat="49.45289" lon="1.15609">
        <ele>44</ele>
        <time>2017-07-25T14:29:44Z</time>
      </trkpt>
      <trkpt lat="49.45294" lon="1.15613">
        <ele>53</ele>
        <time>2017-07-25T14:29:44Z</time>
      </trkpt>
      <trkpt lat="49.45295" lon="1.15619">
        <ele>53</ele>
        <time>2017-07-25T14:29:44Z</time>
      </trkpt>
      <trkpt lat="49.45298" lon="1.15618">
        <ele>53</ele>
        <time>2017-07-25T14:29:44Z</time>
      </trkpt>
      <trkpt lat="49.45321" lon="1.15614">
        <ele>53</ele>
        <time>2017-07-25T14:31:04Z</time>
      </trkpt>
      <trkpt lat="49.45321" lon="1.15614">
        <ele>53</ele>
        <time>2017-07-25T14:31:04Z</time>
      </trkpt>
      <trkpt lat="49.45321" lon="1.15614">
        <ele>53</ele>
        <time>2017-07-25T14:31:04Z</time>
      </trkpt>
      <trkpt lat="49.45324" lon="1.15615">
        <ele>53</ele>
        <time>2017-07-25T14:31:04Z</time>
      </trkpt>
      <trkpt lat="49.45327" lon="1.15616">
        <ele>53</ele>
        <time>2017-07-25T14:31:04Z</time>
      </trkpt>
      <trkpt lat="49.45328" lon="1.15617">
        <ele>53</ele>
        <time>2017-07-25T14:31:20Z</time>
      </trkpt>
      <trkpt lat="49.45332" lon="1.15623">
        <ele>53</ele>
        <time>2017-07-25T14:31:20Z</time>
      </trkpt>
      <trkpt lat="49.4534" lon="1.15624">
        <ele>53</ele>
        <time>2017-07-25T14:31:20Z</time>
      </trkpt>
      <trkpt lat="49.45342" lon="1.15624">
        <ele>53</ele>
        <time>2017-07-25T14:31:20Z</time>
      </trkpt>
      <trkpt lat="49.45341" lon="1.15625">
        <ele>53</ele>
        <time>2017-07-25T14:31:40Z</time>
      </trkpt>
      <trkpt lat="49.45342" lon="1.15625">
        <ele>47</ele>
        <time>2017-07-25T14:31:40Z</time>
      </trkpt>
      <trkpt lat="49.45342" lon="1.15625">
        <ele>47</ele>
        <time>2017-07-25T14:31:41Z</time>
      </trkpt>
      <trkpt lat="49.45343" lon="1.15625">
        <ele>47</ele>
        <time>2017-07-25T14:31:41Z</time>
      </trkpt>
      <trkpt lat="49.45352" lon="1.15633">
        <ele>47</ele>
        <time>2017-07-25T14:31:41Z</time>
      </trkpt>
      <trkpt lat="49.4536" lon="1.15635">
        <ele>47</ele>
        <time>2017-07-25T14:31:56Z</time>
      </trkpt>
      <trkpt lat="49.45362" lon="1.15642">
        <ele>47</ele>
        <time>2017-07-25T14:31:56Z</time>
      </trkpt>
      <trkpt lat="49.45366" lon="1.15643">
        <ele>47</ele>
        <time>2017-07-25T14:31:56Z</time>
      </trkpt>
      <trkpt lat="49.45376" lon="1.15645">
        <ele>64</ele>
        <time>2017-07-25T14:31:56Z</time>
      </trkpt>
      <trkpt lat="49.45379" lon="1.15644">
        <ele>64</ele>
        <time>2017-07-25T14:32:12Z</time>
      </trkpt>
      <trkpt lat="49.45387" lon="1.15642">
        <ele>64</ele>
        <time>2017-07-25T14:32:12Z</time>
      </trkpt>
      <trkpt lat="49.45392" lon="1.15644">
        <ele>64</ele>
        <time>2017-07-25T14:32:12Z</time>
      </trkpt>
      <trkpt lat="49.45398" lon="1.15642">
        <ele>64</ele>
        <time>2017-07-25T14:32:12Z</time>
      </trkpt>
      <trkpt lat="49.45398" lon="1.15635">
        <ele>64</ele>
        <time>2017-07-25T14:32:28Z</time>
      </trkpt>
      <trkpt lat="49.454" lon="1.15628">
        <ele>64</ele>
        <time>2017-07-25T14:32:28Z</time>
      </trkpt>
      <trkpt lat="49.45401" lon="1.15619">
        <ele>71</ele>
        <time>2017-07-25T14:32:28Z</time>
      </trkpt>
      <trkpt lat="49.454" lon="1.15616">
        <ele>71</ele>
        <time>2017-07-25T14:32:29Z</time>
      </trkpt>
      <trkpt lat="49.45403" lon="1.15615">
        <ele>71</ele>
        <time>2017-07-25T14:32:44Z</time>
      </trkpt>
      <trkpt lat="49.454" lon="1.15607">
        <ele>71</ele>
        <time>2017-07-25T14:32:45Z</time>
      </trkpt>
      <trkpt lat="49.45402" lon="1.15602">
        <ele>71</ele>
        <time>2017-07-25T14:32:45Z</time>
      </trkpt>
      <trkpt lat="49.45406" lon="1.15598">
        <ele>71</ele>
        <time>2017-07-25T14:32:45Z</time>
      </trkpt>
      <trkpt lat="49.45412" lon="1.15588">
        <ele>71</ele>
        <time>2017-07-25T14:33:16Z</time>
      </trkpt>
      <trkpt lat="49.45412" lon="1.15581">
        <ele>71</ele>
        <time>2017-07-25T14:33:16Z</time>
      </trkpt>
      <trkpt lat="49.45409" lon="1.15573">
        <ele>71</ele>
        <time>2017-07-25T14:33:16Z</time>
      </trkpt>
      <trkpt lat="49.45414" lon="1.15565">
        <ele>71</ele>
        <time>2017-07-25T14:33:16Z</time>
      </trkpt>
      <trkpt lat="49.45418" lon="1.15562">
        <ele>71</ele>
        <time>2017-07-25T14:33:17Z</time>
      </trkpt>
      <trkpt lat="49.45415" lon="1.15557">
        <ele>71</ele>
        <time>2017-07-25T14:33:32Z</time>
      </trkpt>
      <trkpt lat="49.45411" lon="1.15547">
        <ele>71</ele>
        <time>2017-07-25T14:33:32Z</time>
      </trkpt>
      <trkpt lat="49.45409" lon="1.15541">
        <ele>72</ele>
        <time>2017-07-25T14:33:32Z</time>
      </trkpt>
      <trkpt lat="49.45409" lon="1.15537">
        <ele>72</ele>
        <time>2017-07-25T14:33:32Z</time>
      </trkpt>
      <trkpt lat="49.45408" lon="1.15534">
        <ele>72</ele>
        <time>2017-07-25T14:33:48Z</time>
      </trkpt>
      <trkpt lat="49.45407" lon="1.15529">
        <ele>72</ele>
        <time>2017-07-25T14:33:48Z</time>
      </trkpt>
      <trkpt lat="49.45406" lon="1.15523">
        <ele>72</ele>
        <time>2017-07-25T14:33:48Z</time>
      </trkpt>
      <trkpt lat="49.45403" lon="1.15519">
        <ele>72</ele>
        <time>2017-07-25T14:33:48Z</time>
      </trkpt>
      <trkpt lat="49.454" lon="1.15509">
        <ele>72</ele>
        <time>2017-07-25T14:34:04Z</time>
      </trkpt>
      <trkpt lat="49.45402" lon="1.15502">
        <ele>72</ele>
        <time>2017-07-25T14:34:04Z</time>
      </trkpt>
      <trkpt lat="49.454" lon="1.15493">
        <ele>72</ele>
        <time>2017-07-25T14:34:04Z</time>
      </trkpt>
      <trkpt lat="49.45401" lon="1.15483">
        <ele>72</ele>
        <time>2017-07-25T14:34:04Z</time>
      </trkpt>
      <trkpt lat="49.45402" lon="1.1548">
        <ele>72</ele>
        <time>2017-07-25T14:34:20Z</time>
      </trkpt>
      <trkpt lat="49.45398" lon="1.15474">
        <ele>72</ele>
        <time>2017-07-25T14:34:21Z</time>
      </trkpt>
      <trkpt lat="49.454" lon="1.15467">
        <ele>72</ele>
        <time>2017-07-25T14:34:21Z</time>
      </trkpt>
      <trkpt lat="49.454" lon="1.1546">
        <ele>72</ele>
        <time>2017-07-25T14:34:21Z</time>
      </trkpt>
      <trkpt lat="49.45392" lon="1.15423">
        <ele>74</ele>
        <time>2017-07-25T14:34:52Z</time>
      </trkpt>
      <trkpt lat="49.45393" lon="1.15419">
        <ele>74</ele>
        <time>2017-07-25T14:34:52Z</time>
      </trkpt>
      <trkpt lat="49.45395" lon="1.15414">
        <ele>74</ele>
        <time>2017-07-25T14:34:52Z</time>
      </trkpt>
      <trkpt lat="49.45395" lon="1.15405">
        <ele>74</ele>
        <time>2017-07-25T14:34:52Z</time>
      </trkpt>
      <trkpt lat="49.45393" lon="1.15396">
        <ele>74</ele>
        <time>2017-07-25T14:34:53Z</time>
      </trkpt>
      <trkpt lat="49.45392" lon="1.15382">
        <ele>74</ele>
        <time>2017-07-25T14:35:20Z</time>
      </trkpt>
      <trkpt lat="49.45395" lon="1.15378">
        <ele>74</ele>
        <time>2017-07-25T14:35:20Z</time>
      </trkpt>
      <trkpt lat="49.45398" lon="1.15369">
        <ele>77</ele>
        <time>2017-07-25T14:35:20Z</time>
      </trkpt>
      <trkpt lat="49.45396" lon="1.15361">
        <ele>77</ele>
        <time>2017-07-25T14:35:20Z</time>
      </trkpt>
      <trkpt lat="49.45398" lon="1.15357">
        <ele>77</ele>
        <time>2017-07-25T14:35:20Z</time>
      </trkpt>
      <trkpt lat="49.454" lon="1.15355">
        <ele>77</ele>
        <time>2017-07-25T14:35:36Z</time>
      </trkpt>
      <trkpt lat="49.45402" lon="1.15348">
        <ele>77</ele>
        <time>2017-07-25T14:35:36Z</time>
      </trkpt>
      <trkpt lat="49.454" lon="1.1534">
        <ele>77</ele>
        <time>2017-07-25T14:35:36Z</time>
      </trkpt>
      <trkpt lat="49.45405" lon="1.15338">
        <ele>77</ele>
        <time>2017-07-25T14:35:36Z</time>
      </trkpt>
      <trkpt lat="49.45406" lon="1.1532">
        <ele>77</ele>
        <time>2017-07-25T14:36:04Z</time>
      </trkpt>
      <trkpt lat="49.45405" lon="1.15309">
        <ele>77</ele>
        <time>2017-07-25T14:36:04Z</time>
      </trkpt>
      <trkpt lat="49.45411" lon="1.15307">
        <ele>77</ele>
        <time>2017-07-25T14:36:04Z</time>
      </trkpt>
      <trkpt lat="49.45409" lon="1.15302">
        <ele>77</ele>
        <time>2017-07-25T14:36:04Z</time>
      </trkpt>
      <trkpt lat="49.45409" lon="1.15294">
        <ele>77</ele>
        <time>2017-07-25T14:36:05Z</time>
      </trkpt>
      <trkpt lat="49.45411" lon="1.15291">
        <ele>80</ele>
        <time>2017-07-25T14:36:20Z</time>
      </trkpt>
      <trkpt lat="49.45416" lon="1.15286">
        <ele>80</ele>
        <time>2017-07-25T14:36:20Z</time>
      </trkpt>
      <trkpt lat="49.45418" lon="1.15282">
        <ele>80</ele>
        <time>2017-07-25T14:36:20Z</time>
      </trkpt>
      <trkpt lat="49.45417" lon="1.15275">
        <ele>80</ele>
        <time>2017-07-25T14:36:20Z</time>
      </trkpt>
      <trkpt lat="49.45421" lon="1.15271">
        <ele>80</ele>
        <time>2017-07-25T14:36:36Z</time>
      </trkpt>
      <trkpt lat="49.45422" lon="1.15271">
        <ele>80</ele>
        <time>2017-07-25T14:36:36Z</time>
      </trkpt>
      <trkpt lat="49.45416" lon="1.15257">
        <ele>80</ele>
        <time>2017-07-25T14:36:36Z</time>
      </trkpt>
      <trkpt lat="49.45417" lon="1.15246">
        <ele>80</ele>
        <time>2017-07-25T14:36:36Z</time>
      </trkpt>
      <trkpt lat="49.4543" lon="1.1524">
        <ele>80</ele>
        <time>2017-07-25T14:37:04Z</time>
      </trkpt>
      <trkpt lat="49.4543" lon="1.15225">
        <ele>80</ele>
        <time>2017-07-25T14:37:05Z</time>
      </trkpt>
      <trkpt lat="49.45425" lon="1.1522">
        <ele>80</ele>
        <time>2017-07-25T14:37:05Z</time>
      </trkpt>
      <trkpt lat="49.45426" lon="1.15207">
        <ele>84</ele>
        <time>2017-07-25T14:37:05Z</time>
      </trkpt>
      <trkpt lat="49.45433" lon="1.15201">
        <ele>84</ele>
        <time>2017-07-25T14:37:05Z</time>
      </trkpt>
      <trkpt lat="49.45437" lon="1.15188">
        <ele>84</ele>
        <time>2017-07-25T14:37:32Z</time>
      </trkpt>
      <trkpt lat="49.45443" lon="1.15186">
        <ele>84</ele>
        <time>2017-07-25T14:37:32Z</time>
      </trkpt>
      <trkpt lat="49.45444" lon="1.15181">
        <ele>84</ele>
        <time>2017-07-25T14:37:32Z</time>
      </trkpt>
      <trkpt lat="49.45453" lon="1.15179">
        <ele>84</ele>
        <time>2017-07-25T14:37:32Z</time>
      </trkpt>
      <trkpt lat="49.45453" lon="1.15172">
        <ele>84</ele>
        <time>2017-07-25T14:37:32Z</time>
      </trkpt>
      <trkpt lat="49.45453" lon="1.15168">
        <ele>84</ele>
        <time>2017-07-25T14:37:48Z</time>
      </trkpt>
      <trkpt lat="49.4546" lon="1.1517">
        <ele>98</ele>
        <time>2017-07-25T14:37:48Z</time>
      </trkpt>
      <trkpt lat="49.45465" lon="1.1516">
        <ele>98</ele>
        <time>2017-07-25T14:37:48Z</time>
      </trkpt>
      <trkpt lat="49.45464" lon="1.15155">
        <ele>98</ele>
        <time>2017-07-25T14:37:48Z</time>
      </trkpt>
      <trkpt lat="49.45468" lon="1.1515">
        <ele>98</ele>
        <time>2017-07-25T14:38:16Z</time>
      </trkpt>
      <trkpt lat="49.4547" lon="1.15146">
        <ele>98</ele>
        <time>2017-07-25T14:38:16Z</time>
      </trkpt>
      <trkpt lat="49.4548" lon="1.15143">
        <ele>98</ele>
        <time>2017-07-25T14:38:17Z</time>
      </trkpt>
      <trkpt lat="49.45484" lon="1.15144">
        <ele>98</ele>
        <time>2017-07-25T14:38:17Z</time>
      </trkpt>
      <trkpt lat="49.45487" lon="1.15138">
        <ele>98</ele>
        <time>2017-07-25T14:38:17Z</time>
      </trkpt>
      <trkpt lat="49.45488" lon="1.15135">
        <ele>98</ele>
        <time>2017-07-25T14:39:32Z</time>
      </trkpt>
      <trkpt lat="49.45491" lon="1.15127">
        <ele>98</ele>
        <time>2017-07-25T14:39:32Z</time>
      </trkpt>
      <trkpt lat="49.45498" lon="1.15126">
        <ele>98</ele>
        <time>2017-07-25T14:39:32Z</time>
      </trkpt>
      <trkpt lat="49.45504" lon="1.15128">
        <ele>98</ele>
        <time>2017-07-25T14:39:32Z</time>
      </trkpt>
      <trkpt lat="49.45506" lon="1.15127">
        <ele>98</ele>
        <time>2017-07-25T14:39:32Z</time>
      </trkpt>
      <trkpt lat="49.45509" lon="1.15124">
        <ele>102</ele>
        <time>2017-07-25T14:43:56Z</time>
      </trkpt>
      <trkpt lat="49.45525" lon="1.15127">
        <ele>98</ele>
        <time>2017-07-25T14:43:56Z</time>
      </trkpt>
      <trkpt lat="49.45529" lon="1.15126">
        <ele>98</ele>
        <time>2017-07-25T14:43:56Z</time>
      </trkpt>
      <trkpt lat="49.45534" lon="1.15124">
        <ele>102</ele>
        <time>2017-07-25T14:43:56Z</time>
      </trkpt>
      <trkpt lat="49.45547" lon="1.15134">
        <ele>117</ele>
        <time>2017-07-25T14:43:57Z</time>
      </trkpt>
      <trkpt lat="49.45549" lon="1.1513">
        <ele>117</ele>
        <time>2017-07-25T14:44:12Z</time>
      </trkpt>
      <trkpt lat="49.45557" lon="1.15135">
        <ele>117</ele>
        <time>2017-07-25T14:44:12Z</time>
      </trkpt>
      <trkpt lat="49.45562" lon="1.15139">
        <ele>117</ele>
        <time>2017-07-25T14:44:12Z</time>
      </trkpt>
      <trkpt lat="49.45565" lon="1.15142">
        <ele>117</ele>
        <time>2017-07-25T14:44:12Z</time>
      </trkpt>
      <trkpt lat="49.45569" lon="1.15145">
        <ele>117</ele>
        <time>2017-07-25T14:44:44Z</time>
      </trkpt>
      <trkpt lat="49.45569" lon="1.15146">
        <ele>117</ele>
        <time>2017-07-25T14:44:45Z</time>
      </trkpt>
      <trkpt lat="49.4557" lon="1.15146">
        <ele>117</ele>
        <time>2017-07-25T14:44:45Z</time>
      </trkpt>
      <trkpt lat="49.4557" lon="1.15146">
        <ele>117</ele>
        <time>2017-07-25T14:44:46Z</time>
      </trkpt>
      <trkpt lat="49.45574" lon="1.15155">
        <ele>117</ele>
        <time>2017-07-25T14:44:46Z</time>
      </trkpt>
      <trkpt lat="49.4558" lon="1.15161">
        <ele>117</ele>
        <time>2017-07-25T14:45:00Z</time>
      </trkpt>
      <trkpt lat="49.45584" lon="1.1517">
        <ele>117</ele>
        <time>2017-07-25T14:45:00Z</time>
      </trkpt>
      <trkpt lat="49.45588" lon="1.15175">
        <ele>117</ele>
        <time>2017-07-25T14:45:00Z</time>
      </trkpt>
      <trkpt lat="49.45593" lon="1.15184">
        <ele>117</ele>
        <time>2017-07-25T14:45:00Z</time>
      </trkpt>
      <trkpt lat="49.45598" lon="1.15189">
        <ele>117</ele>
        <time>2017-07-25T14:45:16Z</time>
      </trkpt>
      <trkpt lat="49.45601" lon="1.1519">
        <ele>117</ele>
        <time>2017-07-25T14:45:16Z</time>
      </trkpt>
      <trkpt lat="49.45606" lon="1.15192">
        <ele>117</ele>
        <time>2017-07-25T14:45:16Z</time>
      </trkpt>
      <trkpt lat="49.4561" lon="1.15194">
        <ele>117</ele>
        <time>2017-07-25T14:45:16Z</time>
      </trkpt>
      <trkpt lat="49.45616" lon="1.15197">
        <ele>117</ele>
        <time>2017-07-25T14:45:32Z</time>
      </trkpt>
      <trkpt lat="49.45621" lon="1.15197">
        <ele>117</ele>
        <time>2017-07-25T14:45:32Z</time>
      </trkpt>
      <trkpt lat="49.45626" lon="1.152">
        <ele>129</ele>
        <time>2017-07-25T14:45:32Z</time>
      </trkpt>
      <trkpt lat="49.45633" lon="1.15206">
        <ele>129</ele>
        <time>2017-07-25T14:45:32Z</time>
      </trkpt>
      <trkpt lat="49.45641" lon="1.15211">
        <ele>130</ele>
        <time>2017-07-25T14:45:48Z</time>
      </trkpt>
      <trkpt lat="49.45643" lon="1.15207">
        <ele>129</ele>
        <time>2017-07-25T14:45:48Z</time>
      </trkpt>
      <trkpt lat="49.45643" lon="1.15204">
        <ele>129</ele>
        <time>2017-07-25T14:45:48Z</time>
      </trkpt>
      <trkpt lat="49.4565" lon="1.15208">
        <ele>129</ele>
        <time>2017-07-25T14:45:48Z</time>
      </trkpt>
      <trkpt lat="49.45652" lon="1.15201">
        <ele>129</ele>
        <time>2017-07-25T14:46:04Z</time>
      </trkpt>
      <trkpt lat="49.45656" lon="1.15201">
        <ele>129</ele>
        <time>2017-07-25T14:46:04Z</time>
      </trkpt>
      <trkpt lat="49.45661" lon="1.15205">
        <ele>129</ele>
        <time>2017-07-25T14:46:04Z</time>
      </trkpt>
      <trkpt lat="49.45669" lon="1.15201">
        <ele>129</ele>
        <time>2017-07-25T14:46:04Z</time>
      </trkpt>
      <trkpt lat="49.45667" lon="1.15214">
        <ele>130</ele>
        <time>2017-07-25T14:48:24Z</time>
      </trkpt>
      <trkpt lat="49.45667" lon="1.15215">
        <ele>130</ele>
        <time>2017-07-25T14:48:24Z</time>
      </trkpt>
      <trkpt lat="49.45666" lon="1.15215">
        <ele>130</ele>
        <time>2017-07-25T14:48:24Z</time>
      </trkpt>
      <trkpt lat="49.45665" lon="1.15215">
        <ele>130</ele>
        <time>2017-07-25T14:48:24Z</time>
      </trkpt>
      <trkpt lat="49.45665" lon="1.15215">
        <ele>130</ele>
        <time>2017-07-25T14:48:24Z</time>
      </trkpt>
      <trkpt lat="49.45665" lon="1.15215">
        <ele>130</ele>
        <time>2017-07-25T14:52:56Z</time>
      </trkpt>
      <trkpt lat="49.45674" lon="1.15224">
        <ele>130</ele>
        <time>2017-07-25T14:52:56Z</time>
      </trkpt>
      <trkpt lat="49.45675" lon="1.15224">
        <ele>130</ele>
        <time>2017-07-25T14:52:56Z</time>
      </trkpt>
      <trkpt lat="49.45676" lon="1.15223">
        <ele>130</ele>
        <time>2017-07-25T14:52:56Z</time>
      </trkpt>
      <trkpt lat="49.45677" lon="1.15223">
        <ele>130</ele>
        <time>2017-07-25T14:52:57Z</time>
      </trkpt>
      <trkpt lat="49.45678" lon="1.15223">
        <ele>130</ele>
        <time>2017-07-25T14:53:40Z</time>
      </trkpt>
      <trkpt lat="49.45684" lon="1.15222">
        <ele>130</ele>
        <time>2017-07-25T14:53:40Z</time>
      </trkpt>
      <trkpt lat="49.45691" lon="1.15218">
        <ele>130</ele>
        <time>2017-07-25T14:53:40Z</time>
      </trkpt>
      <trkpt lat="49.4569" lon="1.15209">
        <ele>130</ele>
        <time>2017-07-25T14:53:40Z</time>
      </trkpt>
      <trkpt lat="49.45695" lon="1.15207">
        <ele>129</ele>
        <time>2017-07-25T14:53:41Z</time>
      </trkpt>
      <trkpt lat="49.45698" lon="1.15199">
        <ele>129</ele>
        <time>2017-07-25T14:55:16Z</time>
      </trkpt>
      <trkpt lat="49.45698" lon="1.15199">
        <ele>129</ele>
        <time>2017-07-25T14:55:16Z</time>
      </trkpt>
      <trkpt lat="49.45698" lon="1.15199">
        <ele>129</ele>
        <time>2017-07-25T14:55:16Z</time>
      </trkpt>
      <trkpt lat="49.45698" lon="1.15198">
        <ele>129</ele>
        <time>2017-07-25T14:55:16Z</time>
      </trkpt>
      <trkpt lat="49.457" lon="1.15184">
        <ele>129</ele>
        <time>2017-07-25T14:55:17Z</time>
      </trkpt>
      <trkpt lat="49.45704" lon="1.15172">
        <ele>129</ele>
        <time>2017-07-25T14:55:32Z</time>
      </trkpt>
      <trkpt lat="49.45708" lon="1.15168">
        <ele>136</ele>
        <time>2017-07-25T14:55:32Z</time>
      </trkpt>
      <trkpt lat="49.45711" lon="1.15169">
        <ele>136</ele>
        <time>2017-07-25T14:55:32Z</time>
      </trkpt>
      <trkpt lat="49.45714" lon="1.15166">
        <ele>136</ele>
        <time>2017-07-25T14:55:32Z</time>
      </trkpt>
      <trkpt lat="49.45719" lon="1.15159">
        <ele>136</ele>
        <time>2017-07-25T14:56:08Z</time>
      </trkpt>
      <trkpt lat="49.45719" lon="1.15159">
        <ele>136</ele>
        <time>2017-07-25T14:56:08Z</time>
      </trkpt>
      <trkpt lat="49.45719" lon="1.15158">
        <ele>136</ele>
        <time>2017-07-25T14:56:08Z</time>
      </trkpt>
      <trkpt lat="49.45722" lon="1.1515">
        <ele>136</ele>
        <time>2017-07-25T14:56:08Z</time>
      </trkpt>
      <trkpt lat="49.45731" lon="1.15138">
        <ele>136</ele>
        <time>2017-07-25T14:56:09Z</time>
      </trkpt>
      <trkpt lat="49.45729" lon="1.15122">
        <ele>136</ele>
        <time>2017-07-25T14:56:24Z</time>
      </trkpt>
      <trkpt lat="49.45735" lon="1.15114">
        <ele>136</ele>
        <time>2017-07-25T14:56:24Z</time>
      </trkpt>
      <trkpt lat="49.4574" lon="1.15103">
        <ele>136</ele>
        <time>2017-07-25T14:56:24Z</time>
      </trkpt>
      <trkpt lat="49.4574" lon="1.15093">
        <ele>136</ele>
        <time>2017-07-25T14:56:24Z</time>
      </trkpt>
      <trkpt lat="49.45746" lon="1.15091">
        <ele>136</ele>
        <time>2017-07-25T14:56:40Z</time>
      </trkpt>
      <trkpt lat="49.4575" lon="1.15087">
        <ele>136</ele>
        <time>2017-07-25T14:56:40Z</time>
      </trkpt>
      <trkpt lat="49.45752" lon="1.15086">
        <ele>136</ele>
        <time>2017-07-25T14:56:40Z</time>
      </trkpt>
      <trkpt lat="49.45758" lon="1.15083">
        <ele>136</ele>
        <time>2017-07-25T14:56:40Z</time>
      </trkpt>
      <trkpt lat="49.45762" lon="1.15079">
        <ele>136</ele>
        <time>2017-07-25T14:56:56Z</time>
      </trkpt>
      <trkpt lat="49.45766" lon="1.1507">
        <ele>136</ele>
        <time>2017-07-25T14:56:56Z</time>
      </trkpt>
      <trkpt lat="49.45772" lon="1.15062">
        <ele>136</ele>
        <time>2017-07-25T14:56:56Z</time>
      </trkpt>
      <trkpt lat="49.45776" lon="1.15059">
        <ele>136</ele>
        <time>2017-07-25T14:56:56Z</time>
      </trkpt>
      <trkpt lat="49.45781" lon="1.15053">
        <ele>136</ele>
        <time>2017-07-25T14:57:12Z</time>
      </trkpt>
      <trkpt lat="49.45785" lon="1.15049">
        <ele>136</ele>
        <time>2017-07-25T14:57:12Z</time>
      </trkpt>
      <trkpt lat="49.4579" lon="1.15047">
        <ele>136</ele>
        <time>2017-07-25T14:57:12Z</time>
      </trkpt>
      <trkpt lat="49.45794" lon="1.15042">
        <ele>137</ele>
        <time>2017-07-25T14:57:12Z</time>
      </trkpt>
      <trkpt lat="49.45796" lon="1.15038">
        <ele>135</ele>
        <time>2017-07-25T14:57:48Z</time>
      </trkpt>
      <trkpt lat="49.45796" lon="1.15037">
        <ele>135</ele>
        <time>2017-07-25T14:57:48Z</time>
      </trkpt>
      <trkpt lat="49.45797" lon="1.15038">
        <ele>135</ele>
        <time>2017-07-25T14:57:48Z</time>
      </trkpt>
      <trkpt lat="49.45804" lon="1.15032">
        <ele>135</ele>
        <time>2017-07-25T14:57:48Z</time>
      </trkpt>
      <trkpt lat="49.4581" lon="1.15033">
        <ele>135</ele>
        <time>2017-07-25T14:57:48Z</time>
      </trkpt>
      <trkpt lat="49.45828" lon="1.15031">
        <ele>135</ele>
        <time>2017-07-25T14:59:16Z</time>
      </trkpt>
      <trkpt lat="49.45828" lon="1.15031">
        <ele>135</ele>
        <time>2017-07-25T14:59:16Z</time>
      </trkpt>
      <trkpt lat="49.45828" lon="1.15031">
        <ele>135</ele>
        <time>2017-07-25T14:59:16Z</time>
      </trkpt>
      <trkpt lat="49.45829" lon="1.15034">
        <ele>135</ele>
        <time>2017-07-25T14:59:16Z</time>
      </trkpt>
      <trkpt lat="49.45834" lon="1.15043">
        <ele>137</ele>
        <time>2017-07-25T14:59:17Z</time>
      </trkpt>
      <trkpt lat="49.45838" lon="1.15049">
        <ele>137</ele>
        <time>2017-07-25T14:59:32Z</time>
      </trkpt>
      <trkpt lat="49.45842" lon="1.1505">
        <ele>137</ele>
        <time>2017-07-25T14:59:32Z</time>
      </trkpt>
      <trkpt lat="49.45845" lon="1.15056">
        <ele>137</ele>
        <time>2017-07-25T14:59:32Z</time>
      </trkpt>
      <trkpt lat="49.45847" lon="1.15058">
        <ele>137</ele>
        <time>2017-07-25T14:59:32Z</time>
      </trkpt>
      <trkpt lat="49.4585" lon="1.15059">
        <ele>137</ele>
        <time>2017-07-25T14:59:48Z</time>
      </trkpt>
      <trkpt lat="49.4585" lon="1.15068">
        <ele>137</ele>
        <time>2017-07-25T14:59:49Z</time>
      </trkpt>
      <trkpt lat="49.45853" lon="1.15069">
        <ele>137</ele>
        <time>2017-07-25T14:59:49Z</time>
      </trkpt>
      <trkpt lat="49.45856" lon="1.15074">
        <ele>137</ele>
        <time>2017-07-25T14:59:49Z</time>
      </trkpt>
      <trkpt lat="49.45866" lon="1.15081">
        <ele>137</ele>
        <time>2017-07-25T15:01:52Z</time>
      </trkpt>
      <trkpt lat="49.45866" lon="1.15081">
        <ele>137</ele>
        <time>2017-07-25T15:01:52Z</time>
      </trkpt>
      <trkpt lat="49.45866" lon="1.15081">
        <ele>137</ele>
        <time>2017-07-25T15:01:53Z</time>
      </trkpt>
      <trkpt lat="49.45868" lon="1.15087">
        <ele>137</ele>
        <time>2017-07-25T15:01:53Z</time>
      </trkpt>
      <trkpt lat="49.45878" lon="1.15093">
        <ele>138</ele>
        <time>2017-07-25T15:01:54Z</time>
      </trkpt>
      <trkpt lat="49.45884" lon="1.15097">
        <ele>138</ele>
        <time>2017-07-25T15:02:08Z</time>
      </trkpt>
      <trkpt lat="49.45891" lon="1.151">
        <ele>138</ele>
        <time>2017-07-25T15:02:08Z</time>
      </trkpt>
      <trkpt lat="49.45896" lon="1.15103">
        <ele>138</ele>
        <time>2017-07-25T15:02:08Z</time>
      </trkpt>
      <trkpt lat="49.45901" lon="1.15106">
        <ele>138</ele>
        <time>2017-07-25T15:02:08Z</time>
      </trkpt>
      <trkpt lat="49.45905" lon="1.15112">
        <ele>138</ele>
        <time>2017-07-25T15:02:24Z</time>
      </trkpt>
      <trkpt lat="49.45909" lon="1.15116">
        <ele>138</ele>
        <time>2017-07-25T15:02:24Z</time>
      </trkpt>
      <trkpt lat="49.45915" lon="1.15117">
        <ele>138</ele>
        <time>2017-07-25T15:02:24Z</time>
      </trkpt>
      <trkpt lat="49.45917" lon="1.15118">
        <ele>138</ele>
        <time>2017-07-25T15:02:24Z</time>
      </trkpt>
      <trkpt lat="49.4592" lon="1.15123">
        <ele>138</ele>
        <time>2017-07-25T15:02:40Z</time>
      </trkpt>
      <trkpt lat="49.45927" lon="1.15125">
        <ele>138</ele>
        <time>2017-07-25T15:02:40Z</time>
      </trkpt>
      <trkpt lat="49.45933" lon="1.15127">
        <ele>140</ele>
        <time>2017-07-25T15:02:40Z</time>
      </trkpt>
      <trkpt lat="49.45937" lon="1.1513">
        <ele>140</ele>
        <time>2017-07-25T15:02:40Z</time>
      </trkpt>
      <trkpt lat="49.45943" lon="1.15136">
        <ele>140</ele>
        <time>2017-07-25T15:02:56Z</time>
      </trkpt>
      <trkpt lat="49.45944" lon="1.15137">
        <ele>140</ele>
        <time>2017-07-25T15:02:56Z</time>
      </trkpt>
      <trkpt lat="49.45951" lon="1.15142">
        <ele>140</ele>
        <time>2017-07-25T15:02:57Z</time>
      </trkpt>
      <trkpt lat="49.45956" lon="1.15143">
        <ele>140</ele>
        <time>2017-07-25T15:02:57Z</time>
      </trkpt>
      <trkpt lat="49.4596" lon="1.15146">
        <ele>142</ele>
        <time>2017-07-25T15:03:12Z</time>
      </trkpt>
      <trkpt lat="49.45963" lon="1.15147">
        <ele>142</ele>
        <time>2017-07-25T15:03:12Z</time>
      </trkpt>
      <trkpt lat="49.45963" lon="1.15155">
        <ele>142</ele>
        <time>2017-07-25T15:03:12Z</time>
      </trkpt>
      <trkpt lat="49.45963" lon="1.15162">
        <ele>142</ele>
        <time>2017-07-25T15:03:12Z</time>
      </trkpt>
      <trkpt lat="49.45965" lon="1.15169">
        <ele>142</ele>
        <time>2017-07-25T15:03:40Z</time>
      </trkpt>
      <trkpt lat="49.45964" lon="1.15173">
        <ele>142</ele>
        <time>2017-07-25T15:03:40Z</time>
      </trkpt>
      <trkpt lat="49.45962" lon="1.15178">
        <ele>142</ele>
        <time>2017-07-25T15:03:40Z</time>
      </trkpt>
      <trkpt lat="49.45962" lon="1.15187">
        <ele>142</ele>
        <time>2017-07-25T15:03:40Z</time>
      </trkpt>
      <trkpt lat="49.4596" lon="1.15195">
        <ele>142</ele>
        <time>2017-07-25T15:03:40Z</time>
      </trkpt>
      <trkpt lat="49.45957" lon="1.15203">
        <ele>140</ele>
        <time>2017-07-25T15:03:56Z</time>
      </trkpt>
      <trkpt lat="49.45954" lon="1.15213">
        <ele>142</ele>
        <time>2017-07-25T15:03:56Z</time>
      </trkpt>
      <trkpt lat="49.45955" lon="1.15223">
        <ele>142</ele>
        <time>2017-07-25T15:03:56Z</time>
      </trkpt>
      <trkpt lat="49.45952" lon="1.15234">
        <ele>142</ele>
        <time>2017-07-25T15:03:56Z</time>
      </trkpt>
      <trkpt lat="49.45952" lon="1.15236">
        <ele>142</ele>
        <time>2017-07-25T15:04:12Z</time>
      </trkpt>
      <trkpt lat="49.45954" lon="1.15241">
        <ele>142</ele>
        <time>2017-07-25T15:04:12Z</time>
      </trkpt>
      <trkpt lat="49.45956" lon="1.15249">
        <ele>142</ele>
        <time>2017-07-25T15:04:12Z</time>
      </trkpt>
      <trkpt lat="49.45957" lon="1.1526">
        <ele>142</ele>
        <time>2017-07-25T15:04:12Z</time>
      </trkpt>
      <trkpt lat="49.45957" lon="1.15266">
        <ele>142</ele>
        <time>2017-07-25T15:04:28Z</time>
      </trkpt>
      <trkpt lat="49.45961" lon="1.15273">
        <ele>143</ele>
        <time>2017-07-25T15:04:28Z</time>
      </trkpt>
      <trkpt lat="49.45958" lon="1.15276">
        <ele>142</ele>
        <time>2017-07-25T15:04:28Z</time>
      </trkpt>
      <trkpt lat="49.45959" lon="1.15285">
        <ele>143</ele>
        <time>2017-07-25T15:04:28Z</time>
      </trkpt>
      <trkpt lat="49.45963" lon="1.15305">
        <ele>145</ele>
        <time>2017-07-25T15:05:00Z</time>
      </trkpt>
      <trkpt lat="49.45964" lon="1.15306">
        <ele>145</ele>
        <time>2017-07-25T15:05:00Z</time>
      </trkpt>
      <trkpt lat="49.45963" lon="1.15307">
        <ele>145</ele>
        <time>2017-07-25T15:05:00Z</time>
      </trkpt>
      <trkpt lat="49.45963" lon="1.15309">
        <ele>145</ele>
        <time>2017-07-25T15:05:00Z</time>
      </trkpt>
      <trkpt lat="49.45964" lon="1.15313">
        <ele>145</ele>
        <time>2017-07-25T15:05:00Z</time>
      </trkpt>
      <trkpt lat="49.45966" lon="1.15325">
        <ele>145</ele>
        <time>2017-07-25T15:05:16Z</time>
      </trkpt>
      <trkpt lat="49.45969" lon="1.15332">
        <ele>145</ele>
        <time>2017-07-25T15:05:17Z</time>
      </trkpt>
      <trkpt lat="49.45972" lon="1.15349">
        <ele>145</ele>
        <time>2017-07-25T15:05:17Z</time>
      </trkpt>
      <trkpt lat="49.45974" lon="1.15364">
        <ele>145</ele>
        <time>2017-07-25T15:05:17Z</time>
      </trkpt>
      <trkpt lat="49.45969" lon="1.15373">
        <ele>145</ele>
        <time>2017-07-25T15:05:32Z</time>
      </trkpt>
      <trkpt lat="49.45966" lon="1.15375">
        <ele>145</ele>
        <time>2017-07-25T15:05:32Z</time>
      </trkpt>
      <trkpt lat="49.45966" lon="1.15376">
        <ele>145</ele>
        <time>2017-07-25T15:05:32Z</time>
      </trkpt>
      <trkpt lat="49.45963" lon="1.15384">
        <ele>145</ele>
        <time>2017-07-25T15:05:32Z</time>
      </trkpt>
      <trkpt lat="49.45962" lon="1.1539">
        <ele>145</ele>
        <time>2017-07-25T15:05:48Z</time>
      </trkpt>
      <trkpt lat="49.45962" lon="1.154">
        <ele>145</ele>
        <time>2017-07-25T15:05:48Z</time>
      </trkpt>
      <trkpt lat="49.45962" lon="1.15405">
        <ele>145</ele>
        <time>2017-07-25T15:05:49Z</time>
      </trkpt>
      <trkpt lat="49.45961" lon="1.15408">
        <ele>145</ele>
        <time>2017-07-25T15:05:49Z</time>
      </trkpt>
      <trkpt lat="49.45961" lon="1.1541">
        <ele>145</ele>
        <time>2017-07-25T15:06:04Z</time>
      </trkpt>
      <trkpt lat="49.45962" lon="1.15424">
        <ele>145</ele>
        <time>2017-07-25T15:06:05Z</time>
      </trkpt>
      <trkpt lat="49.45962" lon="1.15434">
        <ele>145</ele>
        <time>2017-07-25T15:06:05Z</time>
      </trkpt>
      <trkpt lat="49.45962" lon="1.15444">
        <ele>145</ele>
        <time>2017-07-25T15:06:06Z</time>
      </trkpt>
      <trkpt lat="49.45962" lon="1.15453">
        <ele>145</ele>
        <time>2017-07-25T15:06:20Z</time>
      </trkpt>
      <trkpt lat="49.45963" lon="1.15462">
        <ele>145</ele>
        <time>2017-07-25T15:06:20Z</time>
      </trkpt>
      <trkpt lat="49.45963" lon="1.15468">
        <ele>145</ele>
        <time>2017-07-25T15:06:20Z</time>
      </trkpt>
      <trkpt lat="49.45966" lon="1.15475">
        <ele>145</ele>
        <time>2017-07-25T15:06:20Z</time>
      </trkpt>
      <trkpt lat="49.45967" lon="1.15482">
        <ele>145</ele>
        <time>2017-07-25T15:06:36Z</time>
      </trkpt>
      <trkpt lat="49.45968" lon="1.1549">
        <ele>145</ele>
        <time>2017-07-25T15:06:36Z</time>
      </trkpt>
      <trkpt lat="49.45967" lon="1.15499">
        <ele>145</ele>
        <time>2017-07-25T15:06:36Z</time>
      </trkpt>
      <trkpt lat="49.45965" lon="1.15505">
        <ele>145</ele>
        <time>2017-07-25T15:06:36Z</time>
      </trkpt>
      <trkpt lat="49.45968" lon="1.15513">
        <ele>145</ele>
        <time>2017-07-25T15:06:52Z</time>
      </trkpt>
      <trkpt lat="49.45967" lon="1.15521">
        <ele>145</ele>
        <time>2017-07-25T15:06:52Z</time>
      </trkpt>
      <trkpt lat="49.45969" lon="1.15529">
        <ele>145</ele>
        <time>2017-07-25T15:06:52Z</time>
      </trkpt>
      <trkpt lat="49.45972" lon="1.15536">
        <ele>145</ele>
        <time>2017-07-25T15:06:52Z</time>
      </trkpt>
      <trkpt lat="49.45975" lon="1.15543">
        <ele>143</ele>
        <time>2017-07-25T15:07:08Z</time>
      </trkpt>
      <trkpt lat="49.4598" lon="1.15551">
        <ele>143</ele>
        <time>2017-07-25T15:07:08Z</time>
      </trkpt>
      <trkpt lat="49.45982" lon="1.15558">
        <ele>143</ele>
        <time>2017-07-25T15:07:08Z</time>
      </trkpt>
      <trkpt lat="49.45984" lon="1.15563">
        <ele>143</ele>
        <time>2017-07-25T15:07:08Z</time>
      </trkpt>
      <trkpt lat="49.45987" lon="1.15567">
        <ele>143</ele>
        <time>2017-07-25T15:07:24Z</time>
      </trkpt>
      <trkpt lat="49.4599" lon="1.15572">
        <ele>143</ele>
        <time>2017-07-25T15:07:24Z</time>
      </trkpt>
      <trkpt lat="49.45993" lon="1.15576">
        <ele>143</ele>
        <time>2017-07-25T15:07:24Z</time>
      </trkpt>
      <trkpt lat="49.45994" lon="1.15576">
        <ele>143</ele>
        <time>2017-07-25T15:07:24Z</time>
      </trkpt>
      <trkpt lat="49.45995" lon="1.15582">
        <ele>143</ele>
        <time>2017-07-25T15:07:40Z</time>
      </trkpt>
      <trkpt lat="49.45998" lon="1.15588">
        <ele>143</ele>
        <time>2017-07-25T15:07:40Z</time>
      </trkpt>
      <trkpt lat="49.46003" lon="1.15592">
        <ele>143</ele>
        <time>2017-07-25T15:07:40Z</time>
      </trkpt>
      <trkpt lat="49.46004" lon="1.15596">
        <ele>143</ele>
        <time>2017-07-25T15:07:40Z</time>
      </trkpt>
      <trkpt lat="49.46008" lon="1.15598">
        <ele>143</ele>
        <time>2017-07-25T15:07:56Z</time>
      </trkpt>
      <trkpt lat="49.46017" lon="1.15601">
        <ele>143</ele>
        <time>2017-07-25T15:07:56Z</time>
      </trkpt>
      <trkpt lat="49.46022" lon="1.15606">
        <ele>143</ele>
        <time>2017-07-25T15:07:56Z</time>
      </trkpt>
      <trkpt lat="49.46026" lon="1.15609">
        <ele>143</ele>
        <time>2017-07-25T15:07:56Z</time>
      </trkpt>
      <trkpt lat="49.4603" lon="1.15612">
        <ele>143</ele>
        <time>2017-07-25T15:08:12Z</time>
      </trkpt>
      <trkpt lat="49.46038" lon="1.15618">
        <ele>143</ele>
        <time>2017-07-25T15:08:12Z</time>
      </trkpt>
      <trkpt lat="49.46039" lon="1.15623">
        <ele>143</ele>
        <time>2017-07-25T15:08:12Z</time>
      </trkpt>
      <trkpt lat="49.46047" lon="1.15627">
        <ele>146</ele>
        <time>2017-07-25T15:08:12Z</time>
      </trkpt>
      <trkpt lat="49.46046" lon="1.15625">
        <ele>146</ele>
        <time>2017-07-25T15:08:28Z</time>
      </trkpt>
      <trkpt lat="49.46056" lon="1.15631">
        <ele>146</ele>
        <time>2017-07-25T15:08:28Z</time>
      </trkpt>
      <trkpt lat="49.46061" lon="1.15639">
        <ele>146</ele>
        <time>2017-07-25T15:08:28Z</time>
      </trkpt>
      <trkpt lat="49.46071" lon="1.15643">
        <ele>146</ele>
        <time>2017-07-25T15:08:28Z</time>
      </trkpt>
      <trkpt lat="49.46075" lon="1.15644">
        <ele>146</ele>
        <time>2017-07-25T15:08:44Z</time>
      </trkpt>
      <trkpt lat="49.4608" lon="1.15643">
        <ele>146</ele>
        <time>2017-07-25T15:08:44Z</time>
      </trkpt>
      <trkpt lat="49.46084" lon="1.15648">
        <ele>146</ele>
        <time>2017-07-25T15:08:44Z</time>
      </trkpt>
      <trkpt lat="49.46085" lon="1.15646">
        <ele>146</ele>
        <time>2017-07-25T15:08:44Z</time>
      </trkpt>
      <trkpt lat="49.46083" lon="1.15647">
        <ele>146</ele>
        <time>2017-07-25T15:09:00Z</time>
      </trkpt>
      <trkpt lat="49.46091" lon="1.15649">
        <ele>146</ele>
        <time>2017-07-25T15:09:00Z</time>
      </trkpt>
      <trkpt lat="49.46097" lon="1.15651">
        <ele>146</ele>
        <time>2017-07-25T15:09:00Z</time>
      </trkpt>
      <trkpt lat="49.46101" lon="1.15648">
        <ele>146</ele>
        <time>2017-07-25T15:09:00Z</time>
      </trkpt>
      <trkpt lat="49.46106" lon="1.15649">
        <ele>146</ele>
        <time>2017-07-25T15:09:16Z</time>
      </trkpt>
      <trkpt lat="49.46112" lon="1.15644">
        <ele>146</ele>
        <time>2017-07-25T15:09:16Z</time>
      </trkpt>
      <trkpt lat="49.46116" lon="1.15639">
        <ele>146</ele>
        <time>2017-07-25T15:09:16Z</time>
      </trkpt>
      <trkpt lat="49.46117" lon="1.15633">
        <ele>146</ele>
        <time>2017-07-25T15:09:16Z</time>
      </trkpt>
      <trkpt lat="49.46117" lon="1.15631">
        <ele>146</ele>
        <time>2017-07-25T15:09:32Z</time>
      </trkpt>
      <trkpt lat="49.4612" lon="1.15623">
        <ele>143</ele>
        <time>2017-07-25T15:09:32Z</time>
      </trkpt>
      <trkpt lat="49.4612" lon="1.15616">
        <ele>143</ele>
        <time>2017-07-25T15:09:32Z</time>
      </trkpt>
      <trkpt lat="49.46123" lon="1.15607">
        <ele>143</ele>
        <time>2017-07-25T15:09:32Z</time>
      </trkpt>
      <trkpt lat="49.46124" lon="1.156">
        <ele>143</ele>
        <time>2017-07-25T15:09:48Z</time>
      </trkpt>
      <trkpt lat="49.46124" lon="1.15593">
        <ele>143</ele>
        <time>2017-07-25T15:09:48Z</time>
      </trkpt>
      <trkpt lat="49.46125" lon="1.15587">
        <ele>145</ele>
        <time>2017-07-25T15:09:48Z</time>
      </trkpt>
      <trkpt lat="49.46129" lon="1.15583">
        <ele>145</ele>
        <time>2017-07-25T15:09:48Z</time>
      </trkpt>
      <trkpt lat="49.46133" lon="1.15582">
        <ele>145</ele>
        <time>2017-07-25T15:10:04Z</time>
      </trkpt>
      <trkpt lat="49.46139" lon="1.15582">
        <ele>145</ele>
        <time>2017-07-25T15:10:04Z</time>
      </trkpt>
      <trkpt lat="49.46143" lon="1.15579">
        <ele>145</ele>
        <time>2017-07-25T15:10:04Z</time>
      </trkpt>
      <trkpt lat="49.46147" lon="1.15576">
        <ele>145</ele>
        <time>2017-07-25T15:10:04Z</time>
      </trkpt>
      <trkpt lat="49.46153" lon="1.15575">
        <ele>145</ele>
        <time>2017-07-25T15:10:20Z</time>
      </trkpt>
      <trkpt lat="49.46156" lon="1.15576">
        <ele>145</ele>
        <time>2017-07-25T15:10:20Z</time>
      </trkpt>
      <trkpt lat="49.46162" lon="1.15576">
        <ele>145</ele>
        <time>2017-07-25T15:10:20Z</time>
      </trkpt>
      <trkpt lat="49.46168" lon="1.15571">
        <ele>145</ele>
        <time>2017-07-25T15:10:20Z</time>
      </trkpt>
      <trkpt lat="49.46173" lon="1.15565">
        <ele>145</ele>
        <time>2017-07-25T15:10:36Z</time>
      </trkpt>
      <trkpt lat="49.46179" lon="1.15566">
        <ele>145</ele>
        <time>2017-07-25T15:10:36Z</time>
      </trkpt>
      <trkpt lat="49.46183" lon="1.1557">
        <ele>145</ele>
        <time>2017-07-25T15:10:36Z</time>
      </trkpt>
      <trkpt lat="49.46189" lon="1.15567">
        <ele>145</ele>
        <time>2017-07-25T15:10:36Z</time>
      </trkpt>
      <trkpt lat="49.46194" lon="1.15567">
        <ele>145</ele>
        <time>2017-07-25T15:10:52Z</time>
      </trkpt>
      <trkpt lat="49.46201" lon="1.15566">
        <ele>145</ele>
        <time>2017-07-25T15:10:52Z</time>
      </trkpt>
      <trkpt lat="49.46206" lon="1.15561">
        <ele>145</ele>
        <time>2017-07-25T15:10:52Z</time>
      </trkpt>
      <trkpt lat="49.46207" lon="1.15563">
        <ele>145</ele>
        <time>2017-07-25T15:10:52Z</time>
      </trkpt>
      <trkpt lat="49.46212" lon="1.15564">
        <ele>144</ele>
        <time>2017-07-25T15:11:08Z</time>
      </trkpt>
      <trkpt lat="49.46216" lon="1.15566">
        <ele>144</ele>
        <time>2017-07-25T15:11:08Z</time>
      </trkpt>
      <trkpt lat="49.46222" lon="1.15569">
        <ele>144</ele>
        <time>2017-07-25T15:11:08Z</time>
      </trkpt>
      <trkpt lat="49.46223" lon="1.15571">
        <ele>144</ele>
        <time>2017-07-25T15:11:09Z</time>
      </trkpt>
      <trkpt lat="49.4623" lon="1.15575">
        <ele>144</ele>
        <time>2017-07-25T15:11:24Z</time>
      </trkpt>
      <trkpt lat="49.46231" lon="1.15573">
        <ele>144</ele>
        <time>2017-07-25T15:11:24Z</time>
      </trkpt>
      <trkpt lat="49.46237" lon="1.15568">
        <ele>144</ele>
        <time>2017-07-25T15:11:24Z</time>
      </trkpt>
      <trkpt lat="49.46242" lon="1.15565">
        <ele>144</ele>
        <time>2017-07-25T15:11:24Z</time>
      </trkpt>
      <trkpt lat="49.46251" lon="1.15559">
        <ele>144</ele>
        <time>2017-07-25T15:11:52Z</time>
      </trkpt>
      <trkpt lat="49.46257" lon="1.15561">
        <ele>144</ele>
        <time>2017-07-25T15:11:52Z</time>
      </trkpt>
      <trkpt lat="49.46261" lon="1.15561">
        <ele>144</ele>
        <time>2017-07-25T15:11:52Z</time>
      </trkpt>
      <trkpt lat="49.46266" lon="1.15558">
        <ele>144</ele>
        <time>2017-07-25T15:11:53Z</time>
      </trkpt>
      <trkpt lat="49.46269" lon="1.15552">
        <ele>144</ele>
        <time>2017-07-25T15:11:53Z</time>
      </trkpt>
      <trkpt lat="49.46268" lon="1.1555">
        <ele>144</ele>
        <time>2017-07-25T15:12:08Z</time>
      </trkpt>
      <trkpt lat="49.46269" lon="1.15547">
        <ele>144</ele>
        <time>2017-07-25T15:12:08Z</time>
      </trkpt>
      <trkpt lat="49.46267" lon="1.1554">
        <ele>146</ele>
        <time>2017-07-25T15:12:08Z</time>
      </trkpt>
      <trkpt lat="49.46265" lon="1.15534">
        <ele>146</ele>
        <time>2017-07-25T15:12:08Z</time>
      </trkpt>
      <trkpt lat="49.46263" lon="1.15526">
        <ele>146</ele>
        <time>2017-07-25T15:12:24Z</time>
      </trkpt>
      <trkpt lat="49.46262" lon="1.1552">
        <ele>146</ele>
        <time>2017-07-25T15:12:24Z</time>
      </trkpt>
      <trkpt lat="49.46261" lon="1.15517">
        <ele>146</ele>
        <time>2017-07-25T15:12:24Z</time>
      </trkpt>
      <trkpt lat="49.4626" lon="1.15513">
        <ele>146</ele>
        <time>2017-07-25T15:12:24Z</time>
      </trkpt>
      <trkpt lat="49.4626" lon="1.15507">
        <ele>146</ele>
        <time>2017-07-25T15:12:40Z</time>
      </trkpt>
      <trkpt lat="49.4626" lon="1.15501">
        <ele>146</ele>
        <time>2017-07-25T15:12:40Z</time>
      </trkpt>
      <trkpt lat="49.46261" lon="1.15495">
        <ele>146</ele>
        <time>2017-07-25T15:12:40Z</time>
      </trkpt>
      <trkpt lat="49.46259" lon="1.15486">
        <ele>146</ele>
        <time>2017-07-25T15:12:40Z</time>
      </trkpt>
      <trkpt lat="49.46261" lon="1.15471">
        <ele>146</ele>
        <time>2017-07-25T15:13:08Z</time>
      </trkpt>
      <trkpt lat="49.46262" lon="1.15472">
        <ele>146</ele>
        <time>2017-07-25T15:13:08Z</time>
      </trkpt>
      <trkpt lat="49.46262" lon="1.15471">
        <ele>146</ele>
        <time>2017-07-25T15:13:08Z</time>
      </trkpt>
      <trkpt lat="49.46264" lon="1.15467">
        <ele>146</ele>
        <time>2017-07-25T15:13:08Z</time>
      </trkpt>
      <trkpt lat="49.46268" lon="1.15461">
        <ele>146</ele>
        <time>2017-07-25T15:13:09Z</time>
      </trkpt>
      <trkpt lat="49.46272" lon="1.15461">
        <ele>146</ele>
        <time>2017-07-25T15:13:24Z</time>
      </trkpt>
      <trkpt lat="49.46277" lon="1.15458">
        <ele>148</ele>
        <time>2017-07-25T15:13:24Z</time>
      </trkpt>
      <trkpt lat="49.46281" lon="1.15456">
        <ele>148</ele>
        <time>2017-07-25T15:13:24Z</time>
      </trkpt>
      <trkpt lat="49.46283" lon="1.15453">
        <ele>148</ele>
        <time>2017-07-25T15:13:24Z</time>
      </trkpt>
      <trkpt lat="49.46288" lon="1.1545">
        <ele>148</ele>
        <time>2017-07-25T15:13:44Z</time>
      </trkpt>
      <trkpt lat="49.46289" lon="1.15451">
        <ele>148</ele>
        <time>2017-07-25T15:13:44Z</time>
      </trkpt>
      <trkpt lat="49.46293" lon="1.1545">
        <ele>148</ele>
        <time>2017-07-25T15:13:44Z</time>
      </trkpt>
      <trkpt lat="49.46295" lon="1.15447">
        <ele>148</ele>
        <time>2017-07-25T15:13:44Z</time>
      </trkpt>
      <trkpt lat="49.46297" lon="1.15445">
        <ele>148</ele>
        <time>2017-07-25T15:13:45Z</time>
      </trkpt>
      <trkpt lat="49.46299" lon="1.15447">
        <ele>148</ele>
        <time>2017-07-25T15:14:00Z</time>
      </trkpt>
      <trkpt lat="49.46304" lon="1.15438">
        <ele>148</ele>
        <time>2017-07-25T15:14:00Z</time>
      </trkpt>
      <trkpt lat="49.46303" lon="1.15436">
        <ele>148</ele>
        <time>2017-07-25T15:14:00Z</time>
      </trkpt>
      <trkpt lat="49.46307" lon="1.15432">
        <ele>148</ele>
        <time>2017-07-25T15:14:00Z</time>
      </trkpt>
      <trkpt lat="49.46312" lon="1.15434">
        <ele>148</ele>
        <time>2017-07-25T15:14:16Z</time>
      </trkpt>
      <trkpt lat="49.46319" lon="1.15433">
        <ele>148</ele>
        <time>2017-07-25T15:14:16Z</time>
      </trkpt>
      <trkpt lat="49.46324" lon="1.15429">
        <ele>148</ele>
        <time>2017-07-25T15:14:16Z</time>
      </trkpt>
      <trkpt lat="49.46328" lon="1.1543">
        <ele>148</ele>
        <time>2017-07-25T15:14:16Z</time>
      </trkpt>
      <trkpt lat="49.46334" lon="1.15427">
        <ele>148</ele>
        <time>2017-07-25T15:14:32Z</time>
      </trkpt>
      <trkpt lat="49.46336" lon="1.15424">
        <ele>148</ele>
        <time>2017-07-25T15:14:32Z</time>
      </trkpt>
      <trkpt lat="49.46341" lon="1.15425">
        <ele>148</ele>
        <time>2017-07-25T15:14:32Z</time>
      </trkpt>
      <trkpt lat="49.46345" lon="1.15421">
        <ele>148</ele>
        <time>2017-07-25T15:14:32Z</time>
      </trkpt>
      <trkpt lat="49.46351" lon="1.15419">
        <ele>148</ele>
        <time>2017-07-25T15:14:48Z</time>
      </trkpt>
      <trkpt lat="49.46357" lon="1.15417">
        <ele>148</ele>
        <time>2017-07-25T15:14:48Z</time>
      </trkpt>
      <trkpt lat="49.46363" lon="1.15416">
        <ele>148</ele>
        <time>2017-07-25T15:14:48Z</time>
      </trkpt>
      <trkpt lat="49.46366" lon="1.15414">
        <ele>148</ele>
        <time>2017-07-25T15:14:48Z</time>
      </trkpt>
      <trkpt lat="49.46371" lon="1.15413">
        <ele>148</ele>
        <time>2017-07-25T15:15:04Z</time>
      </trkpt>
      <trkpt lat="49.46377" lon="1.15414">
        <ele>148</ele>
        <time>2017-07-25T15:15:04Z</time>
      </trkpt>
      <trkpt lat="49.46381" lon="1.15413">
        <ele>148</ele>
        <time>2017-07-25T15:15:04Z</time>
      </trkpt>
      <trkpt lat="49.46387" lon="1.15412">
        <ele>148</ele>
        <time>2017-07-25T15:15:04Z</time>
      </trkpt>
      <trkpt lat="49.4639" lon="1.1541">
        <ele>148</ele>
        <time>2017-07-25T15:15:52Z</time>
      </trkpt>
      <trkpt lat="49.4639" lon="1.1541">
        <ele>148</ele>
        <time>2017-07-25T15:15:52Z</time>
      </trkpt>
      <trkpt lat="49.46391" lon="1.1541">
        <ele>148</ele>
        <time>2017-07-25T15:15:52Z</time>
      </trkpt>
      <trkpt lat="49.46392" lon="1.15405">
        <ele>148</ele>
        <time>2017-07-25T15:15:53Z</time>
      </trkpt>
      <trkpt lat="49.46395" lon="1.15398">
        <ele>148</ele>
        <time>2017-07-25T15:15:53Z</time>
      </trkpt>
      <trkpt lat="49.46396" lon="1.15379">
        <ele>148</ele>
        <time>2017-07-25T15:16:24Z</time>
      </trkpt>
      <trkpt lat="49.46398" lon="1.15377">
        <ele>148</ele>
        <time>2017-07-25T15:16:24Z</time>
      </trkpt>
      <trkpt lat="49.464" lon="1.15369">
        <ele>146</ele>
        <time>2017-07-25T15:16:24Z</time>
      </trkpt>
      <trkpt lat="49.46402" lon="1.1536">
        <ele>146</ele>
        <time>2017-07-25T15:16:24Z</time>
      </trkpt>
      <trkpt lat="49.46405" lon="1.1535">
        <ele>146</ele>
        <time>2017-07-25T15:16:24Z</time>
      </trkpt>
      <trkpt lat="49.46407" lon="1.15347">
        <ele>146</ele>
        <time>2017-07-25T15:16:40Z</time>
      </trkpt>
      <trkpt lat="49.46411" lon="1.15345">
        <ele>146</ele>
        <time>2017-07-25T15:16:40Z</time>
      </trkpt>
      <trkpt lat="49.46412" lon="1.15341">
        <ele>146</ele>
        <time>2017-07-25T15:16:40Z</time>
      </trkpt>
      <trkpt lat="49.4641" lon="1.15332">
        <ele>146</ele>
        <time>2017-07-25T15:16:40Z</time>
      </trkpt>
      <trkpt lat="49.4643" lon="1.15331">
        <ele>146</ele>
        <time>2017-07-25T15:17:16Z</time>
      </trkpt>
      <trkpt lat="49.46432" lon="1.15327">
        <ele>146</ele>
        <time>2017-07-25T15:17:16Z</time>
      </trkpt>
      <trkpt lat="49.46438" lon="1.15327">
        <ele>146</ele>
        <time>2017-07-25T15:17:16Z</time>
      </trkpt>
      <trkpt lat="49.46445" lon="1.15324">
        <ele>146</ele>
        <time>2017-07-25T15:17:16Z</time>
      </trkpt>
      <trkpt lat="49.46449" lon="1.15317">
        <ele>146</ele>
        <time>2017-07-25T15:17:17Z</time>
      </trkpt>
      <trkpt lat="49.46452" lon="1.1531">
        <ele>146</ele>
        <time>2017-07-25T15:17:32Z</time>
      </trkpt>
      <trkpt lat="49.46457" lon="1.15305">
        <ele>146</ele>
        <time>2017-07-25T15:17:32Z</time>
      </trkpt>
      <trkpt lat="49.46461" lon="1.15304">
        <ele>146</ele>
        <time>2017-07-25T15:17:32Z</time>
      </trkpt>
      <trkpt lat="49.4647" lon="1.15303">
        <ele>146</ele>
        <time>2017-07-25T15:17:32Z</time>
      </trkpt>
      <trkpt lat="49.46478" lon="1.15302">
        <ele>146</ele>
        <time>2017-07-25T15:17:48Z</time>
      </trkpt>
      <trkpt lat="49.46484" lon="1.15303">
        <ele>146</ele>
        <time>2017-07-25T15:17:48Z</time>
      </trkpt>
      <trkpt lat="49.46488" lon="1.15298">
        <ele>146</ele>
        <time>2017-07-25T15:17:48Z</time>
      </trkpt>
      <trkpt lat="49.46491" lon="1.15295">
        <ele>146</ele>
        <time>2017-07-25T15:17:48Z</time>
      </trkpt>
      <trkpt lat="49.46492" lon="1.15292">
        <ele>146</ele>
        <time>2017-07-25T15:18:40Z</time>
      </trkpt>
      <trkpt lat="49.46502" lon="1.15291">
        <ele>147</ele>
        <time>2017-07-25T15:18:40Z</time>
      </trkpt>
      <trkpt lat="49.46505" lon="1.15287">
        <ele>147</ele>
        <time>2017-07-25T15:18:40Z</time>
      </trkpt>
      <trkpt lat="49.46508" lon="1.15287">
        <ele>147</ele>
        <time>2017-07-25T15:18:40Z</time>
      </trkpt>
      <trkpt lat="49.4651" lon="1.15289">
        <ele>147</ele>
        <time>2017-07-25T15:18:40Z</time>
      </trkpt>
      <trkpt lat="49.46509" lon="1.1529">
        <ele>147</ele>
        <time>2017-07-25T15:18:56Z</time>
      </trkpt>
      <trkpt lat="49.4651" lon="1.15291">
        <ele>147</ele>
        <time>2017-07-25T15:18:56Z</time>
      </trkpt>
      <trkpt lat="49.46511" lon="1.15298">
        <ele>146</ele>
        <time>2017-07-25T15:18:56Z</time>
      </trkpt>
      <trkpt lat="49.46513" lon="1.15305">
        <ele>146</ele>
        <time>2017-07-25T15:18:56Z</time>
      </trkpt>
      <trkpt lat="49.46517" lon="1.15314">
        <ele>146</ele>
        <time>2017-07-25T15:19:12Z</time>
      </trkpt>
      <trkpt lat="49.46516" lon="1.15319">
        <ele>146</ele>
        <time>2017-07-25T15:19:12Z</time>
      </trkpt>
      <trkpt lat="49.4652" lon="1.15327">
        <ele>146</ele>
        <time>2017-07-25T15:19:12Z</time>
      </trkpt>
      <trkpt lat="49.46523" lon="1.15333">
        <ele>146</ele>
        <time>2017-07-25T15:19:12Z</time>
      </trkpt>
      <trkpt lat="49.46525" lon="1.1534">
        <ele>146</ele>
        <time>2017-07-25T15:19:28Z</time>
      </trkpt>
      <trkpt lat="49.46526" lon="1.15343">
        <ele>146</ele>
        <time>2017-07-25T15:19:28Z</time>
      </trkpt>
      <trkpt lat="49.46527" lon="1.15354">
        <ele>146</ele>
        <time>2017-07-25T15:19:28Z</time>
      </trkpt>
      <trkpt lat="49.46526" lon="1.15359">
        <ele>146</ele>
        <time>2017-07-25T15:19:28Z</time>
      </trkpt>
      <trkpt lat="49.46526" lon="1.15364">
        <ele>146</ele>
        <time>2017-07-25T15:19:48Z</time>
      </trkpt>
      <trkpt lat="49.46525" lon="1.15364">
        <ele>146</ele>
        <time>2017-07-25T15:19:48Z</time>
      </trkpt>
      <trkpt lat="49.46525" lon="1.15365">
        <ele>146</ele>
        <time>2017-07-25T15:19:48Z</time>
      </trkpt>
      <trkpt lat="49.46525" lon="1.15371">
        <ele>146</ele>
        <time>2017-07-25T15:19:48Z</time>
      </trkpt>
      <trkpt lat="49.46526" lon="1.15379">
        <ele>146</ele>
        <time>2017-07-25T15:19:48Z</time>
      </trkpt>
      <trkpt lat="49.46531" lon="1.15387">
        <ele>146</ele>
        <time>2017-07-25T15:20:04Z</time>
      </trkpt>
      <trkpt lat="49.46531" lon="1.15396">
        <ele>146</ele>
        <time>2017-07-25T15:20:04Z</time>
      </trkpt>
      <trkpt lat="49.46531" lon="1.15402">
        <ele>146</ele>
        <time>2017-07-25T15:20:04Z</time>
      </trkpt>
      <trkpt lat="49.4653" lon="1.15404">
        <ele>146</ele>
        <time>2017-07-25T15:20:04Z</time>
      </trkpt>
      <trkpt lat="49.46531" lon="1.15412">
        <ele>146</ele>
        <time>2017-07-25T15:20:20Z</time>
      </trkpt>
      <trkpt lat="49.46534" lon="1.15419">
        <ele>146</ele>
        <time>2017-07-25T15:20:20Z</time>
      </trkpt>
      <trkpt lat="49.46536" lon="1.15427">
        <ele>146</ele>
        <time>2017-07-25T15:20:20Z</time>
      </trkpt>
      <trkpt lat="49.46539" lon="1.15433">
        <ele>146</ele>
        <time>2017-07-25T15:20:20Z</time>
      </trkpt>
      <trkpt lat="49.4654" lon="1.15438">
        <ele>146</ele>
        <time>2017-07-25T15:20:36Z</time>
      </trkpt>
      <trkpt lat="49.46542" lon="1.15443">
        <ele>147</ele>
        <time>2017-07-25T15:20:36Z</time>
      </trkpt>
      <trkpt lat="49.46544" lon="1.15447">
        <ele>147</ele>
        <time>2017-07-25T15:20:36Z</time>
      </trkpt>
      <trkpt lat="49.46548" lon="1.15454">
        <ele>147</ele>
        <time>2017-07-25T15:20:36Z</time>
      </trkpt>
      <trkpt lat="49.46553" lon="1.15457">
        <ele>147</ele>
        <time>2017-07-25T15:20:52Z</time>
      </trkpt>
      <trkpt lat="49.46553" lon="1.1546">
        <ele>146</ele>
        <time>2017-07-25T15:20:52Z</time>
      </trkpt>
      <trkpt lat="49.46557" lon="1.15463">
        <ele>146</ele>
        <time>2017-07-25T15:20:52Z</time>
      </trkpt>
      <trkpt lat="49.46566" lon="1.15467">
        <ele>146</ele>
        <time>2017-07-25T15:20:52Z</time>
      </trkpt>
      <trkpt lat="49.46569" lon="1.15465">
        <ele>146</ele>
        <time>2017-07-25T15:21:08Z</time>
      </trkpt>
      <trkpt lat="49.46574" lon="1.15471">
        <ele>146</ele>
        <time>2017-07-25T15:21:09Z</time>
      </trkpt>
      <trkpt lat="49.4658" lon="1.15476">
        <ele>146</ele>
        <time>2017-07-25T15:21:09Z</time>
      </trkpt>
      <trkpt lat="49.46583" lon="1.15485">
        <ele>146</ele>
        <time>2017-07-25T15:21:09Z</time>
      </trkpt>
      <trkpt lat="49.46585" lon="1.15491">
        <ele>146</ele>
        <time>2017-07-25T15:21:24Z</time>
      </trkpt>
      <trkpt lat="49.46587" lon="1.15495">
        <ele>146</ele>
        <time>2017-07-25T15:21:24Z</time>
      </trkpt>
      <trkpt lat="49.46588" lon="1.155">
        <ele>146</ele>
        <time>2017-07-25T15:21:24Z</time>
      </trkpt>
      <trkpt lat="49.46591" lon="1.15505">
        <ele>146</ele>
        <time>2017-07-25T15:21:24Z</time>
      </trkpt>
      <trkpt lat="49.46594" lon="1.15511">
        <ele>146</ele>
        <time>2017-07-25T15:21:40Z</time>
      </trkpt>
      <trkpt lat="49.46598" lon="1.15519">
        <ele>146</ele>
        <time>2017-07-25T15:21:40Z</time>
      </trkpt>
      <trkpt lat="49.46601" lon="1.15524">
        <ele>146</ele>
        <time>2017-07-25T15:21:40Z</time>
      </trkpt>
      <trkpt lat="49.46603" lon="1.1553">
        <ele>146</ele>
        <time>2017-07-25T15:21:40Z</time>
      </trkpt>
      <trkpt lat="49.46607" lon="1.15535">
        <ele>146</ele>
        <time>2017-07-25T15:21:56Z</time>
      </trkpt>
      <trkpt lat="49.46609" lon="1.15543">
        <ele>144</ele>
        <time>2017-07-25T15:21:56Z</time>
      </trkpt>
      <trkpt lat="49.46609" lon="1.15551">
        <ele>144</ele>
        <time>2017-07-25T15:21:56Z</time>
      </trkpt>
      <trkpt lat="49.46609" lon="1.15555">
        <ele>144</ele>
        <time>2017-07-25T15:21:57Z</time>
      </trkpt>
      <trkpt lat="49.46612" lon="1.15561">
        <ele>144</ele>
        <time>2017-07-25T15:22:12Z</time>
      </trkpt>
      <trkpt lat="49.46615" lon="1.15568">
        <ele>144</ele>
        <time>2017-07-25T15:22:12Z</time>
      </trkpt>
      <trkpt lat="49.46618" lon="1.15574">
        <ele>144</ele>
        <time>2017-07-25T15:22:12Z</time>
      </trkpt>
      <trkpt lat="49.4662" lon="1.1558">
        <ele>144</ele>
        <time>2017-07-25T15:22:12Z</time>
      </trkpt>
      <trkpt lat="49.46624" lon="1.15587">
        <ele>144</ele>
        <time>2017-07-25T15:22:28Z</time>
      </trkpt>
      <trkpt lat="49.46627" lon="1.15593">
        <ele>141</ele>
        <time>2017-07-25T15:22:28Z</time>
      </trkpt>
      <trkpt lat="49.46631" lon="1.15599">
        <ele>141</ele>
        <time>2017-07-25T15:22:28Z</time>
      </trkpt>
      <trkpt lat="49.46637" lon="1.15605">
        <ele>141</ele>
        <time>2017-07-25T15:22:28Z</time>
      </trkpt>
      <trkpt lat="49.4664" lon="1.1561">
        <ele>141</ele>
        <time>2017-07-25T15:22:44Z</time>
      </trkpt>
      <trkpt lat="49.46642" lon="1.15615">
        <ele>141</ele>
        <time>2017-07-25T15:22:44Z</time>
      </trkpt>
      <trkpt lat="49.46644" lon="1.15619">
        <ele>141</ele>
        <time>2017-07-25T15:22:44Z</time>
      </trkpt>
      <trkpt lat="49.46647" lon="1.15621">
        <ele>141</ele>
        <time>2017-07-25T15:22:44Z</time>
      </trkpt>
      <trkpt lat="49.46648" lon="1.15621">
        <ele>141</ele>
        <time>2017-07-25T15:23:00Z</time>
      </trkpt>
      <trkpt lat="49.46653" lon="1.15621">
        <ele>141</ele>
        <time>2017-07-25T15:23:01Z</time>
      </trkpt>
      <trkpt lat="49.46658" lon="1.15625">
        <ele>141</ele>
        <time>2017-07-25T15:23:01Z</time>
      </trkpt>
      <trkpt lat="49.46662" lon="1.15624">
        <ele>141</ele>
        <time>2017-07-25T15:23:02Z</time>
      </trkpt>
      <trkpt lat="49.46667" lon="1.15627">
        <ele>139</ele>
        <time>2017-07-25T15:23:16Z</time>
      </trkpt>
      <trkpt lat="49.46672" lon="1.15631">
        <ele>139</ele>
        <time>2017-07-25T15:23:16Z</time>
      </trkpt>
      <trkpt lat="49.46677" lon="1.15633">
        <ele>139</ele>
        <time>2017-07-25T15:23:16Z</time>
      </trkpt>
      <trkpt lat="49.46681" lon="1.15634">
        <ele>139</ele>
        <time>2017-07-25T15:23:16Z</time>
      </trkpt>
      <trkpt lat="49.46685" lon="1.15635">
        <ele>139</ele>
        <time>2017-07-25T15:23:32Z</time>
      </trkpt>
      <trkpt lat="49.46689" lon="1.1564">
        <ele>139</ele>
        <time>2017-07-25T15:23:32Z</time>
      </trkpt>
      <trkpt lat="49.46693" lon="1.1564">
        <ele>139</ele>
        <time>2017-07-25T15:23:32Z</time>
      </trkpt>
      <trkpt lat="49.46696" lon="1.15643">
        <ele>139</ele>
        <time>2017-07-25T15:23:32Z</time>
      </trkpt>
      <trkpt lat="49.46696" lon="1.15639">
        <ele>139</ele>
        <time>2017-07-25T15:24:00Z</time>
      </trkpt>
      <trkpt lat="49.46696" lon="1.15641">
        <ele>139</ele>
        <time>2017-07-25T15:24:00Z</time>
      </trkpt>
      <trkpt lat="49.46697" lon="1.15642">
        <ele>139</ele>
        <time>2017-07-25T15:24:00Z</time>
      </trkpt>
      <trkpt lat="49.46698" lon="1.15642">
        <ele>139</ele>
        <time>2017-07-25T15:24:00Z</time>
      </trkpt>
      <trkpt lat="49.46709" lon="1.15647">
        <ele>134</ele>
        <time>2017-07-25T15:24:00Z</time>
      </trkpt>
      <trkpt lat="49.46708" lon="1.15652">
        <ele>139</ele>
        <time>2017-07-25T15:24:16Z</time>
      </trkpt>
      <trkpt lat="49.46714" lon="1.15656">
        <ele>134</ele>
        <time>2017-07-25T15:24:16Z</time>
      </trkpt>
      <trkpt lat="49.46717" lon="1.1566">
        <ele>134</ele>
        <time>2017-07-25T15:24:16Z</time>
      </trkpt>
      <trkpt lat="49.4672" lon="1.15659">
        <ele>134</ele>
        <time>2017-07-25T15:24:16Z</time>
      </trkpt>
      <trkpt lat="49.46723" lon="1.1566">
        <ele>134</ele>
        <time>2017-07-25T15:24:40Z</time>
      </trkpt>
      <trkpt lat="49.46724" lon="1.1566">
        <ele>134</ele>
        <time>2017-07-25T15:24:41Z</time>
      </trkpt>
      <trkpt lat="49.46724" lon="1.1566">
        <ele>134</ele>
        <time>2017-07-25T15:24:42Z</time>
      </trkpt>
      <trkpt lat="49.46725" lon="1.15661">
        <ele>134</ele>
        <time>2017-07-25T15:24:42Z</time>
      </trkpt>
      <trkpt lat="49.46735" lon="1.15664">
        <ele>134</ele>
        <time>2017-07-25T15:24:42Z</time>
      </trkpt>
      <trkpt lat="49.46741" lon="1.15664">
        <ele>134</ele>
        <time>2017-07-25T15:24:56Z</time>
      </trkpt>
      <trkpt lat="49.46746" lon="1.15666">
        <ele>134</ele>
        <time>2017-07-25T15:24:56Z</time>
      </trkpt>
      <trkpt lat="49.4675" lon="1.15669">
        <ele>134</ele>
        <time>2017-07-25T15:24:56Z</time>
      </trkpt>
      <trkpt lat="49.46753" lon="1.1567">
        <ele>134</ele>
        <time>2017-07-25T15:24:56Z</time>
      </trkpt>
      <trkpt lat="49.46764" lon="1.15673">
        <ele>134</ele>
        <time>2017-07-25T15:25:28Z</time>
      </trkpt>
      <trkpt lat="49.46765" lon="1.15674">
        <ele>134</ele>
        <time>2017-07-25T15:25:28Z</time>
      </trkpt>
      <trkpt lat="49.46765" lon="1.15674">
        <ele>134</ele>
        <time>2017-07-25T15:25:28Z</time>
      </trkpt>
      <trkpt lat="49.46765" lon="1.15674">
        <ele>134</ele>
        <time>2017-07-25T15:25:28Z</time>
      </trkpt>
      <trkpt lat="49.46769" lon="1.15677">
        <ele>134</ele>
        <time>2017-07-25T15:25:28Z</time>
      </trkpt>
      <trkpt lat="49.46777" lon="1.15694">
        <ele>134</ele>
        <time>2017-07-25T15:26:04Z</time>
      </trkpt>
      <trkpt lat="49.46777" lon="1.15694">
        <ele>134</ele>
        <time>2017-07-25T15:26:04Z</time>
      </trkpt>
      <trkpt lat="49.46777" lon="1.15695">
        <ele>134</ele>
        <time>2017-07-25T15:26:04Z</time>
      </trkpt>
      <trkpt lat="49.46776" lon="1.157">
        <ele>134</ele>
        <time>2017-07-25T15:26:04Z</time>
      </trkpt>
      <trkpt lat="49.46776" lon="1.15711">
        <ele>128</ele>
        <time>2017-07-25T15:26:04Z</time>
      </trkpt>
      <trkpt lat="49.46776" lon="1.15727">
        <ele>128</ele>
        <time>2017-07-25T15:26:20Z</time>
      </trkpt>
      <trkpt lat="49.46775" lon="1.15734">
        <ele>128</ele>
        <time>2017-07-25T15:26:20Z</time>
      </trkpt>
      <trkpt lat="49.46772" lon="1.15746">
        <ele>128</ele>
        <time>2017-07-25T15:26:20Z</time>
      </trkpt>
      <trkpt lat="49.46774" lon="1.15748">
        <ele>128</ele>
        <time>2017-07-25T15:26:20Z</time>
      </trkpt>
      <trkpt lat="49.46774" lon="1.15742">
        <ele>128</ele>
        <time>2017-07-25T15:27:00Z</time>
      </trkpt>
      <trkpt lat="49.46774" lon="1.15742">
        <ele>128</ele>
        <time>2017-07-25T15:27:00Z</time>
      </trkpt>
      <trkpt lat="49.46771" lon="1.15749">
        <ele>128</ele>
        <time>2017-07-25T15:27:00Z</time>
      </trkpt>
      <trkpt lat="49.46766" lon="1.15748">
        <ele>128</ele>
        <time>2017-07-25T15:27:00Z</time>
      </trkpt>
      <trkpt lat="49.46765" lon="1.15752">
        <ele>128</ele>
        <time>2017-07-25T15:27:00Z</time>
      </trkpt>
      <trkpt lat="49.46765" lon="1.15768">
        <ele>128</ele>
        <time>2017-07-25T15:27:16Z</time>
      </trkpt>
      <trkpt lat="49.46766" lon="1.15779">
        <ele>128</ele>
        <time>2017-07-25T15:27:16Z</time>
      </trkpt>
      <trkpt lat="49.46768" lon="1.15787">
        <ele>128</ele>
        <time>2017-07-25T15:27:16Z</time>
      </trkpt>
      <trkpt lat="49.46767" lon="1.15788">
        <ele>128</ele>
        <time>2017-07-25T15:27:16Z</time>
      </trkpt>
      <trkpt lat="49.46768" lon="1.15789">
        <ele>128</ele>
        <time>2017-07-25T15:28:16Z</time>
      </trkpt>
      <trkpt lat="49.46768" lon="1.15789">
        <ele>128</ele>
        <time>2017-07-25T15:28:16Z</time>
      </trkpt>
      <trkpt lat="49.46767" lon="1.158">
        <ele>119</ele>
        <time>2017-07-25T15:28:16Z</time>
      </trkpt>
      <trkpt lat="49.46769" lon="1.15804">
        <ele>119</ele>
        <time>2017-07-25T15:28:16Z</time>
      </trkpt>
      <trkpt lat="49.46771" lon="1.15806">
        <ele>119</ele>
        <time>2017-07-25T15:28:16Z</time>
      </trkpt>
      <trkpt lat="49.46771" lon="1.15806">
        <ele>119</ele>
        <time>2017-07-25T15:28:32Z</time>
      </trkpt>
      <trkpt lat="49.46771" lon="1.15806">
        <ele>119</ele>
        <time>2017-07-25T15:28:32Z</time>
      </trkpt>
      <trkpt lat="49.46774" lon="1.1581">
        <ele>119</ele>
        <time>2017-07-25T15:28:32Z</time>
      </trkpt>
      <trkpt lat="49.4678" lon="1.15825">
        <ele>119</ele>
        <time>2017-07-25T15:28:32Z</time>
      </trkpt>
      <trkpt lat="49.46785" lon="1.15834">
        <ele>119</ele>
        <time>2017-07-25T15:28:48Z</time>
      </trkpt>
      <trkpt lat="49.4679" lon="1.15837">
        <ele>119</ele>
        <time>2017-07-25T15:28:49Z</time>
      </trkpt>
      <trkpt lat="49.46791" lon="1.15842">
        <ele>119</ele>
        <time>2017-07-25T15:28:49Z</time>
      </trkpt>
      <trkpt lat="49.46797" lon="1.15848">
        <ele>114</ele>
        <time>2017-07-25T15:28:49Z</time>
      </trkpt>
      <trkpt lat="49.46799" lon="1.15853">
        <ele>114</ele>
        <time>2017-07-25T15:29:04Z</time>
      </trkpt>
      <trkpt lat="49.46801" lon="1.15856">
        <ele>114</ele>
        <time>2017-07-25T15:29:04Z</time>
      </trkpt>
      <trkpt lat="49.46804" lon="1.15859">
        <ele>114</ele>
        <time>2017-07-25T15:29:04Z</time>
      </trkpt>
      <trkpt lat="49.46807" lon="1.15863">
        <ele>114</ele>
        <time>2017-07-25T15:29:04Z</time>
      </trkpt>
      <trkpt lat="49.46811" lon="1.15866">
        <ele>114</ele>
        <time>2017-07-25T15:29:24Z</time>
      </trkpt>
      <trkpt lat="49.4681" lon="1.15864">
        <ele>114</ele>
        <time>2017-07-25T15:29:24Z</time>
      </trkpt>
      <trkpt lat="49.46812" lon="1.1587">
        <ele>114</ele>
        <time>2017-07-25T15:29:24Z</time>
      </trkpt>
      <trkpt lat="49.46814" lon="1.15875">
        <ele>114</ele>
        <time>2017-07-25T15:29:24Z</time>
      </trkpt>
      <trkpt lat="49.46819" lon="1.15882">
        <ele>103</ele>
        <time>2017-07-25T15:29:24Z</time>
      </trkpt>
      <trkpt lat="49.46822" lon="1.15886">
        <ele>103</ele>
        <time>2017-07-25T15:29:40Z</time>
      </trkpt>
      <trkpt lat="49.46825" lon="1.15892">
        <ele>103</ele>
        <time>2017-07-25T15:29:40Z</time>
      </trkpt>
      <trkpt lat="49.46828" lon="1.15898">
        <ele>103</ele>
        <time>2017-07-25T15:29:40Z</time>
      </trkpt>
      <trkpt lat="49.4683" lon="1.15903">
        <ele>103</ele>
        <time>2017-07-25T15:29:40Z</time>
      </trkpt>
      <trkpt lat="49.46832" lon="1.15907">
        <ele>103</ele>
        <time>2017-07-25T15:30:00Z</time>
      </trkpt>
      <trkpt lat="49.46833" lon="1.15909">
        <ele>103</ele>
        <time>2017-07-25T15:30:00Z</time>
      </trkpt>
      <trkpt lat="49.46835" lon="1.15913">
        <ele>103</ele>
        <time>2017-07-25T15:30:00Z</time>
      </trkpt>
      <trkpt lat="49.46836" lon="1.15915">
        <ele>103</ele>
        <time>2017-07-25T15:30:00Z</time>
      </trkpt>
      <trkpt lat="49.46838" lon="1.1592">
        <ele>103</ele>
        <time>2017-07-25T15:30:00Z</time>
      </trkpt>
      <trkpt lat="49.46841" lon="1.15922">
        <ele>103</ele>
        <time>2017-07-25T15:30:20Z</time>
      </trkpt>
      <trkpt lat="49.46842" lon="1.15927">
        <ele>103</ele>
        <time>2017-07-25T15:30:20Z</time>
      </trkpt>
      <trkpt lat="49.46843" lon="1.15929">
        <ele>103</ele>
        <time>2017-07-25T15:30:20Z</time>
      </trkpt>
      <trkpt lat="49.46847" lon="1.1593">
        <ele>103</ele>
        <time>2017-07-25T15:30:20Z</time>
      </trkpt>
      <trkpt lat="49.46848" lon="1.15931">
        <ele>103</ele>
        <time>2017-07-25T15:30:20Z</time>
      </trkpt>
      <trkpt lat="49.46848" lon="1.15932">
        <ele>103</ele>
        <time>2017-07-25T15:31:12Z</time>
      </trkpt>
      <trkpt lat="49.46845" lon="1.15939">
        <ele>103</ele>
        <time>2017-07-25T15:31:12Z</time>
      </trkpt>
      <trkpt lat="49.46849" lon="1.15946">
        <ele>103</ele>
        <time>2017-07-25T15:31:12Z</time>
      </trkpt>
      <trkpt lat="49.46853" lon="1.15952">
        <ele>103</ele>
        <time>2017-07-25T15:31:12Z</time>
      </trkpt>
      <trkpt lat="49.46856" lon="1.15953">
        <ele>103</ele>
        <time>2017-07-25T15:31:12Z</time>
      </trkpt>
      <trkpt lat="49.46862" lon="1.15959">
        <ele>80</ele>
        <time>2017-07-25T15:31:28Z</time>
      </trkpt>
      <trkpt lat="49.46863" lon="1.15971">
        <ele>80</ele>
        <time>2017-07-25T15:31:28Z</time>
      </trkpt>
      <trkpt lat="49.46862" lon="1.15974">
        <ele>80</ele>
        <time>2017-07-25T15:31:29Z</time>
      </trkpt>
      <trkpt lat="49.46866" lon="1.15982">
        <ele>80</ele>
        <time>2017-07-25T15:31:29Z</time>
      </trkpt>
      <trkpt lat="49.46867" lon="1.1599">
        <ele>80</ele>
        <time>2017-07-25T15:31:44Z</time>
      </trkpt>
      <trkpt lat="49.46867" lon="1.15992">
        <ele>80</ele>
        <time>2017-07-25T15:31:44Z</time>
      </trkpt>
      <trkpt lat="49.46871" lon="1.15999">
        <ele>80</ele>
        <time>2017-07-25T15:31:44Z</time>
      </trkpt>
      <trkpt lat="49.46873" lon="1.16003">
        <ele>80</ele>
        <time>2017-07-25T15:31:44Z</time>
      </trkpt>
      <trkpt lat="49.46882" lon="1.16012">
        <ele>79</ele>
        <time>2017-07-25T15:32:20Z</time>
      </trkpt>
      <trkpt lat="49.46884" lon="1.16012">
        <ele>79</ele>
        <time>2017-07-25T15:32:20Z</time>
      </trkpt>
      <trkpt lat="49.46884" lon="1.16012">
        <ele>79</ele>
        <time>2017-07-25T15:32:20Z</time>
      </trkpt>
      <trkpt lat="49.46885" lon="1.16012">
        <ele>79</ele>
        <time>2017-07-25T15:32:21Z</time>
      </trkpt>
      <trkpt lat="49.46903" lon="1.16022">
        <ele>79</ele>
        <time>2017-07-25T15:32:21Z</time>
      </trkpt>
      <trkpt lat="49.46908" lon="1.16036">
        <ele>79</ele>
        <time>2017-07-25T15:32:48Z</time>
      </trkpt>
      <trkpt lat="49.46912" lon="1.16039">
        <ele>79</ele>
        <time>2017-07-25T15:32:48Z</time>
      </trkpt>
      <trkpt lat="49.46916" lon="1.16045">
        <ele>75</ele>
        <time>2017-07-25T15:32:48Z</time>
      </trkpt>
      <trkpt lat="49.46921" lon="1.16046">
        <ele>75</ele>
        <time>2017-07-25T15:32:48Z</time>
      </trkpt>
      <trkpt lat="49.46925" lon="1.16047">
        <ele>75</ele>
        <time>2017-07-25T15:32:48Z</time>
      </trkpt>
      <trkpt lat="49.46934" lon="1.16049">
        <ele>75</ele>
        <time>2017-07-25T15:33:04Z</time>
      </trkpt>
      <trkpt lat="49.46943" lon="1.16053">
        <ele>75</ele>
        <time>2017-07-25T15:33:04Z</time>
      </trkpt>
      <trkpt lat="49.46945" lon="1.16058">
        <ele>75</ele>
        <time>2017-07-25T15:33:04Z</time>
      </trkpt>
      <trkpt lat="49.46946" lon="1.16061">
        <ele>75</ele>
        <time>2017-07-25T15:33:05Z</time>
      </trkpt>
      <trkpt lat="49.46953" lon="1.16063">
        <ele>75</ele>
        <time>2017-07-25T15:33:20Z</time>
      </trkpt>
      <trkpt lat="49.46957" lon="1.16066">
        <ele>75</ele>
        <time>2017-07-25T15:33:20Z</time>
      </trkpt>
      <trkpt lat="49.46962" lon="1.1607">
        <ele>71</ele>
        <time>2017-07-25T15:33:20Z</time>
      </trkpt>
      <trkpt lat="49.46968" lon="1.16068">
        <ele>71</ele>
        <time>2017-07-25T15:33:20Z</time>
      </trkpt>
      <trkpt lat="49.46973" lon="1.16072">
        <ele>71</ele>
        <time>2017-07-25T15:33:40Z</time>
      </trkpt>
      <trkpt lat="49.46976" lon="1.16075">
        <ele>71</ele>
        <time>2017-07-25T15:33:41Z</time>
      </trkpt>
      <trkpt lat="49.46978" lon="1.16079">
        <ele>71</ele>
        <time>2017-07-25T15:33:41Z</time>
      </trkpt>
      <trkpt lat="49.46978" lon="1.16079">
        <ele>71</ele>
        <time>2017-07-25T15:33:41Z</time>
      </trkpt>
      <trkpt lat="49.46985" lon="1.16086">
        <ele>71</ele>
        <time>2017-07-25T15:33:41Z</time>
      </trkpt>
      <trkpt lat="49.46988" lon="1.16089">
        <ele>71</ele>
        <time>2017-07-25T15:33:56Z</time>
      </trkpt>
      <trkpt lat="49.46992" lon="1.16091">
        <ele>71</ele>
        <time>2017-07-25T15:33:57Z</time>
      </trkpt>
      <trkpt lat="49.46998" lon="1.16097">
        <ele>71</ele>
        <time>2017-07-25T15:33:58Z</time>
      </trkpt>
      <trkpt lat="49.47002" lon="1.16101">
        <ele>71</ele>
        <time>2017-07-25T15:33:59Z</time>
      </trkpt>
      <trkpt lat="49.47006" lon="1.16101">
        <ele>71</ele>
        <time>2017-07-25T15:34:12Z</time>
      </trkpt>
      <trkpt lat="49.47009" lon="1.16099">
        <ele>71</ele>
        <time>2017-07-25T15:34:12Z</time>
      </trkpt>
      <trkpt lat="49.47015" lon="1.16101">
        <ele>71</ele>
        <time>2017-07-25T15:34:12Z</time>
      </trkpt>
      <trkpt lat="49.47018" lon="1.16103">
        <ele>71</ele>
        <time>2017-07-25T15:34:12Z</time>
      </trkpt>
      <trkpt lat="49.4703" lon="1.1611">
        <ele>71</ele>
        <time>2017-07-25T15:34:28Z</time>
      </trkpt>
      <trkpt lat="49.47035" lon="1.16107">
        <ele>71</ele>
        <time>2017-07-25T15:34:28Z</time>
      </trkpt>
      <trkpt lat="49.47032" lon="1.16101">
        <ele>71</ele>
        <time>2017-07-25T15:34:28Z</time>
      </trkpt>
      <trkpt lat="49.4703" lon="1.1609">
        <ele>71</ele>
        <time>2017-07-25T15:34:28Z</time>
      </trkpt>
      <trkpt lat="49.47031" lon="1.16087">
        <ele>71</ele>
        <time>2017-07-25T15:34:44Z</time>
      </trkpt>
      <trkpt lat="49.47036" lon="1.16082">
        <ele>71</ele>
        <time>2017-07-25T15:34:44Z</time>
      </trkpt>
      <trkpt lat="49.47039" lon="1.16082">
        <ele>71</ele>
        <time>2017-07-25T15:34:45Z</time>
      </trkpt>
      <trkpt lat="49.47041" lon="1.16086">
        <ele>71</ele>
        <time>2017-07-25T15:34:45Z</time>
      </trkpt>
      <trkpt lat="49.47042" lon="1.16087">
        <ele>79</ele>
        <time>2017-07-25T15:35:08Z</time>
      </trkpt>
      <trkpt lat="49.47042" lon="1.16087">
        <ele>79</ele>
        <time>2017-07-25T15:35:08Z</time>
      </trkpt>
      <trkpt lat="49.47043" lon="1.16087">
        <ele>79</ele>
        <time>2017-07-25T15:35:08Z</time>
      </trkpt>
      <trkpt lat="49.47043" lon="1.16087">
        <ele>79</ele>
        <time>2017-07-25T15:35:08Z</time>
      </trkpt>
      <trkpt lat="49.47051" lon="1.161">
        <ele>79</ele>
        <time>2017-07-25T15:35:08Z</time>
      </trkpt>
      <trkpt lat="49.47055" lon="1.16106">
        <ele>79</ele>
        <time>2017-07-25T15:35:24Z</time>
      </trkpt>
      <trkpt lat="49.47059" lon="1.16103">
        <ele>79</ele>
        <time>2017-07-25T15:35:24Z</time>
      </trkpt>
      <trkpt lat="49.47069" lon="1.16111">
        <ele>79</ele>
        <time>2017-07-25T15:35:24Z</time>
      </trkpt>
      <trkpt lat="49.47078" lon="1.16108">
        <ele>79</ele>
        <time>2017-07-25T15:35:24Z</time>
      </trkpt>
      <trkpt lat="49.47083" lon="1.16107">
        <ele>79</ele>
        <time>2017-07-25T15:35:40Z</time>
      </trkpt>
      <trkpt lat="49.47087" lon="1.16115">
        <ele>79</ele>
        <time>2017-07-25T15:35:40Z</time>
      </trkpt>
      <trkpt lat="49.47098" lon="1.1613">
        <ele>72</ele>
        <time>2017-07-25T15:35:40Z</time>
      </trkpt>
      <trkpt lat="49.471" lon="1.1613">
        <ele>72</ele>
        <time>2017-07-25T15:35:40Z</time>
      </trkpt>
      <trkpt lat="49.47105" lon="1.16126">
        <ele>72</ele>
        <time>2017-07-25T15:36:08Z</time>
      </trkpt>
      <trkpt lat="49.47107" lon="1.16126">
        <ele>72</ele>
        <time>2017-07-25T15:36:08Z</time>
      </trkpt>
      <trkpt lat="49.47111" lon="1.16125">
        <ele>79</ele>
        <time>2017-07-25T15:36:08Z</time>
      </trkpt>
      <trkpt lat="49.47112" lon="1.16134">
        <ele>72</ele>
        <time>2017-07-25T15:36:08Z</time>
      </trkpt>
      <trkpt lat="49.47116" lon="1.1614">
        <ele>72</ele>
        <time>2017-07-25T15:36:09Z</time>
      </trkpt>
      <trkpt lat="49.4712" lon="1.16147">
        <ele>72</ele>
        <time>2017-07-25T15:36:24Z</time>
      </trkpt>
      <trkpt lat="49.47123" lon="1.16153">
        <ele>72</ele>
        <time>2017-07-25T15:36:24Z</time>
      </trkpt>
      <trkpt lat="49.47126" lon="1.16154">
        <ele>76</ele>
        <time>2017-07-25T15:36:24Z</time>
      </trkpt>
      <trkpt lat="49.47131" lon="1.16158">
        <ele>76</ele>
        <time>2017-07-25T15:36:24Z</time>
      </trkpt>
      <trkpt lat="49.47135" lon="1.16157">
        <ele>76</ele>
        <time>2017-07-25T15:36:40Z</time>
      </trkpt>
      <trkpt lat="49.4714" lon="1.1616">
        <ele>76</ele>
        <time>2017-07-25T15:36:40Z</time>
      </trkpt>
      <trkpt lat="49.47144" lon="1.16163">
        <ele>76</ele>
        <time>2017-07-25T15:36:41Z</time>
      </trkpt>
      <trkpt lat="49.47145" lon="1.16165">
        <ele>76</ele>
        <time>2017-07-25T15:36:41Z</time>
      </trkpt>
      <trkpt lat="49.47147" lon="1.1617">
        <ele>76</ele>
        <time>2017-07-25T15:37:08Z</time>
      </trkpt>
      <trkpt lat="49.47149" lon="1.16169">
        <ele>76</ele>
        <time>2017-07-25T15:37:08Z</time>
      </trkpt>
      <trkpt lat="49.4715" lon="1.16168">
        <ele>76</ele>
        <time>2017-07-25T15:37:08Z</time>
      </trkpt>
      <trkpt lat="49.47151" lon="1.16167">
        <ele>76</ele>
        <time>2017-07-25T15:37:08Z</time>
      </trkpt>
      <trkpt lat="49.47158" lon="1.16157">
        <ele>76</ele>
        <time>2017-07-25T15:37:08Z</time>
      </trkpt>
      <trkpt lat="49.4717" lon="1.16155">
        <ele>76</ele>
        <time>2017-07-25T15:37:24Z</time>
      </trkpt>
      <trkpt lat="49.47175" lon="1.16155">
        <ele>76</ele>
        <time>2017-07-25T15:37:24Z</time>
      </trkpt>
      <trkpt lat="49.47185" lon="1.16155">
        <ele>76</ele>
        <time>2017-07-25T15:37:24Z</time>
      </trkpt>
      <trkpt lat="49.47191" lon="1.16154">
        <ele>76</ele>
        <time>2017-07-25T15:37:24Z</time>
      </trkpt>
      <trkpt lat="49.47192" lon="1.16149">
        <ele>76</ele>
        <time>2017-07-25T15:37:40Z</time>
      </trkpt>
      <trkpt lat="49.47195" lon="1.16144">
        <ele>76</ele>
        <time>2017-07-25T15:37:40Z</time>
      </trkpt>
      <trkpt lat="49.47195" lon="1.16136">
        <ele>76</ele>
        <time>2017-07-25T15:37:41Z</time>
      </trkpt>
      <trkpt lat="49.47194" lon="1.16131">
        <ele>76</ele>
        <time>2017-07-25T15:37:41Z</time>
      </trkpt>
      <trkpt lat="49.47193" lon="1.16121">
        <ele>86</ele>
        <time>2017-07-25T15:37:56Z</time>
      </trkpt>
      <trkpt lat="49.47189" lon="1.16107">
        <ele>86</ele>
        <time>2017-07-25T15:37:56Z</time>
      </trkpt>
      <trkpt lat="49.47182" lon="1.16098">
        <ele>86</ele>
        <time>2017-07-25T15:37:56Z</time>
      </trkpt>
      <trkpt lat="49.47186" lon="1.16093">
        <ele>86</ele>
        <time>2017-07-25T15:37:56Z</time>
      </trkpt>
      <trkpt lat="49.47184" lon="1.16087">
        <ele>86</ele>
        <time>2017-07-25T15:38:12Z</time>
      </trkpt>
      <trkpt lat="49.47184" lon="1.16085">
        <ele>86</ele>
        <time>2017-07-25T15:38:12Z</time>
      </trkpt>
      <trkpt lat="49.47186" lon="1.16081">
        <ele>86</ele>
        <time>2017-07-25T15:38:12Z</time>
      </trkpt>
      <trkpt lat="49.47189" lon="1.16074">
        <ele>86</ele>
        <time>2017-07-25T15:38:12Z</time>
      </trkpt>
      <trkpt lat="49.47186" lon="1.16066">
        <ele>86</ele>
        <time>2017-07-25T15:38:36Z</time>
      </trkpt>
      <trkpt lat="49.47185" lon="1.16062">
        <ele>86</ele>
        <time>2017-07-25T15:38:36Z</time>
      </trkpt>
      <trkpt lat="49.47184" lon="1.1606">
        <ele>86</ele>
        <time>2017-07-25T15:38:36Z</time>
      </trkpt>
      <trkpt lat="49.47183" lon="1.16059">
        <ele>86</ele>
        <time>2017-07-25T15:38:36Z</time>
      </trkpt>
      <trkpt lat="49.47183" lon="1.16059">
        <ele>86</ele>
        <time>2017-07-25T15:38:36Z</time>
      </trkpt>
      <trkpt lat="49.47183" lon="1.16059">
        <ele>86</ele>
        <time>2017-07-25T15:38:56Z</time>
      </trkpt>
      <trkpt lat="49.47183" lon="1.16058">
        <ele>86</ele>
        <time>2017-07-25T15:38:56Z</time>
      </trkpt>
      <trkpt lat="49.47183" lon="1.16058">
        <ele>86</ele>
        <time>2017-07-25T15:38:56Z</time>
      </trkpt>
      <trkpt lat="49.47184" lon="1.16048">
        <ele>86</ele>
        <time>2017-07-25T15:38:56Z</time>
      </trkpt>
      <trkpt lat="49.47188" lon="1.16036">
        <ele>101</ele>
        <time>2017-07-25T15:38:57Z</time>
      </trkpt>
      <trkpt lat="49.47189" lon="1.1603">
        <ele>101</ele>
        <time>2017-07-25T15:39:12Z</time>
      </trkpt>
      <trkpt lat="49.47189" lon="1.16015">
        <ele>101</ele>
        <time>2017-07-25T15:39:13Z</time>
      </trkpt>
      <trkpt lat="49.47189" lon="1.16009">
        <ele>101</ele>
        <time>2017-07-25T15:39:14Z</time>
      </trkpt>
      <trkpt lat="49.47191" lon="1.16004">
        <ele>101</ele>
        <time>2017-07-25T15:39:14Z</time>
      </trkpt>
      <trkpt lat="49.47191" lon="1.16004">
        <ele>101</ele>
        <time>2017-07-25T15:39:28Z</time>
      </trkpt>
      <trkpt lat="49.4719" lon="1.15999">
        <ele>101</ele>
        <time>2017-07-25T15:39:28Z</time>
      </trkpt>
      <trkpt lat="49.47189" lon="1.15995">
        <ele>101</ele>
        <time>2017-07-25T15:39:28Z</time>
      </trkpt>
      <trkpt lat="49.47188" lon="1.15988">
        <ele>101</ele>
        <time>2017-07-25T15:39:28Z</time>
      </trkpt>
      <trkpt lat="49.47187" lon="1.15985">
        <ele>101</ele>
        <time>2017-07-25T15:40:00Z</time>
      </trkpt>
      <trkpt lat="49.47187" lon="1.15985">
        <ele>101</ele>
        <time>2017-07-25T15:40:00Z</time>
      </trkpt>
      <trkpt lat="49.47187" lon="1.15979">
        <ele>101</ele>
        <time>2017-07-25T15:40:00Z</time>
      </trkpt>
      <trkpt lat="49.47187" lon="1.15976">
        <ele>101</ele>
        <time>2017-07-25T15:40:00Z</time>
      </trkpt>
      <trkpt lat="49.47188" lon="1.1597">
        <ele>101</ele>
        <time>2017-07-25T15:40:00Z</time>
      </trkpt>
      <trkpt lat="49.47189" lon="1.15955">
        <ele>111</ele>
        <time>2017-07-25T15:40:16Z</time>
      </trkpt>
      <trkpt lat="49.47187" lon="1.15946">
        <ele>111</ele>
        <time>2017-07-25T15:40:16Z</time>
      </trkpt>
      <trkpt lat="49.47188" lon="1.15939">
        <ele>111</ele>
        <time>2017-07-25T15:40:16Z</time>
      </trkpt>
      <trkpt lat="49.4719" lon="1.1593">
        <ele>111</ele>
        <time>2017-07-25T15:40:16Z</time>
      </trkpt>
      <trkpt lat="49.47187" lon="1.15912">
        <ele>111</ele>
        <time>2017-07-25T15:41:40Z</time>
      </trkpt>
      <trkpt lat="49.47186" lon="1.15911">
        <ele>111</ele>
        <time>2017-07-25T15:41:40Z</time>
      </trkpt>
      <trkpt lat="49.47186" lon="1.15911">
        <ele>111</ele>
        <time>2017-07-25T15:41:40Z</time>
      </trkpt>
      <trkpt lat="49.47186" lon="1.15911">
        <ele>111</ele>
        <time>2017-07-25T15:41:40Z</time>
      </trkpt>
      <trkpt lat="49.47188" lon="1.15907">
        <ele>111</ele>
        <time>2017-07-25T15:41:40Z</time>
      </trkpt>
      <trkpt lat="49.47193" lon="1.15901">
        <ele>111</ele>
        <time>2017-07-25T15:45:12Z</time>
      </trkpt>
      <trkpt lat="49.47193" lon="1.15901">
        <ele>111</ele>
        <time>2017-07-25T15:45:12Z</time>
      </trkpt>
      <trkpt lat="49.47193" lon="1.15901">
        <ele>111</ele>
        <time>2017-07-25T15:45:12Z</time>
      </trkpt>
      <trkpt lat="49.47196" lon="1.15896">
        <ele>111</ele>
        <time>2017-07-25T15:45:12Z</time>
      </trkpt>
      <trkpt lat="49.47201" lon="1.15881">
        <ele>111</ele>
        <time>2017-07-25T15:45:13Z</time>
      </trkpt>
      <trkpt lat="49.47203" lon="1.15872">
        <ele>104</ele>
        <time>2017-07-25T15:45:28Z</time>
      </trkpt>
      <trkpt lat="49.47204" lon="1.15857">
        <ele>104</ele>
        <time>2017-07-25T15:45:28Z</time>
      </trkpt>
      <trkpt lat="49.47206" lon="1.15854">
        <ele>104</ele>
        <time>2017-07-25T15:45:28Z</time>
      </trkpt>
      <trkpt lat="49.4721" lon="1.1585">
        <ele>132</ele>
        <time>2017-07-25T15:45:28Z</time>
      </trkpt>
      <trkpt lat="49.47215" lon="1.15847">
        <ele>132</ele>
        <time>2017-07-25T15:45:44Z</time>
      </trkpt>
      <trkpt lat="49.47215" lon="1.15837">
        <ele>132</ele>
        <time>2017-07-25T15:45:44Z</time>
      </trkpt>
      <trkpt lat="49.47218" lon="1.15833">
        <ele>132</ele>
        <time>2017-07-25T15:45:44Z</time>
      </trkpt>
      <trkpt lat="49.47219" lon="1.1583">
        <ele>132</ele>
        <time>2017-07-25T15:45:44Z</time>
      </trkpt>
      <trkpt lat="49.47229" lon="1.15808">
        <ele>132</ele>
        <time>2017-07-25T15:46:20Z</time>
      </trkpt>
      <trkpt lat="49.47233" lon="1.15804">
        <ele>132</ele>
        <time>2017-07-25T15:46:20Z</time>
      </trkpt>
      <trkpt lat="49.47237" lon="1.15797">
        <ele>132</ele>
        <time>2017-07-25T15:46:20Z</time>
      </trkpt>
      <trkpt lat="49.4724" lon="1.15793">
        <ele>132</ele>
        <time>2017-07-25T15:46:20Z</time>
      </trkpt>
      <trkpt lat="49.47246" lon="1.1579">
        <ele>128</ele>
        <time>2017-07-25T15:46:20Z</time>
      </trkpt>
      <trkpt lat="49.47255" lon="1.15787">
        <ele>128</ele>
        <time>2017-07-25T15:46:44Z</time>
      </trkpt>
      <trkpt lat="49.47257" lon="1.15786">
        <ele>128</ele>
        <time>2017-07-25T15:46:44Z</time>
      </trkpt>
      <trkpt lat="49.4726" lon="1.15784">
        <ele>128</ele>
        <time>2017-07-25T15:46:44Z</time>
      </trkpt>
      <trkpt lat="49.47258" lon="1.15781">
        <ele>128</ele>
        <time>2017-07-25T15:46:44Z</time>
      </trkpt>
      <trkpt lat="49.4726" lon="1.1578">
        <ele>128</ele>
        <time>2017-07-25T15:46:45Z</time>
      </trkpt>
      <trkpt lat="49.47262" lon="1.1578">
        <ele>128</ele>
        <time>2017-07-25T15:47:08Z</time>
      </trkpt>
      <trkpt lat="49.47262" lon="1.1578">
        <ele>128</ele>
        <time>2017-07-25T15:47:08Z</time>
      </trkpt>
      <trkpt lat="49.47262" lon="1.1578">
        <ele>128</ele>
        <time>2017-07-25T15:47:08Z</time>
      </trkpt>
      <trkpt lat="49.47268" lon="1.15781">
        <ele>128</ele>
        <time>2017-07-25T15:47:08Z</time>
      </trkpt>
      <trkpt lat="49.47274" lon="1.15777">
        <ele>128</ele>
        <time>2017-07-25T15:47:09Z</time>
      </trkpt>
      <trkpt lat="49.47279" lon="1.1578">
        <ele>128</ele>
        <time>2017-07-25T15:47:24Z</time>
      </trkpt>
      <trkpt lat="49.47283" lon="1.15778">
        <ele>128</ele>
        <time>2017-07-25T15:47:24Z</time>
      </trkpt>
      <trkpt lat="49.47288" lon="1.15776">
        <ele>128</ele>
        <time>2017-07-25T15:47:24Z</time>
      </trkpt>
      <trkpt lat="49.47291" lon="1.15769">
        <ele>128</ele>
        <time>2017-07-25T15:47:24Z</time>
      </trkpt>
      <trkpt lat="49.47296" lon="1.15768">
        <ele>141</ele>
        <time>2017-07-25T15:47:40Z</time>
      </trkpt>
      <trkpt lat="49.47301" lon="1.15763">
        <ele>141</ele>
        <time>2017-07-25T15:47:40Z</time>
      </trkpt>
      <trkpt lat="49.47308" lon="1.15761">
        <ele>141</ele>
        <time>2017-07-25T15:47:40Z</time>
      </trkpt>
      <trkpt lat="49.47317" lon="1.15764">
        <ele>141</ele>
        <time>2017-07-25T15:47:40Z</time>
      </trkpt>
      <trkpt lat="49.47319" lon="1.1576">
        <ele>141</ele>
        <time>2017-07-25T15:47:56Z</time>
      </trkpt>
      <trkpt lat="49.47323" lon="1.15756">
        <ele>141</ele>
        <time>2017-07-25T15:47:56Z</time>
      </trkpt>
      <trkpt lat="49.47326" lon="1.15757">
        <ele>141</ele>
        <time>2017-07-25T15:47:56Z</time>
      </trkpt>
      <trkpt lat="49.47333" lon="1.15757">
        <ele>141</ele>
        <time>2017-07-25T15:47:56Z</time>
      </trkpt>
      <trkpt lat="49.47347" lon="1.15752">
        <ele>141</ele>
        <time>2017-07-25T15:48:28Z</time>
      </trkpt>
      <trkpt lat="49.4735" lon="1.15752">
        <ele>141</ele>
        <time>2017-07-25T15:48:28Z</time>
      </trkpt>
      <trkpt lat="49.47352" lon="1.15751">
        <ele>141</ele>
        <time>2017-07-25T15:48:28Z</time>
      </trkpt>
      <trkpt lat="49.47361" lon="1.15753">
        <ele>141</ele>
        <time>2017-07-25T15:48:28Z</time>
      </trkpt>
      <trkpt lat="49.47366" lon="1.15751">
        <ele>141</ele>
        <time>2017-07-25T15:48:28Z</time>
      </trkpt>
      <trkpt lat="49.47371" lon="1.15751">
        <ele>141</ele>
        <time>2017-07-25T15:48:44Z</time>
      </trkpt>
      <trkpt lat="49.47377" lon="1.1575">
        <ele>142</ele>
        <time>2017-07-25T15:48:44Z</time>
      </trkpt>
      <trkpt lat="49.47379" lon="1.1575">
        <ele>142</ele>
        <time>2017-07-25T15:48:44Z</time>
      </trkpt>
      <trkpt lat="49.4738" lon="1.15751">
        <ele>142</ele>
        <time>2017-07-25T15:48:44Z</time>
      </trkpt>
      <trkpt lat="49.47387" lon="1.15751">
        <ele>142</ele>
        <time>2017-07-25T15:49:00Z</time>
      </trkpt>
      <trkpt lat="49.47392" lon="1.1575">
        <ele>142</ele>
        <time>2017-07-25T15:49:01Z</time>
      </trkpt>
      <trkpt lat="49.47399" lon="1.15746">
        <ele>142</ele>
        <time>2017-07-25T15:49:01Z</time>
      </trkpt>
      <trkpt lat="49.47405" lon="1.15742">
        <ele>142</ele>
        <time>2017-07-25T15:49:01Z</time>
      </trkpt>
      <trkpt lat="49.47408" lon="1.15744">
        <ele>142</ele>
        <time>2017-07-25T15:49:20Z</time>
      </trkpt>
      <trkpt lat="49.47413" lon="1.15744">
        <ele>142</ele>
        <time>2017-07-25T15:49:20Z</time>
      </trkpt>
      <trkpt lat="49.47415" lon="1.15746">
        <ele>142</ele>
        <time>2017-07-25T15:49:20Z</time>
      </trkpt>
      <trkpt lat="49.47416" lon="1.15744">
        <ele>142</ele>
        <time>2017-07-25T15:49:21Z</time>
      </trkpt>
      <trkpt lat="49.47421" lon="1.1574">
        <ele>142</ele>
        <time>2017-07-25T15:49:21Z</time>
      </trkpt>
      <trkpt lat="49.47425" lon="1.15739">
        <ele>142</ele>
        <time>2017-07-25T15:49:36Z</time>
      </trkpt>
      <trkpt lat="49.47431" lon="1.15735">
        <ele>142</ele>
        <time>2017-07-25T15:49:36Z</time>
      </trkpt>
      <trkpt lat="49.47433" lon="1.15742">
        <ele>142</ele>
        <time>2017-07-25T15:49:36Z</time>
      </trkpt>
      <trkpt lat="49.47436" lon="1.15745">
        <ele>142</ele>
        <time>2017-07-25T15:49:36Z</time>
      </trkpt>
      <trkpt lat="49.47438" lon="1.15745">
        <ele>142</ele>
        <time>2017-07-25T15:49:52Z</time>
      </trkpt>
      <trkpt lat="49.47439" lon="1.15746">
        <ele>142</ele>
        <time>2017-07-25T15:49:52Z</time>
      </trkpt>
      <trkpt lat="49.47444" lon="1.15745">
        <ele>142</ele>
        <time>2017-07-25T15:49:52Z</time>
      </trkpt>
      <trkpt lat="49.47451" lon="1.15742">
        <ele>142</ele>
        <time>2017-07-25T15:49:52Z</time>
      </trkpt>
      <trkpt lat="49.4746" lon="1.15741">
        <ele>144</ele>
        <time>2017-07-25T15:50:20Z</time>
      </trkpt>
      <trkpt lat="49.47463" lon="1.15742">
        <ele>144</ele>
        <time>2017-07-25T15:50:20Z</time>
      </trkpt>
      <trkpt lat="49.47465" lon="1.15741">
        <ele>144</ele>
        <time>2017-07-25T15:50:20Z</time>
      </trkpt>
      <trkpt lat="49.47469" lon="1.15741">
        <ele>144</ele>
        <time>2017-07-25T15:50:21Z</time>
      </trkpt>
      <trkpt lat="49.47473" lon="1.15742">
        <ele>144</ele>
        <time>2017-07-25T15:50:21Z</time>
      </trkpt>
      <trkpt lat="49.47475" lon="1.15743">
        <ele>144</ele>
        <time>2017-07-25T15:50:44Z</time>
      </trkpt>
      <trkpt lat="49.47475" lon="1.15742">
        <ele>144</ele>
        <time>2017-07-25T15:50:44Z</time>
      </trkpt>
      <trkpt lat="49.47476" lon="1.15741">
        <ele>144</ele>
        <time>2017-07-25T15:50:44Z</time>
      </trkpt>
      <trkpt lat="49.47481" lon="1.15746">
        <ele>144</ele>
        <time>2017-07-25T15:50:44Z</time>
      </trkpt>
      <trkpt lat="49.47489" lon="1.15752">
        <ele>144</ele>
        <time>2017-07-25T15:50:45Z</time>
      </trkpt>
      <trkpt lat="49.47492" lon="1.15755">
        <ele>144</ele>
        <time>2017-07-25T15:51:00Z</time>
      </trkpt>
      <trkpt lat="49.47503" lon="1.15756">
        <ele>144</ele>
        <time>2017-07-25T15:51:00Z</time>
      </trkpt>
      <trkpt lat="49.47513" lon="1.15761">
        <ele>144</ele>
        <time>2017-07-25T15:51:00Z</time>
      </trkpt>
      <trkpt lat="49.47517" lon="1.15768">
        <ele>144</ele>
        <time>2017-07-25T15:51:00Z</time>
      </trkpt>
      <trkpt lat="49.47522" lon="1.15776">
        <ele>144</ele>
        <time>2017-07-25T15:51:16Z</time>
      </trkpt>
      <trkpt lat="49.47527" lon="1.15783">
        <ele>144</ele>
        <time>2017-07-25T15:51:16Z</time>
      </trkpt>
      <trkpt lat="49.47529" lon="1.15789">
        <ele>144</ele>
        <time>2017-07-25T15:51:16Z</time>
      </trkpt>
      <trkpt lat="49.47531" lon="1.15794">
        <ele>143</ele>
        <time>2017-07-25T15:51:16Z</time>
      </trkpt>
      <trkpt lat="49.47534" lon="1.158">
        <ele>143</ele>
        <time>2017-07-25T15:51:32Z</time>
      </trkpt>
      <trkpt lat="49.4754" lon="1.15808">
        <ele>143</ele>
        <time>2017-07-25T15:51:32Z</time>
      </trkpt>
      <trkpt lat="49.47541" lon="1.1581">
        <ele>143</ele>
        <time>2017-07-25T15:51:32Z</time>
      </trkpt>
      <trkpt lat="49.47544" lon="1.15816">
        <ele>146</ele>
        <time>2017-07-25T15:51:32Z</time>
      </trkpt>
      <trkpt lat="49.47552" lon="1.15824">
        <ele>146</ele>
        <time>2017-07-25T15:51:48Z</time>
      </trkpt>
      <trkpt lat="49.47553" lon="1.15828">
        <ele>146</ele>
        <time>2017-07-25T15:51:48Z</time>
      </trkpt>
      <trkpt lat="49.47555" lon="1.15832">
        <ele>146</ele>
        <time>2017-07-25T15:51:48Z</time>
      </trkpt>
      <trkpt lat="49.47556" lon="1.15839">
        <ele>146</ele>
        <time>2017-07-25T15:51:49Z</time>
      </trkpt>
      <trkpt lat="49.47559" lon="1.15844">
        <ele>146</ele>
        <time>2017-07-25T15:52:04Z</time>
      </trkpt>
      <trkpt lat="49.47562" lon="1.15847">
        <ele>146</ele>
        <time>2017-07-25T15:52:04Z</time>
      </trkpt>
      <trkpt lat="49.47563" lon="1.15851">
        <ele>146</ele>
        <time>2017-07-25T15:52:04Z</time>
      </trkpt>
      <trkpt lat="49.47569" lon="1.15857">
        <ele>146</ele>
        <time>2017-07-25T15:52:05Z</time>
      </trkpt>
      <trkpt lat="49.47577" lon="1.15864">
        <ele>146</ele>
        <time>2017-07-25T15:52:20Z</time>
      </trkpt>
      <trkpt lat="49.47577" lon="1.15869">
        <ele>146</ele>
        <time>2017-07-25T15:52:20Z</time>
      </trkpt>
      <trkpt lat="49.47578" lon="1.15876">
        <ele>147</ele>
        <time>2017-07-25T15:52:20Z</time>
      </trkpt>
      <trkpt lat="49.47581" lon="1.15879">
        <ele>147</ele>
        <time>2017-07-25T15:52:20Z</time>
      </trkpt>
      <trkpt lat="49.47582" lon="1.15886">
        <ele>147</ele>
        <time>2017-07-25T15:52:40Z</time>
      </trkpt>
      <trkpt lat="49.47583" lon="1.15889">
        <ele>147</ele>
        <time>2017-07-25T15:52:40Z</time>
      </trkpt>
      <trkpt lat="49.47585" lon="1.15893">
        <ele>147</ele>
        <time>2017-07-25T15:52:40Z</time>
      </trkpt>
      <trkpt lat="49.47583" lon="1.15897">
        <ele>147</ele>
        <time>2017-07-25T15:52:40Z</time>
      </trkpt>
      <trkpt lat="49.47588" lon="1.15902">
        <ele>147</ele>
        <time>2017-07-25T15:52:41Z</time>
      </trkpt>
      <trkpt lat="49.47592" lon="1.15905">
        <ele>147</ele>
        <time>2017-07-25T15:52:56Z</time>
      </trkpt>
      <trkpt lat="49.47595" lon="1.15909">
        <ele>147</ele>
        <time>2017-07-25T15:52:56Z</time>
      </trkpt>
      <trkpt lat="49.47596" lon="1.15912">
        <ele>147</ele>
        <time>2017-07-25T15:52:56Z</time>
      </trkpt>
      <trkpt lat="49.47603" lon="1.15915">
        <ele>147</ele>
        <time>2017-07-25T15:52:56Z</time>
      </trkpt>
      <trkpt lat="49.47608" lon="1.15919">
        <ele>147</ele>
        <time>2017-07-25T15:53:12Z</time>
      </trkpt>
      <trkpt lat="49.4761" lon="1.15925">
        <ele>147</ele>
        <time>2017-07-25T15:53:12Z</time>
      </trkpt>
      <trkpt lat="49.47615" lon="1.15929">
        <ele>147</ele>
        <time>2017-07-25T15:53:12Z</time>
      </trkpt>
      <trkpt lat="49.47619" lon="1.15936">
        <ele>147</ele>
        <time>2017-07-25T15:53:12Z</time>
      </trkpt>
      <trkpt lat="49.47624" lon="1.15939">
        <ele>147</ele>
        <time>2017-07-25T15:53:28Z</time>
      </trkpt>
      <trkpt lat="49.4763" lon="1.15942">
        <ele>154</ele>
        <time>2017-07-25T15:53:28Z</time>
      </trkpt>
      <trkpt lat="49.47638" lon="1.15946">
        <ele>154</ele>
        <time>2017-07-25T15:53:28Z</time>
      </trkpt>
      <trkpt lat="49.47641" lon="1.15946">
        <ele>154</ele>
        <time>2017-07-25T15:53:28Z</time>
      </trkpt>
      <trkpt lat="49.47649" lon="1.15948">
        <ele>154</ele>
        <time>2017-07-25T15:53:44Z</time>
      </trkpt>
      <trkpt lat="49.47654" lon="1.15953">
        <ele>154</ele>
        <time>2017-07-25T15:53:44Z</time>
      </trkpt>
      <trkpt lat="49.4766" lon="1.15957">
        <ele>154</ele>
        <time>2017-07-25T15:53:44Z</time>
      </trkpt>
      <trkpt lat="49.47665" lon="1.15956">
        <ele>154</ele>
        <time>2017-07-25T15:53:44Z</time>
      </trkpt>
      <trkpt lat="49.47667" lon="1.15958">
        <ele>154</ele>
        <time>2017-07-25T15:54:00Z</time>
      </trkpt>
      <trkpt lat="49.47675" lon="1.15967">
        <ele>151</ele>
        <time>2017-07-25T15:54:00Z</time>
      </trkpt>
      <trkpt lat="49.4768" lon="1.1597">
        <ele>151</ele>
        <time>2017-07-25T15:54:00Z</time>
      </trkpt>
      <trkpt lat="49.47687" lon="1.15976">
        <ele>151</ele>
        <time>2017-07-25T15:54:00Z</time>
      </trkpt>
      <trkpt lat="49.47692" lon="1.15981">
        <ele>151</ele>
        <time>2017-07-25T15:54:16Z</time>
      </trkpt>
      <trkpt lat="49.47694" lon="1.15983">
        <ele>151</ele>
        <time>2017-07-25T15:54:16Z</time>
      </trkpt>
      <trkpt lat="49.47702" lon="1.15985">
        <ele>151</ele>
        <time>2017-07-25T15:54:16Z</time>
      </trkpt>
      <trkpt lat="49.47707" lon="1.15989">
        <ele>151</ele>
        <time>2017-07-25T15:54:16Z</time>
      </trkpt>
      <trkpt lat="49.47713" lon="1.15997">
        <ele>147</ele>
        <time>2017-07-25T15:54:32Z</time>
      </trkpt>
      <trkpt lat="49.47719" lon="1.16">
        <ele>147</ele>
        <time>2017-07-25T15:54:32Z</time>
      </trkpt>
      <trkpt lat="49.47721" lon="1.16001">
        <ele>147</ele>
        <time>2017-07-25T15:54:32Z</time>
      </trkpt>
      <trkpt lat="49.47723" lon="1.16005">
        <ele>147</ele>
        <time>2017-07-25T15:54:32Z</time>
      </trkpt>
      <trkpt lat="49.47725" lon="1.16012">
        <ele>147</ele>
        <time>2017-07-25T15:55:00Z</time>
      </trkpt>
      <trkpt lat="49.47732" lon="1.16017">
        <ele>147</ele>
        <time>2017-07-25T15:55:00Z</time>
      </trkpt>
      <trkpt lat="49.47736" lon="1.16021">
        <ele>147</ele>
        <time>2017-07-25T15:55:00Z</time>
      </trkpt>
      <trkpt lat="49.47739" lon="1.16023">
        <ele>147</ele>
        <time>2017-07-25T15:55:00Z</time>
      </trkpt>
      <trkpt lat="49.47747" lon="1.16028">
        <ele>147</ele>
        <time>2017-07-25T15:55:00Z</time>
      </trkpt>
      <trkpt lat="49.47751" lon="1.16035">
        <ele>147</ele>
        <time>2017-07-25T15:55:16Z</time>
      </trkpt>
      <trkpt lat="49.47757" lon="1.16042">
        <ele>147</ele>
        <time>2017-07-25T15:55:16Z</time>
      </trkpt>
      <trkpt lat="49.47763" lon="1.16048">
        <ele>147</ele>
        <time>2017-07-25T15:55:16Z</time>
      </trkpt>
      <trkpt lat="49.47762" lon="1.16055">
        <ele>147</ele>
        <time>2017-07-25T15:55:16Z</time>
      </trkpt>
      <trkpt lat="49.4777" lon="1.16053">
        <ele>147</ele>
        <time>2017-07-25T15:55:32Z</time>
      </trkpt>
      <trkpt lat="49.47776" lon="1.16056">
        <ele>147</ele>
        <time>2017-07-25T15:55:32Z</time>
      </trkpt>
      <trkpt lat="49.47781" lon="1.16062">
        <ele>147</ele>
        <time>2017-07-25T15:55:32Z</time>
      </trkpt>
      <trkpt lat="49.47787" lon="1.16066">
        <ele>147</ele>
        <time>2017-07-25T15:55:32Z</time>
      </trkpt>
      <trkpt lat="49.4779" lon="1.16072">
        <ele>147</ele>
        <time>2017-07-25T15:55:48Z</time>
      </trkpt>
      <trkpt lat="49.47795" lon="1.16076">
        <ele>146</ele>
        <time>2017-07-25T15:55:48Z</time>
      </trkpt>
      <trkpt lat="49.47796" lon="1.16083">
        <ele>146</ele>
        <time>2017-07-25T15:55:48Z</time>
      </trkpt>
      <trkpt lat="49.478" lon="1.16086">
        <ele>146</ele>
        <time>2017-07-25T15:55:48Z</time>
      </trkpt>
      <trkpt lat="49.47799" lon="1.16097">
        <ele>146</ele>
        <time>2017-07-25T15:56:04Z</time>
      </trkpt>
      <trkpt lat="49.47807" lon="1.16102">
        <ele>146</ele>
        <time>2017-07-25T15:56:04Z</time>
      </trkpt>
      <trkpt lat="49.47811" lon="1.16103">
        <ele>146</ele>
        <time>2017-07-25T15:56:04Z</time>
      </trkpt>
      <trkpt lat="49.47814" lon="1.1611">
        <ele>146</ele>
        <time>2017-07-25T15:56:04Z</time>
      </trkpt>
      <trkpt lat="49.47831" lon="1.16136">
        <ele>144</ele>
        <time>2017-07-25T15:56:48Z</time>
      </trkpt>
      <trkpt lat="49.47834" lon="1.16142">
        <ele>144</ele>
        <time>2017-07-25T15:56:48Z</time>
      </trkpt>
      <trkpt lat="49.47838" lon="1.16143">
        <ele>144</ele>
        <time>2017-07-25T15:56:48Z</time>
      </trkpt>
      <trkpt lat="49.4784" lon="1.16153">
        <ele>144</ele>
        <time>2017-07-25T15:56:48Z</time>
      </trkpt>
      <trkpt lat="49.47841" lon="1.16158">
        <ele>144</ele>
        <time>2017-07-25T15:56:49Z</time>
      </trkpt>
      <trkpt lat="49.47845" lon="1.1616">
        <ele>144</ele>
        <time>2017-07-25T15:57:04Z</time>
      </trkpt>
      <trkpt lat="49.47848" lon="1.16161">
        <ele>144</ele>
        <time>2017-07-25T15:57:04Z</time>
      </trkpt>
      <trkpt lat="49.47853" lon="1.16162">
        <ele>144</ele>
        <time>2017-07-25T15:57:04Z</time>
      </trkpt>
      <trkpt lat="49.47856" lon="1.16165">
        <ele>144</ele>
        <time>2017-07-25T15:57:04Z</time>
      </trkpt>
      <trkpt lat="49.47861" lon="1.16166">
        <ele>144</ele>
        <time>2017-07-25T15:57:20Z</time>
      </trkpt>
      <trkpt lat="49.47863" lon="1.16175">
        <ele>144</ele>
        <time>2017-07-25T15:57:20Z</time>
      </trkpt>
      <trkpt lat="49.47868" lon="1.16178">
        <ele>144</ele>
        <time>2017-07-25T15:57:20Z</time>
      </trkpt>
      <trkpt lat="49.47872" lon="1.16183">
        <ele>144</ele>
        <time>2017-07-25T15:57:20Z</time>
      </trkpt>
      <trkpt lat="49.47875" lon="1.16185">
        <ele>144</ele>
        <time>2017-07-25T15:57:36Z</time>
      </trkpt>
      <trkpt lat="49.47879" lon="1.16191">
        <ele>144</ele>
        <time>2017-07-25T15:57:36Z</time>
      </trkpt>
      <trkpt lat="49.47886" lon="1.16195">
        <ele>144</ele>
        <time>2017-07-25T15:57:36Z</time>
      </trkpt>
      <trkpt lat="49.47888" lon="1.16197">
        <ele>144</ele>
        <time>2017-07-25T15:57:36Z</time>
      </trkpt>
      <trkpt lat="49.47894" lon="1.16203">
        <ele>144</ele>
        <time>2017-07-25T16:00:08Z</time>
      </trkpt>
      <trkpt lat="49.47894" lon="1.16203">
        <ele>144</ele>
        <time>2017-07-25T16:00:08Z</time>
      </trkpt>
      <trkpt lat="49.47894" lon="1.16203">
        <ele>144</ele>
        <time>2017-07-25T16:00:08Z</time>
      </trkpt>
      <trkpt lat="49.47894" lon="1.16206">
        <ele>144</ele>
        <time>2017-07-25T16:00:08Z</time>
      </trkpt>
      <trkpt lat="49.47896" lon="1.16217">
        <ele>142</ele>
        <time>2017-07-25T16:00:08Z</time>
      </trkpt>
      <trkpt lat="49.47899" lon="1.16227">
        <ele>142</ele>
        <time>2017-07-25T16:00:24Z</time>
      </trkpt>
      <trkpt lat="49.47901" lon="1.16236">
        <ele>142</ele>
        <time>2017-07-25T16:00:24Z</time>
      </trkpt>
      <trkpt lat="49.47902" lon="1.16242">
        <ele>142</ele>
        <time>2017-07-25T16:00:24Z</time>
      </trkpt>
      <trkpt lat="49.47904" lon="1.16252">
        <ele>142</ele>
        <time>2017-07-25T16:00:24Z</time>
      </trkpt>
      <trkpt lat="49.47906" lon="1.1626">
        <ele>142</ele>
        <time>2017-07-25T16:00:40Z</time>
      </trkpt>
      <trkpt lat="49.47907" lon="1.16267">
        <ele>142</ele>
        <time>2017-07-25T16:00:40Z</time>
      </trkpt>
      <trkpt lat="49.47909" lon="1.16274">
        <ele>142</ele>
        <time>2017-07-25T16:00:40Z</time>
      </trkpt>
      <trkpt lat="49.47911" lon="1.16278">
        <ele>142</ele>
        <time>2017-07-25T16:00:41Z</time>
      </trkpt>
      <trkpt lat="49.47913" lon="1.16281">
        <ele>142</ele>
        <time>2017-07-25T16:01:00Z</time>
      </trkpt>
      <trkpt lat="49.47913" lon="1.16284">
        <ele>142</ele>
        <time>2017-07-25T16:01:00Z</time>
      </trkpt>
      <trkpt lat="49.47913" lon="1.16285">
        <ele>142</ele>
        <time>2017-07-25T16:01:00Z</time>
      </trkpt>
      <trkpt lat="49.47914" lon="1.16289">
        <ele>142</ele>
        <time>2017-07-25T16:01:00Z</time>
      </trkpt>
      <trkpt lat="49.47919" lon="1.16296">
        <ele>137</ele>
        <time>2017-07-25T16:01:01Z</time>
      </trkpt>
      <trkpt lat="49.47918" lon="1.16304">
        <ele>137</ele>
        <time>2017-07-25T16:01:16Z</time>
      </trkpt>
      <trkpt lat="49.47919" lon="1.16306">
        <ele>137</ele>
        <time>2017-07-25T16:01:16Z</time>
      </trkpt>
      <trkpt lat="49.47924" lon="1.16313">
        <ele>137</ele>
        <time>2017-07-25T16:01:16Z</time>
      </trkpt>
      <trkpt lat="49.47925" lon="1.16313">
        <ele>137</ele>
        <time>2017-07-25T16:01:16Z</time>
      </trkpt>
      <trkpt lat="49.47925" lon="1.16314">
        <ele>137</ele>
        <time>2017-07-25T16:01:36Z</time>
      </trkpt>
      <trkpt lat="49.47926" lon="1.16316">
        <ele>137</ele>
        <time>2017-07-25T16:01:36Z</time>
      </trkpt>
      <trkpt lat="49.47926" lon="1.16317">
        <ele>137</ele>
        <time>2017-07-25T16:01:36Z</time>
      </trkpt>
      <trkpt lat="49.47928" lon="1.16321">
        <ele>137</ele>
        <time>2017-07-25T16:01:37Z</time>
      </trkpt>
      <trkpt lat="49.47934" lon="1.16331">
        <ele>137</ele>
        <time>2017-07-25T16:01:37Z</time>
      </trkpt>
      <trkpt lat="49.47938" lon="1.16343">
        <ele>137</ele>
        <time>2017-07-25T16:01:52Z</time>
      </trkpt>
      <trkpt lat="49.47937" lon="1.16356">
        <ele>137</ele>
        <time>2017-07-25T16:01:52Z</time>
      </trkpt>
      <trkpt lat="49.4794" lon="1.16361">
        <ele>137</ele>
        <time>2017-07-25T16:01:52Z</time>
      </trkpt>
      <trkpt lat="49.4794" lon="1.16362">
        <ele>137</ele>
        <time>2017-07-25T16:01:52Z</time>
      </trkpt>
      <trkpt lat="49.47942" lon="1.16364">
        <ele>137</ele>
        <time>2017-07-25T16:02:08Z</time>
      </trkpt>
      <trkpt lat="49.47942" lon="1.16364">
        <ele>137</ele>
        <time>2017-07-25T16:02:09Z</time>
      </trkpt>
      <trkpt lat="49.47943" lon="1.16365">
        <ele>137</ele>
        <time>2017-07-25T16:02:09Z</time>
      </trkpt>
      <trkpt lat="49.47947" lon="1.16377">
        <ele>126</ele>
        <time>2017-07-25T16:02:09Z</time>
      </trkpt>
      <trkpt lat="49.47957" lon="1.16381">
        <ele>126</ele>
        <time>2017-07-25T16:02:28Z</time>
      </trkpt>
      <trkpt lat="49.47953" lon="1.16388">
        <ele>126</ele>
        <time>2017-07-25T16:02:28Z</time>
      </trkpt>
      <trkpt lat="49.47954" lon="1.16391">
        <ele>126</ele>
        <time>2017-07-25T16:02:28Z</time>
      </trkpt>
      <trkpt lat="49.47956" lon="1.16394">
        <ele>126</ele>
        <time>2017-07-25T16:02:28Z</time>
      </trkpt>
      <trkpt lat="49.47957" lon="1.16396">
        <ele>126</ele>
        <time>2017-07-25T16:02:29Z</time>
      </trkpt>
      <trkpt lat="49.47957" lon="1.16397">
        <ele>126</ele>
        <time>2017-07-25T16:02:44Z</time>
      </trkpt>
      <trkpt lat="49.47958" lon="1.16409">
        <ele>126</ele>
        <time>2017-07-25T16:02:44Z</time>
      </trkpt>
      <trkpt lat="49.47962" lon="1.16418">
        <ele>131</ele>
        <time>2017-07-25T16:02:44Z</time>
      </trkpt>
      <trkpt lat="49.47964" lon="1.16424">
        <ele>131</ele>
        <time>2017-07-25T16:02:44Z</time>
      </trkpt>
      <trkpt lat="49.47968" lon="1.16427">
        <ele>131</ele>
        <time>2017-07-25T16:03:00Z</time>
      </trkpt>
      <trkpt lat="49.47972" lon="1.1643">
        <ele>131</ele>
        <time>2017-07-25T16:03:00Z</time>
      </trkpt>
      <trkpt lat="49.47976" lon="1.16434">
        <ele>131</ele>
        <time>2017-07-25T16:03:00Z</time>
      </trkpt>
      <trkpt lat="49.47979" lon="1.16441">
        <ele>131</ele>
        <time>2017-07-25T16:03:00Z</time>
      </trkpt>
      <trkpt lat="49.47985" lon="1.16448">
        <ele>131</ele>
        <time>2017-07-25T16:03:16Z</time>
      </trkpt>
      <trkpt lat="49.4799" lon="1.1645">
        <ele>131</ele>
        <time>2017-07-25T16:03:16Z</time>
      </trkpt>
      <trkpt lat="49.47992" lon="1.16453">
        <ele>131</ele>
        <time>2017-07-25T16:03:16Z</time>
      </trkpt>
      <trkpt lat="49.47997" lon="1.16455">
        <ele>131</ele>
        <time>2017-07-25T16:03:16Z</time>
      </trkpt>
      <trkpt lat="49.48005" lon="1.16457">
        <ele>131</ele>
        <time>2017-07-25T16:03:44Z</time>
      </trkpt>
      <trkpt lat="49.48007" lon="1.16456">
        <ele>131</ele>
        <time>2017-07-25T16:03:44Z</time>
      </trkpt>
      <trkpt lat="49.48008" lon="1.16456">
        <ele>131</ele>
        <time>2017-07-25T16:03:44Z</time>
      </trkpt>
      <trkpt lat="49.48008" lon="1.16457">
        <ele>131</ele>
        <time>2017-07-25T16:03:44Z</time>
      </trkpt>
      <trkpt lat="49.4802" lon="1.16456">
        <ele>131</ele>
        <time>2017-07-25T16:03:44Z</time>
      </trkpt>
      <trkpt lat="49.48028" lon="1.16455">
        <ele>131</ele>
        <time>2017-07-25T16:04:00Z</time>
      </trkpt>
      <trkpt lat="49.48033" lon="1.16455">
        <ele>131</ele>
        <time>2017-07-25T16:04:00Z</time>
      </trkpt>
      <trkpt lat="49.48037" lon="1.16459">
        <ele>105</ele>
        <time>2017-07-25T16:04:00Z</time>
      </trkpt>
      <trkpt lat="49.48043" lon="1.16457">
        <ele>122</ele>
        <time>2017-07-25T16:04:00Z</time>
      </trkpt>
      <trkpt lat="49.48044" lon="1.16459">
        <ele>98</ele>
        <time>2017-07-25T16:04:16Z</time>
      </trkpt>
      <trkpt lat="49.48048" lon="1.16457">
        <ele>122</ele>
        <time>2017-07-25T16:04:16Z</time>
      </trkpt>
      <trkpt lat="49.48055" lon="1.16455">
        <ele>122</ele>
        <time>2017-07-25T16:04:16Z</time>
      </trkpt>
      <trkpt lat="49.48064" lon="1.16454">
        <ele>122</ele>
        <time>2017-07-25T16:04:16Z</time>
      </trkpt>
      <trkpt lat="49.48076" lon="1.16464">
        <ele>98</ele>
        <time>2017-07-25T16:04:56Z</time>
      </trkpt>
      <trkpt lat="49.48076" lon="1.16466">
        <ele>98</ele>
        <time>2017-07-25T16:04:56Z</time>
      </trkpt>
      <trkpt lat="49.48076" lon="1.16466">
        <ele>98</ele>
        <time>2017-07-25T16:04:56Z</time>
      </trkpt>
      <trkpt lat="49.48077" lon="1.16466">
        <ele>98</ele>
        <time>2017-07-25T16:04:56Z</time>
      </trkpt>
      <trkpt lat="49.4808" lon="1.16467">
        <ele>98</ele>
        <time>2017-07-25T16:04:57Z</time>
      </trkpt>
      <trkpt lat="49.48083" lon="1.16476">
        <ele>98</ele>
        <time>2017-07-25T16:05:12Z</time>
      </trkpt>
      <trkpt lat="49.4809" lon="1.16481">
        <ele>98</ele>
        <time>2017-07-25T16:05:12Z</time>
      </trkpt>
      <trkpt lat="49.48098" lon="1.16488">
        <ele>98</ele>
        <time>2017-07-25T16:05:12Z</time>
      </trkpt>
      <trkpt lat="49.48102" lon="1.1649">
        <ele>98</ele>
        <time>2017-07-25T16:05:12Z</time>
      </trkpt>
      <trkpt lat="49.48107" lon="1.16497">
        <ele>98</ele>
        <time>2017-07-25T16:05:28Z</time>
      </trkpt>
      <trkpt lat="49.48111" lon="1.16501">
        <ele>98</ele>
        <time>2017-07-25T16:05:28Z</time>
      </trkpt>
      <trkpt lat="49.48116" lon="1.16508">
        <ele>98</ele>
        <time>2017-07-25T16:05:28Z</time>
      </trkpt>
      <trkpt lat="49.48123" lon="1.16506">
        <ele>98</ele>
        <time>2017-07-25T16:05:28Z</time>
      </trkpt>
      <trkpt lat="49.48125" lon="1.16506">
        <ele>98</ele>
        <time>2017-07-25T16:05:44Z</time>
      </trkpt>
      <trkpt lat="49.48123" lon="1.16512">
        <ele>98</ele>
        <time>2017-07-25T16:05:44Z</time>
      </trkpt>
      <trkpt lat="49.48122" lon="1.16515">
        <ele>98</ele>
        <time>2017-07-25T16:05:44Z</time>
      </trkpt>
      <trkpt lat="49.48124" lon="1.16523">
        <ele>98</ele>
        <time>2017-07-25T16:05:44Z</time>
      </trkpt>
      <trkpt lat="49.48128" lon="1.1653">
        <ele>96</ele>
        <time>2017-07-25T16:06:40Z</time>
      </trkpt>
      <trkpt lat="49.48128" lon="1.1653">
        <ele>96</ele>
        <time>2017-07-25T16:06:40Z</time>
      </trkpt>
      <trkpt lat="49.48128" lon="1.1653">
        <ele>96</ele>
        <time>2017-07-25T16:06:41Z</time>
      </trkpt>
      <trkpt lat="49.48128" lon="1.1653">
        <ele>96</ele>
        <time>2017-07-25T16:06:41Z</time>
      </trkpt>
      <trkpt lat="49.4815" lon="1.16545">
        <ele>73</ele>
        <time>2017-07-25T16:06:41Z</time>
      </trkpt>
      <trkpt lat="49.48141" lon="1.16558">
        <ele>73</ele>
        <time>2017-07-25T16:09:40Z</time>
      </trkpt>
      <trkpt lat="49.48152" lon="1.16565">
        <ele>73</ele>
        <time>2017-07-25T16:09:40Z</time>
      </trkpt>
      <trkpt lat="49.48155" lon="1.16565">
        <ele>73</ele>
        <time>2017-07-25T16:09:40Z</time>
      </trkpt>
      <trkpt lat="49.48155" lon="1.16568">
        <ele>73</ele>
        <time>2017-07-25T16:09:40Z</time>
      </trkpt>
      <trkpt lat="49.48156" lon="1.16572">
        <ele>73</ele>
        <time>2017-07-25T16:09:41Z</time>
      </trkpt>
      <trkpt lat="49.48156" lon="1.16582">
        <ele>73</ele>
        <time>2017-07-25T16:10:08Z</time>
      </trkpt>
      <trkpt lat="49.48156" lon="1.16583">
        <ele>73</ele>
        <time>2017-07-25T16:10:08Z</time>
      </trkpt>
      <trkpt lat="49.48157" lon="1.16584">
        <ele>73</ele>
        <time>2017-07-25T16:10:08Z</time>
      </trkpt>
      <trkpt lat="49.48158" lon="1.16589">
        <ele>73</ele>
        <time>2017-07-25T16:10:08Z</time>
      </trkpt>
      <trkpt lat="49.48163" lon="1.16592">
        <ele>73</ele>
        <time>2017-07-25T16:10:08Z</time>
      </trkpt>
      <trkpt lat="49.48161" lon="1.16613">
        <ele>73</ele>
        <time>2017-07-25T16:11:28Z</time>
      </trkpt>
      <trkpt lat="49.48159" lon="1.16616">
        <ele>73</ele>
        <time>2017-07-25T16:11:29Z</time>
      </trkpt>
      <trkpt lat="49.48161" lon="1.16617">
        <ele>73</ele>
        <time>2017-07-25T16:11:29Z</time>
      </trkpt>
      <trkpt lat="49.48164" lon="1.16623">
        <ele>73</ele>
        <time>2017-07-25T16:11:29Z</time>
      </trkpt>
      <trkpt lat="49.48168" lon="1.16628">
        <ele>65</ele>
        <time>2017-07-25T16:11:29Z</time>
      </trkpt>
      <trkpt lat="49.48169" lon="1.16631">
        <ele>65</ele>
        <time>2017-07-25T16:11:48Z</time>
      </trkpt>
      <trkpt lat="49.48169" lon="1.16633">
        <ele>65</ele>
        <time>2017-07-25T16:11:48Z</time>
      </trkpt>
      <trkpt lat="49.4817" lon="1.16634">
        <ele>65</ele>
        <time>2017-07-25T16:11:48Z</time>
      </trkpt>
      <trkpt lat="49.48171" lon="1.16635">
        <ele>65</ele>
        <time>2017-07-25T16:11:48Z</time>
      </trkpt>
      <trkpt lat="49.48181" lon="1.16642">
        <ele>65</ele>
        <time>2017-07-25T16:11:49Z</time>
      </trkpt>
      <trkpt lat="49.48185" lon="1.16645">
        <ele>65</ele>
        <time>2017-07-25T16:12:52Z</time>
      </trkpt>
      <trkpt lat="49.48185" lon="1.16645">
        <ele>65</ele>
        <time>2017-07-25T16:12:52Z</time>
      </trkpt>
      <trkpt lat="49.48185" lon="1.16645">
        <ele>65</ele>
        <time>2017-07-25T16:12:53Z</time>
      </trkpt>
      <trkpt lat="49.48185" lon="1.16646">
        <ele>65</ele>
        <time>2017-07-25T16:12:53Z</time>
      </trkpt>
      <trkpt lat="49.48185" lon="1.16649">
        <ele>65</ele>
        <time>2017-07-25T16:12:53Z</time>
      </trkpt>
      <trkpt lat="49.48182" lon="1.16666">
        <ele>65</ele>
        <time>2017-07-25T16:16:32Z</time>
      </trkpt>
      <trkpt lat="49.48182" lon="1.16666">
        <ele>65</ele>
        <time>2017-07-25T16:16:33Z</time>
      </trkpt>
      <trkpt lat="49.48183" lon="1.16669">
        <ele>65</ele>
        <time>2017-07-25T16:16:33Z</time>
      </trkpt>
      <trkpt lat="49.48183" lon="1.1667">
        <ele>65</ele>
        <time>2017-07-25T16:16:33Z</time>
      </trkpt>
      <trkpt lat="49.48185" lon="1.16671">
        <ele>65</ele>
        <time>2017-07-25T16:16:33Z</time>
      </trkpt>
      <trkpt lat="49.48181" lon="1.16661">
        <ele>65</ele>
        <time>2017-07-25T16:19:44Z</time>
      </trkpt>
      <trkpt lat="49.48181" lon="1.16661">
        <ele>65</ele>
        <time>2017-07-25T16:19:45Z</time>
      </trkpt>
      <trkpt lat="49.48181" lon="1.16661">
        <ele>65</ele>
        <time>2017-07-25T16:19:45Z</time>
      </trkpt>
      <trkpt lat="49.48181" lon="1.16661">
        <ele>65</ele>
        <time>2017-07-25T16:19:45Z</time>
      </trkpt>
      <trkpt lat="49.48181" lon="1.16661">
        <ele>65</ele>
        <time>2017-07-25T16:19:45Z</time>
      </trkpt>
      <trkpt lat="49.48187" lon="1.16659">
        <ele>65</ele>
        <time>2017-07-25T16:22:56Z</time>
      </trkpt>
      <trkpt lat="49.48187" lon="1.16658">
        <ele>65</ele>
        <time>2017-07-25T16:22:56Z</time>
      </trkpt>
      <trkpt lat="49.48188" lon="1.16659">
        <ele>65</ele>
        <time>2017-07-25T16:22:56Z</time>
      </trkpt>
      <trkpt lat="49.48189" lon="1.16665">
        <ele>65</ele>
        <time>2017-07-25T16:22:56Z</time>
      </trkpt>
      <trkpt lat="49.48192" lon="1.16668">
        <ele>65</ele>
        <time>2017-07-25T16:22:57Z</time>
      </trkpt>
      <trkpt lat="49.48193" lon="1.1667">
        <ele>65</ele>
        <time>2017-07-25T16:23:16Z</time>
      </trkpt>
      <trkpt lat="49.48194" lon="1.16674">
        <ele>65</ele>
        <time>2017-07-25T16:23:16Z</time>
      </trkpt>
      <trkpt lat="49.48192" lon="1.16679">
        <ele>65</ele>
        <time>2017-07-25T16:23:17Z</time>
      </trkpt>
      <trkpt lat="49.48192" lon="1.16683">
        <ele>65</ele>
        <time>2017-07-25T16:23:17Z</time>
      </trkpt>
      <trkpt lat="49.48192" lon="1.16691">
        <ele>65</ele>
        <time>2017-07-25T16:23:17Z</time>
      </trkpt>
      <trkpt lat="49.48197" lon="1.16712">
        <ele>67</ele>
        <time>2017-07-25T16:23:56Z</time>
      </trkpt>
      <trkpt lat="49.48197" lon="1.16714">
        <ele>67</ele>
        <time>2017-07-25T16:23:56Z</time>
      </trkpt>
      <trkpt lat="49.48198" lon="1.16723">
        <ele>67</ele>
        <time>2017-07-25T16:23:56Z</time>
      </trkpt>
      <trkpt lat="49.48194" lon="1.1673">
        <ele>67</ele>
        <time>2017-07-25T16:23:56Z</time>
      </trkpt>
      <trkpt lat="49.48194" lon="1.1673">
        <ele>67</ele>
        <time>2017-07-25T16:23:56Z</time>
      </trkpt>
      <trkpt lat="49.48194" lon="1.16732">
        <ele>67</ele>
        <time>2017-07-25T16:24:12Z</time>
      </trkpt>
      <trkpt lat="49.48193" lon="1.16733">
        <ele>67</ele>
        <time>2017-07-25T16:24:12Z</time>
      </trkpt>
      <trkpt lat="49.48193" lon="1.16737">
        <ele>67</ele>
        <time>2017-07-25T16:24:12Z</time>
      </trkpt>
      <trkpt lat="49.48198" lon="1.16749">
        <ele>67</ele>
        <time>2017-07-25T16:24:12Z</time>
      </trkpt>
      <trkpt lat="49.48199" lon="1.16754">
        <ele>67</ele>
        <time>2017-07-25T16:24:32Z</time>
      </trkpt>
      <trkpt lat="49.48199" lon="1.16757">
        <ele>67</ele>
        <time>2017-07-25T16:24:32Z</time>
      </trkpt>
      <trkpt lat="49.48199" lon="1.16758">
        <ele>67</ele>
        <time>2017-07-25T16:24:32Z</time>
      </trkpt>
      <trkpt lat="49.48198" lon="1.16767">
        <ele>67</ele>
        <time>2017-07-25T16:24:32Z</time>
      </trkpt>
      <trkpt lat="49.48195" lon="1.16777">
        <ele>67</ele>
        <time>2017-07-25T16:24:32Z</time>
      </trkpt>
      <trkpt lat="49.48192" lon="1.1679">
        <ele>67</ele>
        <time>2017-07-25T16:24:48Z</time>
      </trkpt>
      <trkpt lat="49.48192" lon="1.16793">
        <ele>71</ele>
        <time>2017-07-25T16:24:48Z</time>
      </trkpt>
      <trkpt lat="49.48192" lon="1.168">
        <ele>71</ele>
        <time>2017-07-25T16:24:48Z</time>
      </trkpt>
      <trkpt lat="49.48192" lon="1.16807">
        <ele>71</ele>
        <time>2017-07-25T16:24:48Z</time>
      </trkpt>
      <trkpt lat="49.48192" lon="1.16817">
        <ele>71</ele>
        <time>2017-07-25T16:25:04Z</time>
      </trkpt>
      <trkpt lat="49.48191" lon="1.16827">
        <ele>71</ele>
        <time>2017-07-25T16:25:04Z</time>
      </trkpt>
      <trkpt lat="49.48189" lon="1.16837">
        <ele>71</ele>
        <time>2017-07-25T16:25:04Z</time>
      </trkpt>
      <trkpt lat="49.48187" lon="1.16845">
        <ele>71</ele>
        <time>2017-07-25T16:25:04Z</time>
      </trkpt>
      <trkpt lat="49.48185" lon="1.16855">
        <ele>71</ele>
        <time>2017-07-25T16:25:20Z</time>
      </trkpt>
      <trkpt lat="49.48184" lon="1.16863">
        <ele>71</ele>
        <time>2017-07-25T16:25:20Z</time>
      </trkpt>
      <trkpt lat="49.48181" lon="1.16867">
        <ele>71</ele>
        <time>2017-07-25T16:25:20Z</time>
      </trkpt>
      <trkpt lat="49.48183" lon="1.16872">
        <ele>71</ele>
        <time>2017-07-25T16:25:20Z</time>
      </trkpt>
      <trkpt lat="49.48183" lon="1.16873">
        <ele>71</ele>
        <time>2017-07-25T16:25:40Z</time>
      </trkpt>
      <trkpt lat="49.48181" lon="1.16873">
        <ele>71</ele>
        <time>2017-07-25T16:25:40Z</time>
      </trkpt>
      <trkpt lat="49.48182" lon="1.16878">
        <ele>74</ele>
        <time>2017-07-25T16:25:40Z</time>
      </trkpt>
      <trkpt lat="49.48178" lon="1.16884">
        <ele>74</ele>
        <time>2017-07-25T16:25:40Z</time>
      </trkpt>
      <trkpt lat="49.48175" lon="1.16886">
        <ele>74</ele>
        <time>2017-07-25T16:25:41Z</time>
      </trkpt>
      <trkpt lat="49.48171" lon="1.16888">
        <ele>74</ele>
        <time>2017-07-25T16:25:56Z</time>
      </trkpt>
      <trkpt lat="49.48167" lon="1.16891">
        <ele>74</ele>
        <time>2017-07-25T16:25:56Z</time>
      </trkpt>
      <trkpt lat="49.48162" lon="1.16894">
        <ele>74</ele>
        <time>2017-07-25T16:25:56Z</time>
      </trkpt>
      <trkpt lat="49.48156" lon="1.16897">
        <ele>74</ele>
        <time>2017-07-25T16:25:56Z</time>
      </trkpt>
      <trkpt lat="49.48152" lon="1.16901">
        <ele>74</ele>
        <time>2017-07-25T16:26:12Z</time>
      </trkpt>
      <trkpt lat="49.48146" lon="1.16904">
        <ele>74</ele>
        <time>2017-07-25T16:26:13Z</time>
      </trkpt>
      <trkpt lat="49.48144" lon="1.16907">
        <ele>74</ele>
        <time>2017-07-25T16:26:13Z</time>
      </trkpt>
      <trkpt lat="49.48141" lon="1.1691">
        <ele>74</ele>
        <time>2017-07-25T16:26:13Z</time>
      </trkpt>
      <trkpt lat="49.4814" lon="1.16916">
        <ele>74</ele>
        <time>2017-07-25T16:26:28Z</time>
      </trkpt>
      <trkpt lat="49.48137" lon="1.16926">
        <ele>74</ele>
        <time>2017-07-25T16:26:28Z</time>
      </trkpt>
      <trkpt lat="49.48134" lon="1.1693">
        <ele>74</ele>
        <time>2017-07-25T16:26:28Z</time>
      </trkpt>
      <trkpt lat="49.48131" lon="1.16931">
        <ele>74</ele>
        <time>2017-07-25T16:26:28Z</time>
      </trkpt>
      <trkpt lat="49.48127" lon="1.16935">
        <ele>74</ele>
        <time>2017-07-25T16:26:44Z</time>
      </trkpt>
      <trkpt lat="49.48123" lon="1.16934">
        <ele>73</ele>
        <time>2017-07-25T16:26:44Z</time>
      </trkpt>
      <trkpt lat="49.48118" lon="1.16939">
        <ele>73</ele>
        <time>2017-07-25T16:26:44Z</time>
      </trkpt>
      <trkpt lat="49.48113" lon="1.16942">
        <ele>73</ele>
        <time>2017-07-25T16:26:44Z</time>
      </trkpt>
      <trkpt lat="49.48112" lon="1.16946">
        <ele>73</ele>
        <time>2017-07-25T16:27:00Z</time>
      </trkpt>
      <trkpt lat="49.48109" lon="1.1695">
        <ele>73</ele>
        <time>2017-07-25T16:27:00Z</time>
      </trkpt>
      <trkpt lat="49.48107" lon="1.16954">
        <ele>73</ele>
        <time>2017-07-25T16:27:00Z</time>
      </trkpt>
      <trkpt lat="49.48106" lon="1.1696">
        <ele>78</ele>
        <time>2017-07-25T16:27:00Z</time>
      </trkpt>
      <trkpt lat="49.48104" lon="1.16966">
        <ele>78</ele>
        <time>2017-07-25T16:27:16Z</time>
      </trkpt>
      <trkpt lat="49.48101" lon="1.1697">
        <ele>78</ele>
        <time>2017-07-25T16:27:16Z</time>
      </trkpt>
      <trkpt lat="49.48097" lon="1.16974">
        <ele>78</ele>
        <time>2017-07-25T16:27:16Z</time>
      </trkpt>
      <trkpt lat="49.48094" lon="1.16978">
        <ele>78</ele>
        <time>2017-07-25T16:27:17Z</time>
      </trkpt>
      <trkpt lat="49.48085" lon="1.16987">
        <ele>78</ele>
        <time>2017-07-25T16:27:40Z</time>
      </trkpt>
      <trkpt lat="49.48084" lon="1.16987">
        <ele>78</ele>
        <time>2017-07-25T16:27:40Z</time>
      </trkpt>
      <trkpt lat="49.48084" lon="1.16988">
        <ele>78</ele>
        <time>2017-07-25T16:27:40Z</time>
      </trkpt>
      <trkpt lat="49.48083" lon="1.16989">
        <ele>78</ele>
        <time>2017-07-25T16:27:40Z</time>
      </trkpt>
      <trkpt lat="49.48079" lon="1.16998">
        <ele>78</ele>
        <time>2017-07-25T16:27:41Z</time>
      </trkpt>
      <trkpt lat="49.48075" lon="1.17006">
        <ele>78</ele>
        <time>2017-07-25T16:27:56Z</time>
      </trkpt>
      <trkpt lat="49.48072" lon="1.17014">
        <ele>78</ele>
        <time>2017-07-25T16:27:56Z</time>
      </trkpt>
      <trkpt lat="49.4807" lon="1.17021">
        <ele>78</ele>
        <time>2017-07-25T16:27:56Z</time>
      </trkpt>
      <trkpt lat="49.48069" lon="1.17028">
        <ele>78</ele>
        <time>2017-07-25T16:27:56Z</time>
      </trkpt>
      <trkpt lat="49.48068" lon="1.17034">
        <ele>78</ele>
        <time>2017-07-25T16:28:12Z</time>
      </trkpt>
      <trkpt lat="49.48068" lon="1.17041">
        <ele>78</ele>
        <time>2017-07-25T16:28:13Z</time>
      </trkpt>
      <trkpt lat="49.48066" lon="1.17047">
        <ele>83</ele>
        <time>2017-07-25T16:28:13Z</time>
      </trkpt>
      <trkpt lat="49.48065" lon="1.1705">
        <ele>83</ele>
        <time>2017-07-25T16:28:13Z</time>
      </trkpt>
      <trkpt lat="49.48064" lon="1.17052">
        <ele>83</ele>
        <time>2017-07-25T16:28:28Z</time>
      </trkpt>
      <trkpt lat="49.48061" lon="1.17057">
        <ele>83</ele>
        <time>2017-07-25T16:28:28Z</time>
      </trkpt>
      <trkpt lat="49.48061" lon="1.17066">
        <ele>83</ele>
        <time>2017-07-25T16:28:28Z</time>
      </trkpt>
      <trkpt lat="49.48061" lon="1.17073">
        <ele>83</ele>
        <time>2017-07-25T16:28:28Z</time>
      </trkpt>
      <trkpt lat="49.48059" lon="1.17075">
        <ele>83</ele>
        <time>2017-07-25T16:28:48Z</time>
      </trkpt>
      <trkpt lat="49.4806" lon="1.17075">
        <ele>83</ele>
        <time>2017-07-25T16:28:48Z</time>
      </trkpt>
      <trkpt lat="49.48059" lon="1.17076">
        <ele>83</ele>
        <time>2017-07-25T16:28:48Z</time>
      </trkpt>
      <trkpt lat="49.48056" lon="1.17083">
        <ele>83</ele>
        <time>2017-07-25T16:28:48Z</time>
      </trkpt>
      <trkpt lat="49.48054" lon="1.17089">
        <ele>83</ele>
        <time>2017-07-25T16:28:48Z</time>
      </trkpt>
      <trkpt lat="49.48053" lon="1.17096">
        <ele>83</ele>
        <time>2017-07-25T16:29:04Z</time>
      </trkpt>
      <trkpt lat="49.4805" lon="1.17101">
        <ele>83</ele>
        <time>2017-07-25T16:29:04Z</time>
      </trkpt>
      <trkpt lat="49.48048" lon="1.17105">
        <ele>83</ele>
        <time>2017-07-25T16:29:04Z</time>
      </trkpt>
      <trkpt lat="49.48046" lon="1.17109">
        <ele>83</ele>
        <time>2017-07-25T16:29:04Z</time>
      </trkpt>
      <trkpt lat="49.48044" lon="1.17111">
        <ele>83</ele>
        <time>2017-07-25T16:29:20Z</time>
      </trkpt>
      <trkpt lat="49.4804" lon="1.17118">
        <ele>90</ele>
        <time>2017-07-25T16:29:20Z</time>
      </trkpt>
      <trkpt lat="49.48038" lon="1.1712">
        <ele>90</ele>
        <time>2017-07-25T16:29:20Z</time>
      </trkpt>
      <trkpt lat="49.48037" lon="1.17123">
        <ele>90</ele>
        <time>2017-07-25T16:29:20Z</time>
      </trkpt>
      <trkpt lat="49.48034" lon="1.17127">
        <ele>97</ele>
        <time>2017-07-25T16:29:36Z</time>
      </trkpt>
      <trkpt lat="49.48031" lon="1.17132">
        <ele>97</ele>
        <time>2017-07-25T16:29:36Z</time>
      </trkpt>
      <trkpt lat="49.48026" lon="1.17134">
        <ele>97</ele>
        <time>2017-07-25T16:29:36Z</time>
      </trkpt>
      <trkpt lat="49.48023" lon="1.17139">
        <ele>97</ele>
        <time>2017-07-25T16:29:36Z</time>
      </trkpt>
      <trkpt lat="49.48021" lon="1.17142">
        <ele>97</ele>
        <time>2017-07-25T16:29:52Z</time>
      </trkpt>
      <trkpt lat="49.48019" lon="1.17149">
        <ele>97</ele>
        <time>2017-07-25T16:29:52Z</time>
      </trkpt>
      <trkpt lat="49.48017" lon="1.1715">
        <ele>97</ele>
        <time>2017-07-25T16:29:52Z</time>
      </trkpt>
      <trkpt lat="49.48013" lon="1.17154">
        <ele>97</ele>
        <time>2017-07-25T16:29:52Z</time>
      </trkpt>
      <trkpt lat="49.48012" lon="1.17158">
        <ele>97</ele>
        <time>2017-07-25T16:30:12Z</time>
      </trkpt>
      <trkpt lat="49.48011" lon="1.17162">
        <ele>97</ele>
        <time>2017-07-25T16:30:14Z</time>
      </trkpt>
      <trkpt lat="49.48014" lon="1.17164">
        <ele>97</ele>
        <time>2017-07-25T16:30:14Z</time>
      </trkpt>
      <trkpt lat="49.48011" lon="1.17168">
        <ele>97</ele>
        <time>2017-07-25T16:30:14Z</time>
      </trkpt>
      <trkpt lat="49.48008" lon="1.17171">
        <ele>97</ele>
        <time>2017-07-25T16:30:14Z</time>
      </trkpt>
      <trkpt lat="49.48002" lon="1.1718">
        <ele>97</ele>
        <time>2017-07-25T16:31:12Z</time>
      </trkpt>
      <trkpt lat="49.48002" lon="1.1718">
        <ele>97</ele>
        <time>2017-07-25T16:31:12Z</time>
      </trkpt>
      <trkpt lat="49.48001" lon="1.1718">
        <ele>97</ele>
        <time>2017-07-25T16:31:12Z</time>
      </trkpt>
      <trkpt lat="49.47999" lon="1.17179">
        <ele>97</ele>
        <time>2017-07-25T16:31:13Z</time>
      </trkpt>
      <trkpt lat="49.47991" lon="1.17184">
        <ele>97</ele>
        <time>2017-07-25T16:31:13Z</time>
      </trkpt>
      <trkpt lat="49.47987" lon="1.17189">
        <ele>97</ele>
        <time>2017-07-25T16:31:28Z</time>
      </trkpt>
      <trkpt lat="49.47984" lon="1.17192">
        <ele>97</ele>
        <time>2017-07-25T16:31:28Z</time>
      </trkpt>
      <trkpt lat="49.47979" lon="1.17198">
        <ele>97</ele>
        <time>2017-07-25T16:31:28Z</time>
      </trkpt>
      <trkpt lat="49.47974" lon="1.172">
        <ele>97</ele>
        <time>2017-07-25T16:31:28Z</time>
      </trkpt>
      <trkpt lat="49.47969" lon="1.17201">
        <ele>97</ele>
        <time>2017-07-25T16:31:44Z</time>
      </trkpt>
      <trkpt lat="49.47963" lon="1.17202">
        <ele>97</ele>
        <time>2017-07-25T16:31:44Z</time>
      </trkpt>
      <trkpt lat="49.47961" lon="1.17209">
        <ele>99</ele>
        <time>2017-07-25T16:31:44Z</time>
      </trkpt>
      <trkpt lat="49.47956" lon="1.17209">
        <ele>118</ele>
        <time>2017-07-25T16:31:44Z</time>
      </trkpt>
      <trkpt lat="49.47945" lon="1.1722">
        <ele>118</ele>
        <time>2017-07-25T16:32:56Z</time>
      </trkpt>
      <trkpt lat="49.47926" lon="1.17218">
        <ele>118</ele>
        <time>2017-07-25T16:32:56Z</time>
      </trkpt>
      <trkpt lat="49.4791" lon="1.17219">
        <ele>118</ele>
        <time>2017-07-25T16:32:56Z</time>
      </trkpt>
      <trkpt lat="49.47909" lon="1.17213">
        <ele>118</ele>
        <time>2017-07-25T16:32:56Z</time>
      </trkpt>
      <trkpt lat="49.47895" lon="1.17213">
        <ele>118</ele>
        <time>2017-07-25T16:32:57Z</time>
      </trkpt>
      <trkpt lat="49.47895" lon="1.17217">
        <ele>118</ele>
        <time>2017-07-25T16:33:12Z</time>
      </trkpt>
      <trkpt lat="49.4789" lon="1.17215">
        <ele>118</ele>
        <time>2017-07-25T16:33:12Z</time>
      </trkpt>
      <trkpt lat="49.47886" lon="1.17215">
        <ele>118</ele>
        <time>2017-07-25T16:33:12Z</time>
      </trkpt>
      <trkpt lat="49.47885" lon="1.17225">
        <ele>118</ele>
        <time>2017-07-25T16:33:12Z</time>
      </trkpt>
      <trkpt lat="49.47884" lon="1.17225">
        <ele>118</ele>
        <time>2017-07-25T16:33:32Z</time>
      </trkpt>
      <trkpt lat="49.47881" lon="1.17224">
        <ele>118</ele>
        <time>2017-07-25T16:33:32Z</time>
      </trkpt>
      <trkpt lat="49.47877" lon="1.17227">
        <ele>118</ele>
        <time>2017-07-25T16:33:32Z</time>
      </trkpt>
      <trkpt lat="49.47875" lon="1.17227">
        <ele>118</ele>
        <time>2017-07-25T16:33:33Z</time>
      </trkpt>
      <trkpt lat="49.47874" lon="1.17229">
        <ele>135</ele>
        <time>2017-07-25T16:33:33Z</time>
      </trkpt>
      <trkpt lat="49.47871" lon="1.17231">
        <ele>135</ele>
        <time>2017-07-25T16:33:48Z</time>
      </trkpt>
      <trkpt lat="49.47867" lon="1.1723">
        <ele>135</ele>
        <time>2017-07-25T16:33:48Z</time>
      </trkpt>
      <trkpt lat="49.4786" lon="1.17233">
        <ele>135</ele>
        <time>2017-07-25T16:33:48Z</time>
      </trkpt>
      <trkpt lat="49.4786" lon="1.17236">
        <ele>135</ele>
        <time>2017-07-25T16:33:48Z</time>
      </trkpt>
      <trkpt lat="49.47862" lon="1.17239">
        <ele>135</ele>
        <time>2017-07-25T16:34:28Z</time>
      </trkpt>
      <trkpt lat="49.47862" lon="1.17239">
        <ele>135</ele>
        <time>2017-07-25T16:34:28Z</time>
      </trkpt>
      <trkpt lat="49.47861" lon="1.17239">
        <ele>135</ele>
        <time>2017-07-25T16:34:28Z</time>
      </trkpt>
      <trkpt lat="49.47853" lon="1.17245">
        <ele>135</ele>
        <time>2017-07-25T16:34:28Z</time>
      </trkpt>
      <trkpt lat="49.47849" lon="1.17251">
        <ele>135</ele>
        <time>2017-07-25T16:34:28Z</time>
      </trkpt>
      <trkpt lat="49.47842" lon="1.1725">
        <ele>135</ele>
        <time>2017-07-25T16:34:44Z</time>
      </trkpt>
      <trkpt lat="49.47838" lon="1.17251">
        <ele>135</ele>
        <time>2017-07-25T16:34:44Z</time>
      </trkpt>
      <trkpt lat="49.47832" lon="1.17241">
        <ele>135</ele>
        <time>2017-07-25T16:34:44Z</time>
      </trkpt>
      <trkpt lat="49.47831" lon="1.17257">
        <ele>135</ele>
        <time>2017-07-25T16:34:44Z</time>
      </trkpt>
      <trkpt lat="49.47828" lon="1.17257">
        <ele>135</ele>
        <time>2017-07-25T16:35:00Z</time>
      </trkpt>
      <trkpt lat="49.47825" lon="1.17252">
        <ele>135</ele>
        <time>2017-07-25T16:35:00Z</time>
      </trkpt>
      <trkpt lat="49.4782" lon="1.17256">
        <ele>135</ele>
        <time>2017-07-25T16:35:00Z</time>
      </trkpt>
      <trkpt lat="49.47817" lon="1.17255">
        <ele>135</ele>
        <time>2017-07-25T16:35:00Z</time>
      </trkpt>
      <trkpt lat="49.47805" lon="1.17259">
        <ele>135</ele>
        <time>2017-07-25T16:35:40Z</time>
      </trkpt>
      <trkpt lat="49.47805" lon="1.17257">
        <ele>135</ele>
        <time>2017-07-25T16:35:40Z</time>
      </trkpt>
      <trkpt lat="49.478" lon="1.17256">
        <ele>135</ele>
        <time>2017-07-25T16:35:40Z</time>
      </trkpt>
      <trkpt lat="49.47798" lon="1.17254">
        <ele>135</ele>
        <time>2017-07-25T16:35:40Z</time>
      </trkpt>
      <trkpt lat="49.47794" lon="1.17252">
        <ele>135</ele>
        <time>2017-07-25T16:35:41Z</time>
      </trkpt>
      <trkpt lat="49.47794" lon="1.17253">
        <ele>135</ele>
        <time>2017-07-25T16:35:56Z</time>
      </trkpt>
      <trkpt lat="49.47792" lon="1.17253">
        <ele>135</ele>
        <time>2017-07-25T16:35:56Z</time>
      </trkpt>
      <trkpt lat="49.47779" lon="1.17247">
        <ele>141</ele>
        <time>2017-07-25T16:35:56Z</time>
      </trkpt>
      <trkpt lat="49.47775" lon="1.17243">
        <ele>141</ele>
        <time>2017-07-25T16:35:56Z</time>
      </trkpt>
      <trkpt lat="49.47766" lon="1.1724">
        <ele>141</ele>
        <time>2017-07-25T16:36:52Z</time>
      </trkpt>
      <trkpt lat="49.47766" lon="1.1724">
        <ele>141</ele>
        <time>2017-07-25T16:36:52Z</time>
      </trkpt>
      <trkpt lat="49.47766" lon="1.1724">
        <ele>141</ele>
        <time>2017-07-25T16:36:52Z</time>
      </trkpt>
      <trkpt lat="49.47766" lon="1.17239">
        <ele>141</ele>
        <time>2017-07-25T16:36:52Z</time>
      </trkpt>
      <trkpt lat="49.47741" lon="1.17222">
        <ele>141</ele>
        <time>2017-07-25T16:36:53Z</time>
      </trkpt>
      <trkpt lat="49.47732" lon="1.17224">
        <ele>141</ele>
        <time>2017-07-25T16:37:08Z</time>
      </trkpt>
      <trkpt lat="49.47718" lon="1.17217">
        <ele>141</ele>
        <time>2017-07-25T16:37:08Z</time>
      </trkpt>
      <trkpt lat="49.47713" lon="1.17215">
        <ele>141</ele>
        <time>2017-07-25T16:37:08Z</time>
      </trkpt>
      <trkpt lat="49.47708" lon="1.17216">
        <ele>146</ele>
        <time>2017-07-25T16:37:08Z</time>
      </trkpt>
      <trkpt lat="49.47701" lon="1.17215">
        <ele>146</ele>
        <time>2017-07-25T16:37:24Z</time>
      </trkpt>
      <trkpt lat="49.47698" lon="1.17215">
        <ele>146</ele>
        <time>2017-07-25T16:37:24Z</time>
      </trkpt>
      <trkpt lat="49.47688" lon="1.1721">
        <ele>146</ele>
        <time>2017-07-25T16:37:24Z</time>
      </trkpt>
      <trkpt lat="49.47684" lon="1.17214">
        <ele>146</ele>
        <time>2017-07-25T16:37:24Z</time>
      </trkpt>
      <trkpt lat="49.4768" lon="1.17217">
        <ele>146</ele>
        <time>2017-07-25T16:37:40Z</time>
      </trkpt>
      <trkpt lat="49.47675" lon="1.17214">
        <ele>146</ele>
        <time>2017-07-25T16:37:40Z</time>
      </trkpt>
      <trkpt lat="49.47668" lon="1.17213">
        <ele>146</ele>
        <time>2017-07-25T16:37:40Z</time>
      </trkpt>
      <trkpt lat="49.47662" lon="1.17215">
        <ele>146</ele>
        <time>2017-07-25T16:37:40Z</time>
      </trkpt>
      <trkpt lat="49.47657" lon="1.17222">
        <ele>146</ele>
        <time>2017-07-25T16:38:36Z</time>
      </trkpt>
      <trkpt lat="49.47656" lon="1.17222">
        <ele>146</ele>
        <time>2017-07-25T16:38:36Z</time>
      </trkpt>
      <trkpt lat="49.47648" lon="1.17223">
        <ele>146</ele>
        <time>2017-07-25T16:38:36Z</time>
      </trkpt>
      <trkpt lat="49.47643" lon="1.17224">
        <ele>146</ele>
        <time>2017-07-25T16:38:36Z</time>
      </trkpt>
      <trkpt lat="49.47639" lon="1.17224">
        <ele>146</ele>
        <time>2017-07-25T16:38:37Z</time>
      </trkpt>
      <trkpt lat="49.47635" lon="1.1721">
        <ele>146</ele>
        <time>2017-07-25T16:39:44Z</time>
      </trkpt>
      <trkpt lat="49.47635" lon="1.1721">
        <ele>146</ele>
        <time>2017-07-25T16:39:44Z</time>
      </trkpt>
      <trkpt lat="49.47624" lon="1.17215">
        <ele>146</ele>
        <time>2017-07-25T16:39:44Z</time>
      </trkpt>
      <trkpt lat="49.47621" lon="1.17222">
        <ele>146</ele>
        <time>2017-07-25T16:39:44Z</time>
      </trkpt>
      <trkpt lat="49.47614" lon="1.17229">
        <ele>146</ele>
        <time>2017-07-25T16:39:45Z</time>
      </trkpt>
      <trkpt lat="49.47615" lon="1.1724">
        <ele>146</ele>
        <time>2017-07-25T16:40:12Z</time>
      </trkpt>
      <trkpt lat="49.47614" lon="1.17242">
        <ele>146</ele>
        <time>2017-07-25T16:40:12Z</time>
      </trkpt>
      <trkpt lat="49.47614" lon="1.17243">
        <ele>146</ele>
        <time>2017-07-25T16:40:12Z</time>
      </trkpt>
      <trkpt lat="49.47611" lon="1.17248">
        <ele>146</ele>
        <time>2017-07-25T16:40:12Z</time>
      </trkpt>
      <trkpt lat="49.4761" lon="1.1725">
        <ele>146</ele>
        <time>2017-07-25T16:40:13Z</time>
      </trkpt>
      <trkpt lat="49.4761" lon="1.17252">
        <ele>146</ele>
        <time>2017-07-25T16:40:28Z</time>
      </trkpt>
      <trkpt lat="49.47609" lon="1.17254">
        <ele>146</ele>
        <time>2017-07-25T16:40:28Z</time>
      </trkpt>
      <trkpt lat="49.47605" lon="1.17261">
        <ele>146</ele>
        <time>2017-07-25T16:40:28Z</time>
      </trkpt>
      <trkpt lat="49.47602" lon="1.17273">
        <ele>146</ele>
        <time>2017-07-25T16:40:29Z</time>
      </trkpt>
      <trkpt lat="49.47597" lon="1.17287">
        <ele>146</ele>
        <time>2017-07-25T16:40:44Z</time>
      </trkpt>
      <trkpt lat="49.47594" lon="1.17294">
        <ele>147</ele>
        <time>2017-07-25T16:40:44Z</time>
      </trkpt>
      <trkpt lat="49.4759" lon="1.17294">
        <ele>147</ele>
        <time>2017-07-25T16:40:44Z</time>
      </trkpt>
      <trkpt lat="49.47586" lon="1.17307">
        <ele>147</ele>
        <time>2017-07-25T16:40:44Z</time>
      </trkpt>
      <trkpt lat="49.47583" lon="1.17314">
        <ele>147</ele>
        <time>2017-07-25T16:41:00Z</time>
      </trkpt>
      <trkpt lat="49.47581" lon="1.17319">
        <ele>147</ele>
        <time>2017-07-25T16:41:00Z</time>
      </trkpt>
      <trkpt lat="49.4758" lon="1.17323">
        <ele>147</ele>
        <time>2017-07-25T16:41:00Z</time>
      </trkpt>
      <trkpt lat="49.47577" lon="1.17328">
        <ele>147</ele>
        <time>2017-07-25T16:41:00Z</time>
      </trkpt>
      <trkpt lat="49.47574" lon="1.17336">
        <ele>147</ele>
        <time>2017-07-25T16:41:16Z</time>
      </trkpt>
      <trkpt lat="49.4757" lon="1.17342">
        <ele>147</ele>
        <time>2017-07-25T16:41:16Z</time>
      </trkpt>
      <trkpt lat="49.47566" lon="1.17345">
        <ele>147</ele>
        <time>2017-07-25T16:41:16Z</time>
      </trkpt>
      <trkpt lat="49.47562" lon="1.17347">
        <ele>147</ele>
        <time>2017-07-25T16:41:16Z</time>
      </trkpt>
      <trkpt lat="49.47558" lon="1.17349">
        <ele>147</ele>
        <time>2017-07-25T16:41:32Z</time>
      </trkpt>
      <trkpt lat="49.47554" lon="1.17354">
        <ele>147</ele>
        <time>2017-07-25T16:41:32Z</time>
      </trkpt>
      <trkpt lat="49.47551" lon="1.17359">
        <ele>147</ele>
        <time>2017-07-25T16:41:32Z</time>
      </trkpt>
      <trkpt lat="49.47546" lon="1.17361">
        <ele>147</ele>
        <time>2017-07-25T16:41:32Z</time>
      </trkpt>
      <trkpt lat="49.47541" lon="1.17364">
        <ele>149</ele>
        <time>2017-07-25T16:41:48Z</time>
      </trkpt>
      <trkpt lat="49.47539" lon="1.17373">
        <ele>149</ele>
        <time>2017-07-25T16:41:48Z</time>
      </trkpt>
      <trkpt lat="49.47536" lon="1.1738">
        <ele>148</ele>
        <time>2017-07-25T16:41:48Z</time>
      </trkpt>
      <trkpt lat="49.47534" lon="1.17388">
        <ele>148</ele>
        <time>2017-07-25T16:41:49Z</time>
      </trkpt>
      <trkpt lat="49.4753" lon="1.1739">
        <ele>148</ele>
        <time>2017-07-25T16:42:04Z</time>
      </trkpt>
      <trkpt lat="49.47529" lon="1.17394">
        <ele>148</ele>
        <time>2017-07-25T16:42:04Z</time>
      </trkpt>
      <trkpt lat="49.47525" lon="1.17397">
        <ele>148</ele>
        <time>2017-07-25T16:42:04Z</time>
      </trkpt>
      <trkpt lat="49.47521" lon="1.17402">
        <ele>148</ele>
        <time>2017-07-25T16:42:04Z</time>
      </trkpt>
      <trkpt lat="49.47518" lon="1.17406">
        <ele>148</ele>
        <time>2017-07-25T16:42:20Z</time>
      </trkpt>
      <trkpt lat="49.47514" lon="1.17417">
        <ele>148</ele>
        <time>2017-07-25T16:42:20Z</time>
      </trkpt>
      <trkpt lat="49.4751" lon="1.1742">
        <ele>148</ele>
        <time>2017-07-25T16:42:20Z</time>
      </trkpt>
      <trkpt lat="49.47508" lon="1.17424">
        <ele>148</ele>
        <time>2017-07-25T16:42:20Z</time>
      </trkpt>
      <trkpt lat="49.47506" lon="1.17422">
        <ele>148</ele>
        <time>2017-07-25T16:42:36Z</time>
      </trkpt>
      <trkpt lat="49.47501" lon="1.1743">
        <ele>148</ele>
        <time>2017-07-25T16:42:36Z</time>
      </trkpt>
      <trkpt lat="49.47496" lon="1.17435">
        <ele>148</ele>
        <time>2017-07-25T16:42:36Z</time>
      </trkpt>
      <trkpt lat="49.47492" lon="1.17439">
        <ele>148</ele>
        <time>2017-07-25T16:42:36Z</time>
      </trkpt>
      <trkpt lat="49.47488" lon="1.17445">
        <ele>148</ele>
        <time>2017-07-25T16:42:52Z</time>
      </trkpt>
      <trkpt lat="49.47485" lon="1.1745">
        <ele>148</ele>
        <time>2017-07-25T16:42:52Z</time>
      </trkpt>
      <trkpt lat="49.47481" lon="1.17456">
        <ele>148</ele>
        <time>2017-07-25T16:42:52Z</time>
      </trkpt>
      <trkpt lat="49.47477" lon="1.17457">
        <ele>148</ele>
        <time>2017-07-25T16:42:52Z</time>
      </trkpt>
      <trkpt lat="49.47471" lon="1.17457">
        <ele>148</ele>
        <time>2017-07-25T16:43:08Z</time>
      </trkpt>
      <trkpt lat="49.47468" lon="1.17467">
        <ele>148</ele>
        <time>2017-07-25T16:43:08Z</time>
      </trkpt>
      <trkpt lat="49.47463" lon="1.17471">
        <ele>148</ele>
        <time>2017-07-25T16:43:08Z</time>
      </trkpt>
      <trkpt lat="49.47458" lon="1.1747">
        <ele>151</ele>
        <time>2017-07-25T16:43:08Z</time>
      </trkpt>
      <trkpt lat="49.47454" lon="1.17476">
        <ele>151</ele>
        <time>2017-07-25T16:43:24Z</time>
      </trkpt>
      <trkpt lat="49.4745" lon="1.1748">
        <ele>151</ele>
        <time>2017-07-25T16:43:24Z</time>
      </trkpt>
      <trkpt lat="49.47446" lon="1.17487">
        <ele>151</ele>
        <time>2017-07-25T16:43:24Z</time>
      </trkpt>
      <trkpt lat="49.47443" lon="1.17491">
        <ele>151</ele>
        <time>2017-07-25T16:43:24Z</time>
      </trkpt>
      <trkpt lat="49.47439" lon="1.17493">
        <ele>151</ele>
        <time>2017-07-25T16:43:40Z</time>
      </trkpt>
      <trkpt lat="49.47437" lon="1.17494">
        <ele>151</ele>
        <time>2017-07-25T16:43:40Z</time>
      </trkpt>
      <trkpt lat="49.47434" lon="1.17496">
        <ele>151</ele>
        <time>2017-07-25T16:43:40Z</time>
      </trkpt>
      <trkpt lat="49.47429" lon="1.17504">
        <ele>151</ele>
        <time>2017-07-25T16:43:40Z</time>
      </trkpt>
      <trkpt lat="49.47424" lon="1.17507">
        <ele>151</ele>
        <time>2017-07-25T16:43:56Z</time>
      </trkpt>
      <trkpt lat="49.47419" lon="1.17513">
        <ele>151</ele>
        <time>2017-07-25T16:43:56Z</time>
      </trkpt>
      <trkpt lat="49.47415" lon="1.17519">
        <ele>151</ele>
        <time>2017-07-25T16:43:56Z</time>
      </trkpt>
      <trkpt lat="49.47412" lon="1.17523">
        <ele>151</ele>
        <time>2017-07-25T16:43:56Z</time>
      </trkpt>
      <trkpt lat="49.47408" lon="1.17526">
        <ele>151</ele>
        <time>2017-07-25T16:44:12Z</time>
      </trkpt>
      <trkpt lat="49.47405" lon="1.17527">
        <ele>151</ele>
        <time>2017-07-25T16:44:12Z</time>
      </trkpt>
      <trkpt lat="49.47402" lon="1.17531">
        <ele>151</ele>
        <time>2017-07-25T16:44:13Z</time>
      </trkpt>
      <trkpt lat="49.47398" lon="1.17537">
        <ele>151</ele>
        <time>2017-07-25T16:44:13Z</time>
      </trkpt>
      <trkpt lat="49.47395" lon="1.17541">
        <ele>151</ele>
        <time>2017-07-25T16:44:28Z</time>
      </trkpt>
      <trkpt lat="49.4739" lon="1.17551">
        <ele>149</ele>
        <time>2017-07-25T16:44:28Z</time>
      </trkpt>
      <trkpt lat="49.47388" lon="1.17556">
        <ele>149</ele>
        <time>2017-07-25T16:44:28Z</time>
      </trkpt>
      <trkpt lat="49.47387" lon="1.17558">
        <ele>149</ele>
        <time>2017-07-25T16:44:28Z</time>
      </trkpt>
      <trkpt lat="49.4738" lon="1.17569">
        <ele>149</ele>
        <time>2017-07-25T16:44:44Z</time>
      </trkpt>
      <trkpt lat="49.47374" lon="1.17572">
        <ele>151</ele>
        <time>2017-07-25T16:44:44Z</time>
      </trkpt>
      <trkpt lat="49.47371" lon="1.17576">
        <ele>151</ele>
        <time>2017-07-25T16:44:44Z</time>
      </trkpt>
      <trkpt lat="49.47367" lon="1.17583">
        <ele>151</ele>
        <time>2017-07-25T16:44:44Z</time>
      </trkpt>
      <trkpt lat="49.47367" lon="1.17585">
        <ele>151</ele>
        <time>2017-07-25T16:45:00Z</time>
      </trkpt>
      <trkpt lat="49.47363" lon="1.17588">
        <ele>151</ele>
        <time>2017-07-25T16:45:00Z</time>
      </trkpt>
      <trkpt lat="49.47357" lon="1.17599">
        <ele>151</ele>
        <time>2017-07-25T16:45:00Z</time>
      </trkpt>
      <trkpt lat="49.47352" lon="1.17604">
        <ele>151</ele>
        <time>2017-07-25T16:45:00Z</time>
      </trkpt>
      <trkpt lat="49.47349" lon="1.17609">
        <ele>151</ele>
        <time>2017-07-25T16:45:16Z</time>
      </trkpt>
      <trkpt lat="49.47345" lon="1.17611">
        <ele>151</ele>
        <time>2017-07-25T16:45:16Z</time>
      </trkpt>
      <trkpt lat="49.4734" lon="1.17618">
        <ele>151</ele>
        <time>2017-07-25T16:45:16Z</time>
      </trkpt>
      <trkpt lat="49.47336" lon="1.17623">
        <ele>151</ele>
        <time>2017-07-25T16:45:16Z</time>
      </trkpt>
      <trkpt lat="49.47334" lon="1.17627">
        <ele>149</ele>
        <time>2017-07-25T16:45:32Z</time>
      </trkpt>
      <trkpt lat="49.47333" lon="1.17627">
        <ele>149</ele>
        <time>2017-07-25T16:45:32Z</time>
      </trkpt>
      <trkpt lat="49.47327" lon="1.17633">
        <ele>149</ele>
        <time>2017-07-25T16:45:32Z</time>
      </trkpt>
      <trkpt lat="49.47323" lon="1.17638">
        <ele>149</ele>
        <time>2017-07-25T16:45:33Z</time>
      </trkpt>
      <trkpt lat="49.47319" lon="1.17642">
        <ele>149</ele>
        <time>2017-07-25T16:45:48Z</time>
      </trkpt>
      <trkpt lat="49.47316" lon="1.17646">
        <ele>149</ele>
        <time>2017-07-25T16:45:48Z</time>
      </trkpt>
      <trkpt lat="49.47313" lon="1.17652">
        <ele>149</ele>
        <time>2017-07-25T16:45:48Z</time>
      </trkpt>
      <trkpt lat="49.47309" lon="1.17656">
        <ele>149</ele>
        <time>2017-07-25T16:45:48Z</time>
      </trkpt>
      <trkpt lat="49.47304" lon="1.17661">
        <ele>149</ele>
        <time>2017-07-25T16:46:04Z</time>
      </trkpt>
      <trkpt lat="49.47297" lon="1.17665">
        <ele>149</ele>
        <time>2017-07-25T16:46:04Z</time>
      </trkpt>
      <trkpt lat="49.47294" lon="1.17667">
        <ele>149</ele>
        <time>2017-07-25T16:46:04Z</time>
      </trkpt>
      <trkpt lat="49.47288" lon="1.17677">
        <ele>152</ele>
        <time>2017-07-25T16:46:04Z</time>
      </trkpt>
      <trkpt lat="49.47283" lon="1.17683">
        <ele>152</ele>
        <time>2017-07-25T16:46:20Z</time>
      </trkpt>
      <trkpt lat="49.4728" lon="1.17687">
        <ele>152</ele>
        <time>2017-07-25T16:46:20Z</time>
      </trkpt>
      <trkpt lat="49.47277" lon="1.17691">
        <ele>152</ele>
        <time>2017-07-25T16:46:20Z</time>
      </trkpt>
      <trkpt lat="49.47273" lon="1.17696">
        <ele>152</ele>
        <time>2017-07-25T16:46:20Z</time>
      </trkpt>
      <trkpt lat="49.47268" lon="1.17703">
        <ele>152</ele>
        <time>2017-07-25T16:46:36Z</time>
      </trkpt>
      <trkpt lat="49.47265" lon="1.17706">
        <ele>152</ele>
        <time>2017-07-25T16:46:37Z</time>
      </trkpt>
      <trkpt lat="49.47263" lon="1.1771">
        <ele>150</ele>
        <time>2017-07-25T16:46:37Z</time>
      </trkpt>
      <trkpt lat="49.4726" lon="1.17712">
        <ele>150</ele>
        <time>2017-07-25T16:46:37Z</time>
      </trkpt>
      <trkpt lat="49.47257" lon="1.17716">
        <ele>150</ele>
        <time>2017-07-25T16:46:52Z</time>
      </trkpt>
      <trkpt lat="49.47253" lon="1.17721">
        <ele>150</ele>
        <time>2017-07-25T16:46:52Z</time>
      </trkpt>
      <trkpt lat="49.4725" lon="1.17725">
        <ele>150</ele>
        <time>2017-07-25T16:46:52Z</time>
      </trkpt>
      <trkpt lat="49.47247" lon="1.17726">
        <ele>150</ele>
        <time>2017-07-25T16:46:52Z</time>
      </trkpt>
      <trkpt lat="49.47244" lon="1.17732">
        <ele>150</ele>
        <time>2017-07-25T16:47:08Z</time>
      </trkpt>
      <trkpt lat="49.47239" lon="1.17737">
        <ele>150</ele>
        <time>2017-07-25T16:47:08Z</time>
      </trkpt>
      <trkpt lat="49.47237" lon="1.17739">
        <ele>150</ele>
        <time>2017-07-25T16:47:08Z</time>
      </trkpt>
      <trkpt lat="49.47233" lon="1.17742">
        <ele>150</ele>
        <time>2017-07-25T16:47:08Z</time>
      </trkpt>
      <trkpt lat="49.47231" lon="1.17745">
        <ele>150</ele>
        <time>2017-07-25T16:47:24Z</time>
      </trkpt>
      <trkpt lat="49.47227" lon="1.17749">
        <ele>150</ele>
        <time>2017-07-25T16:47:24Z</time>
      </trkpt>
      <trkpt lat="49.47222" lon="1.17755">
        <ele>150</ele>
        <time>2017-07-25T16:47:24Z</time>
      </trkpt>
      <trkpt lat="49.47216" lon="1.17765">
        <ele>150</ele>
        <time>2017-07-25T16:47:24Z</time>
      </trkpt>
      <trkpt lat="49.47213" lon="1.17769">
        <ele>150</ele>
        <time>2017-07-25T16:47:40Z</time>
      </trkpt>
      <trkpt lat="49.47209" lon="1.17774">
        <ele>150</ele>
        <time>2017-07-25T16:47:40Z</time>
      </trkpt>
      <trkpt lat="49.47205" lon="1.17781">
        <ele>151</ele>
        <time>2017-07-25T16:47:40Z</time>
      </trkpt>
      <trkpt lat="49.472" lon="1.17785">
        <ele>151</ele>
        <time>2017-07-25T16:47:40Z</time>
      </trkpt>
      <trkpt lat="49.47196" lon="1.17788">
        <ele>151</ele>
        <time>2017-07-25T16:47:56Z</time>
      </trkpt>
      <trkpt lat="49.47192" lon="1.17791">
        <ele>151</ele>
        <time>2017-07-25T16:47:56Z</time>
      </trkpt>
      <trkpt lat="49.47187" lon="1.17796">
        <ele>149</ele>
        <time>2017-07-25T16:47:56Z</time>
      </trkpt>
      <trkpt lat="49.47181" lon="1.178">
        <ele>149</ele>
        <time>2017-07-25T16:47:56Z</time>
      </trkpt>
      <trkpt lat="49.47178" lon="1.17806">
        <ele>149</ele>
        <time>2017-07-25T16:48:12Z</time>
      </trkpt>
      <trkpt lat="49.47174" lon="1.17808">
        <ele>149</ele>
        <time>2017-07-25T16:48:12Z</time>
      </trkpt>
      <trkpt lat="49.47169" lon="1.17813">
        <ele>149</ele>
        <time>2017-07-25T16:48:13Z</time>
      </trkpt>
      <trkpt lat="49.47163" lon="1.17821">
        <ele>149</ele>
        <time>2017-07-25T16:48:13Z</time>
      </trkpt>
      <trkpt lat="49.47159" lon="1.17827">
        <ele>149</ele>
        <time>2017-07-25T16:48:28Z</time>
      </trkpt>
      <trkpt lat="49.47155" lon="1.17831">
        <ele>149</ele>
        <time>2017-07-25T16:48:28Z</time>
      </trkpt>
      <trkpt lat="49.47151" lon="1.17837">
        <ele>149</ele>
        <time>2017-07-25T16:48:28Z</time>
      </trkpt>
      <trkpt lat="49.47148" lon="1.17842">
        <ele>149</ele>
        <time>2017-07-25T16:48:29Z</time>
      </trkpt>
      <trkpt lat="49.47142" lon="1.17847">
        <ele>149</ele>
        <time>2017-07-25T16:48:44Z</time>
      </trkpt>
      <trkpt lat="49.47138" lon="1.17849">
        <ele>149</ele>
        <time>2017-07-25T16:48:44Z</time>
      </trkpt>
      <trkpt lat="49.47134" lon="1.17853">
        <ele>149</ele>
        <time>2017-07-25T16:48:44Z</time>
      </trkpt>
      <trkpt lat="49.47132" lon="1.17857">
        <ele>149</ele>
        <time>2017-07-25T16:48:45Z</time>
      </trkpt>
      <trkpt lat="49.47127" lon="1.17859">
        <ele>149</ele>
        <time>2017-07-25T16:49:00Z</time>
      </trkpt>
      <trkpt lat="49.47122" lon="1.17865">
        <ele>151</ele>
        <time>2017-07-25T16:49:00Z</time>
      </trkpt>
      <trkpt lat="49.47118" lon="1.17871">
        <ele>151</ele>
        <time>2017-07-25T16:49:00Z</time>
      </trkpt>
      <trkpt lat="49.47114" lon="1.17876">
        <ele>149</ele>
        <time>2017-07-25T16:49:00Z</time>
      </trkpt>
      <trkpt lat="49.4711" lon="1.17879">
        <ele>149</ele>
        <time>2017-07-25T16:49:16Z</time>
      </trkpt>
      <trkpt lat="49.47107" lon="1.17882">
        <ele>149</ele>
        <time>2017-07-25T16:49:16Z</time>
      </trkpt>
      <trkpt lat="49.47103" lon="1.17885">
        <ele>149</ele>
        <time>2017-07-25T16:49:16Z</time>
      </trkpt>
      <trkpt lat="49.47099" lon="1.1789">
        <ele>149</ele>
        <time>2017-07-25T16:49:16Z</time>
      </trkpt>
      <trkpt lat="49.47095" lon="1.17893">
        <ele>149</ele>
        <time>2017-07-25T16:49:32Z</time>
      </trkpt>
      <trkpt lat="49.47092" lon="1.17897">
        <ele>149</ele>
        <time>2017-07-25T16:49:33Z</time>
      </trkpt>
      <trkpt lat="49.47088" lon="1.17902">
        <ele>149</ele>
        <time>2017-07-25T16:49:33Z</time>
      </trkpt>
      <trkpt lat="49.47086" lon="1.17905">
        <ele>149</ele>
        <time>2017-07-25T16:49:33Z</time>
      </trkpt>
      <trkpt lat="49.47082" lon="1.17909">
        <ele>149</ele>
        <time>2017-07-25T16:49:48Z</time>
      </trkpt>
      <trkpt lat="49.47079" lon="1.17914">
        <ele>149</ele>
        <time>2017-07-25T16:49:48Z</time>
      </trkpt>
      <trkpt lat="49.47074" lon="1.17922">
        <ele>149</ele>
        <time>2017-07-25T16:49:48Z</time>
      </trkpt>
      <trkpt lat="49.47069" lon="1.17925">
        <ele>149</ele>
        <time>2017-07-25T16:49:48Z</time>
      </trkpt>
      <trkpt lat="49.47065" lon="1.17932">
        <ele>149</ele>
        <time>2017-07-25T16:51:00Z</time>
      </trkpt>
      <trkpt lat="49.47063" lon="1.17936">
        <ele>149</ele>
        <time>2017-07-25T16:51:00Z</time>
      </trkpt>
      <trkpt lat="49.4706" lon="1.17939">
        <ele>149</ele>
        <time>2017-07-25T16:51:00Z</time>
      </trkpt>
      <trkpt lat="49.4706" lon="1.17939">
        <ele>149</ele>
        <time>2017-07-25T16:51:00Z</time>
      </trkpt>
      <trkpt lat="49.4706" lon="1.1794">
        <ele>149</ele>
        <time>2017-07-25T16:51:00Z</time>
      </trkpt>
      <trkpt lat="49.47057" lon="1.17947">
        <ele>149</ele>
        <time>2017-07-25T16:51:16Z</time>
      </trkpt>
      <trkpt lat="49.47055" lon="1.17946">
        <ele>149</ele>
        <time>2017-07-25T16:51:16Z</time>
      </trkpt>
      <trkpt lat="49.47049" lon="1.17952">
        <ele>149</ele>
        <time>2017-07-25T16:51:16Z</time>
      </trkpt>
      <trkpt lat="49.47046" lon="1.17954">
        <ele>149</ele>
        <time>2017-07-25T16:51:16Z</time>
      </trkpt>
      <trkpt lat="49.47042" lon="1.17956">
        <ele>149</ele>
        <time>2017-07-25T16:51:32Z</time>
      </trkpt>
      <trkpt lat="49.47036" lon="1.17961">
        <ele>153</ele>
        <time>2017-07-25T16:51:32Z</time>
      </trkpt>
      <trkpt lat="49.47032" lon="1.17964">
        <ele>153</ele>
        <time>2017-07-25T16:51:32Z</time>
      </trkpt>
      <trkpt lat="49.47027" lon="1.17967">
        <ele>153</ele>
        <time>2017-07-25T16:51:32Z</time>
      </trkpt>
      <trkpt lat="49.47023" lon="1.17971">
        <ele>153</ele>
        <time>2017-07-25T16:51:48Z</time>
      </trkpt>
      <trkpt lat="49.47019" lon="1.17973">
        <ele>153</ele>
        <time>2017-07-25T16:51:48Z</time>
      </trkpt>
      <trkpt lat="49.47015" lon="1.17976">
        <ele>153</ele>
        <time>2017-07-25T16:51:48Z</time>
      </trkpt>
      <trkpt lat="49.47012" lon="1.17976">
        <ele>153</ele>
        <time>2017-07-25T16:51:48Z</time>
      </trkpt>
      <trkpt lat="49.47006" lon="1.17981">
        <ele>153</ele>
        <time>2017-07-25T16:52:04Z</time>
      </trkpt>
      <trkpt lat="49.47002" lon="1.17985">
        <ele>153</ele>
        <time>2017-07-25T16:52:04Z</time>
      </trkpt>
      <trkpt lat="49.46997" lon="1.17988">
        <ele>153</ele>
        <time>2017-07-25T16:52:04Z</time>
      </trkpt>
      <trkpt lat="49.46992" lon="1.17992">
        <ele>153</ele>
        <time>2017-07-25T16:52:05Z</time>
      </trkpt>
      <trkpt lat="49.46988" lon="1.17993">
        <ele>153</ele>
        <time>2017-07-25T16:52:20Z</time>
      </trkpt>
      <trkpt lat="49.46982" lon="1.17996">
        <ele>153</ele>
        <time>2017-07-25T16:52:20Z</time>
      </trkpt>
      <trkpt lat="49.46978" lon="1.17999">
        <ele>153</ele>
        <time>2017-07-25T16:52:20Z</time>
      </trkpt>
      <trkpt lat="49.46974" lon="1.18002">
        <ele>153</ele>
        <time>2017-07-25T16:52:20Z</time>
      </trkpt>
      <trkpt lat="49.4697" lon="1.18006">
        <ele>153</ele>
        <time>2017-07-25T16:52:36Z</time>
      </trkpt>
      <trkpt lat="49.46965" lon="1.18008">
        <ele>153</ele>
        <time>2017-07-25T16:52:36Z</time>
      </trkpt>
      <trkpt lat="49.46959" lon="1.1801">
        <ele>153</ele>
        <time>2017-07-25T16:52:36Z</time>
      </trkpt>
      <trkpt lat="49.46956" lon="1.18011">
        <ele>158</ele>
        <time>2017-07-25T16:52:36Z</time>
      </trkpt>
      <trkpt lat="49.46952" lon="1.18012">
        <ele>158</ele>
        <time>2017-07-25T16:52:52Z</time>
      </trkpt>
      <trkpt lat="49.46946" lon="1.18016">
        <ele>158</ele>
        <time>2017-07-25T16:52:52Z</time>
      </trkpt>
      <trkpt lat="49.4694" lon="1.18017">
        <ele>158</ele>
        <time>2017-07-25T16:52:52Z</time>
      </trkpt>
      <trkpt lat="49.46936" lon="1.18017">
        <ele>158</ele>
        <time>2017-07-25T16:52:52Z</time>
      </trkpt>
      <trkpt lat="49.46932" lon="1.18021">
        <ele>158</ele>
        <time>2017-07-25T16:53:08Z</time>
      </trkpt>
      <trkpt lat="49.46927" lon="1.18024">
        <ele>158</ele>
        <time>2017-07-25T16:53:08Z</time>
      </trkpt>
      <trkpt lat="49.46924" lon="1.18024">
        <ele>158</ele>
        <time>2017-07-25T16:53:08Z</time>
      </trkpt>
      <trkpt lat="49.46922" lon="1.18025">
        <ele>158</ele>
        <time>2017-07-25T16:53:08Z</time>
      </trkpt>
      <trkpt lat="49.46921" lon="1.18027">
        <ele>158</ele>
        <time>2017-07-25T16:53:24Z</time>
      </trkpt>
      <trkpt lat="49.46917" lon="1.18026">
        <ele>158</ele>
        <time>2017-07-25T16:53:24Z</time>
      </trkpt>
      <trkpt lat="49.46911" lon="1.18028">
        <ele>158</ele>
        <time>2017-07-25T16:53:24Z</time>
      </trkpt>
      <trkpt lat="49.46907" lon="1.18028">
        <ele>158</ele>
        <time>2017-07-25T16:53:25Z</time>
      </trkpt>
      <trkpt lat="49.46902" lon="1.18031">
        <ele>158</ele>
        <time>2017-07-25T16:53:40Z</time>
      </trkpt>
      <trkpt lat="49.46897" lon="1.18031">
        <ele>158</ele>
        <time>2017-07-25T16:53:40Z</time>
      </trkpt>
      <trkpt lat="49.46892" lon="1.18031">
        <ele>158</ele>
        <time>2017-07-25T16:53:40Z</time>
      </trkpt>
      <trkpt lat="49.46887" lon="1.18028">
        <ele>158</ele>
        <time>2017-07-25T16:53:40Z</time>
      </trkpt>
      <trkpt lat="49.46882" lon="1.18026">
        <ele>158</ele>
        <time>2017-07-25T16:53:56Z</time>
      </trkpt>
      <trkpt lat="49.46877" lon="1.18025">
        <ele>158</ele>
        <time>2017-07-25T16:53:56Z</time>
      </trkpt>
      <trkpt lat="49.46873" lon="1.18023">
        <ele>157</ele>
        <time>2017-07-25T16:53:56Z</time>
      </trkpt>
      <trkpt lat="49.46867" lon="1.18025">
        <ele>157</ele>
        <time>2017-07-25T16:53:56Z</time>
      </trkpt>
      <trkpt lat="49.46862" lon="1.18026">
        <ele>157</ele>
        <time>2017-07-25T16:54:12Z</time>
      </trkpt>
      <trkpt lat="49.46857" lon="1.18029">
        <ele>157</ele>
        <time>2017-07-25T16:54:12Z</time>
      </trkpt>
      <trkpt lat="49.46852" lon="1.18029">
        <ele>157</ele>
        <time>2017-07-25T16:54:12Z</time>
      </trkpt>
      <trkpt lat="49.46847" lon="1.18029">
        <ele>157</ele>
        <time>2017-07-25T16:54:12Z</time>
      </trkpt>
      <trkpt lat="49.46841" lon="1.18031">
        <ele>157</ele>
        <time>2017-07-25T16:54:28Z</time>
      </trkpt>
      <trkpt lat="49.46838" lon="1.18032">
        <ele>157</ele>
        <time>2017-07-25T16:54:28Z</time>
      </trkpt>
      <trkpt lat="49.46833" lon="1.18033">
        <ele>157</ele>
        <time>2017-07-25T16:54:28Z</time>
      </trkpt>
      <trkpt lat="49.46828" lon="1.18034">
        <ele>157</ele>
        <time>2017-07-25T16:54:28Z</time>
      </trkpt>
      <trkpt lat="49.46822" lon="1.18034">
        <ele>157</ele>
        <time>2017-07-25T16:54:44Z</time>
      </trkpt>
      <trkpt lat="49.46818" lon="1.18034">
        <ele>157</ele>
        <time>2017-07-25T16:54:44Z</time>
      </trkpt>
      <trkpt lat="49.46812" lon="1.18039">
        <ele>157</ele>
        <time>2017-07-25T16:54:45Z</time>
      </trkpt>
      <trkpt lat="49.46806" lon="1.18041">
        <ele>157</ele>
        <time>2017-07-25T16:54:45Z</time>
      </trkpt>
      <trkpt lat="49.46803" lon="1.1804">
        <ele>157</ele>
        <time>2017-07-25T16:55:00Z</time>
      </trkpt>
      <trkpt lat="49.46798" lon="1.18041">
        <ele>157</ele>
        <time>2017-07-25T16:55:00Z</time>
      </trkpt>
      <trkpt lat="49.46792" lon="1.18041">
        <ele>157</ele>
        <time>2017-07-25T16:55:01Z</time>
      </trkpt>
      <trkpt lat="49.46789" lon="1.18041">
        <ele>158</ele>
        <time>2017-07-25T16:55:01Z</time>
      </trkpt>
      <trkpt lat="49.46783" lon="1.18043">
        <ele>161</ele>
        <time>2017-07-25T16:55:32Z</time>
      </trkpt>
      <trkpt lat="49.46781" lon="1.18043">
        <ele>161</ele>
        <time>2017-07-25T16:55:32Z</time>
      </trkpt>
      <trkpt lat="49.46779" lon="1.18046">
        <ele>161</ele>
        <time>2017-07-25T16:55:32Z</time>
      </trkpt>
      <trkpt lat="49.46776" lon="1.18047">
        <ele>161</ele>
        <time>2017-07-25T16:55:32Z</time>
      </trkpt>
      <trkpt lat="49.4677" lon="1.18046">
        <ele>161</ele>
        <time>2017-07-25T16:55:32Z</time>
      </trkpt>
      <trkpt lat="49.46765" lon="1.1805">
        <ele>161</ele>
        <time>2017-07-25T16:55:52Z</time>
      </trkpt>
      <trkpt lat="49.46762" lon="1.18054">
        <ele>161</ele>
        <time>2017-07-25T16:55:53Z</time>
      </trkpt>
      <trkpt lat="49.46761" lon="1.18053">
        <ele>161</ele>
        <time>2017-07-25T16:55:53Z</time>
      </trkpt>
      <trkpt lat="49.46758" lon="1.18053">
        <ele>161</ele>
        <time>2017-07-25T16:55:53Z</time>
      </trkpt>
      <trkpt lat="49.46752" lon="1.18057">
        <ele>161</ele>
        <time>2017-07-25T16:55:53Z</time>
      </trkpt>
      <trkpt lat="49.4675" lon="1.18058">
        <ele>161</ele>
        <time>2017-07-25T16:56:08Z</time>
      </trkpt>
      <trkpt lat="49.46746" lon="1.18061">
        <ele>161</ele>
        <time>2017-07-25T16:56:08Z</time>
      </trkpt>
      <trkpt lat="49.4674" lon="1.18063">
        <ele>161</ele>
        <time>2017-07-25T16:56:08Z</time>
      </trkpt>
      <trkpt lat="49.46736" lon="1.18066">
        <ele>161</ele>
        <time>2017-07-25T16:56:08Z</time>
      </trkpt>
      <trkpt lat="49.46729" lon="1.18063">
        <ele>161</ele>
        <time>2017-07-25T16:56:24Z</time>
      </trkpt>
      <trkpt lat="49.46723" lon="1.18066">
        <ele>161</ele>
        <time>2017-07-25T16:56:25Z</time>
      </trkpt>
      <trkpt lat="49.4672" lon="1.18073">
        <ele>161</ele>
        <time>2017-07-25T16:56:25Z</time>
      </trkpt>
      <trkpt lat="49.46719" lon="1.18079">
        <ele>161</ele>
        <time>2017-07-25T16:56:25Z</time>
      </trkpt>
      <trkpt lat="49.46719" lon="1.18087">
        <ele>161</ele>
        <time>2017-07-25T16:56:44Z</time>
      </trkpt>
      <trkpt lat="49.4672" lon="1.18094">
        <ele>161</ele>
        <time>2017-07-25T16:56:44Z</time>
      </trkpt>
      <trkpt lat="49.46719" lon="1.18096">
        <ele>161</ele>
        <time>2017-07-25T16:56:44Z</time>
      </trkpt>
      <trkpt lat="49.46718" lon="1.18097">
        <ele>161</ele>
        <time>2017-07-25T16:56:44Z</time>
      </trkpt>
      <trkpt lat="49.46713" lon="1.18099">
        <ele>161</ele>
        <time>2017-07-25T16:56:44Z</time>
      </trkpt>
      <trkpt lat="49.46707" lon="1.18102">
        <ele>161</ele>
        <time>2017-07-25T16:57:04Z</time>
      </trkpt>
      <trkpt lat="49.46704" lon="1.18102">
        <ele>161</ele>
        <time>2017-07-25T16:57:04Z</time>
      </trkpt>
      <trkpt lat="49.46699" lon="1.18105">
        <ele>161</ele>
        <time>2017-07-25T16:57:04Z</time>
      </trkpt>
      <trkpt lat="49.46699" lon="1.18101">
        <ele>161</ele>
        <time>2017-07-25T16:57:05Z</time>
      </trkpt>
      <trkpt lat="49.46693" lon="1.18104">
        <ele>161</ele>
        <time>2017-07-25T16:57:05Z</time>
      </trkpt>
      <trkpt lat="49.46686" lon="1.18106">
        <ele>161</ele>
        <time>2017-07-25T16:57:20Z</time>
      </trkpt>
      <trkpt lat="49.46682" lon="1.18107">
        <ele>161</ele>
        <time>2017-07-25T16:57:20Z</time>
      </trkpt>
      <trkpt lat="49.46677" lon="1.18108">
        <ele>161</ele>
        <time>2017-07-25T16:57:20Z</time>
      </trkpt>
      <trkpt lat="49.46671" lon="1.18106">
        <ele>161</ele>
        <time>2017-07-25T16:57:20Z</time>
      </trkpt>
      <trkpt lat="49.46666" lon="1.18099">
        <ele>161</ele>
        <time>2017-07-25T16:57:36Z</time>
      </trkpt>
      <trkpt lat="49.46662" lon="1.18091">
        <ele>161</ele>
        <time>2017-07-25T16:57:36Z</time>
      </trkpt>
      <trkpt lat="49.46655" lon="1.18096">
        <ele>161</ele>
        <time>2017-07-25T16:57:36Z</time>
      </trkpt>
      <trkpt lat="49.46651" lon="1.18101">
        <ele>161</ele>
        <time>2017-07-25T16:57:36Z</time>
      </trkpt>
      <trkpt lat="49.46647" lon="1.18095">
        <ele>161</ele>
        <time>2017-07-25T16:57:52Z</time>
      </trkpt>
      <trkpt lat="49.46643" lon="1.18104">
        <ele>161</ele>
        <time>2017-07-25T16:57:52Z</time>
      </trkpt>
      <trkpt lat="49.4664" lon="1.181">
        <ele>161</ele>
        <time>2017-07-25T16:57:52Z</time>
      </trkpt>
      <trkpt lat="49.46632" lon="1.18104">
        <ele>161</ele>
        <time>2017-07-25T16:57:52Z</time>
      </trkpt>
      <trkpt lat="49.4663" lon="1.18104">
        <ele>161</ele>
        <time>2017-07-25T16:58:08Z</time>
      </trkpt>
      <trkpt lat="49.46624" lon="1.18106">
        <ele>160</ele>
        <time>2017-07-25T16:58:08Z</time>
      </trkpt>
      <trkpt lat="49.4662" lon="1.18106">
        <ele>160</ele>
        <time>2017-07-25T16:58:08Z</time>
      </trkpt>
      <trkpt lat="49.46619" lon="1.18104">
        <ele>160</ele>
        <time>2017-07-25T16:58:08Z</time>
      </trkpt>
      <trkpt lat="49.46618" lon="1.18105">
        <ele>160</ele>
        <time>2017-07-25T16:58:40Z</time>
      </trkpt>
      <trkpt lat="49.46618" lon="1.18105">
        <ele>160</ele>
        <time>2017-07-25T16:58:40Z</time>
      </trkpt>
      <trkpt lat="49.46618" lon="1.18105">
        <ele>160</ele>
        <time>2017-07-25T16:58:40Z</time>
      </trkpt>
      <trkpt lat="49.46616" lon="1.18107">
        <ele>160</ele>
        <time>2017-07-25T16:58:40Z</time>
      </trkpt>
      <trkpt lat="49.46607" lon="1.18106">
        <ele>160</ele>
        <time>2017-07-25T16:58:41Z</time>
      </trkpt>
      <trkpt lat="49.46598" lon="1.18097">
        <ele>160</ele>
        <time>2017-07-25T16:58:56Z</time>
      </trkpt>
      <trkpt lat="49.46589" lon="1.18095">
        <ele>160</ele>
        <time>2017-07-25T16:58:56Z</time>
      </trkpt>
      <trkpt lat="49.46582" lon="1.18094">
        <ele>160</ele>
        <time>2017-07-25T16:58:56Z</time>
      </trkpt>
      <trkpt lat="49.46576" lon="1.18095">
        <ele>160</ele>
        <time>2017-07-25T16:58:57Z</time>
      </trkpt>
      <trkpt lat="49.46569" lon="1.18095">
        <ele>160</ele>
        <time>2017-07-25T16:59:12Z</time>
      </trkpt>
      <trkpt lat="49.46565" lon="1.18094">
        <ele>160</ele>
        <time>2017-07-25T16:59:12Z</time>
      </trkpt>
      <trkpt lat="49.46562" lon="1.18092">
        <ele>160</ele>
        <time>2017-07-25T16:59:12Z</time>
      </trkpt>
      <trkpt lat="49.46557" lon="1.18089">
        <ele>160</ele>
        <time>2017-07-25T16:59:12Z</time>
      </trkpt>
      <trkpt lat="49.46553" lon="1.18088">
        <ele>160</ele>
        <time>2017-07-25T16:59:28Z</time>
      </trkpt>
      <trkpt lat="49.46549" lon="1.18085">
        <ele>160</ele>
        <time>2017-07-25T16:59:28Z</time>
      </trkpt>
      <trkpt lat="49.46543" lon="1.18085">
        <ele>160</ele>
        <time>2017-07-25T16:59:28Z</time>
      </trkpt>
      <trkpt lat="49.46539" lon="1.18086">
        <ele>158</ele>
        <time>2017-07-25T16:59:28Z</time>
      </trkpt>
      <trkpt lat="49.46534" lon="1.18085">
        <ele>158</ele>
        <time>2017-07-25T16:59:44Z</time>
      </trkpt>
      <trkpt lat="49.46528" lon="1.18084">
        <ele>158</ele>
        <time>2017-07-25T16:59:44Z</time>
      </trkpt>
      <trkpt lat="49.46522" lon="1.18082">
        <ele>158</ele>
        <time>2017-07-25T16:59:44Z</time>
      </trkpt>
      <trkpt lat="49.46517" lon="1.18081">
        <ele>158</ele>
        <time>2017-07-25T16:59:44Z</time>
      </trkpt>
      <trkpt lat="49.46513" lon="1.1808">
        <ele>158</ele>
        <time>2017-07-25T17:00:00Z</time>
      </trkpt>
      <trkpt lat="49.4651" lon="1.1808">
        <ele>158</ele>
        <time>2017-07-25T17:00:00Z</time>
      </trkpt>
      <trkpt lat="49.46502" lon="1.18079">
        <ele>158</ele>
        <time>2017-07-25T17:00:00Z</time>
      </trkpt>
      <trkpt lat="49.46498" lon="1.1808">
        <ele>158</ele>
        <time>2017-07-25T17:00:00Z</time>
      </trkpt>
      <trkpt lat="49.46494" lon="1.18079">
        <ele>158</ele>
        <time>2017-07-25T17:00:16Z</time>
      </trkpt>
      <trkpt lat="49.46491" lon="1.18076">
        <ele>158</ele>
        <time>2017-07-25T17:00:16Z</time>
      </trkpt>
      <trkpt lat="49.46487" lon="1.18076">
        <ele>158</ele>
        <time>2017-07-25T17:00:16Z</time>
      </trkpt>
      <trkpt lat="49.46483" lon="1.18074">
        <ele>158</ele>
        <time>2017-07-25T17:00:16Z</time>
      </trkpt>
      <trkpt lat="49.46479" lon="1.18073">
        <ele>158</ele>
        <time>2017-07-25T17:00:32Z</time>
      </trkpt>
      <trkpt lat="49.46474" lon="1.18071">
        <ele>158</ele>
        <time>2017-07-25T17:00:32Z</time>
      </trkpt>
      <trkpt lat="49.46469" lon="1.18069">
        <ele>158</ele>
        <time>2017-07-25T17:00:32Z</time>
      </trkpt>
      <trkpt lat="49.46465" lon="1.18068">
        <ele>158</ele>
        <time>2017-07-25T17:00:32Z</time>
      </trkpt>
      <trkpt lat="49.46462" lon="1.18068">
        <ele>158</ele>
        <time>2017-07-25T17:00:48Z</time>
      </trkpt>
      <trkpt lat="49.46457" lon="1.18066">
        <ele>156</ele>
        <time>2017-07-25T17:00:48Z</time>
      </trkpt>
      <trkpt lat="49.46453" lon="1.18065">
        <ele>156</ele>
        <time>2017-07-25T17:00:49Z</time>
      </trkpt>
      <trkpt lat="49.46448" lon="1.18065">
        <ele>156</ele>
        <time>2017-07-25T17:00:49Z</time>
      </trkpt>
      <trkpt lat="49.46442" lon="1.18064">
        <ele>156</ele>
        <time>2017-07-25T17:01:08Z</time>
      </trkpt>
      <trkpt lat="49.46442" lon="1.18062">
        <ele>156</ele>
        <time>2017-07-25T17:01:08Z</time>
      </trkpt>
      <trkpt lat="49.46441" lon="1.18062">
        <ele>156</ele>
        <time>2017-07-25T17:01:08Z</time>
      </trkpt>
      <trkpt lat="49.46436" lon="1.18058">
        <ele>156</ele>
        <time>2017-07-25T17:01:08Z</time>
      </trkpt>
      <trkpt lat="49.46431" lon="1.18059">
        <ele>156</ele>
        <time>2017-07-25T17:01:08Z</time>
      </trkpt>
      <trkpt lat="49.46424" lon="1.18059">
        <ele>156</ele>
        <time>2017-07-25T17:01:24Z</time>
      </trkpt>
      <trkpt lat="49.46418" lon="1.18058">
        <ele>156</ele>
        <time>2017-07-25T17:01:24Z</time>
      </trkpt>
      <trkpt lat="49.46413" lon="1.18055">
        <ele>156</ele>
        <time>2017-07-25T17:01:24Z</time>
      </trkpt>
      <trkpt lat="49.4641" lon="1.18051">
        <ele>156</ele>
        <time>2017-07-25T17:01:24Z</time>
      </trkpt>
      <trkpt lat="49.46408" lon="1.18051">
        <ele>156</ele>
        <time>2017-07-25T17:01:40Z</time>
      </trkpt>
      <trkpt lat="49.46406" lon="1.18056">
        <ele>156</ele>
        <time>2017-07-25T17:01:40Z</time>
      </trkpt>
      <trkpt lat="49.46405" lon="1.1806">
        <ele>156</ele>
        <time>2017-07-25T17:01:40Z</time>
      </trkpt>
      <trkpt lat="49.46405" lon="1.18065">
        <ele>156</ele>
        <time>2017-07-25T17:01:40Z</time>
      </trkpt>
      <trkpt lat="49.46404" lon="1.18067">
        <ele>156</ele>
        <time>2017-07-25T17:02:04Z</time>
      </trkpt>
      <trkpt lat="49.46404" lon="1.1807">
        <ele>156</ele>
        <time>2017-07-25T17:02:04Z</time>
      </trkpt>
      <trkpt lat="49.46404" lon="1.18073">
        <ele>156</ele>
        <time>2017-07-25T17:02:04Z</time>
      </trkpt>
      <trkpt lat="49.46404" lon="1.18079">
        <ele>156</ele>
        <time>2017-07-25T17:02:04Z</time>
      </trkpt>
      <trkpt lat="49.46404" lon="1.18086">
        <ele>156</ele>
        <time>2017-07-25T17:02:05Z</time>
      </trkpt>
      <trkpt lat="49.46404" lon="1.18096">
        <ele>156</ele>
        <time>2017-07-25T17:02:20Z</time>
      </trkpt>
      <trkpt lat="49.46403" lon="1.18104">
        <ele>156</ele>
        <time>2017-07-25T17:02:21Z</time>
      </trkpt>
      <trkpt lat="49.46404" lon="1.18112">
        <ele>156</ele>
        <time>2017-07-25T17:02:22Z</time>
      </trkpt>
      <trkpt lat="49.46404" lon="1.1812">
        <ele>156</ele>
        <time>2017-07-25T17:02:22Z</time>
      </trkpt>
      <trkpt lat="49.46403" lon="1.18123">
        <ele>156</ele>
        <time>2017-07-25T17:02:36Z</time>
      </trkpt>
      <trkpt lat="49.46403" lon="1.18124">
        <ele>156</ele>
        <time>2017-07-25T17:02:36Z</time>
      </trkpt>
      <trkpt lat="49.46399" lon="1.18129">
        <ele>154</ele>
        <time>2017-07-25T17:02:36Z</time>
      </trkpt>
      <trkpt lat="49.46395" lon="1.18135">
        <ele>154</ele>
        <time>2017-07-25T17:02:37Z</time>
      </trkpt>
      <trkpt lat="49.46394" lon="1.18137">
        <ele>154</ele>
        <time>2017-07-25T17:02:52Z</time>
      </trkpt>
      <trkpt lat="49.46393" lon="1.1814">
        <ele>154</ele>
        <time>2017-07-25T17:02:52Z</time>
      </trkpt>
      <trkpt lat="49.46388" lon="1.18147">
        <ele>154</ele>
        <time>2017-07-25T17:02:52Z</time>
      </trkpt>
      <trkpt lat="49.46382" lon="1.18146">
        <ele>154</ele>
        <time>2017-07-25T17:02:52Z</time>
      </trkpt>
      <trkpt lat="49.46379" lon="1.18145">
        <ele>154</ele>
        <time>2017-07-25T17:03:08Z</time>
      </trkpt>
      <trkpt lat="49.46374" lon="1.18145">
        <ele>152</ele>
        <time>2017-07-25T17:03:08Z</time>
      </trkpt>
      <trkpt lat="49.46371" lon="1.18144">
        <ele>152</ele>
        <time>2017-07-25T17:03:08Z</time>
      </trkpt>
      <trkpt lat="49.46368" lon="1.18142">
        <ele>152</ele>
        <time>2017-07-25T17:03:09Z</time>
      </trkpt>
      <trkpt lat="49.46364" lon="1.18142">
        <ele>152</ele>
        <time>2017-07-25T17:03:24Z</time>
      </trkpt>
      <trkpt lat="49.46359" lon="1.18141">
        <ele>152</ele>
        <time>2017-07-25T17:03:24Z</time>
      </trkpt>
      <trkpt lat="49.46353" lon="1.18137">
        <ele>152</ele>
        <time>2017-07-25T17:03:24Z</time>
      </trkpt>
      <trkpt lat="49.46348" lon="1.18136">
        <ele>152</ele>
        <time>2017-07-25T17:03:25Z</time>
      </trkpt>
      <trkpt lat="49.46341" lon="1.1813">
        <ele>152</ele>
        <time>2017-07-25T17:04:24Z</time>
      </trkpt>
      <trkpt lat="49.46339" lon="1.18131">
        <ele>152</ele>
        <time>2017-07-25T17:04:25Z</time>
      </trkpt>
      <trkpt lat="49.46338" lon="1.1813">
        <ele>152</ele>
        <time>2017-07-25T17:04:25Z</time>
      </trkpt>
      <trkpt lat="49.46338" lon="1.18129">
        <ele>152</ele>
        <time>2017-07-25T17:04:25Z</time>
      </trkpt>
      <trkpt lat="49.46335" lon="1.18131">
        <ele>152</ele>
        <time>2017-07-25T17:04:25Z</time>
      </trkpt>
      <trkpt lat="49.46333" lon="1.18126">
        <ele>152</ele>
        <time>2017-07-25T17:04:48Z</time>
      </trkpt>
      <trkpt lat="49.46333" lon="1.18126">
        <ele>152</ele>
        <time>2017-07-25T17:04:48Z</time>
      </trkpt>
      <trkpt lat="49.46334" lon="1.18128">
        <ele>152</ele>
        <time>2017-07-25T17:04:48Z</time>
      </trkpt>
      <trkpt lat="49.46339" lon="1.18132">
        <ele>152</ele>
        <time>2017-07-25T17:04:48Z</time>
      </trkpt>
      <trkpt lat="49.46344" lon="1.18134">
        <ele>152</ele>
        <time>2017-07-25T17:04:49Z</time>
      </trkpt>
      <trkpt lat="49.46346" lon="1.18135">
        <ele>152</ele>
        <time>2017-07-25T17:05:04Z</time>
      </trkpt>
      <trkpt lat="49.46349" lon="1.18131">
        <ele>152</ele>
        <time>2017-07-25T17:05:05Z</time>
      </trkpt>
      <trkpt lat="49.46351" lon="1.18122">
        <ele>153</ele>
        <time>2017-07-25T17:05:05Z</time>
      </trkpt>
      <trkpt lat="49.46352" lon="1.18112">
        <ele>153</ele>
        <time>2017-07-25T17:05:05Z</time>
      </trkpt>
      <trkpt lat="49.46349" lon="1.18111">
        <ele>153</ele>
        <time>2017-07-25T17:05:36Z</time>
      </trkpt>
      <trkpt lat="49.46348" lon="1.18118">
        <ele>153</ele>
        <time>2017-07-25T17:05:36Z</time>
      </trkpt>
      <trkpt lat="49.46345" lon="1.18125">
        <ele>152</ele>
        <time>2017-07-25T17:05:36Z</time>
      </trkpt>
      <trkpt lat="49.4634" lon="1.18129">
        <ele>152</ele>
        <time>2017-07-25T17:05:36Z</time>
      </trkpt>
      <trkpt lat="49.46336" lon="1.18127">
        <ele>152</ele>
        <time>2017-07-25T17:05:37Z</time>
      </trkpt>
      <trkpt lat="49.46324" lon="1.18119">
        <ele>153</ele>
        <time>2017-07-25T17:06:20Z</time>
      </trkpt>
      <trkpt lat="49.46324" lon="1.18119">
        <ele>153</ele>
        <time>2017-07-25T17:06:20Z</time>
      </trkpt>
      <trkpt lat="49.46323" lon="1.1812">
        <ele>153</ele>
        <time>2017-07-25T17:06:20Z</time>
      </trkpt>
      <trkpt lat="49.46318" lon="1.18117">
        <ele>153</ele>
        <time>2017-07-25T17:06:20Z</time>
      </trkpt>
      <trkpt lat="49.46312" lon="1.18114">
        <ele>153</ele>
        <time>2017-07-25T17:06:20Z</time>
      </trkpt>
      <trkpt lat="49.46309" lon="1.1811">
        <ele>153</ele>
        <time>2017-07-25T17:06:36Z</time>
      </trkpt>
      <trkpt lat="49.46305" lon="1.18108">
        <ele>153</ele>
        <time>2017-07-25T17:06:36Z</time>
      </trkpt>
      <trkpt lat="49.46301" lon="1.18103">
        <ele>153</ele>
        <time>2017-07-25T17:06:36Z</time>
      </trkpt>
      <trkpt lat="49.46297" lon="1.181">
        <ele>153</ele>
        <time>2017-07-25T17:06:36Z</time>
      </trkpt>
      <trkpt lat="49.46293" lon="1.18096">
        <ele>153</ele>
        <time>2017-07-25T17:06:52Z</time>
      </trkpt>
      <trkpt lat="49.46289" lon="1.18093">
        <ele>151</ele>
        <time>2017-07-25T17:06:52Z</time>
      </trkpt>
      <trkpt lat="49.46282" lon="1.18088">
        <ele>151</ele>
        <time>2017-07-25T17:06:52Z</time>
      </trkpt>
      <trkpt lat="49.46278" lon="1.18083">
        <ele>151</ele>
        <time>2017-07-25T17:06:52Z</time>
      </trkpt>
      <trkpt lat="49.46275" lon="1.18077">
        <ele>151</ele>
        <time>2017-07-25T17:07:08Z</time>
      </trkpt>
      <trkpt lat="49.46273" lon="1.18074">
        <ele>151</ele>
        <time>2017-07-25T17:07:08Z</time>
      </trkpt>
      <trkpt lat="49.46269" lon="1.18069">
        <ele>151</ele>
        <time>2017-07-25T17:07:08Z</time>
      </trkpt>
      <trkpt lat="49.46266" lon="1.18067">
        <ele>151</ele>
        <time>2017-07-25T17:07:08Z</time>
      </trkpt>
      <trkpt lat="49.46263" lon="1.1806">
        <ele>151</ele>
        <time>2017-07-25T17:07:24Z</time>
      </trkpt>
      <trkpt lat="49.46257" lon="1.18055">
        <ele>151</ele>
        <time>2017-07-25T17:07:24Z</time>
      </trkpt>
      <trkpt lat="49.46254" lon="1.1805">
        <ele>151</ele>
        <time>2017-07-25T17:07:24Z</time>
      </trkpt>
      <trkpt lat="49.46251" lon="1.18047">
        <ele>151</ele>
        <time>2017-07-25T17:07:24Z</time>
      </trkpt>
      <trkpt lat="49.46249" lon="1.18041">
        <ele>151</ele>
        <time>2017-07-25T17:07:40Z</time>
      </trkpt>
      <trkpt lat="49.46247" lon="1.18035">
        <ele>151</ele>
        <time>2017-07-25T17:07:40Z</time>
      </trkpt>
      <trkpt lat="49.46241" lon="1.1803">
        <ele>151</ele>
        <time>2017-07-25T17:07:41Z</time>
      </trkpt>
      <trkpt lat="49.46236" lon="1.18027">
        <ele>151</ele>
        <time>2017-07-25T17:07:41Z</time>
      </trkpt>
      <trkpt lat="49.46232" lon="1.18021">
        <ele>151</ele>
        <time>2017-07-25T17:07:56Z</time>
      </trkpt>
      <trkpt lat="49.46229" lon="1.18017">
        <ele>151</ele>
        <time>2017-07-25T17:07:56Z</time>
      </trkpt>
      <trkpt lat="49.46225" lon="1.18011">
        <ele>151</ele>
        <time>2017-07-25T17:07:56Z</time>
      </trkpt>
      <trkpt lat="49.46219" lon="1.18005">
        <ele>151</ele>
        <time>2017-07-25T17:07:56Z</time>
      </trkpt>
      <trkpt lat="49.46218" lon="1.18001">
        <ele>151</ele>
        <time>2017-07-25T17:08:12Z</time>
      </trkpt>
      <trkpt lat="49.46216" lon="1.17996">
        <ele>151</ele>
        <time>2017-07-25T17:08:12Z</time>
      </trkpt>
      <trkpt lat="49.46214" lon="1.17993">
        <ele>151</ele>
        <time>2017-07-25T17:08:12Z</time>
      </trkpt>
      <trkpt lat="49.46209" lon="1.17986">
        <ele>151</ele>
        <time>2017-07-25T17:08:12Z</time>
      </trkpt>
      <trkpt lat="49.46205" lon="1.17981">
        <ele>148</ele>
        <time>2017-07-25T17:08:28Z</time>
      </trkpt>
      <trkpt lat="49.46202" lon="1.17976">
        <ele>148</ele>
        <time>2017-07-25T17:08:28Z</time>
      </trkpt>
      <trkpt lat="49.46198" lon="1.17971">
        <ele>148</ele>
        <time>2017-07-25T17:08:28Z</time>
      </trkpt>
      <trkpt lat="49.46194" lon="1.17966">
        <ele>148</ele>
        <time>2017-07-25T17:08:28Z</time>
      </trkpt>
      <trkpt lat="49.46191" lon="1.1796">
        <ele>148</ele>
        <time>2017-07-25T17:08:44Z</time>
      </trkpt>
      <trkpt lat="49.46187" lon="1.17956">
        <ele>149</ele>
        <time>2017-07-25T17:08:44Z</time>
      </trkpt>
      <trkpt lat="49.46185" lon="1.1795">
        <ele>149</ele>
        <time>2017-07-25T17:08:44Z</time>
      </trkpt>
      <trkpt lat="49.46181" lon="1.17946">
        <ele>149</ele>
        <time>2017-07-25T17:08:44Z</time>
      </trkpt>
      <trkpt lat="49.46178" lon="1.17942">
        <ele>149</ele>
        <time>2017-07-25T17:09:00Z</time>
      </trkpt>
      <trkpt lat="49.46175" lon="1.17938">
        <ele>149</ele>
        <time>2017-07-25T17:09:00Z</time>
      </trkpt>
      <trkpt lat="49.4617" lon="1.17933">
        <ele>149</ele>
        <time>2017-07-25T17:09:00Z</time>
      </trkpt>
      <trkpt lat="49.46166" lon="1.17929">
        <ele>149</ele>
        <time>2017-07-25T17:09:00Z</time>
      </trkpt>
      <trkpt lat="49.46162" lon="1.17922">
        <ele>149</ele>
        <time>2017-07-25T17:09:16Z</time>
      </trkpt>
      <trkpt lat="49.46158" lon="1.17918">
        <ele>149</ele>
        <time>2017-07-25T17:09:16Z</time>
      </trkpt>
      <trkpt lat="49.46156" lon="1.17915">
        <ele>149</ele>
        <time>2017-07-25T17:09:16Z</time>
      </trkpt>
      <trkpt lat="49.46152" lon="1.1791">
        <ele>149</ele>
        <time>2017-07-25T17:09:16Z</time>
      </trkpt>
      <trkpt lat="49.46149" lon="1.17905">
        <ele>149</ele>
        <time>2017-07-25T17:09:32Z</time>
      </trkpt>
      <trkpt lat="49.46144" lon="1.179">
        <ele>149</ele>
        <time>2017-07-25T17:09:32Z</time>
      </trkpt>
      <trkpt lat="49.4614" lon="1.17896">
        <ele>149</ele>
        <time>2017-07-25T17:09:32Z</time>
      </trkpt>
      <trkpt lat="49.46137" lon="1.1789">
        <ele>149</ele>
        <time>2017-07-25T17:09:32Z</time>
      </trkpt>
      <trkpt lat="49.46134" lon="1.17884">
        <ele>149</ele>
        <time>2017-07-25T17:09:48Z</time>
      </trkpt>
      <trkpt lat="49.4613" lon="1.17878">
        <ele>149</ele>
        <time>2017-07-25T17:09:48Z</time>
      </trkpt>
      <trkpt lat="49.46127" lon="1.17875">
        <ele>149</ele>
        <time>2017-07-25T17:09:48Z</time>
      </trkpt>
      <trkpt lat="49.46124" lon="1.17869">
        <ele>147</ele>
        <time>2017-07-25T17:09:48Z</time>
      </trkpt>
      <trkpt lat="49.4612" lon="1.17865">
        <ele>147</ele>
        <time>2017-07-25T17:10:04Z</time>
      </trkpt>
      <trkpt lat="49.46115" lon="1.17862">
        <ele>147</ele>
        <time>2017-07-25T17:10:04Z</time>
      </trkpt>
      <trkpt lat="49.46112" lon="1.17858">
        <ele>147</ele>
        <time>2017-07-25T17:10:04Z</time>
      </trkpt>
      <trkpt lat="49.46109" lon="1.17851">
        <ele>147</ele>
        <time>2017-07-25T17:10:04Z</time>
      </trkpt>
      <trkpt lat="49.46104" lon="1.17846">
        <ele>147</ele>
        <time>2017-07-25T17:10:20Z</time>
      </trkpt>
      <trkpt lat="49.461" lon="1.17841">
        <ele>147</ele>
        <time>2017-07-25T17:10:20Z</time>
      </trkpt>
      <trkpt lat="49.46096" lon="1.17836">
        <ele>147</ele>
        <time>2017-07-25T17:10:20Z</time>
      </trkpt>
      <trkpt lat="49.46092" lon="1.17831">
        <ele>147</ele>
        <time>2017-07-25T17:10:21Z</time>
      </trkpt>
      <trkpt lat="49.46088" lon="1.17826">
        <ele>147</ele>
        <time>2017-07-25T17:10:36Z</time>
      </trkpt>
      <trkpt lat="49.46084" lon="1.17819">
        <ele>147</ele>
        <time>2017-07-25T17:10:36Z</time>
      </trkpt>
      <trkpt lat="49.46081" lon="1.17815">
        <ele>147</ele>
        <time>2017-07-25T17:10:36Z</time>
      </trkpt>
      <trkpt lat="49.46077" lon="1.17809">
        <ele>147</ele>
        <time>2017-07-25T17:10:36Z</time>
      </trkpt>
      <trkpt lat="49.46075" lon="1.17805">
        <ele>147</ele>
        <time>2017-07-25T17:10:52Z</time>
      </trkpt>
      <trkpt lat="49.4607" lon="1.178">
        <ele>147</ele>
        <time>2017-07-25T17:10:52Z</time>
      </trkpt>
      <trkpt lat="49.46068" lon="1.17795">
        <ele>147</ele>
        <time>2017-07-25T17:10:52Z</time>
      </trkpt>
      <trkpt lat="49.46062" lon="1.17792">
        <ele>147</ele>
        <time>2017-07-25T17:10:52Z</time>
      </trkpt>
      <trkpt lat="49.46058" lon="1.17788">
        <ele>147</ele>
        <time>2017-07-25T17:11:08Z</time>
      </trkpt>
      <trkpt lat="49.46056" lon="1.17781">
        <ele>147</ele>
        <time>2017-07-25T17:11:08Z</time>
      </trkpt>
      <trkpt lat="49.46052" lon="1.17775">
        <ele>147</ele>
        <time>2017-07-25T17:11:08Z</time>
      </trkpt>
      <trkpt lat="49.46048" lon="1.17771">
        <ele>147</ele>
        <time>2017-07-25T17:11:08Z</time>
      </trkpt>
      <trkpt lat="49.46045" lon="1.17766">
        <ele>147</ele>
        <time>2017-07-25T17:11:24Z</time>
      </trkpt>
      <trkpt lat="49.46043" lon="1.1776">
        <ele>147</ele>
        <time>2017-07-25T17:11:24Z</time>
      </trkpt>
      <trkpt lat="49.46039" lon="1.17756">
        <ele>145</ele>
        <time>2017-07-25T17:11:24Z</time>
      </trkpt>
      <trkpt lat="49.46036" lon="1.17752">
        <ele>145</ele>
        <time>2017-07-25T17:11:24Z</time>
      </trkpt>
      <trkpt lat="49.46032" lon="1.17746">
        <ele>145</ele>
        <time>2017-07-25T17:11:40Z</time>
      </trkpt>
      <trkpt lat="49.46028" lon="1.17741">
        <ele>145</ele>
        <time>2017-07-25T17:11:40Z</time>
      </trkpt>
      <trkpt lat="49.46025" lon="1.17735">
        <ele>145</ele>
        <time>2017-07-25T17:11:40Z</time>
      </trkpt>
      <trkpt lat="49.46021" lon="1.17731">
        <ele>145</ele>
        <time>2017-07-25T17:11:40Z</time>
      </trkpt>
      <trkpt lat="49.46017" lon="1.17726">
        <ele>145</ele>
        <time>2017-07-25T17:11:56Z</time>
      </trkpt>
      <trkpt lat="49.46013" lon="1.17722">
        <ele>145</ele>
        <time>2017-07-25T17:11:56Z</time>
      </trkpt>
      <trkpt lat="49.46009" lon="1.17717">
        <ele>145</ele>
        <time>2017-07-25T17:11:56Z</time>
      </trkpt>
      <trkpt lat="49.46007" lon="1.17712">
        <ele>145</ele>
        <time>2017-07-25T17:11:56Z</time>
      </trkpt>
      <trkpt lat="49.46004" lon="1.17707">
        <ele>146</ele>
        <time>2017-07-25T17:12:12Z</time>
      </trkpt>
      <trkpt lat="49.46002" lon="1.17703">
        <ele>146</ele>
        <time>2017-07-25T17:12:12Z</time>
      </trkpt>
      <trkpt lat="49.45998" lon="1.17698">
        <ele>146</ele>
        <time>2017-07-25T17:12:12Z</time>
      </trkpt>
      <trkpt lat="49.45993" lon="1.17693">
        <ele>146</ele>
        <time>2017-07-25T17:12:12Z</time>
      </trkpt>
      <trkpt lat="49.4599" lon="1.17687">
        <ele>146</ele>
        <time>2017-07-25T17:12:28Z</time>
      </trkpt>
      <trkpt lat="49.45984" lon="1.17681">
        <ele>146</ele>
        <time>2017-07-25T17:12:28Z</time>
      </trkpt>
      <trkpt lat="49.45982" lon="1.17678">
        <ele>146</ele>
        <time>2017-07-25T17:12:28Z</time>
      </trkpt>
      <trkpt lat="49.45975" lon="1.17671">
        <ele>146</ele>
        <time>2017-07-25T17:12:28Z</time>
      </trkpt>
      <trkpt lat="49.45972" lon="1.17668">
        <ele>146</ele>
        <time>2017-07-25T17:12:44Z</time>
      </trkpt>
      <trkpt lat="49.45968" lon="1.17663">
        <ele>146</ele>
        <time>2017-07-25T17:12:44Z</time>
      </trkpt>
      <trkpt lat="49.45966" lon="1.17659">
        <ele>146</ele>
        <time>2017-07-25T17:12:44Z</time>
      </trkpt>
      <trkpt lat="49.45961" lon="1.17653">
        <ele>146</ele>
        <time>2017-07-25T17:12:44Z</time>
      </trkpt>
      <trkpt lat="49.45957" lon="1.17647">
        <ele>146</ele>
        <time>2017-07-25T17:13:00Z</time>
      </trkpt>
      <trkpt lat="49.45953" lon="1.17638">
        <ele>146</ele>
        <time>2017-07-25T17:13:00Z</time>
      </trkpt>
      <trkpt lat="49.45949" lon="1.17634">
        <ele>146</ele>
        <time>2017-07-25T17:13:00Z</time>
      </trkpt>
      <trkpt lat="49.45946" lon="1.1763">
        <ele>146</ele>
        <time>2017-07-25T17:13:00Z</time>
      </trkpt>
      <trkpt lat="49.45943" lon="1.17627">
        <ele>146</ele>
        <time>2017-07-25T17:13:20Z</time>
      </trkpt>
      <trkpt lat="49.45939" lon="1.17624">
        <ele>148</ele>
        <time>2017-07-25T17:13:20Z</time>
      </trkpt>
      <trkpt lat="49.45939" lon="1.17621">
        <ele>148</ele>
        <time>2017-07-25T17:13:20Z</time>
      </trkpt>
      <trkpt lat="49.45937" lon="1.1762">
        <ele>148</ele>
        <time>2017-07-25T17:13:21Z</time>
      </trkpt>
      <trkpt lat="49.45937" lon="1.17614">
        <ele>148</ele>
        <time>2017-07-25T17:13:21Z</time>
      </trkpt>
      <trkpt lat="49.45928" lon="1.17609">
        <ele>148</ele>
        <time>2017-07-25T17:13:36Z</time>
      </trkpt>
      <trkpt lat="49.45925" lon="1.17602">
        <ele>148</ele>
        <time>2017-07-25T17:13:36Z</time>
      </trkpt>
      <trkpt lat="49.45921" lon="1.17594">
        <ele>148</ele>
        <time>2017-07-25T17:13:36Z</time>
      </trkpt>
      <trkpt lat="49.45918" lon="1.17585">
        <ele>148</ele>
        <time>2017-07-25T17:13:36Z</time>
      </trkpt>
      <trkpt lat="49.45914" lon="1.17581">
        <ele>148</ele>
        <time>2017-07-25T17:13:52Z</time>
      </trkpt>
      <trkpt lat="49.45908" lon="1.17572">
        <ele>148</ele>
        <time>2017-07-25T17:13:52Z</time>
      </trkpt>
      <trkpt lat="49.45905" lon="1.17566">
        <ele>148</ele>
        <time>2017-07-25T17:13:52Z</time>
      </trkpt>
      <trkpt lat="49.459" lon="1.17562">
        <ele>148</ele>
        <time>2017-07-25T17:13:52Z</time>
      </trkpt>
      <trkpt lat="49.45899" lon="1.17556">
        <ele>148</ele>
        <time>2017-07-25T17:14:08Z</time>
      </trkpt>
      <trkpt lat="49.45896" lon="1.17552">
        <ele>148</ele>
        <time>2017-07-25T17:14:08Z</time>
      </trkpt>
      <trkpt lat="49.45894" lon="1.1755">
        <ele>148</ele>
        <time>2017-07-25T17:14:08Z</time>
      </trkpt>
      <trkpt lat="49.4589" lon="1.17543">
        <ele>148</ele>
        <time>2017-07-25T17:14:08Z</time>
      </trkpt>
      <trkpt lat="49.45883" lon="1.17535">
        <ele>147</ele>
        <time>2017-07-25T17:14:24Z</time>
      </trkpt>
      <trkpt lat="49.4588" lon="1.17531">
        <ele>147</ele>
        <time>2017-07-25T17:14:24Z</time>
      </trkpt>
      <trkpt lat="49.45878" lon="1.17528">
        <ele>147</ele>
        <time>2017-07-25T17:14:24Z</time>
      </trkpt>
      <trkpt lat="49.45876" lon="1.17522">
        <ele>147</ele>
        <time>2017-07-25T17:14:25Z</time>
      </trkpt>
      <trkpt lat="49.45871" lon="1.17517">
        <ele>145</ele>
        <time>2017-07-25T17:14:48Z</time>
      </trkpt>
      <trkpt lat="49.45869" lon="1.17516">
        <ele>145</ele>
        <time>2017-07-25T17:14:48Z</time>
      </trkpt>
      <trkpt lat="49.45869" lon="1.17515">
        <ele>145</ele>
        <time>2017-07-25T17:14:48Z</time>
      </trkpt>
      <trkpt lat="49.45867" lon="1.17512">
        <ele>145</ele>
        <time>2017-07-25T17:14:48Z</time>
      </trkpt>
      <trkpt lat="49.45863" lon="1.17505">
        <ele>145</ele>
        <time>2017-07-25T17:14:48Z</time>
      </trkpt>
      <trkpt lat="49.45858" lon="1.17495">
        <ele>145</ele>
        <time>2017-07-25T17:15:04Z</time>
      </trkpt>
      <trkpt lat="49.45856" lon="1.17489">
        <ele>145</ele>
        <time>2017-07-25T17:15:04Z</time>
      </trkpt>
      <trkpt lat="49.45852" lon="1.17485">
        <ele>145</ele>
        <time>2017-07-25T17:15:04Z</time>
      </trkpt>
      <trkpt lat="49.45848" lon="1.17481">
        <ele>145</ele>
        <time>2017-07-25T17:15:04Z</time>
      </trkpt>
      <trkpt lat="49.45844" lon="1.17474">
        <ele>145</ele>
        <time>2017-07-25T17:15:20Z</time>
      </trkpt>
      <trkpt lat="49.45841" lon="1.1747">
        <ele>145</ele>
        <time>2017-07-25T17:15:20Z</time>
      </trkpt>
      <trkpt lat="49.45837" lon="1.17465">
        <ele>145</ele>
        <time>2017-07-25T17:15:20Z</time>
      </trkpt>
      <trkpt lat="49.45835" lon="1.17456">
        <ele>151</ele>
        <time>2017-07-25T17:15:20Z</time>
      </trkpt>
      <trkpt lat="49.45834" lon="1.17455">
        <ele>151</ele>
        <time>2017-07-25T17:15:36Z</time>
      </trkpt>
      <trkpt lat="49.4583" lon="1.17449">
        <ele>151</ele>
        <time>2017-07-25T17:15:36Z</time>
      </trkpt>
      <trkpt lat="49.45828" lon="1.17449">
        <ele>151</ele>
        <time>2017-07-25T17:15:36Z</time>
      </trkpt>
      <trkpt lat="49.45822" lon="1.17446">
        <ele>151</ele>
        <time>2017-07-25T17:15:36Z</time>
      </trkpt>
      <trkpt lat="49.45821" lon="1.17441">
        <ele>151</ele>
        <time>2017-07-25T17:15:52Z</time>
      </trkpt>
      <trkpt lat="49.45819" lon="1.17435">
        <ele>151</ele>
        <time>2017-07-25T17:15:52Z</time>
      </trkpt>
      <trkpt lat="49.45811" lon="1.17429">
        <ele>151</ele>
        <time>2017-07-25T17:15:52Z</time>
      </trkpt>
      <trkpt lat="49.45808" lon="1.17425">
        <ele>151</ele>
        <time>2017-07-25T17:15:52Z</time>
      </trkpt>
      <trkpt lat="49.45803" lon="1.17419">
        <ele>151</ele>
        <time>2017-07-25T17:16:08Z</time>
      </trkpt>
      <trkpt lat="49.458" lon="1.17414">
        <ele>151</ele>
        <time>2017-07-25T17:16:08Z</time>
      </trkpt>
      <trkpt lat="49.45797" lon="1.17405">
        <ele>151</ele>
        <time>2017-07-25T17:16:08Z</time>
      </trkpt>
      <trkpt lat="49.45795" lon="1.17399">
        <ele>151</ele>
        <time>2017-07-25T17:16:08Z</time>
      </trkpt>
      <trkpt lat="49.45788" lon="1.17391">
        <ele>142</ele>
        <time>2017-07-25T17:16:32Z</time>
      </trkpt>
      <trkpt lat="49.45787" lon="1.17386">
        <ele>142</ele>
        <time>2017-07-25T17:16:32Z</time>
      </trkpt>
      <trkpt lat="49.45784" lon="1.17386">
        <ele>142</ele>
        <time>2017-07-25T17:16:32Z</time>
      </trkpt>
      <trkpt lat="49.45784" lon="1.17385">
        <ele>142</ele>
        <time>2017-07-25T17:16:32Z</time>
      </trkpt>
      <trkpt lat="49.45784" lon="1.17384">
        <ele>142</ele>
        <time>2017-07-25T17:16:32Z</time>
      </trkpt>
      <trkpt lat="49.45784" lon="1.17384">
        <ele>142</ele>
        <time>2017-07-25T17:16:48Z</time>
      </trkpt>
      <trkpt lat="49.45778" lon="1.17372">
        <ele>148</ele>
        <time>2017-07-25T17:16:48Z</time>
      </trkpt>
      <trkpt lat="49.45774" lon="1.17368">
        <ele>148</ele>
        <time>2017-07-25T17:16:48Z</time>
      </trkpt>
      <trkpt lat="49.45767" lon="1.17355">
        <ele>148</ele>
        <time>2017-07-25T17:16:49Z</time>
      </trkpt>
      <trkpt lat="49.45759" lon="1.17348">
        <ele>148</ele>
        <time>2017-07-25T17:17:04Z</time>
      </trkpt>
      <trkpt lat="49.45755" lon="1.17344">
        <ele>148</ele>
        <time>2017-07-25T17:17:04Z</time>
      </trkpt>
      <trkpt lat="49.45749" lon="1.17336">
        <ele>148</ele>
        <time>2017-07-25T17:17:04Z</time>
      </trkpt>
      <trkpt lat="49.45746" lon="1.17327">
        <ele>148</ele>
        <time>2017-07-25T17:17:04Z</time>
      </trkpt>
      <trkpt lat="49.45743" lon="1.17323">
        <ele>148</ele>
        <time>2017-07-25T17:17:20Z</time>
      </trkpt>
      <trkpt lat="49.4574" lon="1.17317">
        <ele>148</ele>
        <time>2017-07-25T17:17:20Z</time>
      </trkpt>
      <trkpt lat="49.45734" lon="1.17314">
        <ele>148</ele>
        <time>2017-07-25T17:17:20Z</time>
      </trkpt>
      <trkpt lat="49.4573" lon="1.17309">
        <ele>148</ele>
        <time>2017-07-25T17:17:20Z</time>
      </trkpt>
      <trkpt lat="49.45729" lon="1.17303">
        <ele>148</ele>
        <time>2017-07-25T17:17:36Z</time>
      </trkpt>
      <trkpt lat="49.45727" lon="1.17296">
        <ele>148</ele>
        <time>2017-07-25T17:17:36Z</time>
      </trkpt>
      <trkpt lat="49.45725" lon="1.17289">
        <ele>155</ele>
        <time>2017-07-25T17:17:37Z</time>
      </trkpt>
      <trkpt lat="49.45723" lon="1.17286">
        <ele>155</ele>
        <time>2017-07-25T17:17:37Z</time>
      </trkpt>
      <trkpt lat="49.45717" lon="1.17276">
        <ele>155</ele>
        <time>2017-07-25T17:17:52Z</time>
      </trkpt>
      <trkpt lat="49.45711" lon="1.1727">
        <ele>155</ele>
        <time>2017-07-25T17:17:52Z</time>
      </trkpt>
      <trkpt lat="49.45709" lon="1.17263">
        <ele>155</ele>
        <time>2017-07-25T17:17:52Z</time>
      </trkpt>
      <trkpt lat="49.45705" lon="1.17259">
        <ele>146</ele>
        <time>2017-07-25T17:17:52Z</time>
      </trkpt>
      <trkpt lat="49.45699" lon="1.17257">
        <ele>146</ele>
        <time>2017-07-25T17:18:08Z</time>
      </trkpt>
      <trkpt lat="49.45696" lon="1.17257">
        <ele>146</ele>
        <time>2017-07-25T17:18:08Z</time>
      </trkpt>
      <trkpt lat="49.45696" lon="1.17251">
        <ele>146</ele>
        <time>2017-07-25T17:18:08Z</time>
      </trkpt>
      <trkpt lat="49.45693" lon="1.17241">
        <ele>146</ele>
        <time>2017-07-25T17:18:09Z</time>
      </trkpt>
      <trkpt lat="49.45688" lon="1.1723">
        <ele>146</ele>
        <time>2017-07-25T17:20:48Z</time>
      </trkpt>
      <trkpt lat="49.45688" lon="1.1723">
        <ele>146</ele>
        <time>2017-07-25T17:20:48Z</time>
      </trkpt>
      <trkpt lat="49.45688" lon="1.1723">
        <ele>146</ele>
        <time>2017-07-25T17:20:48Z</time>
      </trkpt>
      <trkpt lat="49.45688" lon="1.1723">
        <ele>146</ele>
        <time>2017-07-25T17:20:48Z</time>
      </trkpt>
      <trkpt lat="49.45682" lon="1.17223">
        <ele>146</ele>
        <time>2017-07-25T17:20:49Z</time>
      </trkpt>
      <trkpt lat="49.45674" lon="1.17214">
        <ele>146</ele>
        <time>2017-07-25T17:21:04Z</time>
      </trkpt>
      <trkpt lat="49.45666" lon="1.17209">
        <ele>146</ele>
        <time>2017-07-25T17:21:04Z</time>
      </trkpt>
      <trkpt lat="49.45663" lon="1.17204">
        <ele>151</ele>
        <time>2017-07-25T17:21:04Z</time>
      </trkpt>
      <trkpt lat="49.45661" lon="1.17199">
        <ele>151</ele>
        <time>2017-07-25T17:21:04Z</time>
      </trkpt>
      <trkpt lat="49.45659" lon="1.17194">
        <ele>151</ele>
        <time>2017-07-25T17:21:20Z</time>
      </trkpt>
      <trkpt lat="49.45659" lon="1.17192">
        <ele>151</ele>
        <time>2017-07-25T17:21:20Z</time>
      </trkpt>
      <trkpt lat="49.45652" lon="1.17183">
        <ele>151</ele>
        <time>2017-07-25T17:21:20Z</time>
      </trkpt>
      <trkpt lat="49.45648" lon="1.17177">
        <ele>151</ele>
        <time>2017-07-25T17:21:20Z</time>
      </trkpt>
      <trkpt lat="49.45644" lon="1.17171">
        <ele>151</ele>
        <time>2017-07-25T17:21:36Z</time>
      </trkpt>
      <trkpt lat="49.45641" lon="1.17164">
        <ele>151</ele>
        <time>2017-07-25T17:21:36Z</time>
      </trkpt>
      <trkpt lat="49.45639" lon="1.17161">
        <ele>151</ele>
        <time>2017-07-25T17:21:36Z</time>
      </trkpt>
      <trkpt lat="49.45636" lon="1.17159">
        <ele>151</ele>
        <time>2017-07-25T17:21:36Z</time>
      </trkpt>
      <trkpt lat="49.45635" lon="1.17155">
        <ele>151</ele>
        <time>2017-07-25T17:21:52Z</time>
      </trkpt>
      <trkpt lat="49.45632" lon="1.17149">
        <ele>151</ele>
        <time>2017-07-25T17:21:52Z</time>
      </trkpt>
      <trkpt lat="49.45626" lon="1.17146">
        <ele>151</ele>
        <time>2017-07-25T17:21:52Z</time>
      </trkpt>
      <trkpt lat="49.45622" lon="1.17143">
        <ele>137</ele>
        <time>2017-07-25T17:21:52Z</time>
      </trkpt>
      <trkpt lat="49.4562" lon="1.17138">
        <ele>137</ele>
        <time>2017-07-25T17:22:08Z</time>
      </trkpt>
      <trkpt lat="49.45617" lon="1.17135">
        <ele>137</ele>
        <time>2017-07-25T17:22:08Z</time>
      </trkpt>
      <trkpt lat="49.45612" lon="1.17129">
        <ele>137</ele>
        <time>2017-07-25T17:22:08Z</time>
      </trkpt>
      <trkpt lat="49.45608" lon="1.17121">
        <ele>145</ele>
        <time>2017-07-25T17:22:08Z</time>
      </trkpt>
      <trkpt lat="49.45606" lon="1.17115">
        <ele>145</ele>
        <time>2017-07-25T17:22:24Z</time>
      </trkpt>
      <trkpt lat="49.45605" lon="1.17108">
        <ele>145</ele>
        <time>2017-07-25T17:22:24Z</time>
      </trkpt>
      <trkpt lat="49.456" lon="1.17103">
        <ele>145</ele>
        <time>2017-07-25T17:22:24Z</time>
      </trkpt>
      <trkpt lat="49.45595" lon="1.17096">
        <ele>145</ele>
        <time>2017-07-25T17:22:25Z</time>
      </trkpt>
      <trkpt lat="49.4559" lon="1.17092">
        <ele>145</ele>
        <time>2017-07-25T17:22:40Z</time>
      </trkpt>
      <trkpt lat="49.45584" lon="1.17091">
        <ele>145</ele>
        <time>2017-07-25T17:22:40Z</time>
      </trkpt>
      <trkpt lat="49.4558" lon="1.17083">
        <ele>145</ele>
        <time>2017-07-25T17:22:40Z</time>
      </trkpt>
      <trkpt lat="49.45577" lon="1.17075">
        <ele>145</ele>
        <time>2017-07-25T17:22:41Z</time>
      </trkpt>
      <trkpt lat="49.45572" lon="1.17073">
        <ele>145</ele>
        <time>2017-07-25T17:22:56Z</time>
      </trkpt>
      <trkpt lat="49.45569" lon="1.17064">
        <ele>145</ele>
        <time>2017-07-25T17:22:56Z</time>
      </trkpt>
      <trkpt lat="49.45566" lon="1.17062">
        <ele>145</ele>
        <time>2017-07-25T17:22:56Z</time>
      </trkpt>
      <trkpt lat="49.45564" lon="1.17052">
        <ele>145</ele>
        <time>2017-07-25T17:22:57Z</time>
      </trkpt>
      <trkpt lat="49.4556" lon="1.17046">
        <ele>145</ele>
        <time>2017-07-25T17:23:12Z</time>
      </trkpt>
      <trkpt lat="49.45556" lon="1.17039">
        <ele>147</ele>
        <time>2017-07-25T17:23:12Z</time>
      </trkpt>
      <trkpt lat="49.45552" lon="1.17034">
        <ele>147</ele>
        <time>2017-07-25T17:23:12Z</time>
      </trkpt>
      <trkpt lat="49.45551" lon="1.17028">
        <ele>147</ele>
        <time>2017-07-25T17:23:13Z</time>
      </trkpt>
      <trkpt lat="49.45549" lon="1.17024">
        <ele>147</ele>
        <time>2017-07-25T17:23:28Z</time>
      </trkpt>
      <trkpt lat="49.45546" lon="1.17021">
        <ele>147</ele>
        <time>2017-07-25T17:23:28Z</time>
      </trkpt>
      <trkpt lat="49.45543" lon="1.17016">
        <ele>147</ele>
        <time>2017-07-25T17:23:28Z</time>
      </trkpt>
      <trkpt lat="49.4554" lon="1.17011">
        <ele>140</ele>
        <time>2017-07-25T17:23:28Z</time>
      </trkpt>
      <trkpt lat="49.45538" lon="1.17006">
        <ele>140</ele>
        <time>2017-07-25T17:23:44Z</time>
      </trkpt>
      <trkpt lat="49.45532" lon="1.17001">
        <ele>140</ele>
        <time>2017-07-25T17:23:44Z</time>
      </trkpt>
      <trkpt lat="49.45528" lon="1.16996">
        <ele>140</ele>
        <time>2017-07-25T17:23:44Z</time>
      </trkpt>
      <trkpt lat="49.45526" lon="1.16993">
        <ele>140</ele>
        <time>2017-07-25T17:23:44Z</time>
      </trkpt>
      <trkpt lat="49.45521" lon="1.16988">
        <ele>140</ele>
        <time>2017-07-25T17:24:00Z</time>
      </trkpt>
      <trkpt lat="49.45516" lon="1.16984">
        <ele>140</ele>
        <time>2017-07-25T17:24:00Z</time>
      </trkpt>
      <trkpt lat="49.45509" lon="1.16977">
        <ele>140</ele>
        <time>2017-07-25T17:24:00Z</time>
      </trkpt>
      <trkpt lat="49.45508" lon="1.1697">
        <ele>140</ele>
        <time>2017-07-25T17:24:00Z</time>
      </trkpt>
      <trkpt lat="49.45506" lon="1.16966">
        <ele>140</ele>
        <time>2017-07-25T17:24:16Z</time>
      </trkpt>
      <trkpt lat="49.45501" lon="1.16958">
        <ele>141</ele>
        <time>2017-07-25T17:24:16Z</time>
      </trkpt>
      <trkpt lat="49.45498" lon="1.16953">
        <ele>141</ele>
        <time>2017-07-25T17:24:16Z</time>
      </trkpt>
      <trkpt lat="49.45494" lon="1.16948">
        <ele>141</ele>
        <time>2017-07-25T17:24:16Z</time>
      </trkpt>
      <trkpt lat="49.45489" lon="1.16941">
        <ele>141</ele>
        <time>2017-07-25T17:24:32Z</time>
      </trkpt>
      <trkpt lat="49.45487" lon="1.16934">
        <ele>141</ele>
        <time>2017-07-25T17:24:32Z</time>
      </trkpt>
      <trkpt lat="49.45481" lon="1.16931">
        <ele>141</ele>
        <time>2017-07-25T17:24:32Z</time>
      </trkpt>
      <trkpt lat="49.45479" lon="1.16927">
        <ele>141</ele>
        <time>2017-07-25T17:24:33Z</time>
      </trkpt>
      <trkpt lat="49.45474" lon="1.16922">
        <ele>141</ele>
        <time>2017-07-25T17:24:48Z</time>
      </trkpt>
      <trkpt lat="49.4547" lon="1.16917">
        <ele>141</ele>
        <time>2017-07-25T17:24:48Z</time>
      </trkpt>
      <trkpt lat="49.45469" lon="1.16913">
        <ele>141</ele>
        <time>2017-07-25T17:24:48Z</time>
      </trkpt>
      <trkpt lat="49.45464" lon="1.16906">
        <ele>141</ele>
        <time>2017-07-25T17:24:48Z</time>
      </trkpt>
      <trkpt lat="49.4546" lon="1.16898">
        <ele>141</ele>
        <time>2017-07-25T17:25:04Z</time>
      </trkpt>
      <trkpt lat="49.45457" lon="1.16892">
        <ele>135</ele>
        <time>2017-07-25T17:25:04Z</time>
      </trkpt>
      <trkpt lat="49.45455" lon="1.16888">
        <ele>135</ele>
        <time>2017-07-25T17:25:04Z</time>
      </trkpt>
      <trkpt lat="49.45451" lon="1.16884">
        <ele>135</ele>
        <time>2017-07-25T17:25:04Z</time>
      </trkpt>
      <trkpt lat="49.45447" lon="1.1688">
        <ele>135</ele>
        <time>2017-07-25T17:25:20Z</time>
      </trkpt>
      <trkpt lat="49.45441" lon="1.16876">
        <ele>135</ele>
        <time>2017-07-25T17:25:20Z</time>
      </trkpt>
      <trkpt lat="49.45439" lon="1.16871">
        <ele>137</ele>
        <time>2017-07-25T17:25:20Z</time>
      </trkpt>
      <trkpt lat="49.45436" lon="1.16866">
        <ele>137</ele>
        <time>2017-07-25T17:25:20Z</time>
      </trkpt>
      <trkpt lat="49.45435" lon="1.16859">
        <ele>137</ele>
        <time>2017-07-25T17:25:36Z</time>
      </trkpt>
      <trkpt lat="49.4543" lon="1.16852">
        <ele>137</ele>
        <time>2017-07-25T17:25:36Z</time>
      </trkpt>
      <trkpt lat="49.45427" lon="1.16847">
        <ele>137</ele>
        <time>2017-07-25T17:25:36Z</time>
      </trkpt>
      <trkpt lat="49.45421" lon="1.16843">
        <ele>137</ele>
        <time>2017-07-25T17:25:36Z</time>
      </trkpt>
      <trkpt lat="49.45418" lon="1.16836">
        <ele>137</ele>
        <time>2017-07-25T17:25:52Z</time>
      </trkpt>
      <trkpt lat="49.45414" lon="1.16832">
        <ele>137</ele>
        <time>2017-07-25T17:25:52Z</time>
      </trkpt>
      <trkpt lat="49.4541" lon="1.16827">
        <ele>137</ele>
        <time>2017-07-25T17:25:52Z</time>
      </trkpt>
      <trkpt lat="49.45405" lon="1.16823">
        <ele>137</ele>
        <time>2017-07-25T17:25:52Z</time>
      </trkpt>
      <trkpt lat="49.45401" lon="1.16815">
        <ele>137</ele>
        <time>2017-07-25T17:26:08Z</time>
      </trkpt>
      <trkpt lat="49.45398" lon="1.16807">
        <ele>137</ele>
        <time>2017-07-25T17:26:08Z</time>
      </trkpt>
      <trkpt lat="49.45395" lon="1.16801">
        <ele>137</ele>
        <time>2017-07-25T17:26:09Z</time>
      </trkpt>
      <trkpt lat="49.45393" lon="1.16798">
        <ele>137</ele>
        <time>2017-07-25T17:26:09Z</time>
      </trkpt>
      <trkpt lat="49.45387" lon="1.16787">
        <ele>138</ele>
        <time>2017-07-25T17:26:32Z</time>
      </trkpt>
      <trkpt lat="49.45384" lon="1.16782">
        <ele>138</ele>
        <time>2017-07-25T17:26:32Z</time>
      </trkpt>
      <trkpt lat="49.45385" lon="1.16781">
        <ele>138</ele>
        <time>2017-07-25T17:26:32Z</time>
      </trkpt>
      <trkpt lat="49.45384" lon="1.16781">
        <ele>138</ele>
        <time>2017-07-25T17:26:32Z</time>
      </trkpt>
      <trkpt lat="49.45383" lon="1.1678">
        <ele>138</ele>
        <time>2017-07-25T17:26:33Z</time>
      </trkpt>
      <trkpt lat="49.45378" lon="1.16775">
        <ele>138</ele>
        <time>2017-07-25T17:26:48Z</time>
      </trkpt>
      <trkpt lat="49.45374" lon="1.16771">
        <ele>135</ele>
        <time>2017-07-25T17:26:48Z</time>
      </trkpt>
      <trkpt lat="49.45373" lon="1.16765">
        <ele>135</ele>
        <time>2017-07-25T17:26:48Z</time>
      </trkpt>
      <trkpt lat="49.45369" lon="1.16757">
        <ele>135</ele>
        <time>2017-07-25T17:26:48Z</time>
      </trkpt>
      <trkpt lat="49.45366" lon="1.16752">
        <ele>135</ele>
        <time>2017-07-25T17:27:04Z</time>
      </trkpt>
      <trkpt lat="49.45357" lon="1.16748">
        <ele>135</ele>
        <time>2017-07-25T17:27:04Z</time>
      </trkpt>
      <trkpt lat="49.45353" lon="1.16742">
        <ele>135</ele>
        <time>2017-07-25T17:27:04Z</time>
      </trkpt>
      <trkpt lat="49.45353" lon="1.16734">
        <ele>135</ele>
        <time>2017-07-25T17:27:04Z</time>
      </trkpt>
      <trkpt lat="49.45347" lon="1.16728">
        <ele>135</ele>
        <time>2017-07-25T17:27:20Z</time>
      </trkpt>
      <trkpt lat="49.45343" lon="1.16718">
        <ele>135</ele>
        <time>2017-07-25T17:27:20Z</time>
      </trkpt>
      <trkpt lat="49.45341" lon="1.16712">
        <ele>135</ele>
        <time>2017-07-25T17:27:20Z</time>
      </trkpt>
      <trkpt lat="49.45342" lon="1.16709">
        <ele>135</ele>
        <time>2017-07-25T17:27:20Z</time>
      </trkpt>
      <trkpt lat="49.4534" lon="1.16709">
        <ele>135</ele>
        <time>2017-07-25T17:27:56Z</time>
      </trkpt>
      <trkpt lat="49.45333" lon="1.16704">
        <ele>137</ele>
        <time>2017-07-25T17:27:56Z</time>
      </trkpt>
      <trkpt lat="49.45329" lon="1.167">
        <ele>137</ele>
        <time>2017-07-25T17:27:56Z</time>
      </trkpt>
      <trkpt lat="49.45324" lon="1.16695">
        <ele>137</ele>
        <time>2017-07-25T17:27:56Z</time>
      </trkpt>
      <trkpt lat="49.45323" lon="1.16686">
        <ele>137</ele>
        <time>2017-07-25T17:27:57Z</time>
      </trkpt>
      <trkpt lat="49.45319" lon="1.16682">
        <ele>137</ele>
        <time>2017-07-25T17:28:12Z</time>
      </trkpt>
      <trkpt lat="49.45311" lon="1.16673">
        <ele>137</ele>
        <time>2017-07-25T17:28:12Z</time>
      </trkpt>
      <trkpt lat="49.45307" lon="1.16667">
        <ele>137</ele>
        <time>2017-07-25T17:28:12Z</time>
      </trkpt>
      <trkpt lat="49.45306" lon="1.16661">
        <ele>137</ele>
        <time>2017-07-25T17:28:12Z</time>
      </trkpt>
      <trkpt lat="49.45307" lon="1.16658">
        <ele>137</ele>
        <time>2017-07-25T17:28:32Z</time>
      </trkpt>
      <trkpt lat="49.45304" lon="1.16655">
        <ele>137</ele>
        <time>2017-07-25T17:28:32Z</time>
      </trkpt>
      <trkpt lat="49.45304" lon="1.16651">
        <ele>137</ele>
        <time>2017-07-25T17:28:32Z</time>
      </trkpt>
      <trkpt lat="49.45301" lon="1.1665">
        <ele>137</ele>
        <time>2017-07-25T17:28:32Z</time>
      </trkpt>
      <trkpt lat="49.45299" lon="1.16644">
        <ele>137</ele>
        <time>2017-07-25T17:28:33Z</time>
      </trkpt>
      <trkpt lat="49.45292" lon="1.16639">
        <ele>137</ele>
        <time>2017-07-25T17:28:48Z</time>
      </trkpt>
      <trkpt lat="49.45289" lon="1.16635">
        <ele>133</ele>
        <time>2017-07-25T17:28:48Z</time>
      </trkpt>
      <trkpt lat="49.45282" lon="1.16633">
        <ele>133</ele>
        <time>2017-07-25T17:28:48Z</time>
      </trkpt>
      <trkpt lat="49.45275" lon="1.16627">
        <ele>133</ele>
        <time>2017-07-25T17:28:48Z</time>
      </trkpt>
      <trkpt lat="49.4527" lon="1.1662">
        <ele>133</ele>
        <time>2017-07-25T17:29:04Z</time>
      </trkpt>
      <trkpt lat="49.45267" lon="1.1662">
        <ele>133</ele>
        <time>2017-07-25T17:29:04Z</time>
      </trkpt>
      <trkpt lat="49.45267" lon="1.16613">
        <ele>133</ele>
        <time>2017-07-25T17:29:04Z</time>
      </trkpt>
      <trkpt lat="49.45265" lon="1.16607">
        <ele>133</ele>
        <time>2017-07-25T17:29:04Z</time>
      </trkpt>
      <trkpt lat="49.45263" lon="1.16606">
        <ele>133</ele>
        <time>2017-07-25T17:29:20Z</time>
      </trkpt>
      <trkpt lat="49.45259" lon="1.16602">
        <ele>133</ele>
        <time>2017-07-25T17:29:20Z</time>
      </trkpt>
      <trkpt lat="49.45257" lon="1.16594">
        <ele>133</ele>
        <time>2017-07-25T17:29:20Z</time>
      </trkpt>
      <trkpt lat="49.45255" lon="1.16584">
        <ele>133</ele>
        <time>2017-07-25T17:29:20Z</time>
      </trkpt>
      <trkpt lat="49.45251" lon="1.16583">
        <ele>133</ele>
        <time>2017-07-25T17:29:36Z</time>
      </trkpt>
      <trkpt lat="49.45248" lon="1.16579">
        <ele>133</ele>
        <time>2017-07-25T17:29:36Z</time>
      </trkpt>
      <trkpt lat="49.45246" lon="1.16576">
        <ele>133</ele>
        <time>2017-07-25T17:29:37Z</time>
      </trkpt>
      <trkpt lat="49.45247" lon="1.1657">
        <ele>133</ele>
        <time>2017-07-25T17:29:37Z</time>
      </trkpt>
      <trkpt lat="49.45239" lon="1.16567">
        <ele>133</ele>
        <time>2017-07-25T17:29:52Z</time>
      </trkpt>
      <trkpt lat="49.45238" lon="1.16559">
        <ele>133</ele>
        <time>2017-07-25T17:29:52Z</time>
      </trkpt>
      <trkpt lat="49.45234" lon="1.16557">
        <ele>133</ele>
        <time>2017-07-25T17:29:52Z</time>
      </trkpt>
      <trkpt lat="49.45231" lon="1.16551">
        <ele>133</ele>
        <time>2017-07-25T17:29:53Z</time>
      </trkpt>
      <trkpt lat="49.45223" lon="1.16542">
        <ele>133</ele>
        <time>2017-07-25T17:30:12Z</time>
      </trkpt>
      <trkpt lat="49.45222" lon="1.16536">
        <ele>128</ele>
        <time>2017-07-25T17:30:12Z</time>
      </trkpt>
      <trkpt lat="49.45219" lon="1.16539">
        <ele>128</ele>
        <time>2017-07-25T17:30:12Z</time>
      </trkpt>
      <trkpt lat="49.45217" lon="1.16534">
        <ele>128</ele>
        <time>2017-07-25T17:30:12Z</time>
      </trkpt>
      <trkpt lat="49.45215" lon="1.16528">
        <ele>128</ele>
        <time>2017-07-25T17:30:12Z</time>
      </trkpt>
      <trkpt lat="49.45218" lon="1.16516">
        <ele>128</ele>
        <time>2017-07-25T17:30:36Z</time>
      </trkpt>
      <trkpt lat="49.45217" lon="1.16515">
        <ele>128</ele>
        <time>2017-07-25T17:30:36Z</time>
      </trkpt>
      <trkpt lat="49.45215" lon="1.16513">
        <ele>128</ele>
        <time>2017-07-25T17:30:36Z</time>
      </trkpt>
      <trkpt lat="49.45214" lon="1.16511">
        <ele>128</ele>
        <time>2017-07-25T17:30:36Z</time>
      </trkpt>
      <trkpt lat="49.45213" lon="1.16507">
        <ele>128</ele>
        <time>2017-07-25T17:30:37Z</time>
      </trkpt>
      <trkpt lat="49.45213" lon="1.16506">
        <ele>128</ele>
        <time>2017-07-25T17:30:56Z</time>
      </trkpt>
      <trkpt lat="49.45212" lon="1.16505">
        <ele>128</ele>
        <time>2017-07-25T17:30:57Z</time>
      </trkpt>
      <trkpt lat="49.45212" lon="1.16505">
        <ele>128</ele>
        <time>2017-07-25T17:30:57Z</time>
      </trkpt>
      <trkpt lat="49.45212" lon="1.16505">
        <ele>128</ele>
        <time>2017-07-25T17:30:57Z</time>
      </trkpt>
      <trkpt lat="49.45207" lon="1.1649">
        <ele>128</ele>
        <time>2017-07-25T17:30:57Z</time>
      </trkpt>
      <trkpt lat="49.45199" lon="1.16484">
        <ele>128</ele>
        <time>2017-07-25T17:31:12Z</time>
      </trkpt>
      <trkpt lat="49.45199" lon="1.16475">
        <ele>128</ele>
        <time>2017-07-25T17:31:12Z</time>
      </trkpt>
      <trkpt lat="49.45194" lon="1.1647">
        <ele>128</ele>
        <time>2017-07-25T17:31:12Z</time>
      </trkpt>
      <trkpt lat="49.45191" lon="1.16461">
        <ele>128</ele>
        <time>2017-07-25T17:31:12Z</time>
      </trkpt>
      <trkpt lat="49.4519" lon="1.16453">
        <ele>120</ele>
        <time>2017-07-25T17:31:28Z</time>
      </trkpt>
      <trkpt lat="49.45189" lon="1.16448">
        <ele>120</ele>
        <time>2017-07-25T17:31:28Z</time>
      </trkpt>
      <trkpt lat="49.45186" lon="1.16446">
        <ele>120</ele>
        <time>2017-07-25T17:31:28Z</time>
      </trkpt>
      <trkpt lat="49.4518" lon="1.16443">
        <ele>120</ele>
        <time>2017-07-25T17:31:28Z</time>
      </trkpt>
      <trkpt lat="49.4518" lon="1.16438">
        <ele>120</ele>
        <time>2017-07-25T17:31:48Z</time>
      </trkpt>
      <trkpt lat="49.45177" lon="1.16433">
        <ele>120</ele>
        <time>2017-07-25T17:31:48Z</time>
      </trkpt>
      <trkpt lat="49.45176" lon="1.16431">
        <ele>120</ele>
        <time>2017-07-25T17:31:48Z</time>
      </trkpt>
      <trkpt lat="49.45174" lon="1.16429">
        <ele>120</ele>
        <time>2017-07-25T17:31:48Z</time>
      </trkpt>
      <trkpt lat="49.45173" lon="1.16427">
        <ele>120</ele>
        <time>2017-07-25T17:31:49Z</time>
      </trkpt>
      <trkpt lat="49.45171" lon="1.16426">
        <ele>120</ele>
        <time>2017-07-25T17:32:20Z</time>
      </trkpt>
      <trkpt lat="49.45171" lon="1.16426">
        <ele>120</ele>
        <time>2017-07-25T17:32:20Z</time>
      </trkpt>
      <trkpt lat="49.45171" lon="1.16426">
        <ele>120</ele>
        <time>2017-07-25T17:32:20Z</time>
      </trkpt>
      <trkpt lat="49.4517" lon="1.16416">
        <ele>120</ele>
        <time>2017-07-25T17:32:21Z</time>
      </trkpt>
      <trkpt lat="49.45169" lon="1.16402">
        <ele>120</ele>
        <time>2017-07-25T17:32:21Z</time>
      </trkpt>
      <trkpt lat="49.45162" lon="1.16396">
        <ele>120</ele>
        <time>2017-07-25T17:32:36Z</time>
      </trkpt>
      <trkpt lat="49.45158" lon="1.16388">
        <ele>120</ele>
        <time>2017-07-25T17:32:36Z</time>
      </trkpt>
      <trkpt lat="49.45153" lon="1.1638">
        <ele>120</ele>
        <time>2017-07-25T17:32:36Z</time>
      </trkpt>
      <trkpt lat="49.45148" lon="1.16369">
        <ele>108</ele>
        <time>2017-07-25T17:32:36Z</time>
      </trkpt>
      <trkpt lat="49.45142" lon="1.16349">
        <ele>108</ele>
        <time>2017-07-25T17:33:24Z</time>
      </trkpt>
      <trkpt lat="49.45143" lon="1.16349">
        <ele>108</ele>
        <time>2017-07-25T17:33:24Z</time>
      </trkpt>
      <trkpt lat="49.45142" lon="1.16349">
        <ele>108</ele>
        <time>2017-07-25T17:33:24Z</time>
      </trkpt>
      <trkpt lat="49.45142" lon="1.16349">
        <ele>108</ele>
        <time>2017-07-25T17:33:24Z</time>
      </trkpt>
      <trkpt lat="49.45142" lon="1.16349">
        <ele>108</ele>
        <time>2017-07-25T17:33:25Z</time>
      </trkpt>
      <trkpt lat="49.45142" lon="1.16349">
        <ele>108</ele>
        <time>2017-07-25T17:33:48Z</time>
      </trkpt>
      <trkpt lat="49.45142" lon="1.16349">
        <ele>108</ele>
        <time>2017-07-25T17:33:48Z</time>
      </trkpt>
      <trkpt lat="49.45142" lon="1.16349">
        <ele>108</ele>
        <time>2017-07-25T17:33:48Z</time>
      </trkpt>
      <trkpt lat="49.4514" lon="1.16344">
        <ele>108</ele>
        <time>2017-07-25T17:33:48Z</time>
      </trkpt>
      <trkpt lat="49.45133" lon="1.16336">
        <ele>108</ele>
        <time>2017-07-25T17:33:49Z</time>
      </trkpt>
      <trkpt lat="49.45129" lon="1.16329">
        <ele>108</ele>
        <time>2017-07-25T17:34:04Z</time>
      </trkpt>
      <trkpt lat="49.45125" lon="1.16323">
        <ele>110</ele>
        <time>2017-07-25T17:34:04Z</time>
      </trkpt>
      <trkpt lat="49.45121" lon="1.16319">
        <ele>110</ele>
        <time>2017-07-25T17:34:04Z</time>
      </trkpt>
      <trkpt lat="49.45113" lon="1.16316">
        <ele>110</ele>
        <time>2017-07-25T17:34:04Z</time>
      </trkpt>
      <trkpt lat="49.45111" lon="1.16305">
        <ele>110</ele>
        <time>2017-07-25T17:34:20Z</time>
      </trkpt>
      <trkpt lat="49.45104" lon="1.16293">
        <ele>110</ele>
        <time>2017-07-25T17:34:20Z</time>
      </trkpt>
      <trkpt lat="49.45099" lon="1.16279">
        <ele>93</ele>
        <time>2017-07-25T17:34:20Z</time>
      </trkpt>
      <trkpt lat="49.45097" lon="1.16274">
        <ele>93</ele>
        <time>2017-07-25T17:34:20Z</time>
      </trkpt>
      <trkpt lat="49.45098" lon="1.16261">
        <ele>93</ele>
        <time>2017-07-25T17:35:24Z</time>
      </trkpt>
      <trkpt lat="49.45098" lon="1.16261">
        <ele>93</ele>
        <time>2017-07-25T17:35:24Z</time>
      </trkpt>
      <trkpt lat="49.45098" lon="1.16261">
        <ele>93</ele>
        <time>2017-07-25T17:35:24Z</time>
      </trkpt>
      <trkpt lat="49.45096" lon="1.16258">
        <ele>93</ele>
        <time>2017-07-25T17:35:24Z</time>
      </trkpt>
      <trkpt lat="49.45092" lon="1.16251">
        <ele>93</ele>
        <time>2017-07-25T17:35:25Z</time>
      </trkpt>
      <trkpt lat="49.45091" lon="1.16246">
        <ele>93</ele>
        <time>2017-07-25T17:35:40Z</time>
      </trkpt>
      <trkpt lat="49.45087" lon="1.16243">
        <ele>93</ele>
        <time>2017-07-25T17:35:40Z</time>
      </trkpt>
      <trkpt lat="49.45079" lon="1.16237">
        <ele>93</ele>
        <time>2017-07-25T17:35:40Z</time>
      </trkpt>
      <trkpt lat="49.45077" lon="1.16226">
        <ele>93</ele>
        <time>2017-07-25T17:35:40Z</time>
      </trkpt>
      <trkpt lat="49.45075" lon="1.16222">
        <ele>93</ele>
        <time>2017-07-25T17:35:56Z</time>
      </trkpt>
      <trkpt lat="49.45073" lon="1.16218">
        <ele>93</ele>
        <time>2017-07-25T17:35:57Z</time>
      </trkpt>
      <trkpt lat="49.45068" lon="1.16216">
        <ele>93</ele>
        <time>2017-07-25T17:35:57Z</time>
      </trkpt>
      <trkpt lat="49.45065" lon="1.16213">
        <ele>93</ele>
        <time>2017-07-25T17:35:57Z</time>
      </trkpt>
      <trkpt lat="49.45064" lon="1.16208">
        <ele>73</ele>
        <time>2017-07-25T17:36:32Z</time>
      </trkpt>
      <trkpt lat="49.45064" lon="1.16207">
        <ele>73</ele>
        <time>2017-07-25T17:36:32Z</time>
      </trkpt>
      <trkpt lat="49.45063" lon="1.16205">
        <ele>73</ele>
        <time>2017-07-25T17:36:33Z</time>
      </trkpt>
      <trkpt lat="49.45059" lon="1.16201">
        <ele>73</ele>
        <time>2017-07-25T17:36:33Z</time>
      </trkpt>
      <trkpt lat="49.45059" lon="1.16197">
        <ele>73</ele>
        <time>2017-07-25T17:36:33Z</time>
      </trkpt>
      <trkpt lat="49.45056" lon="1.16188">
        <ele>73</ele>
        <time>2017-07-25T17:37:08Z</time>
      </trkpt>
      <trkpt lat="49.45055" lon="1.16188">
        <ele>73</ele>
        <time>2017-07-25T17:37:08Z</time>
      </trkpt>
      <trkpt lat="49.45055" lon="1.16188">
        <ele>73</ele>
        <time>2017-07-25T17:37:08Z</time>
      </trkpt>
      <trkpt lat="49.45055" lon="1.16188">
        <ele>73</ele>
        <time>2017-07-25T17:37:08Z</time>
      </trkpt>
      <trkpt lat="49.45051" lon="1.16173">
        <ele>73</ele>
        <time>2017-07-25T17:37:09Z</time>
      </trkpt>
      <trkpt lat="49.45047" lon="1.16164">
        <ele>73</ele>
        <time>2017-07-25T17:37:24Z</time>
      </trkpt>
      <trkpt lat="49.45042" lon="1.1616">
        <ele>73</ele>
        <time>2017-07-25T17:37:24Z</time>
      </trkpt>
      <trkpt lat="49.4503" lon="1.16151">
        <ele>92</ele>
        <time>2017-07-25T17:37:24Z</time>
      </trkpt>
      <trkpt lat="49.45029" lon="1.16142">
        <ele>92</ele>
        <time>2017-07-25T17:37:24Z</time>
      </trkpt>
      <trkpt lat="49.45025" lon="1.16129">
        <ele>92</ele>
        <time>2017-07-25T17:37:52Z</time>
      </trkpt>
      <trkpt lat="49.45024" lon="1.16129">
        <ele>92</ele>
        <time>2017-07-25T17:37:52Z</time>
      </trkpt>
      <trkpt lat="49.45024" lon="1.16128">
        <ele>92</ele>
        <time>2017-07-25T17:37:52Z</time>
      </trkpt>
      <trkpt lat="49.45024" lon="1.16128">
        <ele>92</ele>
        <time>2017-07-25T17:37:52Z</time>
      </trkpt>
      <trkpt lat="49.4502" lon="1.16117">
        <ele>77</ele>
        <time>2017-07-25T17:37:52Z</time>
      </trkpt>
      <trkpt lat="49.45016" lon="1.16111">
        <ele>77</ele>
        <time>2017-07-25T17:38:12Z</time>
      </trkpt>
      <trkpt lat="49.45013" lon="1.16107">
        <ele>77</ele>
        <time>2017-07-25T17:38:12Z</time>
      </trkpt>
      <trkpt lat="49.45011" lon="1.16102">
        <ele>77</ele>
        <time>2017-07-25T17:38:12Z</time>
      </trkpt>
      <trkpt lat="49.4501" lon="1.16101">
        <ele>77</ele>
        <time>2017-07-25T17:38:12Z</time>
      </trkpt>
      <trkpt lat="49.45006" lon="1.16091">
        <ele>77</ele>
        <time>2017-07-25T17:38:13Z</time>
      </trkpt>
      <trkpt lat="49.45" lon="1.16074">
        <ele>77</ele>
        <time>2017-07-25T17:38:28Z</time>
      </trkpt>
      <trkpt lat="49.44993" lon="1.16057">
        <ele>77</ele>
        <time>2017-07-25T17:38:28Z</time>
      </trkpt>
      <trkpt lat="49.44985" lon="1.1605">
        <ele>77</ele>
        <time>2017-07-25T17:38:28Z</time>
      </trkpt>
      <trkpt lat="49.44982" lon="1.16046">
        <ele>77</ele>
        <time>2017-07-25T17:38:28Z</time>
      </trkpt>
      <trkpt lat="49.44979" lon="1.16043">
        <ele>77</ele>
        <time>2017-07-25T17:38:44Z</time>
      </trkpt>
      <trkpt lat="49.44979" lon="1.16041">
        <ele>59</ele>
        <time>2017-07-25T17:38:44Z</time>
      </trkpt>
      <trkpt lat="49.44975" lon="1.16036">
        <ele>59</ele>
        <time>2017-07-25T17:38:44Z</time>
      </trkpt>
      <trkpt lat="49.44974" lon="1.16026">
        <ele>59</ele>
        <time>2017-07-25T17:38:44Z</time>
      </trkpt>
      <trkpt lat="49.44974" lon="1.16018">
        <ele>59</ele>
        <time>2017-07-25T17:39:00Z</time>
      </trkpt>
      <trkpt lat="49.4497" lon="1.16013">
        <ele>59</ele>
        <time>2017-07-25T17:39:00Z</time>
      </trkpt>
      <trkpt lat="49.44967" lon="1.16007">
        <ele>59</ele>
        <time>2017-07-25T17:39:00Z</time>
      </trkpt>
      <trkpt lat="49.44962" lon="1.15998">
        <ele>59</ele>
        <time>2017-07-25T17:39:01Z</time>
      </trkpt>
      <trkpt lat="49.4496" lon="1.15987">
        <ele>59</ele>
        <time>2017-07-25T17:39:16Z</time>
      </trkpt>
      <trkpt lat="49.44956" lon="1.15975">
        <ele>76</ele>
        <time>2017-07-25T17:39:16Z</time>
      </trkpt>
      <trkpt lat="49.44953" lon="1.15971">
        <ele>76</ele>
        <time>2017-07-25T17:39:16Z</time>
      </trkpt>
      <trkpt lat="49.44951" lon="1.15967">
        <ele>76</ele>
        <time>2017-07-25T17:39:17Z</time>
      </trkpt>
      <trkpt lat="49.44949" lon="1.15961">
        <ele>76</ele>
        <time>2017-07-25T17:39:32Z</time>
      </trkpt>
      <trkpt lat="49.44947" lon="1.15955">
        <ele>68</ele>
        <time>2017-07-25T17:39:32Z</time>
      </trkpt>
      <trkpt lat="49.44946" lon="1.15949">
        <ele>68</ele>
        <time>2017-07-25T17:39:32Z</time>
      </trkpt>
      <trkpt lat="49.44944" lon="1.15942">
        <ele>68</ele>
        <time>2017-07-25T17:39:32Z</time>
      </trkpt>
      <trkpt lat="49.44941" lon="1.15935">
        <ele>68</ele>
        <time>2017-07-25T17:39:48Z</time>
      </trkpt>
      <trkpt lat="49.44939" lon="1.15928">
        <ele>68</ele>
        <time>2017-07-25T17:39:49Z</time>
      </trkpt>
      <trkpt lat="49.44937" lon="1.15925">
        <ele>68</ele>
        <time>2017-07-25T17:39:49Z</time>
      </trkpt>
      <trkpt lat="49.44936" lon="1.15918">
        <ele>68</ele>
        <time>2017-07-25T17:39:49Z</time>
      </trkpt>
      <trkpt lat="49.44935" lon="1.15906">
        <ele>68</ele>
        <time>2017-07-25T17:40:04Z</time>
      </trkpt>
      <trkpt lat="49.4493" lon="1.15898">
        <ele>68</ele>
        <time>2017-07-25T17:40:04Z</time>
      </trkpt>
      <trkpt lat="49.44923" lon="1.15893">
        <ele>68</ele>
        <time>2017-07-25T17:40:04Z</time>
      </trkpt>
      <trkpt lat="49.44922" lon="1.15887">
        <ele>68</ele>
        <time>2017-07-25T17:40:04Z</time>
      </trkpt>
      <trkpt lat="49.44916" lon="1.15871">
        <ele>53</ele>
        <time>2017-07-25T17:40:24Z</time>
      </trkpt>
      <trkpt lat="49.44916" lon="1.15861">
        <ele>53</ele>
        <time>2017-07-25T17:40:24Z</time>
      </trkpt>
      <trkpt lat="49.44915" lon="1.15859">
        <ele>53</ele>
        <time>2017-07-25T17:40:24Z</time>
      </trkpt>
      <trkpt lat="49.4492" lon="1.15859">
        <ele>53</ele>
        <time>2017-07-25T17:40:24Z</time>
      </trkpt>
      <trkpt lat="49.44916" lon="1.15853">
        <ele>53</ele>
        <time>2017-07-25T17:40:25Z</time>
      </trkpt>
      <trkpt lat="49.44918" lon="1.15848">
        <ele>53</ele>
        <time>2017-07-25T17:40:40Z</time>
      </trkpt>
      <trkpt lat="49.44914" lon="1.15837">
        <ele>53</ele>
        <time>2017-07-25T17:40:40Z</time>
      </trkpt>
      <trkpt lat="49.4491" lon="1.1583">
        <ele>53</ele>
        <time>2017-07-25T17:40:40Z</time>
      </trkpt>
      <trkpt lat="49.44906" lon="1.15818">
        <ele>53</ele>
        <time>2017-07-25T17:40:40Z</time>
      </trkpt>
      <trkpt lat="49.44899" lon="1.15813">
        <ele>53</ele>
        <time>2017-07-25T17:40:56Z</time>
      </trkpt>
      <trkpt lat="49.44896" lon="1.15804">
        <ele>53</ele>
        <time>2017-07-25T17:40:56Z</time>
      </trkpt>
      <trkpt lat="49.4489" lon="1.15798">
        <ele>53</ele>
        <time>2017-07-25T17:40:56Z</time>
      </trkpt>
      <trkpt lat="49.44891" lon="1.15792">
        <ele>53</ele>
        <time>2017-07-25T17:40:56Z</time>
      </trkpt>
      <trkpt lat="49.44892" lon="1.15783">
        <ele>43</ele>
        <time>2017-07-25T17:41:24Z</time>
      </trkpt>
      <trkpt lat="49.44888" lon="1.15781">
        <ele>43</ele>
        <time>2017-07-25T17:41:24Z</time>
      </trkpt>
      <trkpt lat="49.44887" lon="1.1578">
        <ele>43</ele>
        <time>2017-07-25T17:41:24Z</time>
      </trkpt>
      <trkpt lat="49.44886" lon="1.15779">
        <ele>43</ele>
        <time>2017-07-25T17:41:24Z</time>
      </trkpt>
      <trkpt lat="49.44882" lon="1.15766">
        <ele>43</ele>
        <time>2017-07-25T17:41:25Z</time>
      </trkpt>
      <trkpt lat="49.44875" lon="1.1576">
        <ele>43</ele>
        <time>2017-07-25T17:41:40Z</time>
      </trkpt>
      <trkpt lat="49.44874" lon="1.15748">
        <ele>60</ele>
        <time>2017-07-25T17:41:40Z</time>
      </trkpt>
      <trkpt lat="49.44871" lon="1.15738">
        <ele>60</ele>
        <time>2017-07-25T17:41:40Z</time>
      </trkpt>
      <trkpt lat="49.44868" lon="1.15729">
        <ele>60</ele>
        <time>2017-07-25T17:41:40Z</time>
      </trkpt>
      <trkpt lat="49.44865" lon="1.15722">
        <ele>60</ele>
        <time>2017-07-25T17:41:56Z</time>
      </trkpt>
      <trkpt lat="49.44864" lon="1.15716">
        <ele>60</ele>
        <time>2017-07-25T17:41:56Z</time>
      </trkpt>
      <trkpt lat="49.44861" lon="1.15709">
        <ele>60</ele>
        <time>2017-07-25T17:41:56Z</time>
      </trkpt>
      <trkpt lat="49.44858" lon="1.15703">
        <ele>50</ele>
        <time>2017-07-25T17:41:56Z</time>
      </trkpt>
      <trkpt lat="49.44856" lon="1.15699">
        <ele>50</ele>
        <time>2017-07-25T17:42:12Z</time>
      </trkpt>
      <trkpt lat="49.44854" lon="1.15691">
        <ele>50</ele>
        <time>2017-07-25T17:42:12Z</time>
      </trkpt>
      <trkpt lat="49.44851" lon="1.15686">
        <ele>50</ele>
        <time>2017-07-25T17:42:12Z</time>
      </trkpt>
      <trkpt lat="49.4485" lon="1.15681">
        <ele>50</ele>
        <time>2017-07-25T17:42:12Z</time>
      </trkpt>
      <trkpt lat="49.44847" lon="1.15668">
        <ele>50</ele>
        <time>2017-07-25T17:42:28Z</time>
      </trkpt>
      <trkpt lat="49.44842" lon="1.15662">
        <ele>50</ele>
        <time>2017-07-25T17:42:28Z</time>
      </trkpt>
      <trkpt lat="49.44842" lon="1.15655">
        <ele>50</ele>
        <time>2017-07-25T17:42:28Z</time>
      </trkpt>
      <trkpt lat="49.44839" lon="1.15649">
        <ele>50</ele>
        <time>2017-07-25T17:42:28Z</time>
      </trkpt>
      <trkpt lat="49.44838" lon="1.15643">
        <ele>50</ele>
        <time>2017-07-25T17:42:44Z</time>
      </trkpt>
      <trkpt lat="49.44831" lon="1.15639">
        <ele>50</ele>
        <time>2017-07-25T17:42:44Z</time>
      </trkpt>
      <trkpt lat="49.44832" lon="1.15634">
        <ele>50</ele>
        <time>2017-07-25T17:42:44Z</time>
      </trkpt>
      <trkpt lat="49.44829" lon="1.15628">
        <ele>50</ele>
        <time>2017-07-25T17:42:44Z</time>
      </trkpt>
      <trkpt lat="49.44823" lon="1.15617">
        <ele>42</ele>
        <time>2017-07-25T17:43:00Z</time>
      </trkpt>
      <trkpt lat="49.44819" lon="1.15611">
        <ele>42</ele>
        <time>2017-07-25T17:43:00Z</time>
      </trkpt>
      <trkpt lat="49.44815" lon="1.15603">
        <ele>42</ele>
        <time>2017-07-25T17:43:00Z</time>
      </trkpt>
      <trkpt lat="49.4481" lon="1.15595">
        <ele>42</ele>
        <time>2017-07-25T17:43:00Z</time>
      </trkpt>
      <trkpt lat="49.44807" lon="1.15592">
        <ele>42</ele>
        <time>2017-07-25T17:43:16Z</time>
      </trkpt>
      <trkpt lat="49.44804" lon="1.15585">
        <ele>42</ele>
        <time>2017-07-25T17:43:16Z</time>
      </trkpt>
      <trkpt lat="49.44802" lon="1.1558">
        <ele>42</ele>
        <time>2017-07-25T17:43:16Z</time>
      </trkpt>
      <trkpt lat="49.448" lon="1.15575">
        <ele>42</ele>
        <time>2017-07-25T17:43:16Z</time>
      </trkpt>
      <trkpt lat="49.44797" lon="1.15567">
        <ele>42</ele>
        <time>2017-07-25T17:43:32Z</time>
      </trkpt>
      <trkpt lat="49.44794" lon="1.15559">
        <ele>42</ele>
        <time>2017-07-25T17:43:32Z</time>
      </trkpt>
      <trkpt lat="49.44793" lon="1.15553">
        <ele>42</ele>
        <time>2017-07-25T17:43:32Z</time>
      </trkpt>
      <trkpt lat="49.44791" lon="1.15545">
        <ele>49</ele>
        <time>2017-07-25T17:43:32Z</time>
      </trkpt>
      <trkpt lat="49.4479" lon="1.15539">
        <ele>40</ele>
        <time>2017-07-25T17:43:48Z</time>
      </trkpt>
      <trkpt lat="49.44787" lon="1.15531">
        <ele>40</ele>
        <time>2017-07-25T17:43:48Z</time>
      </trkpt>
      <trkpt lat="49.44784" lon="1.15523">
        <ele>40</ele>
        <time>2017-07-25T17:43:48Z</time>
      </trkpt>
      <trkpt lat="49.44782" lon="1.15516">
        <ele>40</ele>
        <time>2017-07-25T17:43:48Z</time>
      </trkpt>
      <trkpt lat="49.4478" lon="1.1551">
        <ele>40</ele>
        <time>2017-07-25T17:44:04Z</time>
      </trkpt>
      <trkpt lat="49.44777" lon="1.15503">
        <ele>40</ele>
        <time>2017-07-25T17:44:04Z</time>
      </trkpt>
      <trkpt lat="49.44774" lon="1.15499">
        <ele>40</ele>
        <time>2017-07-25T17:44:04Z</time>
      </trkpt>
      <trkpt lat="49.44774" lon="1.15491">
        <ele>40</ele>
        <time>2017-07-25T17:44:04Z</time>
      </trkpt>
      <trkpt lat="49.44771" lon="1.15485">
        <ele>40</ele>
        <time>2017-07-25T17:44:20Z</time>
      </trkpt>
      <trkpt lat="49.44771" lon="1.15479">
        <ele>40</ele>
        <time>2017-07-25T17:44:20Z</time>
      </trkpt>
      <trkpt lat="49.44769" lon="1.15471">
        <ele>40</ele>
        <time>2017-07-25T17:44:20Z</time>
      </trkpt>
      <trkpt lat="49.44767" lon="1.15464">
        <ele>40</ele>
        <time>2017-07-25T17:44:20Z</time>
      </trkpt>
      <trkpt lat="49.44764" lon="1.15457">
        <ele>36</ele>
        <time>2017-07-25T17:44:36Z</time>
      </trkpt>
      <trkpt lat="49.44763" lon="1.15448">
        <ele>36</ele>
        <time>2017-07-25T17:44:36Z</time>
      </trkpt>
      <trkpt lat="49.44762" lon="1.15441">
        <ele>36</ele>
        <time>2017-07-25T17:44:36Z</time>
      </trkpt>
      <trkpt lat="49.44761" lon="1.15436">
        <ele>36</ele>
        <time>2017-07-25T17:44:36Z</time>
      </trkpt>
      <trkpt lat="49.4476" lon="1.15428">
        <ele>36</ele>
        <time>2017-07-25T17:44:52Z</time>
      </trkpt>
      <trkpt lat="49.4476" lon="1.15421">
        <ele>36</ele>
        <time>2017-07-25T17:44:52Z</time>
      </trkpt>
      <trkpt lat="49.4476" lon="1.15413">
        <ele>36</ele>
        <time>2017-07-25T17:44:52Z</time>
      </trkpt>
      <trkpt lat="49.44763" lon="1.15405">
        <ele>36</ele>
        <time>2017-07-25T17:44:52Z</time>
      </trkpt>
      <trkpt lat="49.44764" lon="1.15401">
        <ele>36</ele>
        <time>2017-07-25T17:45:08Z</time>
      </trkpt>
      <trkpt lat="49.44767" lon="1.15392">
        <ele>36</ele>
        <time>2017-07-25T17:45:08Z</time>
      </trkpt>
      <trkpt lat="49.44768" lon="1.15385">
        <ele>36</ele>
        <time>2017-07-25T17:45:08Z</time>
      </trkpt>
      <trkpt lat="49.44766" lon="1.15379">
        <ele>36</ele>
        <time>2017-07-25T17:45:08Z</time>
      </trkpt>
      <trkpt lat="49.44773" lon="1.15366">
        <ele>35</ele>
        <time>2017-07-25T17:45:36Z</time>
      </trkpt>
      <trkpt lat="49.44773" lon="1.15366">
        <ele>35</ele>
        <time>2017-07-25T17:45:37Z</time>
      </trkpt>
      <trkpt lat="49.44772" lon="1.15365">
        <ele>35</ele>
        <time>2017-07-25T17:45:37Z</time>
      </trkpt>
      <trkpt lat="49.44772" lon="1.15363">
        <ele>35</ele>
        <time>2017-07-25T17:45:37Z</time>
      </trkpt>
      <trkpt lat="49.44774" lon="1.15358">
        <ele>35</ele>
        <time>2017-07-25T17:45:37Z</time>
      </trkpt>
      <trkpt lat="49.44778" lon="1.15353">
        <ele>35</ele>
        <time>2017-07-25T17:46:20Z</time>
      </trkpt>
      <trkpt lat="49.44779" lon="1.15353">
        <ele>35</ele>
        <time>2017-07-25T17:46:20Z</time>
      </trkpt>
      <trkpt lat="49.44779" lon="1.15351">
        <ele>35</ele>
        <time>2017-07-25T17:46:20Z</time>
      </trkpt>
      <trkpt lat="49.44774" lon="1.15342">
        <ele>35</ele>
        <time>2017-07-25T17:46:20Z</time>
      </trkpt>
      <trkpt lat="49.44773" lon="1.15335">
        <ele>35</ele>
        <time>2017-07-25T17:46:20Z</time>
      </trkpt>
      <trkpt lat="49.44771" lon="1.15327">
        <ele>35</ele>
        <time>2017-07-25T17:46:36Z</time>
      </trkpt>
      <trkpt lat="49.44771" lon="1.15319">
        <ele>35</ele>
        <time>2017-07-25T17:46:36Z</time>
      </trkpt>
      <trkpt lat="49.4477" lon="1.15311">
        <ele>35</ele>
        <time>2017-07-25T17:46:36Z</time>
      </trkpt>
      <trkpt lat="49.4477" lon="1.15304">
        <ele>35</ele>
        <time>2017-07-25T17:46:36Z</time>
      </trkpt>
      <trkpt lat="49.44768" lon="1.15294">
        <ele>35</ele>
        <time>2017-07-25T17:46:52Z</time>
      </trkpt>
      <trkpt lat="49.44766" lon="1.15287">
        <ele>32</ele>
        <time>2017-07-25T17:46:52Z</time>
      </trkpt>
      <trkpt lat="49.44762" lon="1.15277">
        <ele>32</ele>
        <time>2017-07-25T17:46:52Z</time>
      </trkpt>
      <trkpt lat="49.44759" lon="1.15272">
        <ele>32</ele>
        <time>2017-07-25T17:46:53Z</time>
      </trkpt>
      <trkpt lat="49.44755" lon="1.1527">
        <ele>32</ele>
        <time>2017-07-25T17:47:08Z</time>
      </trkpt>
      <trkpt lat="49.4475" lon="1.15264">
        <ele>32</ele>
        <time>2017-07-25T17:47:08Z</time>
      </trkpt>
      <trkpt lat="49.44745" lon="1.15259">
        <ele>32</ele>
        <time>2017-07-25T17:47:08Z</time>
      </trkpt>
      <trkpt lat="49.44741" lon="1.15254">
        <ele>32</ele>
        <time>2017-07-25T17:47:08Z</time>
      </trkpt>
      <trkpt lat="49.44736" lon="1.15249">
        <ele>32</ele>
        <time>2017-07-25T17:47:24Z</time>
      </trkpt>
      <trkpt lat="49.44732" lon="1.15245">
        <ele>32</ele>
        <time>2017-07-25T17:47:24Z</time>
      </trkpt>
      <trkpt lat="49.44728" lon="1.15241">
        <ele>32</ele>
        <time>2017-07-25T17:47:24Z</time>
      </trkpt>
      <trkpt lat="49.44728" lon="1.1524">
        <ele>32</ele>
        <time>2017-07-25T17:47:24Z</time>
      </trkpt>
      <trkpt lat="49.44723" lon="1.15237">
        <ele>32</ele>
        <time>2017-07-25T17:47:40Z</time>
      </trkpt>
      <trkpt lat="49.4472" lon="1.1523">
        <ele>32</ele>
        <time>2017-07-25T17:47:40Z</time>
      </trkpt>
      <trkpt lat="49.44715" lon="1.15224">
        <ele>32</ele>
        <time>2017-07-25T17:47:40Z</time>
      </trkpt>
      <trkpt lat="49.44711" lon="1.15224">
        <ele>32</ele>
        <time>2017-07-25T17:47:40Z</time>
      </trkpt>
      <trkpt lat="49.44714" lon="1.15221">
        <ele>32</ele>
        <time>2017-07-25T17:47:56Z</time>
      </trkpt>
      <trkpt lat="49.44713" lon="1.15215">
        <ele>32</ele>
        <time>2017-07-25T17:47:56Z</time>
      </trkpt>
      <trkpt lat="49.44713" lon="1.1521">
        <ele>32</ele>
        <time>2017-07-25T17:47:56Z</time>
      </trkpt>
      <trkpt lat="49.44713" lon="1.152">
        <ele>30</ele>
        <time>2017-07-25T17:47:56Z</time>
      </trkpt>
      <trkpt lat="49.44716" lon="1.15191">
        <ele>30</ele>
        <time>2017-07-25T17:48:12Z</time>
      </trkpt>
      <trkpt lat="49.44718" lon="1.15183">
        <ele>30</ele>
        <time>2017-07-25T17:48:12Z</time>
      </trkpt>
      <trkpt lat="49.44719" lon="1.15175">
        <ele>30</ele>
        <time>2017-07-25T17:48:12Z</time>
      </trkpt>
      <trkpt lat="49.44721" lon="1.15169">
        <ele>30</ele>
        <time>2017-07-25T17:48:12Z</time>
      </trkpt>
      <trkpt lat="49.44723" lon="1.15159">
        <ele>30</ele>
        <time>2017-07-25T17:48:28Z</time>
      </trkpt>
      <trkpt lat="49.44727" lon="1.15154">
        <ele>30</ele>
        <time>2017-07-25T17:48:28Z</time>
      </trkpt>
      <trkpt lat="49.44724" lon="1.15149">
        <ele>30</ele>
        <time>2017-07-25T17:48:28Z</time>
      </trkpt>
      <trkpt lat="49.44717" lon="1.15142">
        <ele>30</ele>
        <time>2017-07-25T17:48:28Z</time>
      </trkpt>
      <trkpt lat="49.44711" lon="1.1514">
        <ele>30</ele>
        <time>2017-07-25T17:48:44Z</time>
      </trkpt>
      <trkpt lat="49.44707" lon="1.15134">
        <ele>31</ele>
        <time>2017-07-25T17:48:44Z</time>
      </trkpt>
      <trkpt lat="49.44703" lon="1.1513">
        <ele>31</ele>
        <time>2017-07-25T17:48:44Z</time>
      </trkpt>
      <trkpt lat="49.44696" lon="1.15128">
        <ele>31</ele>
        <time>2017-07-25T17:48:44Z</time>
      </trkpt>
      <trkpt lat="49.44678" lon="1.15107">
        <ele>30</ele>
        <time>2017-07-25T17:49:16Z</time>
      </trkpt>
      <trkpt lat="49.44672" lon="1.15107">
        <ele>30</ele>
        <time>2017-07-25T17:49:16Z</time>
      </trkpt>
      <trkpt lat="49.44661" lon="1.15109">
        <ele>30</ele>
        <time>2017-07-25T17:49:16Z</time>
      </trkpt>
      <trkpt lat="49.4466" lon="1.1511">
        <ele>30</ele>
        <time>2017-07-25T17:49:16Z</time>
      </trkpt>
      <trkpt lat="49.44655" lon="1.15111">
        <ele>30</ele>
        <time>2017-07-25T17:49:17Z</time>
      </trkpt>
      <trkpt lat="49.44651" lon="1.15107">
        <ele>30</ele>
        <time>2017-07-25T17:49:32Z</time>
      </trkpt>
      <trkpt lat="49.44648" lon="1.15106">
        <ele>30</ele>
        <time>2017-07-25T17:49:32Z</time>
      </trkpt>
      <trkpt lat="49.44642" lon="1.15104">
        <ele>30</ele>
        <time>2017-07-25T17:49:32Z</time>
      </trkpt>
      <trkpt lat="49.44639" lon="1.15098">
        <ele>30</ele>
        <time>2017-07-25T17:49:32Z</time>
      </trkpt>
      <trkpt lat="49.44634" lon="1.15095">
        <ele>30</ele>
        <time>2017-07-25T17:49:48Z</time>
      </trkpt>
      <trkpt lat="49.44629" lon="1.15089">
        <ele>30</ele>
        <time>2017-07-25T17:49:48Z</time>
      </trkpt>
      <trkpt lat="49.44626" lon="1.15086">
        <ele>30</ele>
        <time>2017-07-25T17:49:48Z</time>
      </trkpt>
      <trkpt lat="49.44625" lon="1.15079">
        <ele>29</ele>
        <time>2017-07-25T17:49:48Z</time>
      </trkpt>
      <trkpt lat="49.44604" lon="1.15069">
        <ele>29</ele>
        <time>2017-07-25T17:50:28Z</time>
      </trkpt>
      <trkpt lat="49.44596" lon="1.15075">
        <ele>29</ele>
        <time>2017-07-25T17:50:29Z</time>
      </trkpt>
      <trkpt lat="49.44591" lon="1.15062">
        <ele>29</ele>
        <time>2017-07-25T17:50:29Z</time>
      </trkpt>
      <trkpt lat="49.44581" lon="1.15064">
        <ele>29</ele>
        <time>2017-07-25T17:50:29Z</time>
      </trkpt>
      <trkpt lat="49.44577" lon="1.15055">
        <ele>29</ele>
        <time>2017-07-25T17:50:29Z</time>
      </trkpt>
      <trkpt lat="49.44574" lon="1.15049">
        <ele>29</ele>
        <time>2017-07-25T17:50:44Z</time>
      </trkpt>
      <trkpt lat="49.44567" lon="1.15051">
        <ele>29</ele>
        <time>2017-07-25T17:50:45Z</time>
      </trkpt>
      <trkpt lat="49.44562" lon="1.15052">
        <ele>29</ele>
        <time>2017-07-25T17:50:45Z</time>
      </trkpt>
      <trkpt lat="49.44557" lon="1.1505">
        <ele>29</ele>
        <time>2017-07-25T17:50:45Z</time>
      </trkpt>
      <trkpt lat="49.44555" lon="1.15045">
        <ele>29</ele>
        <time>2017-07-25T17:51:00Z</time>
      </trkpt>
      <trkpt lat="49.4455" lon="1.15039">
        <ele>29</ele>
        <time>2017-07-25T17:51:00Z</time>
      </trkpt>
      <trkpt lat="49.44543" lon="1.15037">
        <ele>29</ele>
        <time>2017-07-25T17:51:00Z</time>
      </trkpt>
      <trkpt lat="49.44542" lon="1.15037">
        <ele>29</ele>
        <time>2017-07-25T17:51:00Z</time>
      </trkpt>
      <trkpt lat="49.44536" lon="1.15041">
        <ele>30</ele>
        <time>2017-07-25T17:51:24Z</time>
      </trkpt>
      <trkpt lat="49.44535" lon="1.1504">
        <ele>30</ele>
        <time>2017-07-25T17:51:24Z</time>
      </trkpt>
      <trkpt lat="49.44535" lon="1.15038">
        <ele>30</ele>
        <time>2017-07-25T17:51:24Z</time>
      </trkpt>
      <trkpt lat="49.44534" lon="1.15031">
        <ele>30</ele>
        <time>2017-07-25T17:51:24Z</time>
      </trkpt>
      <trkpt lat="49.44533" lon="1.15024">
        <ele>30</ele>
        <time>2017-07-25T17:51:24Z</time>
      </trkpt>
      <trkpt lat="49.44534" lon="1.15015">
        <ele>30</ele>
        <time>2017-07-25T17:51:40Z</time>
      </trkpt>
      <trkpt lat="49.44537" lon="1.15005">
        <ele>30</ele>
        <time>2017-07-25T17:51:40Z</time>
      </trkpt>
      <trkpt lat="49.4454" lon="1.14999">
        <ele>30</ele>
        <time>2017-07-25T17:51:40Z</time>
      </trkpt>
      <trkpt lat="49.44542" lon="1.14993">
        <ele>29</ele>
        <time>2017-07-25T17:51:40Z</time>
      </trkpt>
      <trkpt lat="49.44544" lon="1.14987">
        <ele>29</ele>
        <time>2017-07-25T17:52:16Z</time>
      </trkpt>
      <trkpt lat="49.44546" lon="1.14978">
        <ele>29</ele>
        <time>2017-07-25T17:52:16Z</time>
      </trkpt>
      <trkpt lat="49.44546" lon="1.14971">
        <ele>29</ele>
        <time>2017-07-25T17:52:16Z</time>
      </trkpt>
      <trkpt lat="49.4455" lon="1.14963">
        <ele>29</ele>
        <time>2017-07-25T17:52:16Z</time>
      </trkpt>
      <trkpt lat="49.44553" lon="1.14947">
        <ele>29</ele>
        <time>2017-07-25T17:52:17Z</time>
      </trkpt>
      <trkpt lat="49.44559" lon="1.14943">
        <ele>29</ele>
        <time>2017-07-25T17:52:32Z</time>
      </trkpt>
      <trkpt lat="49.44562" lon="1.14937">
        <ele>29</ele>
        <time>2017-07-25T17:52:32Z</time>
      </trkpt>
      <trkpt lat="49.44565" lon="1.14932">
        <ele>29</ele>
        <time>2017-07-25T17:52:32Z</time>
      </trkpt>
      <trkpt lat="49.44565" lon="1.14923">
        <ele>29</ele>
        <time>2017-07-25T17:52:32Z</time>
      </trkpt>
      <trkpt lat="49.44567" lon="1.14917">
        <ele>29</ele>
        <time>2017-07-25T17:52:48Z</time>
      </trkpt>
      <trkpt lat="49.44565" lon="1.14912">
        <ele>29</ele>
        <time>2017-07-25T17:52:48Z</time>
      </trkpt>
      <trkpt lat="49.44563" lon="1.14905">
        <ele>29</ele>
        <time>2017-07-25T17:52:48Z</time>
      </trkpt>
      <trkpt lat="49.44563" lon="1.149">
        <ele>29</ele>
        <time>2017-07-25T17:52:48Z</time>
      </trkpt>
      <trkpt lat="49.44563" lon="1.14892">
        <ele>29</ele>
        <time>2017-07-25T17:53:04Z</time>
      </trkpt>
      <trkpt lat="49.44566" lon="1.14885">
        <ele>29</ele>
        <time>2017-07-25T17:53:04Z</time>
      </trkpt>
      <trkpt lat="49.44573" lon="1.14874">
        <ele>28</ele>
        <time>2017-07-25T17:53:04Z</time>
      </trkpt>
      <trkpt lat="49.4457" lon="1.1487">
        <ele>28</ele>
        <time>2017-07-25T17:53:04Z</time>
      </trkpt>
      <trkpt lat="49.44565" lon="1.14862">
        <ele>28</ele>
        <time>2017-07-25T17:53:20Z</time>
      </trkpt>
      <trkpt lat="49.44563" lon="1.14854">
        <ele>28</ele>
        <time>2017-07-25T17:53:22Z</time>
      </trkpt>
      <trkpt lat="49.44558" lon="1.14849">
        <ele>28</ele>
        <time>2017-07-25T17:53:22Z</time>
      </trkpt>
      <trkpt lat="49.44553" lon="1.14845">
        <ele>28</ele>
        <time>2017-07-25T17:53:22Z</time>
      </trkpt>
      <trkpt lat="49.44546" lon="1.14846">
        <ele>28</ele>
        <time>2017-07-25T17:53:36Z</time>
      </trkpt>
      <trkpt lat="49.4454" lon="1.1484">
        <ele>29</ele>
        <time>2017-07-25T17:53:36Z</time>
      </trkpt>
      <trkpt lat="49.44537" lon="1.14839">
        <ele>29</ele>
        <time>2017-07-25T17:53:36Z</time>
      </trkpt>
      <trkpt lat="49.44531" lon="1.14834">
        <ele>29</ele>
        <time>2017-07-25T17:53:36Z</time>
      </trkpt>
      <trkpt lat="49.44526" lon="1.14832">
        <ele>29</ele>
        <time>2017-07-25T17:53:52Z</time>
      </trkpt>
      <trkpt lat="49.44525" lon="1.14829">
        <ele>29</ele>
        <time>2017-07-25T17:53:52Z</time>
      </trkpt>
      <trkpt lat="49.44518" lon="1.14826">
        <ele>29</ele>
        <time>2017-07-25T17:53:52Z</time>
      </trkpt>
      <trkpt lat="49.44516" lon="1.14821">
        <ele>29</ele>
        <time>2017-07-25T17:53:52Z</time>
      </trkpt>
      <trkpt lat="49.44512" lon="1.1482">
        <ele>29</ele>
        <time>2017-07-25T17:54:08Z</time>
      </trkpt>
      <trkpt lat="49.44508" lon="1.14817">
        <ele>29</ele>
        <time>2017-07-25T17:54:08Z</time>
      </trkpt>
      <trkpt lat="49.44504" lon="1.14815">
        <ele>29</ele>
        <time>2017-07-25T17:54:08Z</time>
      </trkpt>
      <trkpt lat="49.44499" lon="1.14812">
        <ele>29</ele>
        <time>2017-07-25T17:54:09Z</time>
      </trkpt>
      <trkpt lat="49.44496" lon="1.1481">
        <ele>29</ele>
        <time>2017-07-25T17:54:24Z</time>
      </trkpt>
      <trkpt lat="49.44492" lon="1.14806">
        <ele>29</ele>
        <time>2017-07-25T17:54:25Z</time>
      </trkpt>
      <trkpt lat="49.44488" lon="1.14805">
        <ele>29</ele>
        <time>2017-07-25T17:54:25Z</time>
      </trkpt>
      <trkpt lat="49.44484" lon="1.14806">
        <ele>29</ele>
        <time>2017-07-25T17:54:25Z</time>
      </trkpt>
      <trkpt lat="49.4448" lon="1.14797">
        <ele>29</ele>
        <time>2017-07-25T17:54:48Z</time>
      </trkpt>
      <trkpt lat="49.44477" lon="1.14796">
        <ele>29</ele>
        <time>2017-07-25T17:54:48Z</time>
      </trkpt>
      <trkpt lat="49.44476" lon="1.14795">
        <ele>29</ele>
        <time>2017-07-25T17:54:48Z</time>
      </trkpt>
      <trkpt lat="49.44474" lon="1.14793">
        <ele>29</ele>
        <time>2017-07-25T17:54:48Z</time>
      </trkpt>
      <trkpt lat="49.44472" lon="1.14794">
        <ele>29</ele>
        <time>2017-07-25T17:54:49Z</time>
      </trkpt>
      <trkpt lat="49.44472" lon="1.14783">
        <ele>29</ele>
        <time>2017-07-25T17:55:04Z</time>
      </trkpt>
      <trkpt lat="49.44471" lon="1.14782">
        <ele>29</ele>
        <time>2017-07-25T17:55:04Z</time>
      </trkpt>
      <trkpt lat="49.44468" lon="1.14782">
        <ele>29</ele>
        <time>2017-07-25T17:55:04Z</time>
      </trkpt>
      <trkpt lat="49.44463" lon="1.14781">
        <ele>29</ele>
        <time>2017-07-25T17:55:04Z</time>
      </trkpt>
      <trkpt lat="49.44458" lon="1.14778">
        <ele>29</ele>
        <time>2017-07-25T17:55:24Z</time>
      </trkpt>
      <trkpt lat="49.44456" lon="1.14776">
        <ele>29</ele>
        <time>2017-07-25T17:55:24Z</time>
      </trkpt>
      <trkpt lat="49.44455" lon="1.14776">
        <ele>29</ele>
        <time>2017-07-25T17:55:24Z</time>
      </trkpt>
      <trkpt lat="49.44455" lon="1.14776">
        <ele>29</ele>
        <time>2017-07-25T17:55:24Z</time>
      </trkpt>
      <trkpt lat="49.44448" lon="1.14774">
        <ele>29</ele>
        <time>2017-07-25T17:55:24Z</time>
      </trkpt>
      <trkpt lat="49.44443" lon="1.1477">
        <ele>29</ele>
        <time>2017-07-25T17:55:40Z</time>
      </trkpt>
      <trkpt lat="49.44438" lon="1.14768">
        <ele>29</ele>
        <time>2017-07-25T17:55:40Z</time>
      </trkpt>
      <trkpt lat="49.44434" lon="1.14767">
        <ele>29</ele>
        <time>2017-07-25T17:55:40Z</time>
      </trkpt>
      <trkpt lat="49.44432" lon="1.14769">
        <ele>29</ele>
        <time>2017-07-25T17:55:40Z</time>
      </trkpt>
      <trkpt lat="49.44428" lon="1.14764">
        <ele>29</ele>
        <time>2017-07-25T17:55:56Z</time>
      </trkpt>
      <trkpt lat="49.44424" lon="1.14763">
        <ele>29</ele>
        <time>2017-07-25T17:55:56Z</time>
      </trkpt>
      <trkpt lat="49.4442" lon="1.14762">
        <ele>29</ele>
        <time>2017-07-25T17:55:56Z</time>
      </trkpt>
      <trkpt lat="49.44416" lon="1.1476">
        <ele>29</ele>
        <time>2017-07-25T17:55:56Z</time>
      </trkpt>
      <trkpt lat="49.44409" lon="1.1476">
        <ele>29</ele>
        <time>2017-07-25T17:56:12Z</time>
      </trkpt>
      <trkpt lat="49.44404" lon="1.1476">
        <ele>29</ele>
        <time>2017-07-25T17:56:12Z</time>
      </trkpt>
      <trkpt lat="49.44402" lon="1.14756">
        <ele>29</ele>
        <time>2017-07-25T17:56:12Z</time>
      </trkpt>
      <trkpt lat="49.44402" lon="1.14751">
        <ele>29</ele>
        <time>2017-07-25T17:56:12Z</time>
      </trkpt>
      <trkpt lat="49.44402" lon="1.14749">
        <ele>29</ele>
        <time>2017-07-25T17:56:32Z</time>
      </trkpt>
      <trkpt lat="49.44402" lon="1.14748">
        <ele>29</ele>
        <time>2017-07-25T17:56:32Z</time>
      </trkpt>
      <trkpt lat="49.44402" lon="1.14746">
        <ele>29</ele>
        <time>2017-07-25T17:56:32Z</time>
      </trkpt>
      <trkpt lat="49.44398" lon="1.14742">
        <ele>29</ele>
        <time>2017-07-25T17:56:32Z</time>
      </trkpt>
      <trkpt lat="49.44392" lon="1.14739">
        <ele>29</ele>
        <time>2017-07-25T17:56:33Z</time>
      </trkpt>
      <trkpt lat="49.44387" lon="1.14736">
        <ele>29</ele>
        <time>2017-07-25T17:56:48Z</time>
      </trkpt>
      <trkpt lat="49.44383" lon="1.14733">
        <ele>29</ele>
        <time>2017-07-25T17:56:48Z</time>
      </trkpt>
      <trkpt lat="49.44379" lon="1.14731">
        <ele>29</ele>
        <time>2017-07-25T17:56:48Z</time>
      </trkpt>
      <trkpt lat="49.44376" lon="1.14731">
        <ele>29</ele>
        <time>2017-07-25T17:56:49Z</time>
      </trkpt>
      <trkpt lat="49.44371" lon="1.14729">
        <ele>29</ele>
        <time>2017-07-25T17:57:04Z</time>
      </trkpt>
      <trkpt lat="49.44363" lon="1.14727">
        <ele>29</ele>
        <time>2017-07-25T17:57:04Z</time>
      </trkpt>
      <trkpt lat="49.44357" lon="1.14728">
        <ele>29</ele>
        <time>2017-07-25T17:57:04Z</time>
      </trkpt>
      <trkpt lat="49.44351" lon="1.14727">
        <ele>29</ele>
        <time>2017-07-25T17:57:04Z</time>
      </trkpt>
      <trkpt lat="49.44344" lon="1.14725">
        <ele>29</ele>
        <time>2017-07-25T17:57:20Z</time>
      </trkpt>
      <trkpt lat="49.44336" lon="1.14728">
        <ele>29</ele>
        <time>2017-07-25T17:57:20Z</time>
      </trkpt>
      <trkpt lat="49.44328" lon="1.14726">
        <ele>29</ele>
        <time>2017-07-25T17:57:20Z</time>
      </trkpt>
      <trkpt lat="49.44324" lon="1.14721">
        <ele>29</ele>
        <time>2017-07-25T17:57:20Z</time>
      </trkpt>
      <trkpt lat="49.44318" lon="1.1472">
        <ele>29</ele>
        <time>2017-07-25T17:57:40Z</time>
      </trkpt>
      <trkpt lat="49.44317" lon="1.14716">
        <ele>29</ele>
        <time>2017-07-25T17:57:40Z</time>
      </trkpt>
      <trkpt lat="49.44314" lon="1.14713">
        <ele>29</ele>
        <time>2017-07-25T17:57:40Z</time>
      </trkpt>
      <trkpt lat="49.44314" lon="1.14712">
        <ele>29</ele>
        <time>2017-07-25T17:57:40Z</time>
      </trkpt>
      <trkpt lat="49.44308" lon="1.1471">
        <ele>29</ele>
        <time>2017-07-25T17:57:41Z</time>
      </trkpt>
      <trkpt lat="49.44303" lon="1.14708">
        <ele>29</ele>
        <time>2017-07-25T17:57:56Z</time>
      </trkpt>
      <trkpt lat="49.443" lon="1.14706">
        <ele>29</ele>
        <time>2017-07-25T17:57:57Z</time>
      </trkpt>
      <trkpt lat="49.44296" lon="1.14705">
        <ele>29</ele>
        <time>2017-07-25T17:57:57Z</time>
      </trkpt>
      <trkpt lat="49.44292" lon="1.14702">
        <ele>29</ele>
        <time>2017-07-25T17:57:57Z</time>
      </trkpt>
      <trkpt lat="49.44285" lon="1.14698">
        <ele>25</ele>
        <time>2017-07-25T17:58:16Z</time>
      </trkpt>
      <trkpt lat="49.44281" lon="1.14698">
        <ele>25</ele>
        <time>2017-07-25T17:58:16Z</time>
      </trkpt>
      <trkpt lat="49.44279" lon="1.14699">
        <ele>25</ele>
        <time>2017-07-25T17:58:16Z</time>
      </trkpt>
      <trkpt lat="49.44278" lon="1.14697">
        <ele>25</ele>
        <time>2017-07-25T17:58:16Z</time>
      </trkpt>
      <trkpt lat="49.44273" lon="1.14692">
        <ele>25</ele>
        <time>2017-07-25T17:58:17Z</time>
      </trkpt>
      <trkpt lat="49.44269" lon="1.14692">
        <ele>25</ele>
        <time>2017-07-25T17:58:32Z</time>
      </trkpt>
      <trkpt lat="49.44265" lon="1.14688">
        <ele>25</ele>
        <time>2017-07-25T17:58:32Z</time>
      </trkpt>
      <trkpt lat="49.44262" lon="1.14685">
        <ele>25</ele>
        <time>2017-07-25T17:58:32Z</time>
      </trkpt>
      <trkpt lat="49.44256" lon="1.14685">
        <ele>25</ele>
        <time>2017-07-25T17:58:32Z</time>
      </trkpt>
      <trkpt lat="49.44254" lon="1.14681">
        <ele>25</ele>
        <time>2017-07-25T17:58:48Z</time>
      </trkpt>
      <trkpt lat="49.44246" lon="1.14679">
        <ele>25</ele>
        <time>2017-07-25T17:58:48Z</time>
      </trkpt>
      <trkpt lat="49.44241" lon="1.14678">
        <ele>25</ele>
        <time>2017-07-25T17:58:48Z</time>
      </trkpt>
      <trkpt lat="49.44236" lon="1.14677">
        <ele>25</ele>
        <time>2017-07-25T17:58:49Z</time>
      </trkpt>
      <trkpt lat="49.44233" lon="1.14679">
        <ele>25</ele>
        <time>2017-07-25T17:59:04Z</time>
      </trkpt>
      <trkpt lat="49.44231" lon="1.14676">
        <ele>25</ele>
        <time>2017-07-25T17:59:04Z</time>
      </trkpt>
      <trkpt lat="49.44224" lon="1.14673">
        <ele>25</ele>
        <time>2017-07-25T17:59:04Z</time>
      </trkpt>
      <trkpt lat="49.44217" lon="1.14671">
        <ele>25</ele>
        <time>2017-07-25T17:59:04Z</time>
      </trkpt>
      <trkpt lat="49.4421" lon="1.14673">
        <ele>25</ele>
        <time>2017-07-25T17:59:24Z</time>
      </trkpt>
      <trkpt lat="49.44208" lon="1.14672">
        <ele>25</ele>
        <time>2017-07-25T17:59:24Z</time>
      </trkpt>
      <trkpt lat="49.44206" lon="1.14669">
        <ele>25</ele>
        <time>2017-07-25T17:59:24Z</time>
      </trkpt>
      <trkpt lat="49.44205" lon="1.14666">
        <ele>25</ele>
        <time>2017-07-25T17:59:24Z</time>
      </trkpt>
      <trkpt lat="49.442" lon="1.14664">
        <ele>25</ele>
        <time>2017-07-25T17:59:24Z</time>
      </trkpt>
      <trkpt lat="49.44194" lon="1.14664">
        <ele>25</ele>
        <time>2017-07-25T17:59:40Z</time>
      </trkpt>
      <trkpt lat="49.44186" lon="1.14665">
        <ele>25</ele>
        <time>2017-07-25T17:59:40Z</time>
      </trkpt>
      <trkpt lat="49.44181" lon="1.14669">
        <ele>25</ele>
        <time>2017-07-25T17:59:40Z</time>
      </trkpt>
      <trkpt lat="49.44178" lon="1.14672">
        <ele>25</ele>
        <time>2017-07-25T17:59:40Z</time>
      </trkpt>
      <trkpt lat="49.44173" lon="1.14672">
        <ele>25</ele>
        <time>2017-07-25T18:00:08Z</time>
      </trkpt>
      <trkpt lat="49.44173" lon="1.1467">
        <ele>25</ele>
        <time>2017-07-25T18:00:08Z</time>
      </trkpt>
      <trkpt lat="49.44171" lon="1.14669">
        <ele>25</ele>
        <time>2017-07-25T18:00:08Z</time>
      </trkpt>
      <trkpt lat="49.44167" lon="1.14671">
        <ele>25</ele>
        <time>2017-07-25T18:00:09Z</time>
      </trkpt>
      <trkpt lat="49.44162" lon="1.1467">
        <ele>25</ele>
        <time>2017-07-25T18:00:09Z</time>
      </trkpt>
      <trkpt lat="49.44154" lon="1.14675">
        <ele>25</ele>
        <time>2017-07-25T18:00:24Z</time>
      </trkpt>
      <trkpt lat="49.4415" lon="1.14676">
        <ele>25</ele>
        <time>2017-07-25T18:00:24Z</time>
      </trkpt>
      <trkpt lat="49.44146" lon="1.14678">
        <ele>25</ele>
        <time>2017-07-25T18:00:24Z</time>
      </trkpt>
      <trkpt lat="49.44141" lon="1.14681">
        <ele>25</ele>
        <time>2017-07-25T18:00:24Z</time>
      </trkpt>
      <trkpt lat="49.44136" lon="1.14684">
        <ele>25</ele>
        <time>2017-07-25T18:00:40Z</time>
      </trkpt>
      <trkpt lat="49.44131" lon="1.14688">
        <ele>25</ele>
        <time>2017-07-25T18:00:40Z</time>
      </trkpt>
      <trkpt lat="49.44127" lon="1.14688">
        <ele>25</ele>
        <time>2017-07-25T18:00:40Z</time>
      </trkpt>
      <trkpt lat="49.4412" lon="1.14694">
        <ele>24</ele>
        <time>2017-07-25T18:00:40Z</time>
      </trkpt>
      <trkpt lat="49.44116" lon="1.14694">
        <ele>24</ele>
        <time>2017-07-25T18:00:56Z</time>
      </trkpt>
      <trkpt lat="49.44111" lon="1.14697">
        <ele>24</ele>
        <time>2017-07-25T18:00:56Z</time>
      </trkpt>
      <trkpt lat="49.44108" lon="1.14701">
        <ele>24</ele>
        <time>2017-07-25T18:00:56Z</time>
      </trkpt>
      <trkpt lat="49.44102" lon="1.14701">
        <ele>24</ele>
        <time>2017-07-25T18:00:56Z</time>
      </trkpt>
      <trkpt lat="49.44096" lon="1.14703">
        <ele>24</ele>
        <time>2017-07-25T18:01:12Z</time>
      </trkpt>
      <trkpt lat="49.44094" lon="1.14704">
        <ele>24</ele>
        <time>2017-07-25T18:01:12Z</time>
      </trkpt>
      <trkpt lat="49.44091" lon="1.14699">
        <ele>24</ele>
        <time>2017-07-25T18:01:12Z</time>
      </trkpt>
      <trkpt lat="49.44088" lon="1.14689">
        <ele>24</ele>
        <time>2017-07-25T18:01:12Z</time>
      </trkpt>
      <trkpt lat="49.44086" lon="1.14683">
        <ele>24</ele>
        <time>2017-07-25T18:01:28Z</time>
      </trkpt>
      <trkpt lat="49.4408" lon="1.14676">
        <ele>24</ele>
        <time>2017-07-25T18:01:28Z</time>
      </trkpt>
      <trkpt lat="49.44082" lon="1.14669">
        <ele>24</ele>
        <time>2017-07-25T18:01:28Z</time>
      </trkpt>
      <trkpt lat="49.4408" lon="1.14663">
        <ele>24</ele>
        <time>2017-07-25T18:01:28Z</time>
      </trkpt>
      <trkpt lat="49.44088" lon="1.14638">
        <ele>24</ele>
        <time>2017-07-25T18:01:44Z</time>
      </trkpt>
      <trkpt lat="49.44078" lon="1.14633">
        <ele>24</ele>
        <time>2017-07-25T18:01:44Z</time>
      </trkpt>
      <trkpt lat="49.44075" lon="1.14632">
        <ele>24</ele>
        <time>2017-07-25T18:01:44Z</time>
      </trkpt>
      <trkpt lat="49.44074" lon="1.14626">
        <ele>24</ele>
        <time>2017-07-25T18:01:44Z</time>
      </trkpt>
      <trkpt lat="49.44073" lon="1.1462">
        <ele>23</ele>
        <time>2017-07-25T18:02:04Z</time>
      </trkpt>
      <trkpt lat="49.44072" lon="1.14617">
        <ele>23</ele>
        <time>2017-07-25T18:02:04Z</time>
      </trkpt>
      <trkpt lat="49.44072" lon="1.14613">
        <ele>23</ele>
        <time>2017-07-25T18:02:04Z</time>
      </trkpt>
      <trkpt lat="49.44071" lon="1.14607">
        <ele>23</ele>
        <time>2017-07-25T18:02:04Z</time>
      </trkpt>
      <trkpt lat="49.44075" lon="1.14598">
        <ele>23</ele>
        <time>2017-07-25T18:02:05Z</time>
      </trkpt>
      <trkpt lat="49.44079" lon="1.14591">
        <ele>23</ele>
        <time>2017-07-25T18:02:20Z</time>
      </trkpt>
      <trkpt lat="49.44079" lon="1.14586">
        <ele>23</ele>
        <time>2017-07-25T18:02:20Z</time>
      </trkpt>
      <trkpt lat="49.44077" lon="1.1458">
        <ele>23</ele>
        <time>2017-07-25T18:02:20Z</time>
      </trkpt>
      <trkpt lat="49.44076" lon="1.14576">
        <ele>23</ele>
        <time>2017-07-25T18:02:20Z</time>
      </trkpt>
      <trkpt lat="49.4407" lon="1.14568">
        <ele>23</ele>
        <time>2017-07-25T18:02:36Z</time>
      </trkpt>
      <trkpt lat="49.44065" lon="1.14563">
        <ele>23</ele>
        <time>2017-07-25T18:02:36Z</time>
      </trkpt>
      <trkpt lat="49.44057" lon="1.1456">
        <ele>23</ele>
        <time>2017-07-25T18:02:36Z</time>
      </trkpt>
      <trkpt lat="49.44055" lon="1.14558">
        <ele>23</ele>
        <time>2017-07-25T18:02:36Z</time>
      </trkpt>
      <trkpt lat="49.44054" lon="1.14558">
        <ele>23</ele>
        <time>2017-07-25T18:02:52Z</time>
      </trkpt>
      <trkpt lat="49.44048" lon="1.1456">
        <ele>23</ele>
        <time>2017-07-25T18:02:53Z</time>
      </trkpt>
      <trkpt lat="49.44045" lon="1.14565">
        <ele>23</ele>
        <time>2017-07-25T18:02:53Z</time>
      </trkpt>
      <trkpt lat="49.44039" lon="1.14567">
        <ele>21</ele>
        <time>2017-07-25T18:02:53Z</time>
      </trkpt>
      <trkpt lat="49.44036" lon="1.14574">
        <ele>21</ele>
        <time>2017-07-25T18:03:08Z</time>
      </trkpt>
      <trkpt lat="49.44031" lon="1.14576">
        <ele>21</ele>
        <time>2017-07-25T18:03:09Z</time>
      </trkpt>
      <trkpt lat="49.44029" lon="1.14579">
        <ele>21</ele>
        <time>2017-07-25T18:03:09Z</time>
      </trkpt>
      <trkpt lat="49.44029" lon="1.14583">
        <ele>21</ele>
        <time>2017-07-25T18:03:09Z</time>
      </trkpt>
      <trkpt lat="49.44025" lon="1.14582">
        <ele>21</ele>
        <time>2017-07-25T18:03:24Z</time>
      </trkpt>
      <trkpt lat="49.44018" lon="1.14582">
        <ele>21</ele>
        <time>2017-07-25T18:03:24Z</time>
      </trkpt>
      <trkpt lat="49.44009" lon="1.1458">
        <ele>21</ele>
        <time>2017-07-25T18:03:24Z</time>
      </trkpt>
      <trkpt lat="49.44004" lon="1.14578">
        <ele>21</ele>
        <time>2017-07-25T18:03:25Z</time>
      </trkpt>
      <trkpt lat="49.43998" lon="1.1458">
        <ele>21</ele>
        <time>2017-07-25T18:03:40Z</time>
      </trkpt>
      <trkpt lat="49.43995" lon="1.14577">
        <ele>21</ele>
        <time>2017-07-25T18:03:40Z</time>
      </trkpt>
      <trkpt lat="49.43992" lon="1.14576">
        <ele>21</ele>
        <time>2017-07-25T18:03:41Z</time>
      </trkpt>
      <trkpt lat="49.43987" lon="1.14573">
        <ele>21</ele>
        <time>2017-07-25T18:03:41Z</time>
      </trkpt>
      <trkpt lat="49.43981" lon="1.1457">
        <ele>21</ele>
        <time>2017-07-25T18:03:56Z</time>
      </trkpt>
      <trkpt lat="49.43977" lon="1.14567">
        <ele>21</ele>
        <time>2017-07-25T18:03:56Z</time>
      </trkpt>
      <trkpt lat="49.43971" lon="1.14566">
        <ele>21</ele>
        <time>2017-07-25T18:03:56Z</time>
      </trkpt>
      <trkpt lat="49.43966" lon="1.14566">
        <ele>21</ele>
        <time>2017-07-25T18:03:56Z</time>
      </trkpt>
      <trkpt lat="49.43963" lon="1.1456">
        <ele>21</ele>
        <time>2017-07-25T18:04:12Z</time>
      </trkpt>
      <trkpt lat="49.43958" lon="1.14556">
        <ele>19</ele>
        <time>2017-07-25T18:04:12Z</time>
      </trkpt>
      <trkpt lat="49.43955" lon="1.14551">
        <ele>19</ele>
        <time>2017-07-25T18:04:12Z</time>
      </trkpt>
      <trkpt lat="49.43953" lon="1.14547">
        <ele>19</ele>
        <time>2017-07-25T18:04:12Z</time>
      </trkpt>
      <trkpt lat="49.43947" lon="1.14542">
        <ele>19</ele>
        <time>2017-07-25T18:04:28Z</time>
      </trkpt>
      <trkpt lat="49.43945" lon="1.14539">
        <ele>20</ele>
        <time>2017-07-25T18:04:28Z</time>
      </trkpt>
      <trkpt lat="49.43943" lon="1.14535">
        <ele>20</ele>
        <time>2017-07-25T18:04:28Z</time>
      </trkpt>
      <trkpt lat="49.43939" lon="1.14532">
        <ele>20</ele>
        <time>2017-07-25T18:04:28Z</time>
      </trkpt>
      <trkpt lat="49.43934" lon="1.14525">
        <ele>20</ele>
        <time>2017-07-25T18:04:44Z</time>
      </trkpt>
      <trkpt lat="49.4393" lon="1.14524">
        <ele>20</ele>
        <time>2017-07-25T18:04:44Z</time>
      </trkpt>
      <trkpt lat="49.43925" lon="1.14524">
        <ele>20</ele>
        <time>2017-07-25T18:04:44Z</time>
      </trkpt>
      <trkpt lat="49.43923" lon="1.14522">
        <ele>20</ele>
        <time>2017-07-25T18:04:44Z</time>
      </trkpt>
    </trkseg>
  </trk>
</gpx>